<?xml version="1.0" encoding="UTF-8" standalone="no" ?>
<gpx xmlns="http://www.topografix.com/GPX/1/1" xmlns:xsi="http://www.w3.org/2001/XMLSchema-instance" xsi:schemaLocation="http://www.topografix.com/GPX/1/1 http://www.topografix.com/GPX/1/1/gpx.xsd" version="1.1" creator="VisuGPX - https://www.visugpx.com">
  <metadata>
    <name>TREK RCY GR34 2022 J3 Beuzec-Audierne</name>
    <desc><![CDATA[3 ème jour du périple.
Passage par les terres pour rejoindre Audierne
Pas de difficulté à signaler]]></desc>
  </metadata>
  <trk>
    <name><![CDATA[SityTrail - TREK RCY GR34 2022 J3 Beuzec-Audierne]]></name>
    <desc><![CDATA[3 ème jour du périple.
Passage par les terres pour rejoindre Audierne
Pas de difficulté à signaler]]></desc>
    <trkseg>
      <trkpt lat="48.07562" lon="-4.51426">
        <ele>87</ele>
        <time>2022-06-03T06:36:24.373Z</time>
      </trkpt>
      <trkpt lat="48.07565" lon="-4.51414">
        <ele>87</ele>
        <time>2022-06-03T06:36:38.977Z</time>
      </trkpt>
      <trkpt lat="48.07565" lon="-4.51414">
        <ele>87</ele>
        <time>2022-06-03T06:36:43.935Z</time>
      </trkpt>
      <trkpt lat="48.07564" lon="-4.51409">
        <ele>87</ele>
        <time>2022-06-03T06:36:47.954Z</time>
      </trkpt>
      <trkpt lat="48.07563" lon="-4.51406">
        <ele>87</ele>
        <time>2022-06-03T06:36:51.962Z</time>
      </trkpt>
      <trkpt lat="48.07564" lon="-4.51404">
        <ele>87</ele>
        <time>2022-06-03T06:36:55.980Z</time>
      </trkpt>
      <trkpt lat="48.07564" lon="-4.51399">
        <ele>87</ele>
        <time>2022-06-03T06:37:00.961Z</time>
      </trkpt>
      <trkpt lat="48.07566" lon="-4.51393">
        <ele>87</ele>
        <time>2022-06-03T06:37:04.993Z</time>
      </trkpt>
      <trkpt lat="48.07567" lon="-4.51388">
        <ele>87</ele>
        <time>2022-06-03T06:37:09.990Z</time>
      </trkpt>
      <trkpt lat="48.07569" lon="-4.51381">
        <ele>87</ele>
        <time>2022-06-03T06:37:14.999Z</time>
      </trkpt>
      <trkpt lat="48.0757" lon="-4.51376">
        <ele>89</ele>
        <time>2022-06-03T06:37:19.991Z</time>
      </trkpt>
      <trkpt lat="48.07571" lon="-4.5137">
        <ele>88</ele>
        <time>2022-06-03T06:37:24.966Z</time>
      </trkpt>
      <trkpt lat="48.07572" lon="-4.51366">
        <ele>88</ele>
        <time>2022-06-03T06:37:28.969Z</time>
      </trkpt>
      <trkpt lat="48.07572" lon="-4.51361">
        <ele>88</ele>
        <time>2022-06-03T06:37:33.978Z</time>
      </trkpt>
      <trkpt lat="48.07568" lon="-4.51357">
        <ele>86</ele>
        <time>2022-06-03T06:38:20.945Z</time>
      </trkpt>
      <trkpt lat="48.07564" lon="-4.5135">
        <ele>86</ele>
        <time>2022-06-03T06:38:25.937Z</time>
      </trkpt>
      <trkpt lat="48.07562" lon="-4.51341">
        <ele>87</ele>
        <time>2022-06-03T06:38:29.938Z</time>
      </trkpt>
      <trkpt lat="48.07561" lon="-4.51333">
        <ele>87</ele>
        <time>2022-06-03T06:38:33.942Z</time>
      </trkpt>
      <trkpt lat="48.07561" lon="-4.51326">
        <ele>87</ele>
        <time>2022-06-03T06:38:37.947Z</time>
      </trkpt>
      <trkpt lat="48.07561" lon="-4.51318">
        <ele>87</ele>
        <time>2022-06-03T06:38:41.943Z</time>
      </trkpt>
      <trkpt lat="48.07563" lon="-4.51308">
        <ele>87</ele>
        <time>2022-06-03T06:38:46.950Z</time>
      </trkpt>
      <trkpt lat="48.07562" lon="-4.51302">
        <ele>87</ele>
        <time>2022-06-03T06:38:50.939Z</time>
      </trkpt>
      <trkpt lat="48.07561" lon="-4.51293">
        <ele>87</ele>
        <time>2022-06-03T06:38:55.939Z</time>
      </trkpt>
      <trkpt lat="48.0756" lon="-4.51284">
        <ele>89</ele>
        <time>2022-06-03T06:39:00.946Z</time>
      </trkpt>
      <trkpt lat="48.0756" lon="-4.51273">
        <ele>89</ele>
        <time>2022-06-03T06:39:05.960Z</time>
      </trkpt>
      <trkpt lat="48.07561" lon="-4.51264">
        <ele>89</ele>
        <time>2022-06-03T06:39:10.937Z</time>
      </trkpt>
      <trkpt lat="48.0756" lon="-4.51256">
        <ele>90</ele>
        <time>2022-06-03T06:39:15.945Z</time>
      </trkpt>
      <trkpt lat="48.07558" lon="-4.51248">
        <ele>90</ele>
        <time>2022-06-03T06:39:20.940Z</time>
      </trkpt>
      <trkpt lat="48.07555" lon="-4.5124">
        <ele>90</ele>
        <time>2022-06-03T06:39:25.945Z</time>
      </trkpt>
      <trkpt lat="48.07557" lon="-4.51233">
        <ele>92</ele>
        <time>2022-06-03T06:39:29.951Z</time>
      </trkpt>
      <trkpt lat="48.07559" lon="-4.51222">
        <ele>92</ele>
        <time>2022-06-03T06:39:34.951Z</time>
      </trkpt>
      <trkpt lat="48.07561" lon="-4.51214">
        <ele>92</ele>
        <time>2022-06-03T06:39:39.950Z</time>
      </trkpt>
      <trkpt lat="48.07561" lon="-4.51208">
        <ele>93</ele>
        <time>2022-06-03T06:39:43.943Z</time>
      </trkpt>
      <trkpt lat="48.07561" lon="-4.51203">
        <ele>93</ele>
        <time>2022-06-03T06:39:48.944Z</time>
      </trkpt>
      <trkpt lat="48.07559" lon="-4.51198">
        <ele>93</ele>
        <time>2022-06-03T06:39:52.944Z</time>
      </trkpt>
      <trkpt lat="48.0755" lon="-4.51196">
        <ele>93</ele>
        <time>2022-06-03T06:40:30.952Z</time>
      </trkpt>
      <trkpt lat="48.07548" lon="-4.51196">
        <ele>93</ele>
        <time>2022-06-03T06:40:35.945Z</time>
      </trkpt>
      <trkpt lat="48.07545" lon="-4.51196">
        <ele>93</ele>
        <time>2022-06-03T06:40:40.933Z</time>
      </trkpt>
      <trkpt lat="48.07541" lon="-4.51193">
        <ele>91</ele>
        <time>2022-06-03T06:40:44.938Z</time>
      </trkpt>
      <trkpt lat="48.07539" lon="-4.5119">
        <ele>91</ele>
        <time>2022-06-03T06:40:49.972Z</time>
      </trkpt>
      <trkpt lat="48.07536" lon="-4.51188">
        <ele>91</ele>
        <time>2022-06-03T06:40:53.998Z</time>
      </trkpt>
      <trkpt lat="48.07532" lon="-4.51188">
        <ele>91</ele>
        <time>2022-06-03T06:40:58.966Z</time>
      </trkpt>
      <trkpt lat="48.07527" lon="-4.51187">
        <ele>91</ele>
        <time>2022-06-03T06:41:03.956Z</time>
      </trkpt>
      <trkpt lat="48.07522" lon="-4.51185">
        <ele>91</ele>
        <time>2022-06-03T06:41:08.938Z</time>
      </trkpt>
      <trkpt lat="48.07518" lon="-4.51183">
        <ele>91</ele>
        <time>2022-06-03T06:41:12.942Z</time>
      </trkpt>
      <trkpt lat="48.07515" lon="-4.51179">
        <ele>91</ele>
        <time>2022-06-03T06:41:17.963Z</time>
      </trkpt>
      <trkpt lat="48.07512" lon="-4.51175">
        <ele>90</ele>
        <time>2022-06-03T06:41:21.976Z</time>
      </trkpt>
      <trkpt lat="48.0751" lon="-4.51171">
        <ele>90</ele>
        <time>2022-06-03T06:41:25.977Z</time>
      </trkpt>
      <trkpt lat="48.07509" lon="-4.51164">
        <ele>90</ele>
        <time>2022-06-03T06:41:30.965Z</time>
      </trkpt>
      <trkpt lat="48.07507" lon="-4.51162">
        <ele>90</ele>
        <time>2022-06-03T06:41:34.987Z</time>
      </trkpt>
      <trkpt lat="48.07503" lon="-4.5116">
        <ele>90</ele>
        <time>2022-06-03T06:41:38.965Z</time>
      </trkpt>
      <trkpt lat="48.07498" lon="-4.51156">
        <ele>90</ele>
        <time>2022-06-03T06:41:43.953Z</time>
      </trkpt>
      <trkpt lat="48.07494" lon="-4.51152">
        <ele>90</ele>
        <time>2022-06-03T06:41:48.994Z</time>
      </trkpt>
      <trkpt lat="48.07488" lon="-4.51148">
        <ele>90</ele>
        <time>2022-06-03T06:41:53.964Z</time>
      </trkpt>
      <trkpt lat="48.07484" lon="-4.51145">
        <ele>89</ele>
        <time>2022-06-03T06:41:58.964Z</time>
      </trkpt>
      <trkpt lat="48.07478" lon="-4.51142">
        <ele>89</ele>
        <time>2022-06-03T06:42:03.969Z</time>
      </trkpt>
      <trkpt lat="48.07475" lon="-4.51137">
        <ele>89</ele>
        <time>2022-06-03T06:42:07.955Z</time>
      </trkpt>
      <trkpt lat="48.0747" lon="-4.51132">
        <ele>89</ele>
        <time>2022-06-03T06:42:12.941Z</time>
      </trkpt>
      <trkpt lat="48.07467" lon="-4.51128">
        <ele>89</ele>
        <time>2022-06-03T06:42:16.966Z</time>
      </trkpt>
      <trkpt lat="48.07463" lon="-4.51124">
        <ele>88</ele>
        <time>2022-06-03T06:42:21.967Z</time>
      </trkpt>
      <trkpt lat="48.07458" lon="-4.51117">
        <ele>86</ele>
        <time>2022-06-03T06:42:26.981Z</time>
      </trkpt>
      <trkpt lat="48.07454" lon="-4.51113">
        <ele>86</ele>
        <time>2022-06-03T06:42:30.980Z</time>
      </trkpt>
      <trkpt lat="48.0745" lon="-4.51109">
        <ele>86</ele>
        <time>2022-06-03T06:42:35.985Z</time>
      </trkpt>
      <trkpt lat="48.07446" lon="-4.51105">
        <ele>86</ele>
        <time>2022-06-03T06:42:40.982Z</time>
      </trkpt>
      <trkpt lat="48.07441" lon="-4.511">
        <ele>86</ele>
        <time>2022-06-03T06:42:45.957Z</time>
      </trkpt>
      <trkpt lat="48.07439" lon="-4.51095">
        <ele>86</ele>
        <time>2022-06-03T06:42:50.006Z</time>
      </trkpt>
      <trkpt lat="48.07436" lon="-4.51091">
        <ele>86</ele>
        <time>2022-06-03T06:42:54.984Z</time>
      </trkpt>
      <trkpt lat="48.07432" lon="-4.51088">
        <ele>86</ele>
        <time>2022-06-03T06:42:59.998Z</time>
      </trkpt>
      <trkpt lat="48.07429" lon="-4.51085">
        <ele>83</ele>
        <time>2022-06-03T06:43:04.958Z</time>
      </trkpt>
      <trkpt lat="48.07425" lon="-4.51082">
        <ele>83</ele>
        <time>2022-06-03T06:43:08.981Z</time>
      </trkpt>
      <trkpt lat="48.0742" lon="-4.51078">
        <ele>83</ele>
        <time>2022-06-03T06:43:13.975Z</time>
      </trkpt>
      <trkpt lat="48.07416" lon="-4.51076">
        <ele>83</ele>
        <time>2022-06-03T06:43:18.974Z</time>
      </trkpt>
      <trkpt lat="48.07413" lon="-4.51073">
        <ele>83</ele>
        <time>2022-06-03T06:43:22.980Z</time>
      </trkpt>
      <trkpt lat="48.07407" lon="-4.51069">
        <ele>83</ele>
        <time>2022-06-03T06:43:27.990Z</time>
      </trkpt>
      <trkpt lat="48.07402" lon="-4.51064">
        <ele>81</ele>
        <time>2022-06-03T06:43:32.972Z</time>
      </trkpt>
      <trkpt lat="48.07398" lon="-4.51062">
        <ele>81</ele>
        <time>2022-06-03T06:43:36.974Z</time>
      </trkpt>
      <trkpt lat="48.07393" lon="-4.51057">
        <ele>81</ele>
        <time>2022-06-03T06:43:41.972Z</time>
      </trkpt>
      <trkpt lat="48.07389" lon="-4.51053">
        <ele>81</ele>
        <time>2022-06-03T06:43:46.989Z</time>
      </trkpt>
      <trkpt lat="48.07384" lon="-4.51049">
        <ele>81</ele>
        <time>2022-06-03T06:43:51.969Z</time>
      </trkpt>
      <trkpt lat="48.0738" lon="-4.51045">
        <ele>81</ele>
        <time>2022-06-03T06:43:56.978Z</time>
      </trkpt>
      <trkpt lat="48.07376" lon="-4.51043">
        <ele>81</ele>
        <time>2022-06-03T06:44:00.968Z</time>
      </trkpt>
      <trkpt lat="48.0737" lon="-4.5104">
        <ele>78</ele>
        <time>2022-06-03T06:44:05.946Z</time>
      </trkpt>
      <trkpt lat="48.07366" lon="-4.51038">
        <ele>78</ele>
        <time>2022-06-03T06:44:09.985Z</time>
      </trkpt>
      <trkpt lat="48.07364" lon="-4.51035">
        <ele>78</ele>
        <time>2022-06-03T06:44:13.982Z</time>
      </trkpt>
      <trkpt lat="48.0736" lon="-4.51034">
        <ele>78</ele>
        <time>2022-06-03T06:44:18.979Z</time>
      </trkpt>
      <trkpt lat="48.07357" lon="-4.51033">
        <ele>78</ele>
        <time>2022-06-03T06:44:23.959Z</time>
      </trkpt>
      <trkpt lat="48.07353" lon="-4.51031">
        <ele>78</ele>
        <time>2022-06-03T06:44:27.963Z</time>
      </trkpt>
      <trkpt lat="48.0735" lon="-4.51029">
        <ele>78</ele>
        <time>2022-06-03T06:44:31.974Z</time>
      </trkpt>
      <trkpt lat="48.07344" lon="-4.51027">
        <ele>77</ele>
        <time>2022-06-03T06:44:36.976Z</time>
      </trkpt>
      <trkpt lat="48.0734" lon="-4.51025">
        <ele>77</ele>
        <time>2022-06-03T06:44:41.984Z</time>
      </trkpt>
      <trkpt lat="48.07333" lon="-4.51022">
        <ele>77</ele>
        <time>2022-06-03T06:44:46.998Z</time>
      </trkpt>
      <trkpt lat="48.07327" lon="-4.51019">
        <ele>77</ele>
        <time>2022-06-03T06:44:51.986Z</time>
      </trkpt>
      <trkpt lat="48.07318" lon="-4.51015">
        <ele>77</ele>
        <time>2022-06-03T06:44:56.967Z</time>
      </trkpt>
      <trkpt lat="48.07312" lon="-4.51011">
        <ele>77</ele>
        <time>2022-06-03T06:45:00.979Z</time>
      </trkpt>
      <trkpt lat="48.07306" lon="-4.51006">
        <ele>77</ele>
        <time>2022-06-03T06:45:05.977Z</time>
      </trkpt>
      <trkpt lat="48.073" lon="-4.51004">
        <ele>77</ele>
        <time>2022-06-03T06:45:10.960Z</time>
      </trkpt>
      <trkpt lat="48.07294" lon="-4.51002">
        <ele>77</ele>
        <time>2022-06-03T06:45:14.969Z</time>
      </trkpt>
      <trkpt lat="48.07287" lon="-4.51002">
        <ele>77</ele>
        <time>2022-06-03T06:45:19.984Z</time>
      </trkpt>
      <trkpt lat="48.07283" lon="-4.51">
        <ele>77</ele>
        <time>2022-06-03T06:45:24.982Z</time>
      </trkpt>
      <trkpt lat="48.07279" lon="-4.50998">
        <ele>77</ele>
        <time>2022-06-03T06:45:29.974Z</time>
      </trkpt>
      <trkpt lat="48.07279" lon="-4.50997">
        <ele>77</ele>
        <time>2022-06-03T06:45:34.968Z</time>
      </trkpt>
      <trkpt lat="48.07278" lon="-4.50994">
        <ele>77</ele>
        <time>2022-06-03T06:45:38.977Z</time>
      </trkpt>
      <trkpt lat="48.07276" lon="-4.50988">
        <ele>77</ele>
        <time>2022-06-03T06:45:42.988Z</time>
      </trkpt>
      <trkpt lat="48.07272" lon="-4.5098">
        <ele>77</ele>
        <time>2022-06-03T06:45:47.969Z</time>
      </trkpt>
      <trkpt lat="48.07268" lon="-4.50969">
        <ele>77</ele>
        <time>2022-06-03T06:45:52.964Z</time>
      </trkpt>
      <trkpt lat="48.07265" lon="-4.50961">
        <ele>77</ele>
        <time>2022-06-03T06:45:56.992Z</time>
      </trkpt>
      <trkpt lat="48.07262" lon="-4.50951">
        <ele>76</ele>
        <time>2022-06-03T06:46:01.958Z</time>
      </trkpt>
      <trkpt lat="48.0726" lon="-4.50944">
        <ele>76</ele>
        <time>2022-06-03T06:46:05.972Z</time>
      </trkpt>
      <trkpt lat="48.07257" lon="-4.50936">
        <ele>76</ele>
        <time>2022-06-03T06:46:10.985Z</time>
      </trkpt>
      <trkpt lat="48.07253" lon="-4.50928">
        <ele>77</ele>
        <time>2022-06-03T06:46:15.989Z</time>
      </trkpt>
      <trkpt lat="48.07249" lon="-4.5092">
        <ele>77</ele>
        <time>2022-06-03T06:46:20.969Z</time>
      </trkpt>
      <trkpt lat="48.07246" lon="-4.50915">
        <ele>77</ele>
        <time>2022-06-03T06:46:25.988Z</time>
      </trkpt>
      <trkpt lat="48.07243" lon="-4.50908">
        <ele>77</ele>
        <time>2022-06-03T06:46:30.983Z</time>
      </trkpt>
      <trkpt lat="48.07239" lon="-4.50902">
        <ele>78</ele>
        <time>2022-06-03T06:46:35.981Z</time>
      </trkpt>
      <trkpt lat="48.07236" lon="-4.50895">
        <ele>78</ele>
        <time>2022-06-03T06:46:40.964Z</time>
      </trkpt>
      <trkpt lat="48.07235" lon="-4.50891">
        <ele>78</ele>
        <time>2022-06-03T06:46:44.976Z</time>
      </trkpt>
      <trkpt lat="48.07231" lon="-4.50887">
        <ele>78</ele>
        <time>2022-06-03T06:46:49.966Z</time>
      </trkpt>
      <trkpt lat="48.0723" lon="-4.50881">
        <ele>78</ele>
        <time>2022-06-03T06:46:54.953Z</time>
      </trkpt>
      <trkpt lat="48.07229" lon="-4.50875">
        <ele>78</ele>
        <time>2022-06-03T06:46:58.983Z</time>
      </trkpt>
      <trkpt lat="48.07225" lon="-4.5087">
        <ele>78</ele>
        <time>2022-06-03T06:47:03.965Z</time>
      </trkpt>
      <trkpt lat="48.07221" lon="-4.50864">
        <ele>78</ele>
        <time>2022-06-03T06:47:08.986Z</time>
      </trkpt>
      <trkpt lat="48.07218" lon="-4.50858">
        <ele>78</ele>
        <time>2022-06-03T06:47:13.973Z</time>
      </trkpt>
      <trkpt lat="48.07216" lon="-4.50851">
        <ele>78</ele>
        <time>2022-06-03T06:47:17.998Z</time>
      </trkpt>
      <trkpt lat="48.07213" lon="-4.50846">
        <ele>78</ele>
        <time>2022-06-03T06:47:22.971Z</time>
      </trkpt>
      <trkpt lat="48.07212" lon="-4.50839">
        <ele>78</ele>
        <time>2022-06-03T06:47:26.992Z</time>
      </trkpt>
      <trkpt lat="48.07208" lon="-4.5083">
        <ele>77</ele>
        <time>2022-06-03T06:47:31.971Z</time>
      </trkpt>
      <trkpt lat="48.07205" lon="-4.50823">
        <ele>77</ele>
        <time>2022-06-03T06:47:36.970Z</time>
      </trkpt>
      <trkpt lat="48.07202" lon="-4.50817">
        <ele>76</ele>
        <time>2022-06-03T06:47:40.986Z</time>
      </trkpt>
      <trkpt lat="48.07198" lon="-4.5081">
        <ele>76</ele>
        <time>2022-06-03T06:47:45.999Z</time>
      </trkpt>
      <trkpt lat="48.07193" lon="-4.50805">
        <ele>76</ele>
        <time>2022-06-03T06:47:50.980Z</time>
      </trkpt>
      <trkpt lat="48.0719" lon="-4.50798">
        <ele>76</ele>
        <time>2022-06-03T06:47:55.978Z</time>
      </trkpt>
      <trkpt lat="48.07187" lon="-4.50791">
        <ele>76</ele>
        <time>2022-06-03T06:47:59.981Z</time>
      </trkpt>
      <trkpt lat="48.07184" lon="-4.50783">
        <ele>76</ele>
        <time>2022-06-03T06:48:04.979Z</time>
      </trkpt>
      <trkpt lat="48.0718" lon="-4.50776">
        <ele>75</ele>
        <time>2022-06-03T06:48:09.988Z</time>
      </trkpt>
      <trkpt lat="48.07177" lon="-4.50771">
        <ele>75</ele>
        <time>2022-06-03T06:48:13.992Z</time>
      </trkpt>
      <trkpt lat="48.07173" lon="-4.50764">
        <ele>75</ele>
        <time>2022-06-03T06:48:18.975Z</time>
      </trkpt>
      <trkpt lat="48.0717" lon="-4.50756">
        <ele>76</ele>
        <time>2022-06-03T06:48:23.975Z</time>
      </trkpt>
      <trkpt lat="48.07168" lon="-4.50751">
        <ele>76</ele>
        <time>2022-06-03T06:48:27.996Z</time>
      </trkpt>
      <trkpt lat="48.07165" lon="-4.50744">
        <ele>76</ele>
        <time>2022-06-03T06:48:32.999Z</time>
      </trkpt>
      <trkpt lat="48.07161" lon="-4.50737">
        <ele>76</ele>
        <time>2022-06-03T06:48:37.950Z</time>
      </trkpt>
      <trkpt lat="48.07157" lon="-4.50729">
        <ele>77</ele>
        <time>2022-06-03T06:48:41.981Z</time>
      </trkpt>
      <trkpt lat="48.07152" lon="-4.50723">
        <ele>78</ele>
        <time>2022-06-03T06:48:46.991Z</time>
      </trkpt>
      <trkpt lat="48.07149" lon="-4.50717">
        <ele>78</ele>
        <time>2022-06-03T06:48:51.990Z</time>
      </trkpt>
      <trkpt lat="48.07144" lon="-4.50709">
        <ele>78</ele>
        <time>2022-06-03T06:48:56.971Z</time>
      </trkpt>
      <trkpt lat="48.0714" lon="-4.50703">
        <ele>79</ele>
        <time>2022-06-03T06:49:01.966Z</time>
      </trkpt>
      <trkpt lat="48.07136" lon="-4.50698">
        <ele>79</ele>
        <time>2022-06-03T06:49:05.996Z</time>
      </trkpt>
      <trkpt lat="48.07132" lon="-4.5069">
        <ele>79</ele>
        <time>2022-06-03T06:49:10.971Z</time>
      </trkpt>
      <trkpt lat="48.07128" lon="-4.50685">
        <ele>79</ele>
        <time>2022-06-03T06:49:14.981Z</time>
      </trkpt>
      <trkpt lat="48.07124" lon="-4.50677">
        <ele>78</ele>
        <time>2022-06-03T06:49:19.974Z</time>
      </trkpt>
      <trkpt lat="48.0712" lon="-4.5067">
        <ele>78</ele>
        <time>2022-06-03T06:49:24.994Z</time>
      </trkpt>
      <trkpt lat="48.07117" lon="-4.50666">
        <ele>78</ele>
        <time>2022-06-03T06:49:29.958Z</time>
      </trkpt>
      <trkpt lat="48.07113" lon="-4.5066">
        <ele>78</ele>
        <time>2022-06-03T06:49:34.990Z</time>
      </trkpt>
      <trkpt lat="48.07111" lon="-4.50654">
        <ele>78</ele>
        <time>2022-06-03T06:49:39.986Z</time>
      </trkpt>
      <trkpt lat="48.07107" lon="-4.50649">
        <ele>78</ele>
        <time>2022-06-03T06:49:43.996Z</time>
      </trkpt>
      <trkpt lat="48.07102" lon="-4.50643">
        <ele>78</ele>
        <time>2022-06-03T06:49:49.015Z</time>
      </trkpt>
      <trkpt lat="48.07097" lon="-4.50636">
        <ele>77</ele>
        <time>2022-06-03T06:49:53.963Z</time>
      </trkpt>
      <trkpt lat="48.07094" lon="-4.5063">
        <ele>77</ele>
        <time>2022-06-03T06:49:58.002Z</time>
      </trkpt>
      <trkpt lat="48.07089" lon="-4.50625">
        <ele>77</ele>
        <time>2022-06-03T06:50:02.999Z</time>
      </trkpt>
      <trkpt lat="48.07085" lon="-4.50619">
        <ele>76</ele>
        <time>2022-06-03T06:50:07.977Z</time>
      </trkpt>
      <trkpt lat="48.07082" lon="-4.50615">
        <ele>76</ele>
        <time>2022-06-03T06:50:11.967Z</time>
      </trkpt>
      <trkpt lat="48.07078" lon="-4.50609">
        <ele>76</ele>
        <time>2022-06-03T06:50:16.949Z</time>
      </trkpt>
      <trkpt lat="48.07074" lon="-4.50606">
        <ele>76</ele>
        <time>2022-06-03T06:50:20.960Z</time>
      </trkpt>
      <trkpt lat="48.0707" lon="-4.50603">
        <ele>76</ele>
        <time>2022-06-03T06:50:24.988Z</time>
      </trkpt>
      <trkpt lat="48.07067" lon="-4.50599">
        <ele>77</ele>
        <time>2022-06-03T06:50:28.989Z</time>
      </trkpt>
      <trkpt lat="48.07063" lon="-4.50594">
        <ele>77</ele>
        <time>2022-06-03T06:50:33.974Z</time>
      </trkpt>
      <trkpt lat="48.07057" lon="-4.50589">
        <ele>77</ele>
        <time>2022-06-03T06:50:38.965Z</time>
      </trkpt>
      <trkpt lat="48.07053" lon="-4.50587">
        <ele>77</ele>
        <time>2022-06-03T06:50:42.988Z</time>
      </trkpt>
      <trkpt lat="48.07047" lon="-4.50582">
        <ele>77</ele>
        <time>2022-06-03T06:50:47.953Z</time>
      </trkpt>
      <trkpt lat="48.07042" lon="-4.50578">
        <ele>79</ele>
        <time>2022-06-03T06:50:51.985Z</time>
      </trkpt>
      <trkpt lat="48.07037" lon="-4.50574">
        <ele>79</ele>
        <time>2022-06-03T06:50:56.981Z</time>
      </trkpt>
      <trkpt lat="48.07032" lon="-4.50571">
        <ele>79</ele>
        <time>2022-06-03T06:51:01.974Z</time>
      </trkpt>
      <trkpt lat="48.07026" lon="-4.50567">
        <ele>79</ele>
        <time>2022-06-03T06:51:06.971Z</time>
      </trkpt>
      <trkpt lat="48.0702" lon="-4.50563">
        <ele>79</ele>
        <time>2022-06-03T06:51:12Z</time>
      </trkpt>
      <trkpt lat="48.07013" lon="-4.50559">
        <ele>80</ele>
        <time>2022-06-03T06:51:17.016Z</time>
      </trkpt>
      <trkpt lat="48.07006" lon="-4.50556">
        <ele>80</ele>
        <time>2022-06-03T06:51:21.978Z</time>
      </trkpt>
      <trkpt lat="48.07001" lon="-4.50552">
        <ele>80</ele>
        <time>2022-06-03T06:51:26.991Z</time>
      </trkpt>
      <trkpt lat="48.06994" lon="-4.50548">
        <ele>80</ele>
        <time>2022-06-03T06:51:31.980Z</time>
      </trkpt>
      <trkpt lat="48.06991" lon="-4.50541">
        <ele>80</ele>
        <time>2022-06-03T06:51:36.939Z</time>
      </trkpt>
      <trkpt lat="48.0699" lon="-4.50534">
        <ele>80</ele>
        <time>2022-06-03T06:51:40.979Z</time>
      </trkpt>
      <trkpt lat="48.0699" lon="-4.50526">
        <ele>80</ele>
        <time>2022-06-03T06:51:44.989Z</time>
      </trkpt>
      <trkpt lat="48.06988" lon="-4.50518">
        <ele>80</ele>
        <time>2022-06-03T06:51:49.993Z</time>
      </trkpt>
      <trkpt lat="48.06987" lon="-4.50511">
        <ele>79</ele>
        <time>2022-06-03T06:51:54.978Z</time>
      </trkpt>
      <trkpt lat="48.06985" lon="-4.50503">
        <ele>78</ele>
        <time>2022-06-03T06:51:59.973Z</time>
      </trkpt>
      <trkpt lat="48.06985" lon="-4.50496">
        <ele>78</ele>
        <time>2022-06-03T06:52:03.978Z</time>
      </trkpt>
      <trkpt lat="48.06983" lon="-4.50484">
        <ele>76</ele>
        <time>2022-06-03T06:52:08.970Z</time>
      </trkpt>
      <trkpt lat="48.06981" lon="-4.50473">
        <ele>76</ele>
        <time>2022-06-03T06:52:13.986Z</time>
      </trkpt>
      <trkpt lat="48.06979" lon="-4.50463">
        <ele>76</ele>
        <time>2022-06-03T06:52:18.002Z</time>
      </trkpt>
      <trkpt lat="48.06978" lon="-4.50451">
        <ele>75</ele>
        <time>2022-06-03T06:52:22.962Z</time>
      </trkpt>
      <trkpt lat="48.06978" lon="-4.50445">
        <ele>75</ele>
        <time>2022-06-03T06:52:26.995Z</time>
      </trkpt>
      <trkpt lat="48.06978" lon="-4.50438">
        <ele>75</ele>
        <time>2022-06-03T06:52:31.986Z</time>
      </trkpt>
      <trkpt lat="48.06978" lon="-4.50432">
        <ele>75</ele>
        <time>2022-06-03T06:52:36.001Z</time>
      </trkpt>
      <trkpt lat="48.06978" lon="-4.50424">
        <ele>73</ele>
        <time>2022-06-03T06:52:40.988Z</time>
      </trkpt>
      <trkpt lat="48.06976" lon="-4.50417">
        <ele>73</ele>
        <time>2022-06-03T06:52:45.003Z</time>
      </trkpt>
      <trkpt lat="48.06976" lon="-4.5041">
        <ele>73</ele>
        <time>2022-06-03T06:52:50Z</time>
      </trkpt>
      <trkpt lat="48.06974" lon="-4.50404">
        <ele>73</ele>
        <time>2022-06-03T06:52:54.994Z</time>
      </trkpt>
      <trkpt lat="48.06971" lon="-4.504">
        <ele>72</ele>
        <time>2022-06-03T06:52:58.985Z</time>
      </trkpt>
      <trkpt lat="48.06968" lon="-4.50395">
        <ele>72</ele>
        <time>2022-06-03T06:53:03.981Z</time>
      </trkpt>
      <trkpt lat="48.06965" lon="-4.5039">
        <ele>72</ele>
        <time>2022-06-03T06:53:07.978Z</time>
      </trkpt>
      <trkpt lat="48.06963" lon="-4.50386">
        <ele>72</ele>
        <time>2022-06-03T06:53:11.971Z</time>
      </trkpt>
      <trkpt lat="48.06961" lon="-4.5038">
        <ele>72</ele>
        <time>2022-06-03T06:53:16.976Z</time>
      </trkpt>
      <trkpt lat="48.06958" lon="-4.50374">
        <ele>72</ele>
        <time>2022-06-03T06:53:20.983Z</time>
      </trkpt>
      <trkpt lat="48.06957" lon="-4.50368">
        <ele>74</ele>
        <time>2022-06-03T06:53:25.987Z</time>
      </trkpt>
      <trkpt lat="48.06953" lon="-4.5036">
        <ele>74</ele>
        <time>2022-06-03T06:53:31Z</time>
      </trkpt>
      <trkpt lat="48.06948" lon="-4.50353">
        <ele>74</ele>
        <time>2022-06-03T06:53:35.984Z</time>
      </trkpt>
      <trkpt lat="48.06946" lon="-4.50348">
        <ele>74</ele>
        <time>2022-06-03T06:53:39.991Z</time>
      </trkpt>
      <trkpt lat="48.06942" lon="-4.50342">
        <ele>74</ele>
        <time>2022-06-03T06:53:45.010Z</time>
      </trkpt>
      <trkpt lat="48.06939" lon="-4.50334">
        <ele>74</ele>
        <time>2022-06-03T06:53:50Z</time>
      </trkpt>
      <trkpt lat="48.06937" lon="-4.50326">
        <ele>74</ele>
        <time>2022-06-03T06:53:54.974Z</time>
      </trkpt>
      <trkpt lat="48.06936" lon="-4.50319">
        <ele>73</ele>
        <time>2022-06-03T06:53:59.024Z</time>
      </trkpt>
      <trkpt lat="48.06932" lon="-4.50314">
        <ele>73</ele>
        <time>2022-06-03T06:54:03.984Z</time>
      </trkpt>
      <trkpt lat="48.06929" lon="-4.50313">
        <ele>73</ele>
        <time>2022-06-03T06:54:08.010Z</time>
      </trkpt>
      <trkpt lat="48.06924" lon="-4.50311">
        <ele>73</ele>
        <time>2022-06-03T06:54:13.004Z</time>
      </trkpt>
      <trkpt lat="48.06919" lon="-4.50305">
        <ele>73</ele>
        <time>2022-06-03T06:54:18.013Z</time>
      </trkpt>
      <trkpt lat="48.06912" lon="-4.50302">
        <ele>73</ele>
        <time>2022-06-03T06:54:23.010Z</time>
      </trkpt>
      <trkpt lat="48.06905" lon="-4.50299">
        <ele>73</ele>
        <time>2022-06-03T06:54:28.004Z</time>
      </trkpt>
      <trkpt lat="48.06898" lon="-4.50295">
        <ele>72</ele>
        <time>2022-06-03T06:54:32.967Z</time>
      </trkpt>
      <trkpt lat="48.06891" lon="-4.50291">
        <ele>71</ele>
        <time>2022-06-03T06:54:37.937Z</time>
      </trkpt>
      <trkpt lat="48.06887" lon="-4.50285">
        <ele>71</ele>
        <time>2022-06-03T06:54:41.944Z</time>
      </trkpt>
      <trkpt lat="48.06882" lon="-4.50285">
        <ele>71</ele>
        <time>2022-06-03T06:54:46.943Z</time>
      </trkpt>
      <trkpt lat="48.06874" lon="-4.50282">
        <ele>70</ele>
        <time>2022-06-03T06:54:51.947Z</time>
      </trkpt>
      <trkpt lat="48.06861" lon="-4.50274">
        <ele>70</ele>
        <time>2022-06-03T06:55:49.941Z</time>
      </trkpt>
      <trkpt lat="48.0686" lon="-4.50274">
        <ele>70</ele>
        <time>2022-06-03T06:55:53.941Z</time>
      </trkpt>
      <trkpt lat="48.06857" lon="-4.50273">
        <ele>70</ele>
        <time>2022-06-03T06:55:58.948Z</time>
      </trkpt>
      <trkpt lat="48.06855" lon="-4.5027">
        <ele>70</ele>
        <time>2022-06-03T06:56:02.947Z</time>
      </trkpt>
      <trkpt lat="48.06854" lon="-4.5027">
        <ele>70</ele>
        <time>2022-06-03T06:56:06.944Z</time>
      </trkpt>
      <trkpt lat="48.06852" lon="-4.50262">
        <ele>69</ele>
        <time>2022-06-03T06:57:01.967Z</time>
      </trkpt>
      <trkpt lat="48.06855" lon="-4.50261">
        <ele>69</ele>
        <time>2022-06-03T06:57:05.966Z</time>
      </trkpt>
      <trkpt lat="48.06854" lon="-4.50252">
        <ele>69</ele>
        <time>2022-06-03T06:57:10.950Z</time>
      </trkpt>
      <trkpt lat="48.06854" lon="-4.50243">
        <ele>69</ele>
        <time>2022-06-03T06:57:15.948Z</time>
      </trkpt>
      <trkpt lat="48.06851" lon="-4.50239">
        <ele>69</ele>
        <time>2022-06-03T06:57:19.937Z</time>
      </trkpt>
      <trkpt lat="48.06847" lon="-4.50235">
        <ele>67</ele>
        <time>2022-06-03T06:57:23.949Z</time>
      </trkpt>
      <trkpt lat="48.06845" lon="-4.50233">
        <ele>67</ele>
        <time>2022-06-03T06:57:28.940Z</time>
      </trkpt>
      <trkpt lat="48.0684" lon="-4.50232">
        <ele>67</ele>
        <time>2022-06-03T06:57:33.941Z</time>
      </trkpt>
      <trkpt lat="48.06838" lon="-4.50238">
        <ele>67</ele>
        <time>2022-06-03T06:57:38.946Z</time>
      </trkpt>
      <trkpt lat="48.06831" lon="-4.50246">
        <ele>67</ele>
        <time>2022-06-03T06:58:01.941Z</time>
      </trkpt>
      <trkpt lat="48.0683" lon="-4.50246">
        <ele>67</ele>
        <time>2022-06-03T06:58:05.953Z</time>
      </trkpt>
      <trkpt lat="48.06828" lon="-4.50239">
        <ele>67</ele>
        <time>2022-06-03T06:58:10.949Z</time>
      </trkpt>
      <trkpt lat="48.06828" lon="-4.50236">
        <ele>67</ele>
        <time>2022-06-03T06:58:15.938Z</time>
      </trkpt>
      <trkpt lat="48.06826" lon="-4.50235">
        <ele>67</ele>
        <time>2022-06-03T06:58:19.950Z</time>
      </trkpt>
      <trkpt lat="48.06824" lon="-4.50231">
        <ele>67</ele>
        <time>2022-06-03T06:58:23.948Z</time>
      </trkpt>
      <trkpt lat="48.06825" lon="-4.50226">
        <ele>67</ele>
        <time>2022-06-03T06:58:27.951Z</time>
      </trkpt>
      <trkpt lat="48.06824" lon="-4.50222">
        <ele>67</ele>
        <time>2022-06-03T06:58:32.941Z</time>
      </trkpt>
      <trkpt lat="48.06824" lon="-4.50219">
        <ele>67</ele>
        <time>2022-06-03T06:58:36.955Z</time>
      </trkpt>
      <trkpt lat="48.06825" lon="-4.50215">
        <ele>67</ele>
        <time>2022-06-03T06:58:41.951Z</time>
      </trkpt>
      <trkpt lat="48.06823" lon="-4.50209">
        <ele>67</ele>
        <time>2022-06-03T06:58:55.951Z</time>
      </trkpt>
      <trkpt lat="48.06822" lon="-4.50209">
        <ele>67</ele>
        <time>2022-06-03T06:58:59.951Z</time>
      </trkpt>
      <trkpt lat="48.06822" lon="-4.50207">
        <ele>66</ele>
        <time>2022-06-03T06:59:04.955Z</time>
      </trkpt>
      <trkpt lat="48.0682" lon="-4.50203">
        <ele>66</ele>
        <time>2022-06-03T06:59:08.946Z</time>
      </trkpt>
      <trkpt lat="48.06819" lon="-4.50197">
        <ele>66</ele>
        <time>2022-06-03T06:59:13.951Z</time>
      </trkpt>
      <trkpt lat="48.06817" lon="-4.50193">
        <ele>66</ele>
        <time>2022-06-03T06:59:18.955Z</time>
      </trkpt>
      <trkpt lat="48.06814" lon="-4.50194">
        <ele>66</ele>
        <time>2022-06-03T06:59:22.984Z</time>
      </trkpt>
      <trkpt lat="48.06807" lon="-4.5019">
        <ele>66</ele>
        <time>2022-06-03T06:59:27.982Z</time>
      </trkpt>
      <trkpt lat="48.06801" lon="-4.50186">
        <ele>66</ele>
        <time>2022-06-03T06:59:32.975Z</time>
      </trkpt>
      <trkpt lat="48.06798" lon="-4.50185">
        <ele>66</ele>
        <time>2022-06-03T06:59:37.948Z</time>
      </trkpt>
      <trkpt lat="48.06793" lon="-4.50185">
        <ele>66</ele>
        <time>2022-06-03T06:59:41.982Z</time>
      </trkpt>
      <trkpt lat="48.06789" lon="-4.50184">
        <ele>67</ele>
        <time>2022-06-03T06:59:46.965Z</time>
      </trkpt>
      <trkpt lat="48.06786" lon="-4.50184">
        <ele>67</ele>
        <time>2022-06-03T06:59:50.989Z</time>
      </trkpt>
      <trkpt lat="48.06782" lon="-4.50184">
        <ele>67</ele>
        <time>2022-06-03T06:59:55.973Z</time>
      </trkpt>
      <trkpt lat="48.06778" lon="-4.50184">
        <ele>67</ele>
        <time>2022-06-03T06:59:59.992Z</time>
      </trkpt>
      <trkpt lat="48.06773" lon="-4.50187">
        <ele>67</ele>
        <time>2022-06-03T07:00:04.973Z</time>
      </trkpt>
      <trkpt lat="48.06771" lon="-4.50188">
        <ele>67</ele>
        <time>2022-06-03T07:00:08.979Z</time>
      </trkpt>
      <trkpt lat="48.06768" lon="-4.50186">
        <ele>67</ele>
        <time>2022-06-03T07:00:13.977Z</time>
      </trkpt>
      <trkpt lat="48.06766" lon="-4.50182">
        <ele>67</ele>
        <time>2022-06-03T07:00:17.996Z</time>
      </trkpt>
      <trkpt lat="48.06764" lon="-4.50179">
        <ele>67</ele>
        <time>2022-06-03T07:00:22.999Z</time>
      </trkpt>
      <trkpt lat="48.06761" lon="-4.50174">
        <ele>68</ele>
        <time>2022-06-03T07:00:27.977Z</time>
      </trkpt>
      <trkpt lat="48.06758" lon="-4.5017">
        <ele>68</ele>
        <time>2022-06-03T07:00:32.962Z</time>
      </trkpt>
      <trkpt lat="48.06754" lon="-4.50168">
        <ele>68</ele>
        <time>2022-06-03T07:00:37.014Z</time>
      </trkpt>
      <trkpt lat="48.06749" lon="-4.50167">
        <ele>68</ele>
        <time>2022-06-03T07:00:41.991Z</time>
      </trkpt>
      <trkpt lat="48.06744" lon="-4.50167">
        <ele>68</ele>
        <time>2022-06-03T07:00:45.985Z</time>
      </trkpt>
      <trkpt lat="48.06738" lon="-4.50167">
        <ele>68</ele>
        <time>2022-06-03T07:00:50.989Z</time>
      </trkpt>
      <trkpt lat="48.06731" lon="-4.5017">
        <ele>68</ele>
        <time>2022-06-03T07:00:55.993Z</time>
      </trkpt>
      <trkpt lat="48.06729" lon="-4.50176">
        <ele>68</ele>
        <time>2022-06-03T07:01:00.991Z</time>
      </trkpt>
      <trkpt lat="48.06729" lon="-4.50182">
        <ele>68</ele>
        <time>2022-06-03T07:01:04.990Z</time>
      </trkpt>
      <trkpt lat="48.06727" lon="-4.50186">
        <ele>68</ele>
        <time>2022-06-03T07:01:14.957Z</time>
      </trkpt>
      <trkpt lat="48.06724" lon="-4.50187">
        <ele>68</ele>
        <time>2022-06-03T07:01:18.968Z</time>
      </trkpt>
      <trkpt lat="48.06722" lon="-4.50189">
        <ele>68</ele>
        <time>2022-06-03T07:01:23.983Z</time>
      </trkpt>
      <trkpt lat="48.0672" lon="-4.50186">
        <ele>68</ele>
        <time>2022-06-03T07:01:28.967Z</time>
      </trkpt>
      <trkpt lat="48.06719" lon="-4.50185">
        <ele>68</ele>
        <time>2022-06-03T07:01:32.993Z</time>
      </trkpt>
      <trkpt lat="48.06719" lon="-4.50186">
        <ele>68</ele>
        <time>2022-06-03T07:01:37.964Z</time>
      </trkpt>
      <trkpt lat="48.06718" lon="-4.50183">
        <ele>68</ele>
        <time>2022-06-03T07:01:42.941Z</time>
      </trkpt>
      <trkpt lat="48.06716" lon="-4.50179">
        <ele>68</ele>
        <time>2022-06-03T07:01:46.988Z</time>
      </trkpt>
      <trkpt lat="48.06714" lon="-4.50173">
        <ele>68</ele>
        <time>2022-06-03T07:01:51.986Z</time>
      </trkpt>
      <trkpt lat="48.0671" lon="-4.50166">
        <ele>68</ele>
        <time>2022-06-03T07:01:56.996Z</time>
      </trkpt>
      <trkpt lat="48.06707" lon="-4.50161">
        <ele>67</ele>
        <time>2022-06-03T07:02:01.974Z</time>
      </trkpt>
      <trkpt lat="48.06704" lon="-4.50156">
        <ele>67</ele>
        <time>2022-06-03T07:02:06.997Z</time>
      </trkpt>
      <trkpt lat="48.06702" lon="-4.5015">
        <ele>66</ele>
        <time>2022-06-03T07:02:11.957Z</time>
      </trkpt>
      <trkpt lat="48.06698" lon="-4.50145">
        <ele>66</ele>
        <time>2022-06-03T07:02:16.983Z</time>
      </trkpt>
      <trkpt lat="48.06696" lon="-4.50136">
        <ele>66</ele>
        <time>2022-06-03T07:02:21.985Z</time>
      </trkpt>
      <trkpt lat="48.06694" lon="-4.50128">
        <ele>66</ele>
        <time>2022-06-03T07:02:25.973Z</time>
      </trkpt>
      <trkpt lat="48.06693" lon="-4.5012">
        <ele>66</ele>
        <time>2022-06-03T07:02:30.983Z</time>
      </trkpt>
      <trkpt lat="48.06691" lon="-4.50112">
        <ele>66</ele>
        <time>2022-06-03T07:02:34.974Z</time>
      </trkpt>
      <trkpt lat="48.06691" lon="-4.50099">
        <ele>66</ele>
        <time>2022-06-03T07:02:39.965Z</time>
      </trkpt>
      <trkpt lat="48.0669" lon="-4.50088">
        <ele>65</ele>
        <time>2022-06-03T07:02:44.978Z</time>
      </trkpt>
      <trkpt lat="48.06689" lon="-4.50081">
        <ele>65</ele>
        <time>2022-06-03T07:02:48.986Z</time>
      </trkpt>
      <trkpt lat="48.06688" lon="-4.50073">
        <ele>65</ele>
        <time>2022-06-03T07:02:53.987Z</time>
      </trkpt>
      <trkpt lat="48.06687" lon="-4.50063">
        <ele>64</ele>
        <time>2022-06-03T07:02:58.966Z</time>
      </trkpt>
      <trkpt lat="48.06687" lon="-4.50053">
        <ele>64</ele>
        <time>2022-06-03T07:03:03.986Z</time>
      </trkpt>
      <trkpt lat="48.06687" lon="-4.50044">
        <ele>64</ele>
        <time>2022-06-03T07:03:08.990Z</time>
      </trkpt>
      <trkpt lat="48.06686" lon="-4.50036">
        <ele>64</ele>
        <time>2022-06-03T07:03:13.989Z</time>
      </trkpt>
      <trkpt lat="48.06686" lon="-4.50029">
        <ele>64</ele>
        <time>2022-06-03T07:03:18.976Z</time>
      </trkpt>
      <trkpt lat="48.06686" lon="-4.5002">
        <ele>64</ele>
        <time>2022-06-03T07:03:24Z</time>
      </trkpt>
      <trkpt lat="48.06685" lon="-4.5001">
        <ele>64</ele>
        <time>2022-06-03T07:03:28.975Z</time>
      </trkpt>
      <trkpt lat="48.06684" lon="-4.50002">
        <ele>64</ele>
        <time>2022-06-03T07:03:32.970Z</time>
      </trkpt>
      <trkpt lat="48.06684" lon="-4.49993">
        <ele>64</ele>
        <time>2022-06-03T07:03:37.983Z</time>
      </trkpt>
      <trkpt lat="48.06686" lon="-4.49985">
        <ele>65</ele>
        <time>2022-06-03T07:03:42.986Z</time>
      </trkpt>
      <trkpt lat="48.06685" lon="-4.49977">
        <ele>65</ele>
        <time>2022-06-03T07:03:46.985Z</time>
      </trkpt>
      <trkpt lat="48.06684" lon="-4.49969">
        <ele>65</ele>
        <time>2022-06-03T07:03:51.990Z</time>
      </trkpt>
      <trkpt lat="48.06682" lon="-4.4996">
        <ele>65</ele>
        <time>2022-06-03T07:03:57.007Z</time>
      </trkpt>
      <trkpt lat="48.06681" lon="-4.4995">
        <ele>67</ele>
        <time>2022-06-03T07:04:02Z</time>
      </trkpt>
      <trkpt lat="48.06681" lon="-4.4994">
        <ele>67</ele>
        <time>2022-06-03T07:04:06.992Z</time>
      </trkpt>
      <trkpt lat="48.06681" lon="-4.49933">
        <ele>67</ele>
        <time>2022-06-03T07:04:10.989Z</time>
      </trkpt>
      <trkpt lat="48.0668" lon="-4.49924">
        <ele>69</ele>
        <time>2022-06-03T07:04:15.979Z</time>
      </trkpt>
      <trkpt lat="48.0668" lon="-4.49917">
        <ele>69</ele>
        <time>2022-06-03T07:04:19.986Z</time>
      </trkpt>
      <trkpt lat="48.0668" lon="-4.49907">
        <ele>69</ele>
        <time>2022-06-03T07:04:24.969Z</time>
      </trkpt>
      <trkpt lat="48.06679" lon="-4.49897">
        <ele>71</ele>
        <time>2022-06-03T07:04:29.947Z</time>
      </trkpt>
      <trkpt lat="48.06679" lon="-4.4989">
        <ele>71</ele>
        <time>2022-06-03T07:04:33.971Z</time>
      </trkpt>
      <trkpt lat="48.06678" lon="-4.4988">
        <ele>71</ele>
        <time>2022-06-03T07:04:38.995Z</time>
      </trkpt>
      <trkpt lat="48.06678" lon="-4.4987">
        <ele>73</ele>
        <time>2022-06-03T07:04:44.007Z</time>
      </trkpt>
      <trkpt lat="48.06678" lon="-4.49861">
        <ele>73</ele>
        <time>2022-06-03T07:04:48.977Z</time>
      </trkpt>
      <trkpt lat="48.06677" lon="-4.49852">
        <ele>73</ele>
        <time>2022-06-03T07:04:53.947Z</time>
      </trkpt>
      <trkpt lat="48.06677" lon="-4.49844">
        <ele>73</ele>
        <time>2022-06-03T07:04:58.974Z</time>
      </trkpt>
      <trkpt lat="48.06676" lon="-4.49835">
        <ele>73</ele>
        <time>2022-06-03T07:05:03.956Z</time>
      </trkpt>
      <trkpt lat="48.06676" lon="-4.49829">
        <ele>73</ele>
        <time>2022-06-03T07:05:07.995Z</time>
      </trkpt>
      <trkpt lat="48.06677" lon="-4.49819">
        <ele>73</ele>
        <time>2022-06-03T07:05:12.976Z</time>
      </trkpt>
      <trkpt lat="48.06676" lon="-4.49812">
        <ele>73</ele>
        <time>2022-06-03T07:05:16.987Z</time>
      </trkpt>
      <trkpt lat="48.06676" lon="-4.49803">
        <ele>73</ele>
        <time>2022-06-03T07:05:21.999Z</time>
      </trkpt>
      <trkpt lat="48.06675" lon="-4.49793">
        <ele>73</ele>
        <time>2022-06-03T07:05:26.998Z</time>
      </trkpt>
      <trkpt lat="48.06675" lon="-4.49785">
        <ele>74</ele>
        <time>2022-06-03T07:05:31.981Z</time>
      </trkpt>
      <trkpt lat="48.06674" lon="-4.49776">
        <ele>74</ele>
        <time>2022-06-03T07:05:36.985Z</time>
      </trkpt>
      <trkpt lat="48.06674" lon="-4.49768">
        <ele>74</ele>
        <time>2022-06-03T07:05:41.985Z</time>
      </trkpt>
      <trkpt lat="48.06674" lon="-4.49759">
        <ele>75</ele>
        <time>2022-06-03T07:05:46.969Z</time>
      </trkpt>
      <trkpt lat="48.06674" lon="-4.49752">
        <ele>75</ele>
        <time>2022-06-03T07:05:51.003Z</time>
      </trkpt>
      <trkpt lat="48.06674" lon="-4.49742">
        <ele>75</ele>
        <time>2022-06-03T07:05:55.974Z</time>
      </trkpt>
      <trkpt lat="48.06674" lon="-4.49735">
        <ele>76</ele>
        <time>2022-06-03T07:05:59.981Z</time>
      </trkpt>
      <trkpt lat="48.06674" lon="-4.49726">
        <ele>76</ele>
        <time>2022-06-03T07:06:04.961Z</time>
      </trkpt>
      <trkpt lat="48.06675" lon="-4.49719">
        <ele>76</ele>
        <time>2022-06-03T07:06:08.970Z</time>
      </trkpt>
      <trkpt lat="48.06674" lon="-4.49712">
        <ele>76</ele>
        <time>2022-06-03T07:06:12.983Z</time>
      </trkpt>
      <trkpt lat="48.06673" lon="-4.49703">
        <ele>77</ele>
        <time>2022-06-03T07:06:17.991Z</time>
      </trkpt>
      <trkpt lat="48.06672" lon="-4.49694">
        <ele>77</ele>
        <time>2022-06-03T07:06:22.988Z</time>
      </trkpt>
      <trkpt lat="48.06671" lon="-4.49686">
        <ele>77</ele>
        <time>2022-06-03T07:06:27.968Z</time>
      </trkpt>
      <trkpt lat="48.06672" lon="-4.49675">
        <ele>77</ele>
        <time>2022-06-03T07:06:32.980Z</time>
      </trkpt>
      <trkpt lat="48.06672" lon="-4.49668">
        <ele>77</ele>
        <time>2022-06-03T07:06:36.984Z</time>
      </trkpt>
      <trkpt lat="48.06672" lon="-4.49662">
        <ele>77</ele>
        <time>2022-06-03T07:06:41.977Z</time>
      </trkpt>
      <trkpt lat="48.06672" lon="-4.49654">
        <ele>77</ele>
        <time>2022-06-03T07:06:45.993Z</time>
      </trkpt>
      <trkpt lat="48.06673" lon="-4.49649">
        <ele>78</ele>
        <time>2022-06-03T07:06:50.993Z</time>
      </trkpt>
      <trkpt lat="48.06673" lon="-4.49641">
        <ele>78</ele>
        <time>2022-06-03T07:06:55.987Z</time>
      </trkpt>
      <trkpt lat="48.06672" lon="-4.49633">
        <ele>78</ele>
        <time>2022-06-03T07:06:59.996Z</time>
      </trkpt>
      <trkpt lat="48.06671" lon="-4.49624">
        <ele>79</ele>
        <time>2022-06-03T07:07:04.983Z</time>
      </trkpt>
      <trkpt lat="48.0667" lon="-4.49617">
        <ele>79</ele>
        <time>2022-06-03T07:07:09.963Z</time>
      </trkpt>
      <trkpt lat="48.06668" lon="-4.49611">
        <ele>79</ele>
        <time>2022-06-03T07:07:13.967Z</time>
      </trkpt>
      <trkpt lat="48.06666" lon="-4.49603">
        <ele>79</ele>
        <time>2022-06-03T07:07:18.992Z</time>
      </trkpt>
      <trkpt lat="48.06664" lon="-4.49597">
        <ele>79</ele>
        <time>2022-06-03T07:07:23.983Z</time>
      </trkpt>
      <trkpt lat="48.06662" lon="-4.49591">
        <ele>79</ele>
        <time>2022-06-03T07:07:28.998Z</time>
      </trkpt>
      <trkpt lat="48.06658" lon="-4.49581">
        <ele>79</ele>
        <time>2022-06-03T07:07:33.934Z</time>
      </trkpt>
      <trkpt lat="48.06652" lon="-4.49575">
        <ele>79</ele>
        <time>2022-06-03T07:07:37.950Z</time>
      </trkpt>
      <trkpt lat="48.06648" lon="-4.49569">
        <ele>79</ele>
        <time>2022-06-03T07:07:41.979Z</time>
      </trkpt>
      <trkpt lat="48.06642" lon="-4.49561">
        <ele>79</ele>
        <time>2022-06-03T07:07:46.943Z</time>
      </trkpt>
      <trkpt lat="48.06638" lon="-4.49556">
        <ele>79</ele>
        <time>2022-06-03T07:07:50.946Z</time>
      </trkpt>
      <trkpt lat="48.06638" lon="-4.49557">
        <ele>79</ele>
        <time>2022-06-03T07:07:55.941Z</time>
      </trkpt>
      <trkpt lat="48.06636" lon="-4.49555">
        <ele>79</ele>
        <time>2022-06-03T07:07:59.977Z</time>
      </trkpt>
      <trkpt lat="48.06631" lon="-4.49546">
        <ele>79</ele>
        <time>2022-06-03T07:08:04.964Z</time>
      </trkpt>
      <trkpt lat="48.06626" lon="-4.49538">
        <ele>80</ele>
        <time>2022-06-03T07:08:09.959Z</time>
      </trkpt>
      <trkpt lat="48.06621" lon="-4.49531">
        <ele>80</ele>
        <time>2022-06-03T07:08:14.942Z</time>
      </trkpt>
      <trkpt lat="48.06619" lon="-4.49527">
        <ele>80</ele>
        <time>2022-06-03T07:08:18.951Z</time>
      </trkpt>
      <trkpt lat="48.06615" lon="-4.49521">
        <ele>80</ele>
        <time>2022-06-03T07:08:22.952Z</time>
      </trkpt>
      <trkpt lat="48.06612" lon="-4.49515">
        <ele>80</ele>
        <time>2022-06-03T07:08:26.973Z</time>
      </trkpt>
      <trkpt lat="48.06608" lon="-4.4951">
        <ele>80</ele>
        <time>2022-06-03T07:08:30.987Z</time>
      </trkpt>
      <trkpt lat="48.06604" lon="-4.49504">
        <ele>80</ele>
        <time>2022-06-03T07:08:35.985Z</time>
      </trkpt>
      <trkpt lat="48.06601" lon="-4.49499">
        <ele>80</ele>
        <time>2022-06-03T07:08:39.994Z</time>
      </trkpt>
      <trkpt lat="48.06599" lon="-4.49494">
        <ele>80</ele>
        <time>2022-06-03T07:08:43.989Z</time>
      </trkpt>
      <trkpt lat="48.06595" lon="-4.49489">
        <ele>79</ele>
        <time>2022-06-03T07:08:48.033Z</time>
      </trkpt>
      <trkpt lat="48.0659" lon="-4.49484">
        <ele>78</ele>
        <time>2022-06-03T07:08:52.977Z</time>
      </trkpt>
      <trkpt lat="48.06586" lon="-4.49478">
        <ele>78</ele>
        <time>2022-06-03T07:08:56.991Z</time>
      </trkpt>
      <trkpt lat="48.06582" lon="-4.49472">
        <ele>78</ele>
        <time>2022-06-03T07:09:01.967Z</time>
      </trkpt>
      <trkpt lat="48.06578" lon="-4.49466">
        <ele>78</ele>
        <time>2022-06-03T07:09:05.977Z</time>
      </trkpt>
      <trkpt lat="48.06574" lon="-4.49459">
        <ele>78</ele>
        <time>2022-06-03T07:09:10.991Z</time>
      </trkpt>
      <trkpt lat="48.06569" lon="-4.49451">
        <ele>78</ele>
        <time>2022-06-03T07:09:15.985Z</time>
      </trkpt>
      <trkpt lat="48.06564" lon="-4.49444">
        <ele>78</ele>
        <time>2022-06-03T07:09:20.973Z</time>
      </trkpt>
      <trkpt lat="48.06562" lon="-4.49439">
        <ele>78</ele>
        <time>2022-06-03T07:09:24.983Z</time>
      </trkpt>
      <trkpt lat="48.06558" lon="-4.49434">
        <ele>78</ele>
        <time>2022-06-03T07:09:29.956Z</time>
      </trkpt>
      <trkpt lat="48.06557" lon="-4.49432">
        <ele>78</ele>
        <time>2022-06-03T07:09:33.969Z</time>
      </trkpt>
      <trkpt lat="48.06556" lon="-4.49432">
        <ele>78</ele>
        <time>2022-06-03T07:09:38.989Z</time>
      </trkpt>
      <trkpt lat="48.06551" lon="-4.49433">
        <ele>78</ele>
        <time>2022-06-03T07:09:43.998Z</time>
      </trkpt>
      <trkpt lat="48.06547" lon="-4.49437">
        <ele>78</ele>
        <time>2022-06-03T07:09:47.998Z</time>
      </trkpt>
      <trkpt lat="48.0654" lon="-4.4944">
        <ele>78</ele>
        <time>2022-06-03T07:09:52.995Z</time>
      </trkpt>
      <trkpt lat="48.06533" lon="-4.49446">
        <ele>78</ele>
        <time>2022-06-03T07:09:57.970Z</time>
      </trkpt>
      <trkpt lat="48.06529" lon="-4.49449">
        <ele>78</ele>
        <time>2022-06-03T07:10:01.983Z</time>
      </trkpt>
      <trkpt lat="48.06524" lon="-4.49453">
        <ele>78</ele>
        <time>2022-06-03T07:10:05.992Z</time>
      </trkpt>
      <trkpt lat="48.06519" lon="-4.49457">
        <ele>78</ele>
        <time>2022-06-03T07:10:10.980Z</time>
      </trkpt>
      <trkpt lat="48.06513" lon="-4.4946">
        <ele>78</ele>
        <time>2022-06-03T07:10:14.983Z</time>
      </trkpt>
      <trkpt lat="48.06507" lon="-4.49465">
        <ele>78</ele>
        <time>2022-06-03T07:10:19.973Z</time>
      </trkpt>
      <trkpt lat="48.06501" lon="-4.49469">
        <ele>78</ele>
        <time>2022-06-03T07:10:24.950Z</time>
      </trkpt>
      <trkpt lat="48.06496" lon="-4.49471">
        <ele>78</ele>
        <time>2022-06-03T07:10:28.973Z</time>
      </trkpt>
      <trkpt lat="48.06491" lon="-4.49474">
        <ele>78</ele>
        <time>2022-06-03T07:10:32.970Z</time>
      </trkpt>
      <trkpt lat="48.06487" lon="-4.49476">
        <ele>78</ele>
        <time>2022-06-03T07:10:36.990Z</time>
      </trkpt>
      <trkpt lat="48.0648" lon="-4.4948">
        <ele>78</ele>
        <time>2022-06-03T07:10:41.980Z</time>
      </trkpt>
      <trkpt lat="48.06475" lon="-4.49484">
        <ele>78</ele>
        <time>2022-06-03T07:10:45.971Z</time>
      </trkpt>
      <trkpt lat="48.06468" lon="-4.49485">
        <ele>78</ele>
        <time>2022-06-03T07:10:50.962Z</time>
      </trkpt>
      <trkpt lat="48.06463" lon="-4.49487">
        <ele>78</ele>
        <time>2022-06-03T07:10:54.976Z</time>
      </trkpt>
      <trkpt lat="48.06458" lon="-4.49489">
        <ele>78</ele>
        <time>2022-06-03T07:10:58.997Z</time>
      </trkpt>
      <trkpt lat="48.06451" lon="-4.4949">
        <ele>78</ele>
        <time>2022-06-03T07:11:03.982Z</time>
      </trkpt>
      <trkpt lat="48.06446" lon="-4.4949">
        <ele>78</ele>
        <time>2022-06-03T07:11:07.984Z</time>
      </trkpt>
      <trkpt lat="48.06439" lon="-4.49491">
        <ele>78</ele>
        <time>2022-06-03T07:11:12.943Z</time>
      </trkpt>
      <trkpt lat="48.06434" lon="-4.49492">
        <ele>78</ele>
        <time>2022-06-03T07:11:16.991Z</time>
      </trkpt>
      <trkpt lat="48.06428" lon="-4.49494">
        <ele>78</ele>
        <time>2022-06-03T07:11:21.954Z</time>
      </trkpt>
      <trkpt lat="48.06423" lon="-4.49496">
        <ele>78</ele>
        <time>2022-06-03T07:11:25.965Z</time>
      </trkpt>
      <trkpt lat="48.06417" lon="-4.49499">
        <ele>78</ele>
        <time>2022-06-03T07:11:30.958Z</time>
      </trkpt>
      <trkpt lat="48.06413" lon="-4.49502">
        <ele>78</ele>
        <time>2022-06-03T07:11:34.967Z</time>
      </trkpt>
      <trkpt lat="48.06406" lon="-4.49505">
        <ele>78</ele>
        <time>2022-06-03T07:11:39.961Z</time>
      </trkpt>
      <trkpt lat="48.064" lon="-4.49508">
        <ele>77</ele>
        <time>2022-06-03T07:11:44.978Z</time>
      </trkpt>
      <trkpt lat="48.06394" lon="-4.49512">
        <ele>77</ele>
        <time>2022-06-03T07:11:49.979Z</time>
      </trkpt>
      <trkpt lat="48.06388" lon="-4.49517">
        <ele>76</ele>
        <time>2022-06-03T07:11:54.956Z</time>
      </trkpt>
      <trkpt lat="48.06384" lon="-4.49521">
        <ele>76</ele>
        <time>2022-06-03T07:11:58.992Z</time>
      </trkpt>
      <trkpt lat="48.06378" lon="-4.49527">
        <ele>76</ele>
        <time>2022-06-03T07:12:03.992Z</time>
      </trkpt>
      <trkpt lat="48.06372" lon="-4.49533">
        <ele>75</ele>
        <time>2022-06-03T07:12:08.978Z</time>
      </trkpt>
      <trkpt lat="48.06366" lon="-4.49537">
        <ele>75</ele>
        <time>2022-06-03T07:12:13.997Z</time>
      </trkpt>
      <trkpt lat="48.06361" lon="-4.4954">
        <ele>75</ele>
        <time>2022-06-03T07:12:17.970Z</time>
      </trkpt>
      <trkpt lat="48.06356" lon="-4.49546">
        <ele>74</ele>
        <time>2022-06-03T07:12:22.958Z</time>
      </trkpt>
      <trkpt lat="48.06351" lon="-4.49549">
        <ele>74</ele>
        <time>2022-06-03T07:12:26.966Z</time>
      </trkpt>
      <trkpt lat="48.06344" lon="-4.49552">
        <ele>74</ele>
        <time>2022-06-03T07:12:31.992Z</time>
      </trkpt>
      <trkpt lat="48.06338" lon="-4.49554">
        <ele>74</ele>
        <time>2022-06-03T07:12:36.989Z</time>
      </trkpt>
      <trkpt lat="48.06331" lon="-4.49556">
        <ele>74</ele>
        <time>2022-06-03T07:12:41.988Z</time>
      </trkpt>
      <trkpt lat="48.06326" lon="-4.49557">
        <ele>74</ele>
        <time>2022-06-03T07:12:45.999Z</time>
      </trkpt>
      <trkpt lat="48.0632" lon="-4.49557">
        <ele>74</ele>
        <time>2022-06-03T07:12:51.003Z</time>
      </trkpt>
      <trkpt lat="48.06313" lon="-4.49555">
        <ele>73</ele>
        <time>2022-06-03T07:12:55.985Z</time>
      </trkpt>
      <trkpt lat="48.06308" lon="-4.49553">
        <ele>73</ele>
        <time>2022-06-03T07:12:59.985Z</time>
      </trkpt>
      <trkpt lat="48.06302" lon="-4.49551">
        <ele>73</ele>
        <time>2022-06-03T07:13:04.963Z</time>
      </trkpt>
      <trkpt lat="48.06298" lon="-4.4955">
        <ele>73</ele>
        <time>2022-06-03T07:13:08.986Z</time>
      </trkpt>
      <trkpt lat="48.06292" lon="-4.49547">
        <ele>73</ele>
        <time>2022-06-03T07:13:13.978Z</time>
      </trkpt>
      <trkpt lat="48.06287" lon="-4.49544">
        <ele>72</ele>
        <time>2022-06-03T07:13:18.974Z</time>
      </trkpt>
      <trkpt lat="48.06282" lon="-4.49546">
        <ele>72</ele>
        <time>2022-06-03T07:13:23.976Z</time>
      </trkpt>
      <trkpt lat="48.06277" lon="-4.49549">
        <ele>72</ele>
        <time>2022-06-03T07:13:27.996Z</time>
      </trkpt>
      <trkpt lat="48.06274" lon="-4.49554">
        <ele>72</ele>
        <time>2022-06-03T07:13:32.960Z</time>
      </trkpt>
      <trkpt lat="48.06272" lon="-4.4956">
        <ele>72</ele>
        <time>2022-06-03T07:13:36.977Z</time>
      </trkpt>
      <trkpt lat="48.06272" lon="-4.49566">
        <ele>72</ele>
        <time>2022-06-03T07:13:41.981Z</time>
      </trkpt>
      <trkpt lat="48.06271" lon="-4.49572">
        <ele>72</ele>
        <time>2022-06-03T07:13:45.991Z</time>
      </trkpt>
      <trkpt lat="48.0627" lon="-4.49577">
        <ele>72</ele>
        <time>2022-06-03T07:13:50.004Z</time>
      </trkpt>
      <trkpt lat="48.06268" lon="-4.49582">
        <ele>72</ele>
        <time>2022-06-03T07:13:54.973Z</time>
      </trkpt>
      <trkpt lat="48.06266" lon="-4.49586">
        <ele>72</ele>
        <time>2022-06-03T07:13:59.988Z</time>
      </trkpt>
      <trkpt lat="48.06265" lon="-4.4959">
        <ele>72</ele>
        <time>2022-06-03T07:14:04.977Z</time>
      </trkpt>
      <trkpt lat="48.06263" lon="-4.49595">
        <ele>71</ele>
        <time>2022-06-03T07:14:09.009Z</time>
      </trkpt>
      <trkpt lat="48.0626" lon="-4.49599">
        <ele>70</ele>
        <time>2022-06-03T07:14:13.944Z</time>
      </trkpt>
      <trkpt lat="48.06258" lon="-4.49603">
        <ele>70</ele>
        <time>2022-06-03T07:14:17.971Z</time>
      </trkpt>
      <trkpt lat="48.06258" lon="-4.49608">
        <ele>70</ele>
        <time>2022-06-03T07:14:21.987Z</time>
      </trkpt>
      <trkpt lat="48.06256" lon="-4.49616">
        <ele>70</ele>
        <time>2022-06-03T07:14:26.965Z</time>
      </trkpt>
      <trkpt lat="48.06255" lon="-4.49626">
        <ele>70</ele>
        <time>2022-06-03T07:14:31.954Z</time>
      </trkpt>
      <trkpt lat="48.06254" lon="-4.49634">
        <ele>70</ele>
        <time>2022-06-03T07:14:35.961Z</time>
      </trkpt>
      <trkpt lat="48.06253" lon="-4.49643">
        <ele>70</ele>
        <time>2022-06-03T07:14:39.965Z</time>
      </trkpt>
      <trkpt lat="48.06251" lon="-4.4965">
        <ele>70</ele>
        <time>2022-06-03T07:14:44.990Z</time>
      </trkpt>
      <trkpt lat="48.0625" lon="-4.49659">
        <ele>69</ele>
        <time>2022-06-03T07:14:49.991Z</time>
      </trkpt>
      <trkpt lat="48.06245" lon="-4.49664">
        <ele>69</ele>
        <time>2022-06-03T07:14:54.995Z</time>
      </trkpt>
      <trkpt lat="48.06241" lon="-4.49673">
        <ele>69</ele>
        <time>2022-06-03T07:14:59.982Z</time>
      </trkpt>
      <trkpt lat="48.06239" lon="-4.4968">
        <ele>69</ele>
        <time>2022-06-03T07:15:03.989Z</time>
      </trkpt>
      <trkpt lat="48.06236" lon="-4.49687">
        <ele>69</ele>
        <time>2022-06-03T07:15:07.997Z</time>
      </trkpt>
      <trkpt lat="48.06234" lon="-4.49695">
        <ele>68</ele>
        <time>2022-06-03T07:15:12.966Z</time>
      </trkpt>
      <trkpt lat="48.06232" lon="-4.49701">
        <ele>68</ele>
        <time>2022-06-03T07:15:16.980Z</time>
      </trkpt>
      <trkpt lat="48.06229" lon="-4.49709">
        <ele>68</ele>
        <time>2022-06-03T07:15:22.002Z</time>
      </trkpt>
      <trkpt lat="48.06226" lon="-4.49716">
        <ele>68</ele>
        <time>2022-06-03T07:15:26.980Z</time>
      </trkpt>
      <trkpt lat="48.06224" lon="-4.49724">
        <ele>68</ele>
        <time>2022-06-03T07:15:31.979Z</time>
      </trkpt>
      <trkpt lat="48.06222" lon="-4.4973">
        <ele>68</ele>
        <time>2022-06-03T07:15:35.979Z</time>
      </trkpt>
      <trkpt lat="48.06219" lon="-4.49738">
        <ele>69</ele>
        <time>2022-06-03T07:15:40.987Z</time>
      </trkpt>
      <trkpt lat="48.06216" lon="-4.49744">
        <ele>69</ele>
        <time>2022-06-03T07:15:45.017Z</time>
      </trkpt>
      <trkpt lat="48.06214" lon="-4.49754">
        <ele>69</ele>
        <time>2022-06-03T07:15:49.978Z</time>
      </trkpt>
      <trkpt lat="48.06211" lon="-4.4976">
        <ele>69</ele>
        <time>2022-06-03T07:15:54.938Z</time>
      </trkpt>
      <trkpt lat="48.0621" lon="-4.49767">
        <ele>70</ele>
        <time>2022-06-03T07:15:59.933Z</time>
      </trkpt>
      <trkpt lat="48.06205" lon="-4.49772">
        <ele>67</ele>
        <time>2022-06-03T07:16:03.947Z</time>
      </trkpt>
      <trkpt lat="48.062" lon="-4.49775">
        <ele>67</ele>
        <time>2022-06-03T07:16:07.957Z</time>
      </trkpt>
      <trkpt lat="48.06196" lon="-4.49777">
        <ele>67</ele>
        <time>2022-06-03T07:16:12.937Z</time>
      </trkpt>
      <trkpt lat="48.06191" lon="-4.49777">
        <ele>67</ele>
        <time>2022-06-03T07:16:17.956Z</time>
      </trkpt>
      <trkpt lat="48.06186" lon="-4.49774">
        <ele>67</ele>
        <time>2022-06-03T07:16:22.943Z</time>
      </trkpt>
      <trkpt lat="48.06183" lon="-4.49771">
        <ele>67</ele>
        <time>2022-06-03T07:16:27.946Z</time>
      </trkpt>
      <trkpt lat="48.06178" lon="-4.49769">
        <ele>65</ele>
        <time>2022-06-03T07:16:32.951Z</time>
      </trkpt>
      <trkpt lat="48.06174" lon="-4.49768">
        <ele>65</ele>
        <time>2022-06-03T07:16:37.954Z</time>
      </trkpt>
      <trkpt lat="48.06169" lon="-4.49765">
        <ele>65</ele>
        <time>2022-06-03T07:16:42.953Z</time>
      </trkpt>
      <trkpt lat="48.06165" lon="-4.49762">
        <ele>65</ele>
        <time>2022-06-03T07:16:47.960Z</time>
      </trkpt>
      <trkpt lat="48.06159" lon="-4.49759">
        <ele>65</ele>
        <time>2022-06-03T07:16:52.953Z</time>
      </trkpt>
      <trkpt lat="48.06155" lon="-4.49755">
        <ele>65</ele>
        <time>2022-06-03T07:16:56.976Z</time>
      </trkpt>
      <trkpt lat="48.0615" lon="-4.49751">
        <ele>64</ele>
        <time>2022-06-03T07:17:01.953Z</time>
      </trkpt>
      <trkpt lat="48.06144" lon="-4.49746">
        <ele>64</ele>
        <time>2022-06-03T07:17:06.949Z</time>
      </trkpt>
      <trkpt lat="48.06139" lon="-4.49742">
        <ele>64</ele>
        <time>2022-06-03T07:17:11.942Z</time>
      </trkpt>
      <trkpt lat="48.06134" lon="-4.49741">
        <ele>64</ele>
        <time>2022-06-03T07:17:15.943Z</time>
      </trkpt>
      <trkpt lat="48.06128" lon="-4.49739">
        <ele>64</ele>
        <time>2022-06-03T07:17:20.952Z</time>
      </trkpt>
      <trkpt lat="48.06125" lon="-4.49739">
        <ele>63</ele>
        <time>2022-06-03T07:17:25.952Z</time>
      </trkpt>
      <trkpt lat="48.0612" lon="-4.49744">
        <ele>63</ele>
        <time>2022-06-03T07:17:30.946Z</time>
      </trkpt>
      <trkpt lat="48.06118" lon="-4.4975">
        <ele>63</ele>
        <time>2022-06-03T07:17:34.950Z</time>
      </trkpt>
      <trkpt lat="48.06113" lon="-4.49758">
        <ele>63</ele>
        <time>2022-06-03T07:17:39.947Z</time>
      </trkpt>
      <trkpt lat="48.0611" lon="-4.49763">
        <ele>63</ele>
        <time>2022-06-03T07:17:43.947Z</time>
      </trkpt>
      <trkpt lat="48.0611" lon="-4.49769">
        <ele>63</ele>
        <time>2022-06-03T07:17:47.954Z</time>
      </trkpt>
      <trkpt lat="48.06108" lon="-4.49776">
        <ele>63</ele>
        <time>2022-06-03T07:17:52.951Z</time>
      </trkpt>
      <trkpt lat="48.06104" lon="-4.49774">
        <ele>63</ele>
        <time>2022-06-03T07:17:57.949Z</time>
      </trkpt>
      <trkpt lat="48.06099" lon="-4.49773">
        <ele>63</ele>
        <time>2022-06-03T07:18:01.955Z</time>
      </trkpt>
      <trkpt lat="48.06094" lon="-4.49771">
        <ele>61</ele>
        <time>2022-06-03T07:18:05.957Z</time>
      </trkpt>
      <trkpt lat="48.06087" lon="-4.49771">
        <ele>61</ele>
        <time>2022-06-03T07:18:10.952Z</time>
      </trkpt>
      <trkpt lat="48.06081" lon="-4.49768">
        <ele>61</ele>
        <time>2022-06-03T07:18:14.953Z</time>
      </trkpt>
      <trkpt lat="48.06076" lon="-4.49765">
        <ele>61</ele>
        <time>2022-06-03T07:18:19.956Z</time>
      </trkpt>
      <trkpt lat="48.06071" lon="-4.49762">
        <ele>60</ele>
        <time>2022-06-03T07:18:24.960Z</time>
      </trkpt>
      <trkpt lat="48.06066" lon="-4.4976">
        <ele>58</ele>
        <time>2022-06-03T07:18:29.968Z</time>
      </trkpt>
      <trkpt lat="48.06061" lon="-4.4976">
        <ele>58</ele>
        <time>2022-06-03T07:18:34.949Z</time>
      </trkpt>
      <trkpt lat="48.06053" lon="-4.49758">
        <ele>58</ele>
        <time>2022-06-03T07:18:39.941Z</time>
      </trkpt>
      <trkpt lat="48.06047" lon="-4.49757">
        <ele>58</ele>
        <time>2022-06-03T07:18:43.954Z</time>
      </trkpt>
      <trkpt lat="48.0604" lon="-4.49756">
        <ele>58</ele>
        <time>2022-06-03T07:18:48.957Z</time>
      </trkpt>
      <trkpt lat="48.06034" lon="-4.49755">
        <ele>58</ele>
        <time>2022-06-03T07:18:53.960Z</time>
      </trkpt>
      <trkpt lat="48.06029" lon="-4.49754">
        <ele>58</ele>
        <time>2022-06-03T07:18:57.952Z</time>
      </trkpt>
      <trkpt lat="48.06026" lon="-4.49754">
        <ele>58</ele>
        <time>2022-06-03T07:19:01.957Z</time>
      </trkpt>
      <trkpt lat="48.0602" lon="-4.49755">
        <ele>58</ele>
        <time>2022-06-03T07:19:06.959Z</time>
      </trkpt>
      <trkpt lat="48.06015" lon="-4.49755">
        <ele>58</ele>
        <time>2022-06-03T07:19:11.954Z</time>
      </trkpt>
      <trkpt lat="48.06008" lon="-4.49756">
        <ele>58</ele>
        <time>2022-06-03T07:19:16.952Z</time>
      </trkpt>
      <trkpt lat="48.06001" lon="-4.49759">
        <ele>58</ele>
        <time>2022-06-03T07:19:21.946Z</time>
      </trkpt>
      <trkpt lat="48.05995" lon="-4.49764">
        <ele>58</ele>
        <time>2022-06-03T07:19:26.939Z</time>
      </trkpt>
      <trkpt lat="48.05992" lon="-4.49765">
        <ele>58</ele>
        <time>2022-06-03T07:19:30.950Z</time>
      </trkpt>
      <trkpt lat="48.05987" lon="-4.49771">
        <ele>58</ele>
        <time>2022-06-03T07:19:34.972Z</time>
      </trkpt>
      <trkpt lat="48.05983" lon="-4.49779">
        <ele>56</ele>
        <time>2022-06-03T07:19:39.974Z</time>
      </trkpt>
      <trkpt lat="48.0598" lon="-4.49787">
        <ele>56</ele>
        <time>2022-06-03T07:19:44.961Z</time>
      </trkpt>
      <trkpt lat="48.05976" lon="-4.49793">
        <ele>57</ele>
        <time>2022-06-03T07:19:48.993Z</time>
      </trkpt>
      <trkpt lat="48.05973" lon="-4.498">
        <ele>57</ele>
        <time>2022-06-03T07:19:53.953Z</time>
      </trkpt>
      <trkpt lat="48.05969" lon="-4.49808">
        <ele>57</ele>
        <time>2022-06-03T07:19:58.944Z</time>
      </trkpt>
      <trkpt lat="48.05965" lon="-4.49815">
        <ele>57</ele>
        <time>2022-06-03T07:20:02.982Z</time>
      </trkpt>
      <trkpt lat="48.0596" lon="-4.49823">
        <ele>57</ele>
        <time>2022-06-03T07:20:07.963Z</time>
      </trkpt>
      <trkpt lat="48.05955" lon="-4.49828">
        <ele>56</ele>
        <time>2022-06-03T07:20:12.965Z</time>
      </trkpt>
      <trkpt lat="48.05952" lon="-4.49832">
        <ele>56</ele>
        <time>2022-06-03T07:20:16.978Z</time>
      </trkpt>
      <trkpt lat="48.05949" lon="-4.49838">
        <ele>56</ele>
        <time>2022-06-03T07:20:22.001Z</time>
      </trkpt>
      <trkpt lat="48.05947" lon="-4.49846">
        <ele>56</ele>
        <time>2022-06-03T07:20:26.997Z</time>
      </trkpt>
      <trkpt lat="48.05944" lon="-4.49851">
        <ele>56</ele>
        <time>2022-06-03T07:20:31.980Z</time>
      </trkpt>
      <trkpt lat="48.0594" lon="-4.49858">
        <ele>56</ele>
        <time>2022-06-03T07:20:37.002Z</time>
      </trkpt>
      <trkpt lat="48.05936" lon="-4.49864">
        <ele>56</ele>
        <time>2022-06-03T07:20:41.996Z</time>
      </trkpt>
      <trkpt lat="48.05933" lon="-4.49873">
        <ele>56</ele>
        <time>2022-06-03T07:20:46.982Z</time>
      </trkpt>
      <trkpt lat="48.0593" lon="-4.49877">
        <ele>56</ele>
        <time>2022-06-03T07:20:50.992Z</time>
      </trkpt>
      <trkpt lat="48.05926" lon="-4.49883">
        <ele>56</ele>
        <time>2022-06-03T07:20:55.971Z</time>
      </trkpt>
      <trkpt lat="48.05923" lon="-4.4989">
        <ele>56</ele>
        <time>2022-06-03T07:21:00.983Z</time>
      </trkpt>
      <trkpt lat="48.05918" lon="-4.49896">
        <ele>56</ele>
        <time>2022-06-03T07:21:05.981Z</time>
      </trkpt>
      <trkpt lat="48.05915" lon="-4.49901">
        <ele>56</ele>
        <time>2022-06-03T07:21:09.978Z</time>
      </trkpt>
      <trkpt lat="48.05911" lon="-4.49906">
        <ele>56</ele>
        <time>2022-06-03T07:21:14.985Z</time>
      </trkpt>
      <trkpt lat="48.05908" lon="-4.4991">
        <ele>56</ele>
        <time>2022-06-03T07:21:18.985Z</time>
      </trkpt>
      <trkpt lat="48.05905" lon="-4.49915">
        <ele>56</ele>
        <time>2022-06-03T07:21:23.985Z</time>
      </trkpt>
      <trkpt lat="48.05901" lon="-4.49921">
        <ele>58</ele>
        <time>2022-06-03T07:21:28.971Z</time>
      </trkpt>
      <trkpt lat="48.05895" lon="-4.49923">
        <ele>58</ele>
        <time>2022-06-03T07:21:33.997Z</time>
      </trkpt>
      <trkpt lat="48.0589" lon="-4.49928">
        <ele>58</ele>
        <time>2022-06-03T07:21:38.972Z</time>
      </trkpt>
      <trkpt lat="48.05887" lon="-4.49933">
        <ele>58</ele>
        <time>2022-06-03T07:21:42.986Z</time>
      </trkpt>
      <trkpt lat="48.05884" lon="-4.49939">
        <ele>58</ele>
        <time>2022-06-03T07:21:48.006Z</time>
      </trkpt>
      <trkpt lat="48.05882" lon="-4.49946">
        <ele>58</ele>
        <time>2022-06-03T07:21:52.993Z</time>
      </trkpt>
      <trkpt lat="48.05879" lon="-4.49955">
        <ele>58</ele>
        <time>2022-06-03T07:21:57.982Z</time>
      </trkpt>
      <trkpt lat="48.05877" lon="-4.49963">
        <ele>59</ele>
        <time>2022-06-03T07:22:02.975Z</time>
      </trkpt>
      <trkpt lat="48.05875" lon="-4.49968">
        <ele>59</ele>
        <time>2022-06-03T07:22:06.996Z</time>
      </trkpt>
      <trkpt lat="48.05873" lon="-4.49976">
        <ele>58</ele>
        <time>2022-06-03T07:22:11.991Z</time>
      </trkpt>
      <trkpt lat="48.05872" lon="-4.49985">
        <ele>58</ele>
        <time>2022-06-03T07:22:16.974Z</time>
      </trkpt>
      <trkpt lat="48.0587" lon="-4.49993">
        <ele>59</ele>
        <time>2022-06-03T07:22:20.984Z</time>
      </trkpt>
      <trkpt lat="48.05866" lon="-4.49999">
        <ele>59</ele>
        <time>2022-06-03T07:22:25.990Z</time>
      </trkpt>
      <trkpt lat="48.05863" lon="-4.50004">
        <ele>59</ele>
        <time>2022-06-03T07:22:30.982Z</time>
      </trkpt>
      <trkpt lat="48.05861" lon="-4.50012">
        <ele>59</ele>
        <time>2022-06-03T07:22:35.973Z</time>
      </trkpt>
      <trkpt lat="48.05858" lon="-4.5002">
        <ele>59</ele>
        <time>2022-06-03T07:22:40.994Z</time>
      </trkpt>
      <trkpt lat="48.05855" lon="-4.50027">
        <ele>59</ele>
        <time>2022-06-03T07:22:45.986Z</time>
      </trkpt>
      <trkpt lat="48.05853" lon="-4.50036">
        <ele>59</ele>
        <time>2022-06-03T07:22:51.010Z</time>
      </trkpt>
      <trkpt lat="48.05848" lon="-4.50039">
        <ele>59</ele>
        <time>2022-06-03T07:22:55.995Z</time>
      </trkpt>
      <trkpt lat="48.05846" lon="-4.50044">
        <ele>55</ele>
        <time>2022-06-03T07:23:01.008Z</time>
      </trkpt>
      <trkpt lat="48.05845" lon="-4.50054">
        <ele>55</ele>
        <time>2022-06-03T07:23:05.973Z</time>
      </trkpt>
      <trkpt lat="48.05844" lon="-4.5006">
        <ele>55</ele>
        <time>2022-06-03T07:23:09.977Z</time>
      </trkpt>
      <trkpt lat="48.05842" lon="-4.5007">
        <ele>54</ele>
        <time>2022-06-03T07:23:14.985Z</time>
      </trkpt>
      <trkpt lat="48.0584" lon="-4.50077">
        <ele>54</ele>
        <time>2022-06-03T07:23:19.985Z</time>
      </trkpt>
      <trkpt lat="48.05836" lon="-4.50084">
        <ele>54</ele>
        <time>2022-06-03T07:23:24.994Z</time>
      </trkpt>
      <trkpt lat="48.05831" lon="-4.50085">
        <ele>54</ele>
        <time>2022-06-03T07:23:29.988Z</time>
      </trkpt>
      <trkpt lat="48.05828" lon="-4.50089">
        <ele>54</ele>
        <time>2022-06-03T07:23:33.969Z</time>
      </trkpt>
      <trkpt lat="48.05821" lon="-4.50088">
        <ele>54</ele>
        <time>2022-06-03T07:23:38.965Z</time>
      </trkpt>
      <trkpt lat="48.05815" lon="-4.50085">
        <ele>52</ele>
        <time>2022-06-03T07:23:42.982Z</time>
      </trkpt>
      <trkpt lat="48.05811" lon="-4.50084">
        <ele>52</ele>
        <time>2022-06-03T07:23:47.977Z</time>
      </trkpt>
      <trkpt lat="48.05809" lon="-4.50086">
        <ele>52</ele>
        <time>2022-06-03T07:23:51.996Z</time>
      </trkpt>
      <trkpt lat="48.05804" lon="-4.50089">
        <ele>52</ele>
        <time>2022-06-03T07:23:56.986Z</time>
      </trkpt>
      <trkpt lat="48.05802" lon="-4.50096">
        <ele>52</ele>
        <time>2022-06-03T07:24:01.992Z</time>
      </trkpt>
      <trkpt lat="48.05798" lon="-4.50105">
        <ele>51</ele>
        <time>2022-06-03T07:24:06.976Z</time>
      </trkpt>
      <trkpt lat="48.05796" lon="-4.50114">
        <ele>51</ele>
        <time>2022-06-03T07:24:11.961Z</time>
      </trkpt>
      <trkpt lat="48.05795" lon="-4.50121">
        <ele>51</ele>
        <time>2022-06-03T07:24:15.987Z</time>
      </trkpt>
      <trkpt lat="48.05793" lon="-4.50128">
        <ele>50</ele>
        <time>2022-06-03T07:24:20.979Z</time>
      </trkpt>
      <trkpt lat="48.05791" lon="-4.50133">
        <ele>49</ele>
        <time>2022-06-03T07:24:24.991Z</time>
      </trkpt>
      <trkpt lat="48.05789" lon="-4.50139">
        <ele>49</ele>
        <time>2022-06-03T07:24:29.955Z</time>
      </trkpt>
      <trkpt lat="48.05788" lon="-4.50145">
        <ele>49</ele>
        <time>2022-06-03T07:24:33.960Z</time>
      </trkpt>
      <trkpt lat="48.05786" lon="-4.50151">
        <ele>49</ele>
        <time>2022-06-03T07:24:37.994Z</time>
      </trkpt>
      <trkpt lat="48.05783" lon="-4.50157">
        <ele>49</ele>
        <time>2022-06-03T07:24:42.981Z</time>
      </trkpt>
      <trkpt lat="48.05781" lon="-4.50162">
        <ele>49</ele>
        <time>2022-06-03T07:24:46.984Z</time>
      </trkpt>
      <trkpt lat="48.05776" lon="-4.5017">
        <ele>49</ele>
        <time>2022-06-03T07:24:51.989Z</time>
      </trkpt>
      <trkpt lat="48.05772" lon="-4.50177">
        <ele>49</ele>
        <time>2022-06-03T07:24:56.966Z</time>
      </trkpt>
      <trkpt lat="48.05766" lon="-4.50186">
        <ele>47</ele>
        <time>2022-06-03T07:25:01.968Z</time>
      </trkpt>
      <trkpt lat="48.05761" lon="-4.50192">
        <ele>49</ele>
        <time>2022-06-03T07:25:05.974Z</time>
      </trkpt>
      <trkpt lat="48.05756" lon="-4.502">
        <ele>49</ele>
        <time>2022-06-03T07:25:10.967Z</time>
      </trkpt>
      <trkpt lat="48.05751" lon="-4.50208">
        <ele>49</ele>
        <time>2022-06-03T07:25:15.974Z</time>
      </trkpt>
      <trkpt lat="48.05747" lon="-4.50213">
        <ele>47</ele>
        <time>2022-06-03T07:25:19.993Z</time>
      </trkpt>
      <trkpt lat="48.05743" lon="-4.50217">
        <ele>47</ele>
        <time>2022-06-03T07:25:23.985Z</time>
      </trkpt>
      <trkpt lat="48.05737" lon="-4.50218">
        <ele>47</ele>
        <time>2022-06-03T07:25:28.962Z</time>
      </trkpt>
      <trkpt lat="48.05729" lon="-4.50217">
        <ele>48</ele>
        <time>2022-06-03T07:25:33.983Z</time>
      </trkpt>
      <trkpt lat="48.05723" lon="-4.50214">
        <ele>48</ele>
        <time>2022-06-03T07:25:38.001Z</time>
      </trkpt>
      <trkpt lat="48.05717" lon="-4.50213">
        <ele>48</ele>
        <time>2022-06-03T07:25:42.994Z</time>
      </trkpt>
      <trkpt lat="48.05711" lon="-4.50213">
        <ele>48</ele>
        <time>2022-06-03T07:25:47.990Z</time>
      </trkpt>
      <trkpt lat="48.05705" lon="-4.50211">
        <ele>48</ele>
        <time>2022-06-03T07:25:51.984Z</time>
      </trkpt>
      <trkpt lat="48.057" lon="-4.5021">
        <ele>48</ele>
        <time>2022-06-03T07:25:56.997Z</time>
      </trkpt>
      <trkpt lat="48.05694" lon="-4.50207">
        <ele>49</ele>
        <time>2022-06-03T07:26:01.971Z</time>
      </trkpt>
      <trkpt lat="48.05688" lon="-4.50205">
        <ele>49</ele>
        <time>2022-06-03T07:26:06.975Z</time>
      </trkpt>
      <trkpt lat="48.05684" lon="-4.50203">
        <ele>49</ele>
        <time>2022-06-03T07:26:10.981Z</time>
      </trkpt>
      <trkpt lat="48.0568" lon="-4.50202">
        <ele>50</ele>
        <time>2022-06-03T07:26:14.985Z</time>
      </trkpt>
      <trkpt lat="48.05673" lon="-4.502">
        <ele>50</ele>
        <time>2022-06-03T07:26:19.964Z</time>
      </trkpt>
      <trkpt lat="48.05668" lon="-4.502">
        <ele>50</ele>
        <time>2022-06-03T07:26:23.985Z</time>
      </trkpt>
      <trkpt lat="48.05665" lon="-4.50204">
        <ele>50</ele>
        <time>2022-06-03T07:26:29.014Z</time>
      </trkpt>
      <trkpt lat="48.05663" lon="-4.50193">
        <ele>50</ele>
        <time>2022-06-03T07:32:20.991Z</time>
      </trkpt>
      <trkpt lat="48.05662" lon="-4.50193">
        <ele>50</ele>
        <time>2022-06-03T07:32:25.977Z</time>
      </trkpt>
      <trkpt lat="48.05659" lon="-4.50192">
        <ele>50</ele>
        <time>2022-06-03T07:32:30.972Z</time>
      </trkpt>
      <trkpt lat="48.05658" lon="-4.5019">
        <ele>50</ele>
        <time>2022-06-03T07:32:34.991Z</time>
      </trkpt>
      <trkpt lat="48.05658" lon="-4.50189">
        <ele>50</ele>
        <time>2022-06-03T07:32:39.017Z</time>
      </trkpt>
      <trkpt lat="48.0566" lon="-4.50197">
        <ele>50</ele>
        <time>2022-06-03T07:38:14.950Z</time>
      </trkpt>
      <trkpt lat="48.05655" lon="-4.50202">
        <ele>50</ele>
        <time>2022-06-03T07:38:19.938Z</time>
      </trkpt>
      <trkpt lat="48.05654" lon="-4.50208">
        <ele>50</ele>
        <time>2022-06-03T07:38:23.950Z</time>
      </trkpt>
      <trkpt lat="48.05652" lon="-4.50215">
        <ele>50</ele>
        <time>2022-06-03T07:38:28.947Z</time>
      </trkpt>
      <trkpt lat="48.0565" lon="-4.50222">
        <ele>50</ele>
        <time>2022-06-03T07:38:33Z</time>
      </trkpt>
      <trkpt lat="48.0565" lon="-4.50234">
        <ele>50</ele>
        <time>2022-06-03T07:38:37.963Z</time>
      </trkpt>
      <trkpt lat="48.05647" lon="-4.50241">
        <ele>49</ele>
        <time>2022-06-03T07:38:41.981Z</time>
      </trkpt>
      <trkpt lat="48.05644" lon="-4.50248">
        <ele>49</ele>
        <time>2022-06-03T07:38:46.966Z</time>
      </trkpt>
      <trkpt lat="48.05642" lon="-4.50258">
        <ele>49</ele>
        <time>2022-06-03T07:38:51.966Z</time>
      </trkpt>
      <trkpt lat="48.0564" lon="-4.50267">
        <ele>47</ele>
        <time>2022-06-03T07:38:56.978Z</time>
      </trkpt>
      <trkpt lat="48.05638" lon="-4.50274">
        <ele>47</ele>
        <time>2022-06-03T07:39:01.977Z</time>
      </trkpt>
      <trkpt lat="48.05636" lon="-4.50282">
        <ele>47</ele>
        <time>2022-06-03T07:39:06.970Z</time>
      </trkpt>
      <trkpt lat="48.05634" lon="-4.50288">
        <ele>47</ele>
        <time>2022-06-03T07:39:10.992Z</time>
      </trkpt>
      <trkpt lat="48.05631" lon="-4.50296">
        <ele>45</ele>
        <time>2022-06-03T07:39:15.981Z</time>
      </trkpt>
      <trkpt lat="48.05628" lon="-4.50304">
        <ele>45</ele>
        <time>2022-06-03T07:39:20.994Z</time>
      </trkpt>
      <trkpt lat="48.05626" lon="-4.5031">
        <ele>45</ele>
        <time>2022-06-03T07:39:25.986Z</time>
      </trkpt>
      <trkpt lat="48.05626" lon="-4.50318">
        <ele>45</ele>
        <time>2022-06-03T07:39:30.987Z</time>
      </trkpt>
      <trkpt lat="48.05625" lon="-4.50327">
        <ele>44</ele>
        <time>2022-06-03T07:39:36.005Z</time>
      </trkpt>
      <trkpt lat="48.05622" lon="-4.50333">
        <ele>47</ele>
        <time>2022-06-03T07:39:41.001Z</time>
      </trkpt>
      <trkpt lat="48.0562" lon="-4.50341">
        <ele>47</ele>
        <time>2022-06-03T07:39:45.995Z</time>
      </trkpt>
      <trkpt lat="48.05618" lon="-4.50348">
        <ele>46</ele>
        <time>2022-06-03T07:39:51.006Z</time>
      </trkpt>
      <trkpt lat="48.05616" lon="-4.50355">
        <ele>46</ele>
        <time>2022-06-03T07:39:55.978Z</time>
      </trkpt>
      <trkpt lat="48.05613" lon="-4.5036">
        <ele>46</ele>
        <time>2022-06-03T07:39:59.987Z</time>
      </trkpt>
      <trkpt lat="48.05611" lon="-4.50368">
        <ele>46</ele>
        <time>2022-06-03T07:40:04.999Z</time>
      </trkpt>
      <trkpt lat="48.05609" lon="-4.50376">
        <ele>43</ele>
        <time>2022-06-03T07:40:09.970Z</time>
      </trkpt>
      <trkpt lat="48.05607" lon="-4.50383">
        <ele>43</ele>
        <time>2022-06-03T07:40:14.987Z</time>
      </trkpt>
      <trkpt lat="48.05604" lon="-4.50388">
        <ele>43</ele>
        <time>2022-06-03T07:40:18.982Z</time>
      </trkpt>
      <trkpt lat="48.05602" lon="-4.50395">
        <ele>43</ele>
        <time>2022-06-03T07:40:23.992Z</time>
      </trkpt>
      <trkpt lat="48.056" lon="-4.50402">
        <ele>43</ele>
        <time>2022-06-03T07:40:27.992Z</time>
      </trkpt>
      <trkpt lat="48.05599" lon="-4.5041">
        <ele>41</ele>
        <time>2022-06-03T07:40:32.962Z</time>
      </trkpt>
      <trkpt lat="48.05597" lon="-4.50416">
        <ele>45</ele>
        <time>2022-06-03T07:40:36.961Z</time>
      </trkpt>
      <trkpt lat="48.05595" lon="-4.50423">
        <ele>45</ele>
        <time>2022-06-03T07:40:41.978Z</time>
      </trkpt>
      <trkpt lat="48.05594" lon="-4.50428">
        <ele>45</ele>
        <time>2022-06-03T07:40:45.979Z</time>
      </trkpt>
      <trkpt lat="48.05594" lon="-4.50433">
        <ele>43</ele>
        <time>2022-06-03T07:40:49.969Z</time>
      </trkpt>
      <trkpt lat="48.05593" lon="-4.5044">
        <ele>43</ele>
        <time>2022-06-03T07:40:54.955Z</time>
      </trkpt>
      <trkpt lat="48.05591" lon="-4.50446">
        <ele>43</ele>
        <time>2022-06-03T07:40:58.988Z</time>
      </trkpt>
      <trkpt lat="48.0559" lon="-4.50453">
        <ele>43</ele>
        <time>2022-06-03T07:41:02.996Z</time>
      </trkpt>
      <trkpt lat="48.05588" lon="-4.50462">
        <ele>40</ele>
        <time>2022-06-03T07:41:07.975Z</time>
      </trkpt>
      <trkpt lat="48.0559" lon="-4.5047">
        <ele>40</ele>
        <time>2022-06-03T07:41:12.990Z</time>
      </trkpt>
      <trkpt lat="48.05588" lon="-4.50477">
        <ele>40</ele>
        <time>2022-06-03T07:41:17.993Z</time>
      </trkpt>
      <trkpt lat="48.05585" lon="-4.50485">
        <ele>40</ele>
        <time>2022-06-03T07:41:22.995Z</time>
      </trkpt>
      <trkpt lat="48.05582" lon="-4.50497">
        <ele>38</ele>
        <time>2022-06-03T07:41:27.960Z</time>
      </trkpt>
      <trkpt lat="48.05578" lon="-4.50505">
        <ele>38</ele>
        <time>2022-06-03T07:41:32.970Z</time>
      </trkpt>
      <trkpt lat="48.05576" lon="-4.50512">
        <ele>38</ele>
        <time>2022-06-03T07:41:37.974Z</time>
      </trkpt>
      <trkpt lat="48.05573" lon="-4.5052">
        <ele>37</ele>
        <time>2022-06-03T07:41:42.965Z</time>
      </trkpt>
      <trkpt lat="48.05568" lon="-4.50522">
        <ele>38</ele>
        <time>2022-06-03T07:41:47.947Z</time>
      </trkpt>
      <trkpt lat="48.05561" lon="-4.50516">
        <ele>38</ele>
        <time>2022-06-03T07:41:52.943Z</time>
      </trkpt>
      <trkpt lat="48.05562" lon="-4.50512">
        <ele>40</ele>
        <time>2022-06-03T07:41:56.946Z</time>
      </trkpt>
      <trkpt lat="48.05561" lon="-4.50512">
        <ele>40</ele>
        <time>2022-06-03T07:42:01.950Z</time>
      </trkpt>
      <trkpt lat="48.05561" lon="-4.50507">
        <ele>40</ele>
        <time>2022-06-03T07:42:25.970Z</time>
      </trkpt>
      <trkpt lat="48.05559" lon="-4.50505">
        <ele>40</ele>
        <time>2022-06-03T07:42:30.956Z</time>
      </trkpt>
      <trkpt lat="48.05558" lon="-4.50504">
        <ele>40</ele>
        <time>2022-06-03T07:42:35.948Z</time>
      </trkpt>
      <trkpt lat="48.05557" lon="-4.50505">
        <ele>40</ele>
        <time>2022-06-03T07:42:40.943Z</time>
      </trkpt>
      <trkpt lat="48.05556" lon="-4.50505">
        <ele>40</ele>
        <time>2022-06-03T07:42:45.947Z</time>
      </trkpt>
      <trkpt lat="48.05555" lon="-4.50507">
        <ele>40</ele>
        <time>2022-06-03T07:43:50.949Z</time>
      </trkpt>
      <trkpt lat="48.05555" lon="-4.5051">
        <ele>40</ele>
        <time>2022-06-03T07:43:54.950Z</time>
      </trkpt>
      <trkpt lat="48.05556" lon="-4.50516">
        <ele>38</ele>
        <time>2022-06-03T07:43:59.944Z</time>
      </trkpt>
      <trkpt lat="48.05558" lon="-4.50521">
        <ele>38</ele>
        <time>2022-06-03T07:44:03.955Z</time>
      </trkpt>
      <trkpt lat="48.05558" lon="-4.50526">
        <ele>38</ele>
        <time>2022-06-03T07:44:08.953Z</time>
      </trkpt>
      <trkpt lat="48.05558" lon="-4.50531">
        <ele>38</ele>
        <time>2022-06-03T07:44:12.956Z</time>
      </trkpt>
      <trkpt lat="48.05558" lon="-4.50537">
        <ele>38</ele>
        <time>2022-06-03T07:44:16.962Z</time>
      </trkpt>
      <trkpt lat="48.05559" lon="-4.50545">
        <ele>38</ele>
        <time>2022-06-03T07:44:21.959Z</time>
      </trkpt>
      <trkpt lat="48.0556" lon="-4.50554">
        <ele>38</ele>
        <time>2022-06-03T07:44:26.992Z</time>
      </trkpt>
      <trkpt lat="48.0556" lon="-4.50565">
        <ele>38</ele>
        <time>2022-06-03T07:44:31.971Z</time>
      </trkpt>
      <trkpt lat="48.05561" lon="-4.50575">
        <ele>39</ele>
        <time>2022-06-03T07:44:36.954Z</time>
      </trkpt>
      <trkpt lat="48.05563" lon="-4.50581">
        <ele>39</ele>
        <time>2022-06-03T07:44:40.969Z</time>
      </trkpt>
      <trkpt lat="48.05561" lon="-4.50587">
        <ele>39</ele>
        <time>2022-06-03T07:44:45.938Z</time>
      </trkpt>
      <trkpt lat="48.05558" lon="-4.50592">
        <ele>39</ele>
        <time>2022-06-03T07:44:49.961Z</time>
      </trkpt>
      <trkpt lat="48.05555" lon="-4.50594">
        <ele>39</ele>
        <time>2022-06-03T07:44:53.961Z</time>
      </trkpt>
      <trkpt lat="48.05552" lon="-4.50596">
        <ele>39</ele>
        <time>2022-06-03T07:44:58.946Z</time>
      </trkpt>
      <trkpt lat="48.05549" lon="-4.50596">
        <ele>39</ele>
        <time>2022-06-03T07:45:02.969Z</time>
      </trkpt>
      <trkpt lat="48.05546" lon="-4.50598">
        <ele>40</ele>
        <time>2022-06-03T07:45:07.996Z</time>
      </trkpt>
      <trkpt lat="48.05541" lon="-4.50601">
        <ele>40</ele>
        <time>2022-06-03T07:45:12.975Z</time>
      </trkpt>
      <trkpt lat="48.05537" lon="-4.50603">
        <ele>40</ele>
        <time>2022-06-03T07:45:16.960Z</time>
      </trkpt>
      <trkpt lat="48.05533" lon="-4.50604">
        <ele>40</ele>
        <time>2022-06-03T07:45:21.972Z</time>
      </trkpt>
      <trkpt lat="48.05528" lon="-4.50605">
        <ele>40</ele>
        <time>2022-06-03T07:45:26.992Z</time>
      </trkpt>
      <trkpt lat="48.05523" lon="-4.50606">
        <ele>40</ele>
        <time>2022-06-03T07:45:31.987Z</time>
      </trkpt>
      <trkpt lat="48.05518" lon="-4.50608">
        <ele>40</ele>
        <time>2022-06-03T07:45:36.995Z</time>
      </trkpt>
      <trkpt lat="48.05513" lon="-4.5061">
        <ele>40</ele>
        <time>2022-06-03T07:45:41.984Z</time>
      </trkpt>
      <trkpt lat="48.05507" lon="-4.50612">
        <ele>40</ele>
        <time>2022-06-03T07:45:46.977Z</time>
      </trkpt>
      <trkpt lat="48.05502" lon="-4.50613">
        <ele>40</ele>
        <time>2022-06-03T07:45:51.966Z</time>
      </trkpt>
      <trkpt lat="48.05496" lon="-4.50616">
        <ele>40</ele>
        <time>2022-06-03T07:45:56.983Z</time>
      </trkpt>
      <trkpt lat="48.05492" lon="-4.50617">
        <ele>40</ele>
        <time>2022-06-03T07:46:00.986Z</time>
      </trkpt>
      <trkpt lat="48.05486" lon="-4.50619">
        <ele>40</ele>
        <time>2022-06-03T07:46:05.976Z</time>
      </trkpt>
      <trkpt lat="48.05482" lon="-4.50621">
        <ele>39</ele>
        <time>2022-06-03T07:46:09.962Z</time>
      </trkpt>
      <trkpt lat="48.05478" lon="-4.50623">
        <ele>39</ele>
        <time>2022-06-03T07:46:14.958Z</time>
      </trkpt>
      <trkpt lat="48.05475" lon="-4.50627">
        <ele>40</ele>
        <time>2022-06-03T07:46:19.973Z</time>
      </trkpt>
      <trkpt lat="48.0547" lon="-4.50633">
        <ele>40</ele>
        <time>2022-06-03T07:46:24.965Z</time>
      </trkpt>
      <trkpt lat="48.05463" lon="-4.50637">
        <ele>40</ele>
        <time>2022-06-03T07:46:29.979Z</time>
      </trkpt>
      <trkpt lat="48.05457" lon="-4.50641">
        <ele>39</ele>
        <time>2022-06-03T07:46:34.967Z</time>
      </trkpt>
      <trkpt lat="48.05452" lon="-4.50644">
        <ele>39</ele>
        <time>2022-06-03T07:46:39.982Z</time>
      </trkpt>
      <trkpt lat="48.05447" lon="-4.50647">
        <ele>39</ele>
        <time>2022-06-03T07:46:44.984Z</time>
      </trkpt>
      <trkpt lat="48.05442" lon="-4.50651">
        <ele>39</ele>
        <time>2022-06-03T07:46:49.975Z</time>
      </trkpt>
      <trkpt lat="48.05438" lon="-4.50655">
        <ele>40</ele>
        <time>2022-06-03T07:46:54.992Z</time>
      </trkpt>
      <trkpt lat="48.05436" lon="-4.50659">
        <ele>40</ele>
        <time>2022-06-03T07:46:59.975Z</time>
      </trkpt>
      <trkpt lat="48.05432" lon="-4.50663">
        <ele>40</ele>
        <time>2022-06-03T07:47:03.994Z</time>
      </trkpt>
      <trkpt lat="48.05428" lon="-4.50666">
        <ele>40</ele>
        <time>2022-06-03T07:47:08.008Z</time>
      </trkpt>
      <trkpt lat="48.05424" lon="-4.50669">
        <ele>40</ele>
        <time>2022-06-03T07:47:12.960Z</time>
      </trkpt>
      <trkpt lat="48.0542" lon="-4.50672">
        <ele>40</ele>
        <time>2022-06-03T07:47:16.974Z</time>
      </trkpt>
      <trkpt lat="48.05416" lon="-4.50676">
        <ele>40</ele>
        <time>2022-06-03T07:47:21.990Z</time>
      </trkpt>
      <trkpt lat="48.05413" lon="-4.50681">
        <ele>41</ele>
        <time>2022-06-03T07:47:26.961Z</time>
      </trkpt>
      <trkpt lat="48.05409" lon="-4.50683">
        <ele>41</ele>
        <time>2022-06-03T07:47:30.962Z</time>
      </trkpt>
      <trkpt lat="48.05407" lon="-4.50687">
        <ele>41</ele>
        <time>2022-06-03T07:47:35.990Z</time>
      </trkpt>
      <trkpt lat="48.05406" lon="-4.50688">
        <ele>41</ele>
        <time>2022-06-03T07:47:40.978Z</time>
      </trkpt>
      <trkpt lat="48.05403" lon="-4.50688">
        <ele>41</ele>
        <time>2022-06-03T07:47:45.946Z</time>
      </trkpt>
      <trkpt lat="48.05399" lon="-4.50691">
        <ele>40</ele>
        <time>2022-06-03T07:47:49.994Z</time>
      </trkpt>
      <trkpt lat="48.05395" lon="-4.50696">
        <ele>40</ele>
        <time>2022-06-03T07:47:54.947Z</time>
      </trkpt>
      <trkpt lat="48.0539" lon="-4.50701">
        <ele>40</ele>
        <time>2022-06-03T07:47:58.978Z</time>
      </trkpt>
      <trkpt lat="48.05385" lon="-4.50706">
        <ele>40</ele>
        <time>2022-06-03T07:48:02.984Z</time>
      </trkpt>
      <trkpt lat="48.0538" lon="-4.50709">
        <ele>42</ele>
        <time>2022-06-03T07:48:07.986Z</time>
      </trkpt>
      <trkpt lat="48.05373" lon="-4.50713">
        <ele>40</ele>
        <time>2022-06-03T07:48:12.969Z</time>
      </trkpt>
      <trkpt lat="48.05367" lon="-4.50715">
        <ele>40</ele>
        <time>2022-06-03T07:48:17.971Z</time>
      </trkpt>
      <trkpt lat="48.05362" lon="-4.50715">
        <ele>40</ele>
        <time>2022-06-03T07:48:22.979Z</time>
      </trkpt>
      <trkpt lat="48.05357" lon="-4.50717">
        <ele>40</ele>
        <time>2022-06-03T07:48:27.986Z</time>
      </trkpt>
      <trkpt lat="48.05351" lon="-4.50718">
        <ele>40</ele>
        <time>2022-06-03T07:48:31.991Z</time>
      </trkpt>
      <trkpt lat="48.05344" lon="-4.5072">
        <ele>38</ele>
        <time>2022-06-03T07:48:36.996Z</time>
      </trkpt>
      <trkpt lat="48.05339" lon="-4.50721">
        <ele>38</ele>
        <time>2022-06-03T07:48:41.983Z</time>
      </trkpt>
      <trkpt lat="48.05335" lon="-4.50725">
        <ele>38</ele>
        <time>2022-06-03T07:48:46.977Z</time>
      </trkpt>
      <trkpt lat="48.05327" lon="-4.50727">
        <ele>38</ele>
        <time>2022-06-03T07:48:51.987Z</time>
      </trkpt>
      <trkpt lat="48.05319" lon="-4.50729">
        <ele>38</ele>
        <time>2022-06-03T07:48:56.944Z</time>
      </trkpt>
      <trkpt lat="48.05315" lon="-4.50731">
        <ele>39</ele>
        <time>2022-06-03T07:49:00.990Z</time>
      </trkpt>
      <trkpt lat="48.0531" lon="-4.50733">
        <ele>39</ele>
        <time>2022-06-03T07:49:05.970Z</time>
      </trkpt>
      <trkpt lat="48.05305" lon="-4.50735">
        <ele>39</ele>
        <time>2022-06-03T07:49:09.980Z</time>
      </trkpt>
      <trkpt lat="48.053" lon="-4.50736">
        <ele>40</ele>
        <time>2022-06-03T07:49:14.987Z</time>
      </trkpt>
      <trkpt lat="48.05296" lon="-4.50738">
        <ele>40</ele>
        <time>2022-06-03T07:49:18.994Z</time>
      </trkpt>
      <trkpt lat="48.05294" lon="-4.50744">
        <ele>40</ele>
        <time>2022-06-03T07:49:23.991Z</time>
      </trkpt>
      <trkpt lat="48.05291" lon="-4.50753">
        <ele>44</ele>
        <time>2022-06-03T07:49:28.984Z</time>
      </trkpt>
      <trkpt lat="48.0529" lon="-4.50761">
        <ele>44</ele>
        <time>2022-06-03T07:49:32.985Z</time>
      </trkpt>
      <trkpt lat="48.05289" lon="-4.50771">
        <ele>43</ele>
        <time>2022-06-03T07:49:37.974Z</time>
      </trkpt>
      <trkpt lat="48.0529" lon="-4.5078">
        <ele>43</ele>
        <time>2022-06-03T07:49:42.977Z</time>
      </trkpt>
      <trkpt lat="48.05293" lon="-4.50788">
        <ele>40</ele>
        <time>2022-06-03T07:49:48.013Z</time>
      </trkpt>
      <trkpt lat="48.05296" lon="-4.50795">
        <ele>40</ele>
        <time>2022-06-03T07:49:52.985Z</time>
      </trkpt>
      <trkpt lat="48.05299" lon="-4.50802">
        <ele>40</ele>
        <time>2022-06-03T07:49:57.994Z</time>
      </trkpt>
      <trkpt lat="48.05302" lon="-4.5081">
        <ele>40</ele>
        <time>2022-06-03T07:50:02.970Z</time>
      </trkpt>
      <trkpt lat="48.05304" lon="-4.50818">
        <ele>40</ele>
        <time>2022-06-03T07:50:07.956Z</time>
      </trkpt>
      <trkpt lat="48.05306" lon="-4.50826">
        <ele>39</ele>
        <time>2022-06-03T07:50:11.974Z</time>
      </trkpt>
      <trkpt lat="48.05308" lon="-4.50834">
        <ele>39</ele>
        <time>2022-06-03T07:50:16.978Z</time>
      </trkpt>
      <trkpt lat="48.0531" lon="-4.5084">
        <ele>39</ele>
        <time>2022-06-03T07:50:20.980Z</time>
      </trkpt>
      <trkpt lat="48.05312" lon="-4.50847">
        <ele>39</ele>
        <time>2022-06-03T07:50:25.975Z</time>
      </trkpt>
      <trkpt lat="48.05315" lon="-4.50851">
        <ele>40</ele>
        <time>2022-06-03T07:50:30.985Z</time>
      </trkpt>
      <trkpt lat="48.05318" lon="-4.50857">
        <ele>40</ele>
        <time>2022-06-03T07:50:35.977Z</time>
      </trkpt>
      <trkpt lat="48.05322" lon="-4.50861">
        <ele>41</ele>
        <time>2022-06-03T07:50:40.971Z</time>
      </trkpt>
      <trkpt lat="48.05324" lon="-4.50867">
        <ele>41</ele>
        <time>2022-06-03T07:50:45.974Z</time>
      </trkpt>
      <trkpt lat="48.05326" lon="-4.50874">
        <ele>41</ele>
        <time>2022-06-03T07:50:50.965Z</time>
      </trkpt>
      <trkpt lat="48.05329" lon="-4.50878">
        <ele>41</ele>
        <time>2022-06-03T07:50:55.971Z</time>
      </trkpt>
      <trkpt lat="48.0533" lon="-4.50886">
        <ele>41</ele>
        <time>2022-06-03T07:51:00.976Z</time>
      </trkpt>
      <trkpt lat="48.05332" lon="-4.50893">
        <ele>41</ele>
        <time>2022-06-03T07:51:05.968Z</time>
      </trkpt>
      <trkpt lat="48.05336" lon="-4.50899">
        <ele>41</ele>
        <time>2022-06-03T07:51:10.966Z</time>
      </trkpt>
      <trkpt lat="48.05337" lon="-4.50906">
        <ele>41</ele>
        <time>2022-06-03T07:51:14.986Z</time>
      </trkpt>
      <trkpt lat="48.05339" lon="-4.50911">
        <ele>41</ele>
        <time>2022-06-03T07:51:18.978Z</time>
      </trkpt>
      <trkpt lat="48.05341" lon="-4.50919">
        <ele>41</ele>
        <time>2022-06-03T07:51:23.988Z</time>
      </trkpt>
      <trkpt lat="48.05347" lon="-4.50927">
        <ele>41</ele>
        <time>2022-06-03T07:51:28.971Z</time>
      </trkpt>
      <trkpt lat="48.05351" lon="-4.50934">
        <ele>43</ele>
        <time>2022-06-03T07:51:32.987Z</time>
      </trkpt>
      <trkpt lat="48.05355" lon="-4.5094">
        <ele>43</ele>
        <time>2022-06-03T07:51:37.992Z</time>
      </trkpt>
      <trkpt lat="48.05359" lon="-4.50949">
        <ele>43</ele>
        <time>2022-06-03T07:51:42.972Z</time>
      </trkpt>
      <trkpt lat="48.05361" lon="-4.50954">
        <ele>43</ele>
        <time>2022-06-03T07:51:51.990Z</time>
      </trkpt>
      <trkpt lat="48.05362" lon="-4.50955">
        <ele>43</ele>
        <time>2022-06-03T07:51:56.979Z</time>
      </trkpt>
      <trkpt lat="48.05362" lon="-4.50955">
        <ele>43</ele>
        <time>2022-06-03T07:52:01.980Z</time>
      </trkpt>
      <trkpt lat="48.05363" lon="-4.50959">
        <ele>43</ele>
        <time>2022-06-03T07:52:05.964Z</time>
      </trkpt>
      <trkpt lat="48.05367" lon="-4.50963">
        <ele>43</ele>
        <time>2022-06-03T07:52:09.983Z</time>
      </trkpt>
      <trkpt lat="48.05371" lon="-4.50968">
        <ele>43</ele>
        <time>2022-06-03T07:52:14.958Z</time>
      </trkpt>
      <trkpt lat="48.05375" lon="-4.50971">
        <ele>43</ele>
        <time>2022-06-03T07:52:18.977Z</time>
      </trkpt>
      <trkpt lat="48.0538" lon="-4.50976">
        <ele>43</ele>
        <time>2022-06-03T07:52:23.985Z</time>
      </trkpt>
      <trkpt lat="48.05386" lon="-4.5098">
        <ele>43</ele>
        <time>2022-06-03T07:52:28.963Z</time>
      </trkpt>
      <trkpt lat="48.0539" lon="-4.50983">
        <ele>43</ele>
        <time>2022-06-03T07:52:32.982Z</time>
      </trkpt>
      <trkpt lat="48.05395" lon="-4.50986">
        <ele>43</ele>
        <time>2022-06-03T07:52:37.983Z</time>
      </trkpt>
      <trkpt lat="48.054" lon="-4.5099">
        <ele>43</ele>
        <time>2022-06-03T07:52:42.981Z</time>
      </trkpt>
      <trkpt lat="48.05404" lon="-4.50991">
        <ele>44</ele>
        <time>2022-06-03T07:52:46.986Z</time>
      </trkpt>
      <trkpt lat="48.05409" lon="-4.50992">
        <ele>44</ele>
        <time>2022-06-03T07:52:51.974Z</time>
      </trkpt>
      <trkpt lat="48.05414" lon="-4.50994">
        <ele>44</ele>
        <time>2022-06-03T07:52:56.973Z</time>
      </trkpt>
      <trkpt lat="48.05419" lon="-4.50997">
        <ele>44</ele>
        <time>2022-06-03T07:53:01.952Z</time>
      </trkpt>
      <trkpt lat="48.05428" lon="-4.51002">
        <ele>44</ele>
        <time>2022-06-03T07:53:06.945Z</time>
      </trkpt>
      <trkpt lat="48.05434" lon="-4.51005">
        <ele>45</ele>
        <time>2022-06-03T07:53:11.938Z</time>
      </trkpt>
      <trkpt lat="48.05436" lon="-4.51004">
        <ele>45</ele>
        <time>2022-06-03T07:53:15.979Z</time>
      </trkpt>
      <trkpt lat="48.05443" lon="-4.5101">
        <ele>45</ele>
        <time>2022-06-03T07:53:20.950Z</time>
      </trkpt>
      <trkpt lat="48.05446" lon="-4.51014">
        <ele>45</ele>
        <time>2022-06-03T07:53:25.943Z</time>
      </trkpt>
      <trkpt lat="48.0545" lon="-4.51019">
        <ele>46</ele>
        <time>2022-06-03T07:53:29.947Z</time>
      </trkpt>
      <trkpt lat="48.05455" lon="-4.51021">
        <ele>46</ele>
        <time>2022-06-03T07:53:34.950Z</time>
      </trkpt>
      <trkpt lat="48.05463" lon="-4.51026">
        <ele>47</ele>
        <time>2022-06-03T07:53:39.949Z</time>
      </trkpt>
      <trkpt lat="48.05468" lon="-4.51031">
        <ele>47</ele>
        <time>2022-06-03T07:53:44.943Z</time>
      </trkpt>
      <trkpt lat="48.05471" lon="-4.51033">
        <ele>47</ele>
        <time>2022-06-03T07:53:48.944Z</time>
      </trkpt>
      <trkpt lat="48.05477" lon="-4.51037">
        <ele>47</ele>
        <time>2022-06-03T07:53:53.952Z</time>
      </trkpt>
      <trkpt lat="48.05481" lon="-4.51038">
        <ele>47</ele>
        <time>2022-06-03T07:53:58.954Z</time>
      </trkpt>
      <trkpt lat="48.05486" lon="-4.51038">
        <ele>47</ele>
        <time>2022-06-03T07:54:02.966Z</time>
      </trkpt>
      <trkpt lat="48.05489" lon="-4.51043">
        <ele>48</ele>
        <time>2022-06-03T07:54:06.961Z</time>
      </trkpt>
      <trkpt lat="48.05493" lon="-4.51046">
        <ele>48</ele>
        <time>2022-06-03T07:54:10.981Z</time>
      </trkpt>
      <trkpt lat="48.05498" lon="-4.5105">
        <ele>48</ele>
        <time>2022-06-03T07:54:15.964Z</time>
      </trkpt>
      <trkpt lat="48.05504" lon="-4.51053">
        <ele>48</ele>
        <time>2022-06-03T07:54:19.996Z</time>
      </trkpt>
      <trkpt lat="48.05509" lon="-4.51054">
        <ele>48</ele>
        <time>2022-06-03T07:54:24.989Z</time>
      </trkpt>
      <trkpt lat="48.05516" lon="-4.51055">
        <ele>48</ele>
        <time>2022-06-03T07:54:29.967Z</time>
      </trkpt>
      <trkpt lat="48.0552" lon="-4.51055">
        <ele>48</ele>
        <time>2022-06-03T07:54:33.996Z</time>
      </trkpt>
      <trkpt lat="48.05525" lon="-4.51057">
        <ele>48</ele>
        <time>2022-06-03T07:54:38.970Z</time>
      </trkpt>
      <trkpt lat="48.05529" lon="-4.51057">
        <ele>48</ele>
        <time>2022-06-03T07:54:43.986Z</time>
      </trkpt>
      <trkpt lat="48.05535" lon="-4.51061">
        <ele>48</ele>
        <time>2022-06-03T07:54:48.972Z</time>
      </trkpt>
      <trkpt lat="48.0554" lon="-4.51063">
        <ele>48</ele>
        <time>2022-06-03T07:54:53Z</time>
      </trkpt>
      <trkpt lat="48.05545" lon="-4.51065">
        <ele>48</ele>
        <time>2022-06-03T07:54:57.985Z</time>
      </trkpt>
      <trkpt lat="48.0555" lon="-4.51065">
        <ele>48</ele>
        <time>2022-06-03T07:55:01.980Z</time>
      </trkpt>
      <trkpt lat="48.05555" lon="-4.51066">
        <ele>48</ele>
        <time>2022-06-03T07:55:06.962Z</time>
      </trkpt>
      <trkpt lat="48.05562" lon="-4.51068">
        <ele>48</ele>
        <time>2022-06-03T07:55:11.990Z</time>
      </trkpt>
      <trkpt lat="48.05568" lon="-4.51073">
        <ele>48</ele>
        <time>2022-06-03T07:55:16.961Z</time>
      </trkpt>
      <trkpt lat="48.05574" lon="-4.51077">
        <ele>48</ele>
        <time>2022-06-03T07:55:21.018Z</time>
      </trkpt>
      <trkpt lat="48.0558" lon="-4.51079">
        <ele>48</ele>
        <time>2022-06-03T07:55:25.981Z</time>
      </trkpt>
      <trkpt lat="48.05585" lon="-4.51078">
        <ele>48</ele>
        <time>2022-06-03T07:55:30.010Z</time>
      </trkpt>
      <trkpt lat="48.05591" lon="-4.51081">
        <ele>48</ele>
        <time>2022-06-03T07:55:34.996Z</time>
      </trkpt>
      <trkpt lat="48.05597" lon="-4.51083">
        <ele>48</ele>
        <time>2022-06-03T07:55:39.978Z</time>
      </trkpt>
      <trkpt lat="48.05603" lon="-4.51084">
        <ele>47</ele>
        <time>2022-06-03T07:55:45.006Z</time>
      </trkpt>
      <trkpt lat="48.0561" lon="-4.51087">
        <ele>47</ele>
        <time>2022-06-03T07:55:49.977Z</time>
      </trkpt>
      <trkpt lat="48.05615" lon="-4.51089">
        <ele>47</ele>
        <time>2022-06-03T07:55:55.003Z</time>
      </trkpt>
      <trkpt lat="48.05621" lon="-4.51091">
        <ele>47</ele>
        <time>2022-06-03T07:55:58.989Z</time>
      </trkpt>
      <trkpt lat="48.05627" lon="-4.51092">
        <ele>48</ele>
        <time>2022-06-03T07:56:03.978Z</time>
      </trkpt>
      <trkpt lat="48.05631" lon="-4.51094">
        <ele>48</ele>
        <time>2022-06-03T07:56:07.982Z</time>
      </trkpt>
      <trkpt lat="48.05637" lon="-4.51096">
        <ele>48</ele>
        <time>2022-06-03T07:56:12.978Z</time>
      </trkpt>
      <trkpt lat="48.05643" lon="-4.51097">
        <ele>48</ele>
        <time>2022-06-03T07:56:17.991Z</time>
      </trkpt>
      <trkpt lat="48.05649" lon="-4.51098">
        <ele>48</ele>
        <time>2022-06-03T07:56:22.999Z</time>
      </trkpt>
      <trkpt lat="48.05654" lon="-4.51099">
        <ele>52</ele>
        <time>2022-06-03T07:56:27.980Z</time>
      </trkpt>
      <trkpt lat="48.05659" lon="-4.51101">
        <ele>52</ele>
        <time>2022-06-03T07:56:31.985Z</time>
      </trkpt>
      <trkpt lat="48.05664" lon="-4.51102">
        <ele>52</ele>
        <time>2022-06-03T07:56:36.991Z</time>
      </trkpt>
      <trkpt lat="48.05669" lon="-4.51104">
        <ele>52</ele>
        <time>2022-06-03T07:56:40.983Z</time>
      </trkpt>
      <trkpt lat="48.05675" lon="-4.51107">
        <ele>52</ele>
        <time>2022-06-03T07:56:45.966Z</time>
      </trkpt>
      <trkpt lat="48.05681" lon="-4.51108">
        <ele>54</ele>
        <time>2022-06-03T07:56:50.979Z</time>
      </trkpt>
      <trkpt lat="48.05685" lon="-4.51107">
        <ele>54</ele>
        <time>2022-06-03T07:56:54.975Z</time>
      </trkpt>
      <trkpt lat="48.0569" lon="-4.51107">
        <ele>54</ele>
        <time>2022-06-03T07:56:59.982Z</time>
      </trkpt>
      <trkpt lat="48.05697" lon="-4.5111">
        <ele>54</ele>
        <time>2022-06-03T07:57:04.969Z</time>
      </trkpt>
      <trkpt lat="48.05702" lon="-4.51111">
        <ele>54</ele>
        <time>2022-06-03T07:57:09.951Z</time>
      </trkpt>
      <trkpt lat="48.05713" lon="-4.51118">
        <ele>56</ele>
        <time>2022-06-03T07:57:32.964Z</time>
      </trkpt>
      <trkpt lat="48.05712" lon="-4.51124">
        <ele>56</ele>
        <time>2022-06-03T07:57:37.962Z</time>
      </trkpt>
      <trkpt lat="48.05712" lon="-4.51126">
        <ele>56</ele>
        <time>2022-06-03T07:57:41.959Z</time>
      </trkpt>
      <trkpt lat="48.05711" lon="-4.51131">
        <ele>56</ele>
        <time>2022-06-03T07:57:46.961Z</time>
      </trkpt>
      <trkpt lat="48.05711" lon="-4.51135">
        <ele>56</ele>
        <time>2022-06-03T07:57:51.987Z</time>
      </trkpt>
      <trkpt lat="48.05709" lon="-4.51143">
        <ele>56</ele>
        <time>2022-06-03T07:57:56.966Z</time>
      </trkpt>
      <trkpt lat="48.05709" lon="-4.51147">
        <ele>56</ele>
        <time>2022-06-03T07:58:00.975Z</time>
      </trkpt>
      <trkpt lat="48.05707" lon="-4.51154">
        <ele>55</ele>
        <time>2022-06-03T07:58:05.944Z</time>
      </trkpt>
      <trkpt lat="48.05707" lon="-4.5116">
        <ele>55</ele>
        <time>2022-06-03T07:58:09.962Z</time>
      </trkpt>
      <trkpt lat="48.05706" lon="-4.51165">
        <ele>55</ele>
        <time>2022-06-03T07:58:13.973Z</time>
      </trkpt>
      <trkpt lat="48.05706" lon="-4.51167">
        <ele>55</ele>
        <time>2022-06-03T07:58:17.993Z</time>
      </trkpt>
      <trkpt lat="48.05705" lon="-4.51172">
        <ele>55</ele>
        <time>2022-06-03T07:58:22.997Z</time>
      </trkpt>
      <trkpt lat="48.05704" lon="-4.51177">
        <ele>55</ele>
        <time>2022-06-03T07:58:28.002Z</time>
      </trkpt>
      <trkpt lat="48.05704" lon="-4.51182">
        <ele>55</ele>
        <time>2022-06-03T07:58:32.982Z</time>
      </trkpt>
      <trkpt lat="48.05703" lon="-4.51187">
        <ele>55</ele>
        <time>2022-06-03T07:58:37.996Z</time>
      </trkpt>
      <trkpt lat="48.05702" lon="-4.51194">
        <ele>55</ele>
        <time>2022-06-03T07:58:42.984Z</time>
      </trkpt>
      <trkpt lat="48.05702" lon="-4.512">
        <ele>55</ele>
        <time>2022-06-03T07:58:46.977Z</time>
      </trkpt>
      <trkpt lat="48.05702" lon="-4.51205">
        <ele>55</ele>
        <time>2022-06-03T07:58:51.985Z</time>
      </trkpt>
      <trkpt lat="48.05702" lon="-4.51208">
        <ele>55</ele>
        <time>2022-06-03T07:59:10.948Z</time>
      </trkpt>
      <trkpt lat="48.05703" lon="-4.51209">
        <ele>55</ele>
        <time>2022-06-03T07:59:14.971Z</time>
      </trkpt>
      <trkpt lat="48.05703" lon="-4.5121">
        <ele>55</ele>
        <time>2022-06-03T07:59:18.974Z</time>
      </trkpt>
      <trkpt lat="48.05702" lon="-4.51215">
        <ele>55</ele>
        <time>2022-06-03T07:59:23.983Z</time>
      </trkpt>
      <trkpt lat="48.05701" lon="-4.5122">
        <ele>55</ele>
        <time>2022-06-03T07:59:28.958Z</time>
      </trkpt>
      <trkpt lat="48.05702" lon="-4.51226">
        <ele>55</ele>
        <time>2022-06-03T07:59:46.952Z</time>
      </trkpt>
      <trkpt lat="48.05704" lon="-4.5123">
        <ele>55</ele>
        <time>2022-06-03T07:59:51.942Z</time>
      </trkpt>
      <trkpt lat="48.05705" lon="-4.51229">
        <ele>55</ele>
        <time>2022-06-03T07:59:55.952Z</time>
      </trkpt>
      <trkpt lat="48.05707" lon="-4.51232">
        <ele>55</ele>
        <time>2022-06-03T08:00:00.934Z</time>
      </trkpt>
      <trkpt lat="48.05708" lon="-4.51235">
        <ele>55</ele>
        <time>2022-06-03T08:00:05.943Z</time>
      </trkpt>
      <trkpt lat="48.05707" lon="-4.51234">
        <ele>55</ele>
        <time>2022-06-03T08:00:09.945Z</time>
      </trkpt>
      <trkpt lat="48.05707" lon="-4.51235">
        <ele>55</ele>
        <time>2022-06-03T08:00:14.939Z</time>
      </trkpt>
      <trkpt lat="48.05704" lon="-4.51238">
        <ele>57</ele>
        <time>2022-06-03T08:00:19.940Z</time>
      </trkpt>
      <trkpt lat="48.05702" lon="-4.51242">
        <ele>57</ele>
        <time>2022-06-03T08:00:23.957Z</time>
      </trkpt>
      <trkpt lat="48.057" lon="-4.51247">
        <ele>57</ele>
        <time>2022-06-03T08:00:28.954Z</time>
      </trkpt>
      <trkpt lat="48.05698" lon="-4.51256">
        <ele>57</ele>
        <time>2022-06-03T08:00:33.949Z</time>
      </trkpt>
      <trkpt lat="48.05697" lon="-4.51262">
        <ele>57</ele>
        <time>2022-06-03T08:00:38.951Z</time>
      </trkpt>
      <trkpt lat="48.05695" lon="-4.51267">
        <ele>59</ele>
        <time>2022-06-03T08:00:43.941Z</time>
      </trkpt>
      <trkpt lat="48.05693" lon="-4.51272">
        <ele>59</ele>
        <time>2022-06-03T08:00:47.946Z</time>
      </trkpt>
      <trkpt lat="48.05688" lon="-4.51287">
        <ele>59</ele>
        <time>2022-06-03T08:02:26.941Z</time>
      </trkpt>
      <trkpt lat="48.0569" lon="-4.51289">
        <ele>59</ele>
        <time>2022-06-03T08:02:31.942Z</time>
      </trkpt>
      <trkpt lat="48.05691" lon="-4.51292">
        <ele>60</ele>
        <time>2022-06-03T08:02:35.955Z</time>
      </trkpt>
      <trkpt lat="48.05694" lon="-4.51295">
        <ele>60</ele>
        <time>2022-06-03T08:02:40.944Z</time>
      </trkpt>
      <trkpt lat="48.05694" lon="-4.51297">
        <ele>60</ele>
        <time>2022-06-03T08:02:45.955Z</time>
      </trkpt>
      <trkpt lat="48.05698" lon="-4.51316">
        <ele>60</ele>
        <time>2022-06-03T08:04:04.967Z</time>
      </trkpt>
      <trkpt lat="48.057" lon="-4.51319">
        <ele>60</ele>
        <time>2022-06-03T08:04:09.950Z</time>
      </trkpt>
      <trkpt lat="48.05702" lon="-4.51323">
        <ele>61</ele>
        <time>2022-06-03T08:04:14.946Z</time>
      </trkpt>
      <trkpt lat="48.05705" lon="-4.51323">
        <ele>61</ele>
        <time>2022-06-03T08:04:18.944Z</time>
      </trkpt>
      <trkpt lat="48.05706" lon="-4.51323">
        <ele>61</ele>
        <time>2022-06-03T08:04:22.944Z</time>
      </trkpt>
      <trkpt lat="48.05708" lon="-4.51326">
        <ele>61</ele>
        <time>2022-06-03T08:07:01.986Z</time>
      </trkpt>
      <trkpt lat="48.05707" lon="-4.5133">
        <ele>61</ele>
        <time>2022-06-03T08:07:07.006Z</time>
      </trkpt>
      <trkpt lat="48.05705" lon="-4.51334">
        <ele>61</ele>
        <time>2022-06-03T08:07:11.971Z</time>
      </trkpt>
      <trkpt lat="48.05704" lon="-4.51338">
        <ele>61</ele>
        <time>2022-06-03T08:07:15.989Z</time>
      </trkpt>
      <trkpt lat="48.05703" lon="-4.5134">
        <ele>61</ele>
        <time>2022-06-03T08:07:21Z</time>
      </trkpt>
      <trkpt lat="48.05702" lon="-4.51342">
        <ele>61</ele>
        <time>2022-06-03T08:07:25.968Z</time>
      </trkpt>
      <trkpt lat="48.057" lon="-4.51346">
        <ele>61</ele>
        <time>2022-06-03T08:07:29.984Z</time>
      </trkpt>
      <trkpt lat="48.05699" lon="-4.51351">
        <ele>61</ele>
        <time>2022-06-03T08:07:34.988Z</time>
      </trkpt>
      <trkpt lat="48.05698" lon="-4.51355">
        <ele>61</ele>
        <time>2022-06-03T08:07:38.992Z</time>
      </trkpt>
      <trkpt lat="48.05697" lon="-4.51363">
        <ele>61</ele>
        <time>2022-06-03T08:07:43.969Z</time>
      </trkpt>
      <trkpt lat="48.05696" lon="-4.51368">
        <ele>61</ele>
        <time>2022-06-03T08:07:47.996Z</time>
      </trkpt>
      <trkpt lat="48.05695" lon="-4.51374">
        <ele>61</ele>
        <time>2022-06-03T08:07:52.017Z</time>
      </trkpt>
      <trkpt lat="48.05695" lon="-4.51381">
        <ele>62</ele>
        <time>2022-06-03T08:07:56.971Z</time>
      </trkpt>
      <trkpt lat="48.05694" lon="-4.51386">
        <ele>62</ele>
        <time>2022-06-03T08:08:00.986Z</time>
      </trkpt>
      <trkpt lat="48.05693" lon="-4.51393">
        <ele>62</ele>
        <time>2022-06-03T08:08:05.944Z</time>
      </trkpt>
      <trkpt lat="48.0569" lon="-4.51397">
        <ele>62</ele>
        <time>2022-06-03T08:08:09.952Z</time>
      </trkpt>
      <trkpt lat="48.05687" lon="-4.51405">
        <ele>63</ele>
        <time>2022-06-03T08:08:14.957Z</time>
      </trkpt>
      <trkpt lat="48.05686" lon="-4.51414">
        <ele>63</ele>
        <time>2022-06-03T08:08:19.954Z</time>
      </trkpt>
      <trkpt lat="48.05684" lon="-4.51423">
        <ele>63</ele>
        <time>2022-06-03T08:08:24.947Z</time>
      </trkpt>
      <trkpt lat="48.05682" lon="-4.5143">
        <ele>63</ele>
        <time>2022-06-03T08:08:28.951Z</time>
      </trkpt>
      <trkpt lat="48.05682" lon="-4.51437">
        <ele>63</ele>
        <time>2022-06-03T08:08:32.955Z</time>
      </trkpt>
      <trkpt lat="48.05681" lon="-4.51443">
        <ele>63</ele>
        <time>2022-06-03T08:08:37.983Z</time>
      </trkpt>
      <trkpt lat="48.05679" lon="-4.51451">
        <ele>62</ele>
        <time>2022-06-03T08:08:42.943Z</time>
      </trkpt>
      <trkpt lat="48.05678" lon="-4.51456">
        <ele>62</ele>
        <time>2022-06-03T08:08:46.993Z</time>
      </trkpt>
      <trkpt lat="48.05674" lon="-4.51463">
        <ele>62</ele>
        <time>2022-06-03T08:08:51.994Z</time>
      </trkpt>
      <trkpt lat="48.05669" lon="-4.51467">
        <ele>62</ele>
        <time>2022-06-03T08:08:56.988Z</time>
      </trkpt>
      <trkpt lat="48.05667" lon="-4.51474">
        <ele>62</ele>
        <time>2022-06-03T08:09:00.988Z</time>
      </trkpt>
      <trkpt lat="48.05666" lon="-4.51481">
        <ele>62</ele>
        <time>2022-06-03T08:09:05.982Z</time>
      </trkpt>
      <trkpt lat="48.05666" lon="-4.51484">
        <ele>62</ele>
        <time>2022-06-03T08:09:11.021Z</time>
      </trkpt>
      <trkpt lat="48.05669" lon="-4.51488">
        <ele>62</ele>
        <time>2022-06-03T08:09:39.952Z</time>
      </trkpt>
      <trkpt lat="48.05667" lon="-4.51492">
        <ele>62</ele>
        <time>2022-06-03T08:09:44.945Z</time>
      </trkpt>
      <trkpt lat="48.05664" lon="-4.51495">
        <ele>62</ele>
        <time>2022-06-03T08:09:49.941Z</time>
      </trkpt>
      <trkpt lat="48.05657" lon="-4.515">
        <ele>62</ele>
        <time>2022-06-03T08:09:53.948Z</time>
      </trkpt>
      <trkpt lat="48.05651" lon="-4.51502">
        <ele>60</ele>
        <time>2022-06-03T08:09:57.958Z</time>
      </trkpt>
      <trkpt lat="48.05647" lon="-4.51507">
        <ele>60</ele>
        <time>2022-06-03T08:10:06.946Z</time>
      </trkpt>
      <trkpt lat="48.05649" lon="-4.5151">
        <ele>60</ele>
        <time>2022-06-03T08:10:10.945Z</time>
      </trkpt>
      <trkpt lat="48.05644" lon="-4.51508">
        <ele>60</ele>
        <time>2022-06-03T08:10:14.947Z</time>
      </trkpt>
      <trkpt lat="48.05643" lon="-4.51507">
        <ele>60</ele>
        <time>2022-06-03T08:10:18.953Z</time>
      </trkpt>
      <trkpt lat="48.0564" lon="-4.51508">
        <ele>60</ele>
        <time>2022-06-03T08:10:23.937Z</time>
      </trkpt>
      <trkpt lat="48.05636" lon="-4.51508">
        <ele>60</ele>
        <time>2022-06-03T08:10:27.955Z</time>
      </trkpt>
      <trkpt lat="48.05632" lon="-4.5151">
        <ele>60</ele>
        <time>2022-06-03T08:10:32.955Z</time>
      </trkpt>
      <trkpt lat="48.05626" lon="-4.51511">
        <ele>60</ele>
        <time>2022-06-03T08:10:37.953Z</time>
      </trkpt>
      <trkpt lat="48.0562" lon="-4.51516">
        <ele>58</ele>
        <time>2022-06-03T08:10:42.944Z</time>
      </trkpt>
      <trkpt lat="48.05615" lon="-4.51516">
        <ele>58</ele>
        <time>2022-06-03T08:10:46.978Z</time>
      </trkpt>
      <trkpt lat="48.05611" lon="-4.51516">
        <ele>58</ele>
        <time>2022-06-03T08:10:51.943Z</time>
      </trkpt>
      <trkpt lat="48.05608" lon="-4.51517">
        <ele>58</ele>
        <time>2022-06-03T08:10:55.950Z</time>
      </trkpt>
      <trkpt lat="48.05605" lon="-4.51519">
        <ele>58</ele>
        <time>2022-06-03T08:10:59.995Z</time>
      </trkpt>
      <trkpt lat="48.056" lon="-4.5152">
        <ele>58</ele>
        <time>2022-06-03T08:11:04.955Z</time>
      </trkpt>
      <trkpt lat="48.05595" lon="-4.51523">
        <ele>56</ele>
        <time>2022-06-03T08:11:08.983Z</time>
      </trkpt>
      <trkpt lat="48.05589" lon="-4.51526">
        <ele>56</ele>
        <time>2022-06-03T08:11:13.959Z</time>
      </trkpt>
      <trkpt lat="48.05585" lon="-4.51527">
        <ele>56</ele>
        <time>2022-06-03T08:11:18.938Z</time>
      </trkpt>
      <trkpt lat="48.05585" lon="-4.51529">
        <ele>56</ele>
        <time>2022-06-03T08:11:22.950Z</time>
      </trkpt>
      <trkpt lat="48.05581" lon="-4.51529">
        <ele>56</ele>
        <time>2022-06-03T08:11:26.959Z</time>
      </trkpt>
      <trkpt lat="48.0557" lon="-4.51534">
        <ele>56</ele>
        <time>2022-06-03T08:11:31.959Z</time>
      </trkpt>
      <trkpt lat="48.05563" lon="-4.51536">
        <ele>55</ele>
        <time>2022-06-03T08:11:36.952Z</time>
      </trkpt>
      <trkpt lat="48.05559" lon="-4.51537">
        <ele>55</ele>
        <time>2022-06-03T08:11:41.947Z</time>
      </trkpt>
      <trkpt lat="48.05557" lon="-4.51541">
        <ele>55</ele>
        <time>2022-06-03T08:11:46.937Z</time>
      </trkpt>
      <trkpt lat="48.05555" lon="-4.51543">
        <ele>55</ele>
        <time>2022-06-03T08:11:50.956Z</time>
      </trkpt>
      <trkpt lat="48.0555" lon="-4.51545">
        <ele>55</ele>
        <time>2022-06-03T08:11:55.953Z</time>
      </trkpt>
      <trkpt lat="48.05544" lon="-4.5155">
        <ele>55</ele>
        <time>2022-06-03T08:12:00.967Z</time>
      </trkpt>
      <trkpt lat="48.05539" lon="-4.51553">
        <ele>55</ele>
        <time>2022-06-03T08:12:05.954Z</time>
      </trkpt>
      <trkpt lat="48.05537" lon="-4.51555">
        <ele>55</ele>
        <time>2022-06-03T08:12:09.969Z</time>
      </trkpt>
      <trkpt lat="48.05531" lon="-4.51559">
        <ele>55</ele>
        <time>2022-06-03T08:12:14.961Z</time>
      </trkpt>
      <trkpt lat="48.05526" lon="-4.5156">
        <ele>55</ele>
        <time>2022-06-03T08:12:19.965Z</time>
      </trkpt>
      <trkpt lat="48.05519" lon="-4.51565">
        <ele>55</ele>
        <time>2022-06-03T08:12:24.949Z</time>
      </trkpt>
      <trkpt lat="48.05513" lon="-4.51569">
        <ele>56</ele>
        <time>2022-06-03T08:12:29.956Z</time>
      </trkpt>
      <trkpt lat="48.05507" lon="-4.51572">
        <ele>56</ele>
        <time>2022-06-03T08:12:33.969Z</time>
      </trkpt>
      <trkpt lat="48.05502" lon="-4.51575">
        <ele>56</ele>
        <time>2022-06-03T08:12:38.960Z</time>
      </trkpt>
      <trkpt lat="48.05496" lon="-4.51578">
        <ele>56</ele>
        <time>2022-06-03T08:12:42.969Z</time>
      </trkpt>
      <trkpt lat="48.05489" lon="-4.51587">
        <ele>56</ele>
        <time>2022-06-03T08:12:47.974Z</time>
      </trkpt>
      <trkpt lat="48.05486" lon="-4.5159">
        <ele>56</ele>
        <time>2022-06-03T08:12:52.961Z</time>
      </trkpt>
      <trkpt lat="48.05482" lon="-4.51594">
        <ele>56</ele>
        <time>2022-06-03T08:12:57.950Z</time>
      </trkpt>
      <trkpt lat="48.05478" lon="-4.51597">
        <ele>55</ele>
        <time>2022-06-03T08:13:02.960Z</time>
      </trkpt>
      <trkpt lat="48.05474" lon="-4.51601">
        <ele>55</ele>
        <time>2022-06-03T08:13:06.965Z</time>
      </trkpt>
      <trkpt lat="48.05467" lon="-4.51604">
        <ele>55</ele>
        <time>2022-06-03T08:13:11.960Z</time>
      </trkpt>
      <trkpt lat="48.05461" lon="-4.51611">
        <ele>55</ele>
        <time>2022-06-03T08:13:26.965Z</time>
      </trkpt>
      <trkpt lat="48.05459" lon="-4.51612">
        <ele>55</ele>
        <time>2022-06-03T08:13:30.972Z</time>
      </trkpt>
      <trkpt lat="48.05456" lon="-4.51613">
        <ele>54</ele>
        <time>2022-06-03T08:13:34.988Z</time>
      </trkpt>
      <trkpt lat="48.05452" lon="-4.51616">
        <ele>54</ele>
        <time>2022-06-03T08:13:39.972Z</time>
      </trkpt>
      <trkpt lat="48.0545" lon="-4.51618">
        <ele>54</ele>
        <time>2022-06-03T08:13:43.988Z</time>
      </trkpt>
      <trkpt lat="48.05446" lon="-4.51619">
        <ele>54</ele>
        <time>2022-06-03T08:13:48.977Z</time>
      </trkpt>
      <trkpt lat="48.05441" lon="-4.51621">
        <ele>54</ele>
        <time>2022-06-03T08:13:52.991Z</time>
      </trkpt>
      <trkpt lat="48.05437" lon="-4.51622">
        <ele>54</ele>
        <time>2022-06-03T08:13:57.979Z</time>
      </trkpt>
      <trkpt lat="48.05435" lon="-4.5162">
        <ele>54</ele>
        <time>2022-06-03T08:14:02.962Z</time>
      </trkpt>
      <trkpt lat="48.05433" lon="-4.51621">
        <ele>54</ele>
        <time>2022-06-03T08:14:06.981Z</time>
      </trkpt>
      <trkpt lat="48.0543" lon="-4.51622">
        <ele>54</ele>
        <time>2022-06-03T08:14:11.978Z</time>
      </trkpt>
      <trkpt lat="48.05427" lon="-4.51623">
        <ele>54</ele>
        <time>2022-06-03T08:14:16.960Z</time>
      </trkpt>
      <trkpt lat="48.05422" lon="-4.51625">
        <ele>53</ele>
        <time>2022-06-03T08:14:20.995Z</time>
      </trkpt>
      <trkpt lat="48.05417" lon="-4.51628">
        <ele>53</ele>
        <time>2022-06-03T08:14:25.967Z</time>
      </trkpt>
      <trkpt lat="48.05415" lon="-4.51629">
        <ele>53</ele>
        <time>2022-06-03T08:14:30.981Z</time>
      </trkpt>
      <trkpt lat="48.0541" lon="-4.51629">
        <ele>53</ele>
        <time>2022-06-03T08:14:35.975Z</time>
      </trkpt>
      <trkpt lat="48.05403" lon="-4.51631">
        <ele>53</ele>
        <time>2022-06-03T08:14:40.953Z</time>
      </trkpt>
      <trkpt lat="48.05403" lon="-4.51634">
        <ele>56</ele>
        <time>2022-06-03T08:14:44.974Z</time>
      </trkpt>
      <trkpt lat="48.05398" lon="-4.51639">
        <ele>56</ele>
        <time>2022-06-03T08:14:49.966Z</time>
      </trkpt>
      <trkpt lat="48.05391" lon="-4.51639">
        <ele>56</ele>
        <time>2022-06-03T08:14:54.950Z</time>
      </trkpt>
      <trkpt lat="48.05383" lon="-4.51642">
        <ele>56</ele>
        <time>2022-06-03T08:14:59.980Z</time>
      </trkpt>
      <trkpt lat="48.05374" lon="-4.51645">
        <ele>57</ele>
        <time>2022-06-03T08:15:04.945Z</time>
      </trkpt>
      <trkpt lat="48.05371" lon="-4.51642">
        <ele>57</ele>
        <time>2022-06-03T08:15:08.953Z</time>
      </trkpt>
      <trkpt lat="48.05369" lon="-4.51644">
        <ele>57</ele>
        <time>2022-06-03T08:15:12.962Z</time>
      </trkpt>
      <trkpt lat="48.05362" lon="-4.51648">
        <ele>57</ele>
        <time>2022-06-03T08:15:17.946Z</time>
      </trkpt>
      <trkpt lat="48.05354" lon="-4.51651">
        <ele>57</ele>
        <time>2022-06-03T08:15:22.943Z</time>
      </trkpt>
      <trkpt lat="48.05349" lon="-4.51656">
        <ele>57</ele>
        <time>2022-06-03T08:15:27.943Z</time>
      </trkpt>
      <trkpt lat="48.05347" lon="-4.5166">
        <ele>58</ele>
        <time>2022-06-03T08:15:31.955Z</time>
      </trkpt>
      <trkpt lat="48.05341" lon="-4.51666">
        <ele>58</ele>
        <time>2022-06-03T08:15:36.957Z</time>
      </trkpt>
      <trkpt lat="48.05336" lon="-4.51671">
        <ele>58</ele>
        <time>2022-06-03T08:15:41.964Z</time>
      </trkpt>
      <trkpt lat="48.0533" lon="-4.51676">
        <ele>58</ele>
        <time>2022-06-03T08:15:46.951Z</time>
      </trkpt>
      <trkpt lat="48.05327" lon="-4.51679">
        <ele>58</ele>
        <time>2022-06-03T08:15:50.962Z</time>
      </trkpt>
      <trkpt lat="48.05323" lon="-4.51681">
        <ele>56</ele>
        <time>2022-06-03T08:15:54.965Z</time>
      </trkpt>
      <trkpt lat="48.0532" lon="-4.51683">
        <ele>56</ele>
        <time>2022-06-03T08:15:58.993Z</time>
      </trkpt>
      <trkpt lat="48.05316" lon="-4.51687">
        <ele>57</ele>
        <time>2022-06-03T08:16:03.978Z</time>
      </trkpt>
      <trkpt lat="48.05311" lon="-4.51689">
        <ele>57</ele>
        <time>2022-06-03T08:16:08.951Z</time>
      </trkpt>
      <trkpt lat="48.05307" lon="-4.51692">
        <ele>57</ele>
        <time>2022-06-03T08:16:12.980Z</time>
      </trkpt>
      <trkpt lat="48.05301" lon="-4.51693">
        <ele>57</ele>
        <time>2022-06-03T08:16:17.974Z</time>
      </trkpt>
      <trkpt lat="48.05297" lon="-4.51696">
        <ele>57</ele>
        <time>2022-06-03T08:16:21.992Z</time>
      </trkpt>
      <trkpt lat="48.05293" lon="-4.51698">
        <ele>57</ele>
        <time>2022-06-03T08:16:26.961Z</time>
      </trkpt>
      <trkpt lat="48.0529" lon="-4.51697">
        <ele>56</ele>
        <time>2022-06-03T08:16:31.944Z</time>
      </trkpt>
      <trkpt lat="48.0529" lon="-4.51701">
        <ele>56</ele>
        <time>2022-06-03T08:17:34.991Z</time>
      </trkpt>
      <trkpt lat="48.05291" lon="-4.51702">
        <ele>56</ele>
        <time>2022-06-03T08:17:39.974Z</time>
      </trkpt>
      <trkpt lat="48.05292" lon="-4.51702">
        <ele>57</ele>
        <time>2022-06-03T08:17:43.991Z</time>
      </trkpt>
      <trkpt lat="48.05293" lon="-4.51704">
        <ele>57</ele>
        <time>2022-06-03T08:17:47.988Z</time>
      </trkpt>
      <trkpt lat="48.05294" lon="-4.51711">
        <ele>55</ele>
        <time>2022-06-03T08:17:52.970Z</time>
      </trkpt>
      <trkpt lat="48.05296" lon="-4.51717">
        <ele>55</ele>
        <time>2022-06-03T08:17:57.006Z</time>
      </trkpt>
      <trkpt lat="48.05303" lon="-4.51717">
        <ele>55</ele>
        <time>2022-06-03T08:18:01.947Z</time>
      </trkpt>
      <trkpt lat="48.05304" lon="-4.51719">
        <ele>55</ele>
        <time>2022-06-03T08:18:06.953Z</time>
      </trkpt>
      <trkpt lat="48.05307" lon="-4.51725">
        <ele>55</ele>
        <time>2022-06-03T08:18:11.946Z</time>
      </trkpt>
      <trkpt lat="48.05311" lon="-4.51733">
        <ele>55</ele>
        <time>2022-06-03T08:18:16.980Z</time>
      </trkpt>
      <trkpt lat="48.05317" lon="-4.51737">
        <ele>54</ele>
        <time>2022-06-03T08:18:21.969Z</time>
      </trkpt>
      <trkpt lat="48.05322" lon="-4.51741">
        <ele>52</ele>
        <time>2022-06-03T08:18:26.961Z</time>
      </trkpt>
      <trkpt lat="48.05328" lon="-4.51744">
        <ele>52</ele>
        <time>2022-06-03T08:18:31.994Z</time>
      </trkpt>
      <trkpt lat="48.05333" lon="-4.51745">
        <ele>52</ele>
        <time>2022-06-03T08:18:37.013Z</time>
      </trkpt>
      <trkpt lat="48.05338" lon="-4.51751">
        <ele>52</ele>
        <time>2022-06-03T08:18:41.964Z</time>
      </trkpt>
      <trkpt lat="48.05344" lon="-4.51756">
        <ele>52</ele>
        <time>2022-06-03T08:18:47.002Z</time>
      </trkpt>
      <trkpt lat="48.0535" lon="-4.51759">
        <ele>51</ele>
        <time>2022-06-03T08:18:51.012Z</time>
      </trkpt>
      <trkpt lat="48.05355" lon="-4.51764">
        <ele>50</ele>
        <time>2022-06-03T08:18:55.960Z</time>
      </trkpt>
      <trkpt lat="48.05361" lon="-4.51767">
        <ele>50</ele>
        <time>2022-06-03T08:19:00.964Z</time>
      </trkpt>
      <trkpt lat="48.05365" lon="-4.51772">
        <ele>50</ele>
        <time>2022-06-03T08:19:04.972Z</time>
      </trkpt>
      <trkpt lat="48.05369" lon="-4.51778">
        <ele>50</ele>
        <time>2022-06-03T08:19:09.995Z</time>
      </trkpt>
      <trkpt lat="48.05372" lon="-4.51784">
        <ele>50</ele>
        <time>2022-06-03T08:19:13.974Z</time>
      </trkpt>
      <trkpt lat="48.05373" lon="-4.51789">
        <ele>50</ele>
        <time>2022-06-03T08:19:17.978Z</time>
      </trkpt>
      <trkpt lat="48.05375" lon="-4.51792">
        <ele>49</ele>
        <time>2022-06-03T08:19:22.991Z</time>
      </trkpt>
      <trkpt lat="48.05377" lon="-4.51796">
        <ele>48</ele>
        <time>2022-06-03T08:19:26.986Z</time>
      </trkpt>
      <trkpt lat="48.05379" lon="-4.518">
        <ele>48</ele>
        <time>2022-06-03T08:19:32.003Z</time>
      </trkpt>
      <trkpt lat="48.05379" lon="-4.51804">
        <ele>48</ele>
        <time>2022-06-03T08:19:36.982Z</time>
      </trkpt>
      <trkpt lat="48.05377" lon="-4.51811">
        <ele>48</ele>
        <time>2022-06-03T08:19:41.985Z</time>
      </trkpt>
      <trkpt lat="48.05376" lon="-4.51817">
        <ele>48</ele>
        <time>2022-06-03T08:19:46.986Z</time>
      </trkpt>
      <trkpt lat="48.05375" lon="-4.51824">
        <ele>49</ele>
        <time>2022-06-03T08:19:51.999Z</time>
      </trkpt>
      <trkpt lat="48.05372" lon="-4.51831">
        <ele>49</ele>
        <time>2022-06-03T08:19:56.974Z</time>
      </trkpt>
      <trkpt lat="48.05371" lon="-4.51837">
        <ele>49</ele>
        <time>2022-06-03T08:20:01.988Z</time>
      </trkpt>
      <trkpt lat="48.0537" lon="-4.51844">
        <ele>49</ele>
        <time>2022-06-03T08:20:07.010Z</time>
      </trkpt>
      <trkpt lat="48.05369" lon="-4.51852">
        <ele>49</ele>
        <time>2022-06-03T08:20:11.973Z</time>
      </trkpt>
      <trkpt lat="48.0537" lon="-4.51858">
        <ele>49</ele>
        <time>2022-06-03T08:20:16.984Z</time>
      </trkpt>
      <trkpt lat="48.05368" lon="-4.51863">
        <ele>49</ele>
        <time>2022-06-03T08:20:21.988Z</time>
      </trkpt>
      <trkpt lat="48.05366" lon="-4.51867">
        <ele>49</ele>
        <time>2022-06-03T08:20:26.971Z</time>
      </trkpt>
      <trkpt lat="48.05365" lon="-4.51872">
        <ele>49</ele>
        <time>2022-06-03T08:20:31.987Z</time>
      </trkpt>
      <trkpt lat="48.05363" lon="-4.51879">
        <ele>46</ele>
        <time>2022-06-03T08:20:36.983Z</time>
      </trkpt>
      <trkpt lat="48.0536" lon="-4.51885">
        <ele>46</ele>
        <time>2022-06-03T08:20:41.972Z</time>
      </trkpt>
      <trkpt lat="48.05358" lon="-4.5189">
        <ele>46</ele>
        <time>2022-06-03T08:20:45.988Z</time>
      </trkpt>
      <trkpt lat="48.05357" lon="-4.51896">
        <ele>46</ele>
        <time>2022-06-03T08:20:50.992Z</time>
      </trkpt>
      <trkpt lat="48.05355" lon="-4.51902">
        <ele>46</ele>
        <time>2022-06-03T08:20:55.982Z</time>
      </trkpt>
      <trkpt lat="48.05353" lon="-4.51909">
        <ele>45</ele>
        <time>2022-06-03T08:21:00.985Z</time>
      </trkpt>
      <trkpt lat="48.05351" lon="-4.51915">
        <ele>45</ele>
        <time>2022-06-03T08:21:04.993Z</time>
      </trkpt>
      <trkpt lat="48.05348" lon="-4.51922">
        <ele>45</ele>
        <time>2022-06-03T08:21:09.991Z</time>
      </trkpt>
      <trkpt lat="48.05346" lon="-4.51929">
        <ele>48</ele>
        <time>2022-06-03T08:21:14.983Z</time>
      </trkpt>
      <trkpt lat="48.05343" lon="-4.51936">
        <ele>46</ele>
        <time>2022-06-03T08:21:19.975Z</time>
      </trkpt>
      <trkpt lat="48.0534" lon="-4.51942">
        <ele>46</ele>
        <time>2022-06-03T08:21:24.978Z</time>
      </trkpt>
      <trkpt lat="48.05338" lon="-4.51948">
        <ele>46</ele>
        <time>2022-06-03T08:21:29.988Z</time>
      </trkpt>
      <trkpt lat="48.05336" lon="-4.51955">
        <ele>46</ele>
        <time>2022-06-03T08:21:34.978Z</time>
      </trkpt>
      <trkpt lat="48.05336" lon="-4.51962">
        <ele>42</ele>
        <time>2022-06-03T08:21:39.942Z</time>
      </trkpt>
      <trkpt lat="48.05334" lon="-4.51968">
        <ele>42</ele>
        <time>2022-06-03T08:21:43.970Z</time>
      </trkpt>
      <trkpt lat="48.05331" lon="-4.51975">
        <ele>42</ele>
        <time>2022-06-03T08:21:48.981Z</time>
      </trkpt>
      <trkpt lat="48.05329" lon="-4.51983">
        <ele>42</ele>
        <time>2022-06-03T08:21:53.970Z</time>
      </trkpt>
      <trkpt lat="48.05328" lon="-4.51992">
        <ele>38</ele>
        <time>2022-06-03T08:21:57.967Z</time>
      </trkpt>
      <trkpt lat="48.05327" lon="-4.52">
        <ele>38</ele>
        <time>2022-06-03T08:22:02.946Z</time>
      </trkpt>
      <trkpt lat="48.05323" lon="-4.52014">
        <ele>38</ele>
        <time>2022-06-03T08:22:07.951Z</time>
      </trkpt>
      <trkpt lat="48.05319" lon="-4.52024">
        <ele>41</ele>
        <time>2022-06-03T08:22:11.949Z</time>
      </trkpt>
      <trkpt lat="48.05318" lon="-4.52031">
        <ele>41</ele>
        <time>2022-06-03T08:22:15.949Z</time>
      </trkpt>
      <trkpt lat="48.05317" lon="-4.52041">
        <ele>41</ele>
        <time>2022-06-03T08:22:20.959Z</time>
      </trkpt>
      <trkpt lat="48.05316" lon="-4.52049">
        <ele>40</ele>
        <time>2022-06-03T08:22:25.949Z</time>
      </trkpt>
      <trkpt lat="48.05315" lon="-4.52057">
        <ele>40</ele>
        <time>2022-06-03T08:22:29.954Z</time>
      </trkpt>
      <trkpt lat="48.05314" lon="-4.52066">
        <ele>40</ele>
        <time>2022-06-03T08:22:34.951Z</time>
      </trkpt>
      <trkpt lat="48.05313" lon="-4.52076">
        <ele>38</ele>
        <time>2022-06-03T08:22:39.949Z</time>
      </trkpt>
      <trkpt lat="48.05312" lon="-4.52086">
        <ele>38</ele>
        <time>2022-06-03T08:22:44.940Z</time>
      </trkpt>
      <trkpt lat="48.05312" lon="-4.52093">
        <ele>38</ele>
        <time>2022-06-03T08:22:48.974Z</time>
      </trkpt>
      <trkpt lat="48.05311" lon="-4.52101">
        <ele>36</ele>
        <time>2022-06-03T08:22:53.975Z</time>
      </trkpt>
      <trkpt lat="48.05311" lon="-4.5211">
        <ele>36</ele>
        <time>2022-06-03T08:22:58.996Z</time>
      </trkpt>
      <trkpt lat="48.05312" lon="-4.52118">
        <ele>36</ele>
        <time>2022-06-03T08:23:03.978Z</time>
      </trkpt>
      <trkpt lat="48.05313" lon="-4.52129">
        <ele>34</ele>
        <time>2022-06-03T08:23:08.974Z</time>
      </trkpt>
      <trkpt lat="48.05315" lon="-4.52137">
        <ele>34</ele>
        <time>2022-06-03T08:23:13.975Z</time>
      </trkpt>
      <trkpt lat="48.05316" lon="-4.52142">
        <ele>34</ele>
        <time>2022-06-03T08:23:17.979Z</time>
      </trkpt>
      <trkpt lat="48.05319" lon="-4.52151">
        <ele>34</ele>
        <time>2022-06-03T08:23:23.010Z</time>
      </trkpt>
      <trkpt lat="48.05322" lon="-4.52158">
        <ele>29</ele>
        <time>2022-06-03T08:23:27.971Z</time>
      </trkpt>
      <trkpt lat="48.05325" lon="-4.52165">
        <ele>29</ele>
        <time>2022-06-03T08:23:32.958Z</time>
      </trkpt>
      <trkpt lat="48.05328" lon="-4.5217">
        <ele>29</ele>
        <time>2022-06-03T08:23:36.967Z</time>
      </trkpt>
      <trkpt lat="48.05332" lon="-4.52176">
        <ele>29</ele>
        <time>2022-06-03T08:23:40.982Z</time>
      </trkpt>
      <trkpt lat="48.05336" lon="-4.52184">
        <ele>27</ele>
        <time>2022-06-03T08:23:45.994Z</time>
      </trkpt>
      <trkpt lat="48.0534" lon="-4.5219">
        <ele>27</ele>
        <time>2022-06-03T08:23:50.996Z</time>
      </trkpt>
      <trkpt lat="48.05344" lon="-4.52196">
        <ele>27</ele>
        <time>2022-06-03T08:23:55.988Z</time>
      </trkpt>
      <trkpt lat="48.05349" lon="-4.52201">
        <ele>25</ele>
        <time>2022-06-03T08:24:00.991Z</time>
      </trkpt>
      <trkpt lat="48.05353" lon="-4.52207">
        <ele>25</ele>
        <time>2022-06-03T08:24:05.971Z</time>
      </trkpt>
      <trkpt lat="48.05358" lon="-4.52214">
        <ele>24</ele>
        <time>2022-06-03T08:24:10.972Z</time>
      </trkpt>
      <trkpt lat="48.05361" lon="-4.5222">
        <ele>24</ele>
        <time>2022-06-03T08:24:14.969Z</time>
      </trkpt>
      <trkpt lat="48.05365" lon="-4.52225">
        <ele>24</ele>
        <time>2022-06-03T08:24:18.985Z</time>
      </trkpt>
      <trkpt lat="48.05369" lon="-4.5223">
        <ele>24</ele>
        <time>2022-06-03T08:24:23.967Z</time>
      </trkpt>
      <trkpt lat="48.05373" lon="-4.52231">
        <ele>24</ele>
        <time>2022-06-03T08:24:27.994Z</time>
      </trkpt>
      <trkpt lat="48.05378" lon="-4.5223">
        <ele>23</ele>
        <time>2022-06-03T08:24:32.980Z</time>
      </trkpt>
      <trkpt lat="48.05384" lon="-4.52227">
        <ele>23</ele>
        <time>2022-06-03T08:24:37.979Z</time>
      </trkpt>
      <trkpt lat="48.0539" lon="-4.52226">
        <ele>23</ele>
        <time>2022-06-03T08:24:42.987Z</time>
      </trkpt>
      <trkpt lat="48.05395" lon="-4.52224">
        <ele>23</ele>
        <time>2022-06-03T08:24:47.980Z</time>
      </trkpt>
      <trkpt lat="48.054" lon="-4.52224">
        <ele>23</ele>
        <time>2022-06-03T08:24:52.948Z</time>
      </trkpt>
      <trkpt lat="48.05407" lon="-4.5222">
        <ele>23</ele>
        <time>2022-06-03T08:24:56.948Z</time>
      </trkpt>
      <trkpt lat="48.05413" lon="-4.5222">
        <ele>23</ele>
        <time>2022-06-03T08:25:01.947Z</time>
      </trkpt>
      <trkpt lat="48.05421" lon="-4.52222">
        <ele>23</ele>
        <time>2022-06-03T08:25:05.952Z</time>
      </trkpt>
      <trkpt lat="48.05425" lon="-4.52224">
        <ele>23</ele>
        <time>2022-06-03T08:25:10.952Z</time>
      </trkpt>
      <trkpt lat="48.05432" lon="-4.52223">
        <ele>24</ele>
        <time>2022-06-03T08:25:15.953Z</time>
      </trkpt>
      <trkpt lat="48.05437" lon="-4.52224">
        <ele>24</ele>
        <time>2022-06-03T08:25:20.940Z</time>
      </trkpt>
      <trkpt lat="48.05443" lon="-4.52226">
        <ele>24</ele>
        <time>2022-06-03T08:25:24.949Z</time>
      </trkpt>
      <trkpt lat="48.05447" lon="-4.52226">
        <ele>24</ele>
        <time>2022-06-03T08:25:28.953Z</time>
      </trkpt>
      <trkpt lat="48.05453" lon="-4.52226">
        <ele>24</ele>
        <time>2022-06-03T08:25:33.940Z</time>
      </trkpt>
      <trkpt lat="48.05458" lon="-4.52228">
        <ele>24</ele>
        <time>2022-06-03T08:25:38.939Z</time>
      </trkpt>
      <trkpt lat="48.05462" lon="-4.52231">
        <ele>27</ele>
        <time>2022-06-03T08:25:42.945Z</time>
      </trkpt>
      <trkpt lat="48.05467" lon="-4.52237">
        <ele>26</ele>
        <time>2022-06-03T08:25:46.947Z</time>
      </trkpt>
      <trkpt lat="48.0547" lon="-4.52238">
        <ele>26</ele>
        <time>2022-06-03T08:26:49.974Z</time>
      </trkpt>
      <trkpt lat="48.05471" lon="-4.52243">
        <ele>26</ele>
        <time>2022-06-03T08:26:53.970Z</time>
      </trkpt>
      <trkpt lat="48.05473" lon="-4.52242">
        <ele>26</ele>
        <time>2022-06-03T08:26:58.964Z</time>
      </trkpt>
      <trkpt lat="48.05475" lon="-4.52244">
        <ele>26</ele>
        <time>2022-06-03T08:27:03.956Z</time>
      </trkpt>
      <trkpt lat="48.05475" lon="-4.52244">
        <ele>26</ele>
        <time>2022-06-03T08:27:08.957Z</time>
      </trkpt>
      <trkpt lat="48.05472" lon="-4.52241">
        <ele>26</ele>
        <time>2022-06-03T08:30:37.969Z</time>
      </trkpt>
      <trkpt lat="48.05474" lon="-4.52237">
        <ele>26</ele>
        <time>2022-06-03T08:30:42.947Z</time>
      </trkpt>
      <trkpt lat="48.05477" lon="-4.52232">
        <ele>27</ele>
        <time>2022-06-03T08:30:46.966Z</time>
      </trkpt>
      <trkpt lat="48.05479" lon="-4.5223">
        <ele>27</ele>
        <time>2022-06-03T08:30:50.941Z</time>
      </trkpt>
      <trkpt lat="48.05475" lon="-4.52229">
        <ele>27</ele>
        <time>2022-06-03T08:30:55.963Z</time>
      </trkpt>
      <trkpt lat="48.05471" lon="-4.52235">
        <ele>27</ele>
        <time>2022-06-03T08:31:24.952Z</time>
      </trkpt>
      <trkpt lat="48.05471" lon="-4.5224">
        <ele>26</ele>
        <time>2022-06-03T08:31:29.958Z</time>
      </trkpt>
      <trkpt lat="48.05472" lon="-4.52241">
        <ele>26</ele>
        <time>2022-06-03T08:31:34.945Z</time>
      </trkpt>
      <trkpt lat="48.05471" lon="-4.52247">
        <ele>26</ele>
        <time>2022-06-03T08:31:38.965Z</time>
      </trkpt>
      <trkpt lat="48.0547" lon="-4.52248">
        <ele>26</ele>
        <time>2022-06-03T08:31:42.970Z</time>
      </trkpt>
      <trkpt lat="48.05473" lon="-4.52239">
        <ele>26</ele>
        <time>2022-06-03T08:34:33.973Z</time>
      </trkpt>
      <trkpt lat="48.05473" lon="-4.52238">
        <ele>26</ele>
        <time>2022-06-03T08:34:37.979Z</time>
      </trkpt>
      <trkpt lat="48.05472" lon="-4.52232">
        <ele>27</ele>
        <time>2022-06-03T08:34:41.994Z</time>
      </trkpt>
      <trkpt lat="48.05472" lon="-4.52225">
        <ele>27</ele>
        <time>2022-06-03T08:34:46.944Z</time>
      </trkpt>
      <trkpt lat="48.05472" lon="-4.52219">
        <ele>27</ele>
        <time>2022-06-03T08:34:50.943Z</time>
      </trkpt>
      <trkpt lat="48.05473" lon="-4.5222">
        <ele>27</ele>
        <time>2022-06-03T08:34:54.942Z</time>
      </trkpt>
      <trkpt lat="48.05473" lon="-4.52222">
        <ele>27</ele>
        <time>2022-06-03T08:34:58.956Z</time>
      </trkpt>
      <trkpt lat="48.05472" lon="-4.52224">
        <ele>27</ele>
        <time>2022-06-03T08:35:03.949Z</time>
      </trkpt>
      <trkpt lat="48.05471" lon="-4.52228">
        <ele>27</ele>
        <time>2022-06-03T08:35:08.948Z</time>
      </trkpt>
      <trkpt lat="48.05473" lon="-4.52238">
        <ele>26</ele>
        <time>2022-06-03T08:35:12.961Z</time>
      </trkpt>
      <trkpt lat="48.0547" lon="-4.52244">
        <ele>26</ele>
        <time>2022-06-03T08:37:59.953Z</time>
      </trkpt>
      <trkpt lat="48.05469" lon="-4.52249">
        <ele>26</ele>
        <time>2022-06-03T08:38:04.973Z</time>
      </trkpt>
      <trkpt lat="48.05466" lon="-4.52249">
        <ele>26</ele>
        <time>2022-06-03T08:38:09.959Z</time>
      </trkpt>
      <trkpt lat="48.05462" lon="-4.52252">
        <ele>26</ele>
        <time>2022-06-03T08:38:14.968Z</time>
      </trkpt>
      <trkpt lat="48.05458" lon="-4.52255">
        <ele>24</ele>
        <time>2022-06-03T08:38:19.948Z</time>
      </trkpt>
      <trkpt lat="48.05455" lon="-4.52257">
        <ele>24</ele>
        <time>2022-06-03T08:38:23.960Z</time>
      </trkpt>
      <trkpt lat="48.05451" lon="-4.5226">
        <ele>24</ele>
        <time>2022-06-03T08:38:28.970Z</time>
      </trkpt>
      <trkpt lat="48.05448" lon="-4.52259">
        <ele>24</ele>
        <time>2022-06-03T08:38:33.965Z</time>
      </trkpt>
      <trkpt lat="48.05442" lon="-4.5226">
        <ele>24</ele>
        <time>2022-06-03T08:38:38.948Z</time>
      </trkpt>
      <trkpt lat="48.05438" lon="-4.52259">
        <ele>24</ele>
        <time>2022-06-03T08:38:42.975Z</time>
      </trkpt>
      <trkpt lat="48.05432" lon="-4.52256">
        <ele>24</ele>
        <time>2022-06-03T08:38:47.949Z</time>
      </trkpt>
      <trkpt lat="48.05428" lon="-4.52255">
        <ele>22</ele>
        <time>2022-06-03T08:38:52.957Z</time>
      </trkpt>
      <trkpt lat="48.05424" lon="-4.52253">
        <ele>22</ele>
        <time>2022-06-03T08:38:56.990Z</time>
      </trkpt>
      <trkpt lat="48.0542" lon="-4.52251">
        <ele>22</ele>
        <time>2022-06-03T08:39:01.965Z</time>
      </trkpt>
      <trkpt lat="48.05415" lon="-4.52248">
        <ele>22</ele>
        <time>2022-06-03T08:39:05.974Z</time>
      </trkpt>
      <trkpt lat="48.05409" lon="-4.52244">
        <ele>22</ele>
        <time>2022-06-03T08:39:10.978Z</time>
      </trkpt>
      <trkpt lat="48.05403" lon="-4.52241">
        <ele>22</ele>
        <time>2022-06-03T08:39:15.973Z</time>
      </trkpt>
      <trkpt lat="48.05396" lon="-4.52239">
        <ele>23</ele>
        <time>2022-06-03T08:39:20.973Z</time>
      </trkpt>
      <trkpt lat="48.0539" lon="-4.52237">
        <ele>23</ele>
        <time>2022-06-03T08:39:25.975Z</time>
      </trkpt>
      <trkpt lat="48.05384" lon="-4.52237">
        <ele>23</ele>
        <time>2022-06-03T08:39:30.979Z</time>
      </trkpt>
      <trkpt lat="48.05378" lon="-4.52237">
        <ele>23</ele>
        <time>2022-06-03T08:39:34.983Z</time>
      </trkpt>
      <trkpt lat="48.05372" lon="-4.52237">
        <ele>24</ele>
        <time>2022-06-03T08:39:39.969Z</time>
      </trkpt>
      <trkpt lat="48.05367" lon="-4.5224">
        <ele>24</ele>
        <time>2022-06-03T08:39:44.960Z</time>
      </trkpt>
      <trkpt lat="48.0536" lon="-4.52241">
        <ele>24</ele>
        <time>2022-06-03T08:39:49.002Z</time>
      </trkpt>
      <trkpt lat="48.05355" lon="-4.52241">
        <ele>24</ele>
        <time>2022-06-03T08:39:54.015Z</time>
      </trkpt>
      <trkpt lat="48.05352" lon="-4.52242">
        <ele>24</ele>
        <time>2022-06-03T08:39:58.999Z</time>
      </trkpt>
      <trkpt lat="48.05347" lon="-4.52243">
        <ele>24</ele>
        <time>2022-06-03T08:40:02.982Z</time>
      </trkpt>
      <trkpt lat="48.05342" lon="-4.52247">
        <ele>24</ele>
        <time>2022-06-03T08:40:07.997Z</time>
      </trkpt>
      <trkpt lat="48.05336" lon="-4.52251">
        <ele>24</ele>
        <time>2022-06-03T08:40:12.985Z</time>
      </trkpt>
      <trkpt lat="48.05331" lon="-4.52256">
        <ele>24</ele>
        <time>2022-06-03T08:40:17.997Z</time>
      </trkpt>
      <trkpt lat="48.05326" lon="-4.5226">
        <ele>24</ele>
        <time>2022-06-03T08:40:22.993Z</time>
      </trkpt>
      <trkpt lat="48.05322" lon="-4.52262">
        <ele>24</ele>
        <time>2022-06-03T08:40:28.001Z</time>
      </trkpt>
      <trkpt lat="48.05317" lon="-4.52266">
        <ele>25</ele>
        <time>2022-06-03T08:40:32.986Z</time>
      </trkpt>
      <trkpt lat="48.05311" lon="-4.52271">
        <ele>25</ele>
        <time>2022-06-03T08:40:37.968Z</time>
      </trkpt>
      <trkpt lat="48.05307" lon="-4.52275">
        <ele>25</ele>
        <time>2022-06-03T08:40:42.965Z</time>
      </trkpt>
      <trkpt lat="48.05303" lon="-4.52279">
        <ele>25</ele>
        <time>2022-06-03T08:40:46.970Z</time>
      </trkpt>
      <trkpt lat="48.05299" lon="-4.52282">
        <ele>25</ele>
        <time>2022-06-03T08:40:51.979Z</time>
      </trkpt>
      <trkpt lat="48.05294" lon="-4.52286">
        <ele>25</ele>
        <time>2022-06-03T08:40:56.977Z</time>
      </trkpt>
      <trkpt lat="48.05289" lon="-4.52289">
        <ele>28</ele>
        <time>2022-06-03T08:41:01.954Z</time>
      </trkpt>
      <trkpt lat="48.05283" lon="-4.52294">
        <ele>27</ele>
        <time>2022-06-03T08:41:05.988Z</time>
      </trkpt>
      <trkpt lat="48.05279" lon="-4.52297">
        <ele>27</ele>
        <time>2022-06-03T08:41:10.003Z</time>
      </trkpt>
      <trkpt lat="48.05274" lon="-4.52301">
        <ele>27</ele>
        <time>2022-06-03T08:41:14.962Z</time>
      </trkpt>
      <trkpt lat="48.05269" lon="-4.52305">
        <ele>27</ele>
        <time>2022-06-03T08:41:19.946Z</time>
      </trkpt>
      <trkpt lat="48.05263" lon="-4.52308">
        <ele>27</ele>
        <time>2022-06-03T08:41:24.958Z</time>
      </trkpt>
      <trkpt lat="48.05256" lon="-4.5231">
        <ele>27</ele>
        <time>2022-06-03T08:41:29.969Z</time>
      </trkpt>
      <trkpt lat="48.05252" lon="-4.52313">
        <ele>27</ele>
        <time>2022-06-03T08:41:33.969Z</time>
      </trkpt>
      <trkpt lat="48.05246" lon="-4.52317">
        <ele>27</ele>
        <time>2022-06-03T08:41:38.964Z</time>
      </trkpt>
      <trkpt lat="48.0524" lon="-4.52321">
        <ele>26</ele>
        <time>2022-06-03T08:41:43.960Z</time>
      </trkpt>
      <trkpt lat="48.05236" lon="-4.52324">
        <ele>26</ele>
        <time>2022-06-03T08:41:48.962Z</time>
      </trkpt>
      <trkpt lat="48.0523" lon="-4.52328">
        <ele>26</ele>
        <time>2022-06-03T08:41:53.951Z</time>
      </trkpt>
      <trkpt lat="48.05226" lon="-4.5233">
        <ele>26</ele>
        <time>2022-06-03T08:41:58.966Z</time>
      </trkpt>
      <trkpt lat="48.0522" lon="-4.52334">
        <ele>26</ele>
        <time>2022-06-03T08:42:03.959Z</time>
      </trkpt>
      <trkpt lat="48.05216" lon="-4.52337">
        <ele>26</ele>
        <time>2022-06-03T08:42:08.961Z</time>
      </trkpt>
      <trkpt lat="48.0521" lon="-4.52341">
        <ele>26</ele>
        <time>2022-06-03T08:42:13.951Z</time>
      </trkpt>
      <trkpt lat="48.05207" lon="-4.52344">
        <ele>27</ele>
        <time>2022-06-03T08:42:17.948Z</time>
      </trkpt>
      <trkpt lat="48.05203" lon="-4.52347">
        <ele>25</ele>
        <time>2022-06-03T08:42:22.956Z</time>
      </trkpt>
      <trkpt lat="48.05198" lon="-4.5235">
        <ele>25</ele>
        <time>2022-06-03T08:42:27.961Z</time>
      </trkpt>
      <trkpt lat="48.05194" lon="-4.52355">
        <ele>25</ele>
        <time>2022-06-03T08:42:31.965Z</time>
      </trkpt>
      <trkpt lat="48.05188" lon="-4.5236">
        <ele>25</ele>
        <time>2022-06-03T08:42:36.950Z</time>
      </trkpt>
      <trkpt lat="48.05181" lon="-4.52363">
        <ele>25</ele>
        <time>2022-06-03T08:42:41.947Z</time>
      </trkpt>
      <trkpt lat="48.05176" lon="-4.52365">
        <ele>25</ele>
        <time>2022-06-03T08:42:45.970Z</time>
      </trkpt>
      <trkpt lat="48.0517" lon="-4.52365">
        <ele>25</ele>
        <time>2022-06-03T08:42:49.979Z</time>
      </trkpt>
      <trkpt lat="48.05165" lon="-4.52367">
        <ele>25</ele>
        <time>2022-06-03T08:42:53.996Z</time>
      </trkpt>
      <trkpt lat="48.05157" lon="-4.52369">
        <ele>25</ele>
        <time>2022-06-03T08:42:58.972Z</time>
      </trkpt>
      <trkpt lat="48.0515" lon="-4.52371">
        <ele>26</ele>
        <time>2022-06-03T08:43:02.971Z</time>
      </trkpt>
      <trkpt lat="48.05143" lon="-4.52372">
        <ele>26</ele>
        <time>2022-06-03T08:43:07.972Z</time>
      </trkpt>
      <trkpt lat="48.05137" lon="-4.52374">
        <ele>26</ele>
        <time>2022-06-03T08:43:11.982Z</time>
      </trkpt>
      <trkpt lat="48.05131" lon="-4.52376">
        <ele>24</ele>
        <time>2022-06-03T08:43:16.981Z</time>
      </trkpt>
      <trkpt lat="48.05125" lon="-4.52375">
        <ele>24</ele>
        <time>2022-06-03T08:43:20.978Z</time>
      </trkpt>
      <trkpt lat="48.05119" lon="-4.52377">
        <ele>26</ele>
        <time>2022-06-03T08:43:25.978Z</time>
      </trkpt>
      <trkpt lat="48.05113" lon="-4.52378">
        <ele>26</ele>
        <time>2022-06-03T08:43:29.980Z</time>
      </trkpt>
      <trkpt lat="48.05107" lon="-4.5238">
        <ele>26</ele>
        <time>2022-06-03T08:43:34.988Z</time>
      </trkpt>
      <trkpt lat="48.05103" lon="-4.52381">
        <ele>26</ele>
        <time>2022-06-03T08:43:38.985Z</time>
      </trkpt>
      <trkpt lat="48.05099" lon="-4.52381">
        <ele>26</ele>
        <time>2022-06-03T08:43:43.967Z</time>
      </trkpt>
      <trkpt lat="48.05095" lon="-4.52381">
        <ele>27</ele>
        <time>2022-06-03T08:43:47.985Z</time>
      </trkpt>
      <trkpt lat="48.0509" lon="-4.52383">
        <ele>27</ele>
        <time>2022-06-03T08:43:52.980Z</time>
      </trkpt>
      <trkpt lat="48.05086" lon="-4.52383">
        <ele>27</ele>
        <time>2022-06-03T08:43:56.989Z</time>
      </trkpt>
      <trkpt lat="48.0508" lon="-4.52384">
        <ele>27</ele>
        <time>2022-06-03T08:44:01.959Z</time>
      </trkpt>
      <trkpt lat="48.05076" lon="-4.52386">
        <ele>27</ele>
        <time>2022-06-03T08:44:05.983Z</time>
      </trkpt>
      <trkpt lat="48.05071" lon="-4.52391">
        <ele>27</ele>
        <time>2022-06-03T08:44:10.990Z</time>
      </trkpt>
      <trkpt lat="48.05065" lon="-4.52394">
        <ele>29</ele>
        <time>2022-06-03T08:44:15.983Z</time>
      </trkpt>
      <trkpt lat="48.05059" lon="-4.52397">
        <ele>29</ele>
        <time>2022-06-03T08:44:20.962Z</time>
      </trkpt>
      <trkpt lat="48.05052" lon="-4.52405">
        <ele>24</ele>
        <time>2022-06-03T08:44:25.942Z</time>
      </trkpt>
      <trkpt lat="48.05045" lon="-4.52407">
        <ele>24</ele>
        <time>2022-06-03T08:44:30.942Z</time>
      </trkpt>
      <trkpt lat="48.05041" lon="-4.52411">
        <ele>26</ele>
        <time>2022-06-03T08:44:35.947Z</time>
      </trkpt>
      <trkpt lat="48.05036" lon="-4.52419">
        <ele>26</ele>
        <time>2022-06-03T08:44:39.951Z</time>
      </trkpt>
      <trkpt lat="48.05033" lon="-4.52423">
        <ele>26</ele>
        <time>2022-06-03T08:44:44.942Z</time>
      </trkpt>
      <trkpt lat="48.0503" lon="-4.52427">
        <ele>26</ele>
        <time>2022-06-03T08:44:48.944Z</time>
      </trkpt>
      <trkpt lat="48.05027" lon="-4.52437">
        <ele>23</ele>
        <time>2022-06-03T08:44:53.944Z</time>
      </trkpt>
      <trkpt lat="48.05022" lon="-4.52439">
        <ele>23</ele>
        <time>2022-06-03T08:44:57.943Z</time>
      </trkpt>
      <trkpt lat="48.05017" lon="-4.52444">
        <ele>23</ele>
        <time>2022-06-03T08:45:02.941Z</time>
      </trkpt>
      <trkpt lat="48.05013" lon="-4.52446">
        <ele>24</ele>
        <time>2022-06-03T08:45:06.958Z</time>
      </trkpt>
      <trkpt lat="48.05012" lon="-4.52446">
        <ele>24</ele>
        <time>2022-06-03T08:45:10.955Z</time>
      </trkpt>
      <trkpt lat="48.05007" lon="-4.5245">
        <ele>24</ele>
        <time>2022-06-03T08:45:14.988Z</time>
      </trkpt>
      <trkpt lat="48.05001" lon="-4.52454">
        <ele>24</ele>
        <time>2022-06-03T08:45:19.942Z</time>
      </trkpt>
      <trkpt lat="48.04994" lon="-4.52455">
        <ele>24</ele>
        <time>2022-06-03T08:45:24.944Z</time>
      </trkpt>
      <trkpt lat="48.04991" lon="-4.52456">
        <ele>24</ele>
        <time>2022-06-03T08:45:28.945Z</time>
      </trkpt>
      <trkpt lat="48.04986" lon="-4.52464">
        <ele>20</ele>
        <time>2022-06-03T08:45:33.942Z</time>
      </trkpt>
      <trkpt lat="48.04984" lon="-4.52468">
        <ele>20</ele>
        <time>2022-06-03T08:45:38.943Z</time>
      </trkpt>
      <trkpt lat="48.04979" lon="-4.52468">
        <ele>20</ele>
        <time>2022-06-03T08:45:43.942Z</time>
      </trkpt>
      <trkpt lat="48.04973" lon="-4.5247">
        <ele>20</ele>
        <time>2022-06-03T08:45:48.949Z</time>
      </trkpt>
      <trkpt lat="48.04969" lon="-4.52474">
        <ele>20</ele>
        <time>2022-06-03T08:45:52.956Z</time>
      </trkpt>
      <trkpt lat="48.04964" lon="-4.52477">
        <ele>20</ele>
        <time>2022-06-03T08:45:57.004Z</time>
      </trkpt>
      <trkpt lat="48.04958" lon="-4.52476">
        <ele>20</ele>
        <time>2022-06-03T08:46:01.956Z</time>
      </trkpt>
      <trkpt lat="48.04953" lon="-4.52477">
        <ele>20</ele>
        <time>2022-06-03T08:46:06.948Z</time>
      </trkpt>
      <trkpt lat="48.0495" lon="-4.5248">
        <ele>20</ele>
        <time>2022-06-03T08:48:53.983Z</time>
      </trkpt>
      <trkpt lat="48.04947" lon="-4.52479">
        <ele>20</ele>
        <time>2022-06-03T08:48:58.968Z</time>
      </trkpt>
      <trkpt lat="48.04942" lon="-4.52476">
        <ele>20</ele>
        <time>2022-06-03T08:49:03Z</time>
      </trkpt>
      <trkpt lat="48.04937" lon="-4.52473">
        <ele>20</ele>
        <time>2022-06-03T08:49:07.997Z</time>
      </trkpt>
      <trkpt lat="48.04931" lon="-4.52469">
        <ele>20</ele>
        <time>2022-06-03T08:49:12.948Z</time>
      </trkpt>
      <trkpt lat="48.04927" lon="-4.52469">
        <ele>21</ele>
        <time>2022-06-03T08:49:16.965Z</time>
      </trkpt>
      <trkpt lat="48.04922" lon="-4.52466">
        <ele>21</ele>
        <time>2022-06-03T08:49:21.001Z</time>
      </trkpt>
      <trkpt lat="48.04917" lon="-4.52463">
        <ele>21</ele>
        <time>2022-06-03T08:49:25.983Z</time>
      </trkpt>
      <trkpt lat="48.04912" lon="-4.5246">
        <ele>21</ele>
        <time>2022-06-03T08:49:31.008Z</time>
      </trkpt>
      <trkpt lat="48.04907" lon="-4.52456">
        <ele>23</ele>
        <time>2022-06-03T08:49:35.979Z</time>
      </trkpt>
      <trkpt lat="48.04902" lon="-4.52453">
        <ele>24</ele>
        <time>2022-06-03T08:49:40.958Z</time>
      </trkpt>
      <trkpt lat="48.04897" lon="-4.52449">
        <ele>24</ele>
        <time>2022-06-03T08:49:45.978Z</time>
      </trkpt>
      <trkpt lat="48.04892" lon="-4.52446">
        <ele>24</ele>
        <time>2022-06-03T08:49:50.967Z</time>
      </trkpt>
      <trkpt lat="48.04888" lon="-4.52444">
        <ele>24</ele>
        <time>2022-06-03T08:49:56.015Z</time>
      </trkpt>
      <trkpt lat="48.04882" lon="-4.52441">
        <ele>24</ele>
        <time>2022-06-03T08:50:00.960Z</time>
      </trkpt>
      <trkpt lat="48.04878" lon="-4.52439">
        <ele>24</ele>
        <time>2022-06-03T08:50:04.975Z</time>
      </trkpt>
      <trkpt lat="48.04874" lon="-4.52436">
        <ele>25</ele>
        <time>2022-06-03T08:50:08.987Z</time>
      </trkpt>
      <trkpt lat="48.04867" lon="-4.52434">
        <ele>25</ele>
        <time>2022-06-03T08:50:13.986Z</time>
      </trkpt>
      <trkpt lat="48.04861" lon="-4.52429">
        <ele>26</ele>
        <time>2022-06-03T08:50:18.990Z</time>
      </trkpt>
      <trkpt lat="48.04855" lon="-4.52426">
        <ele>26</ele>
        <time>2022-06-03T08:50:22.992Z</time>
      </trkpt>
      <trkpt lat="48.04849" lon="-4.52423">
        <ele>26</ele>
        <time>2022-06-03T08:50:28.005Z</time>
      </trkpt>
      <trkpt lat="48.04843" lon="-4.5242">
        <ele>25</ele>
        <time>2022-06-03T08:50:32.979Z</time>
      </trkpt>
      <trkpt lat="48.04838" lon="-4.52417">
        <ele>25</ele>
        <time>2022-06-03T08:50:37.998Z</time>
      </trkpt>
      <trkpt lat="48.04833" lon="-4.52415">
        <ele>25</ele>
        <time>2022-06-03T08:50:42.985Z</time>
      </trkpt>
      <trkpt lat="48.04828" lon="-4.52413">
        <ele>25</ele>
        <time>2022-06-03T08:50:47.986Z</time>
      </trkpt>
      <trkpt lat="48.04824" lon="-4.52411">
        <ele>25</ele>
        <time>2022-06-03T08:50:52.011Z</time>
      </trkpt>
      <trkpt lat="48.04818" lon="-4.52408">
        <ele>23</ele>
        <time>2022-06-03T08:50:56.983Z</time>
      </trkpt>
      <trkpt lat="48.04813" lon="-4.52406">
        <ele>23</ele>
        <time>2022-06-03T08:51:00.996Z</time>
      </trkpt>
      <trkpt lat="48.04807" lon="-4.52402">
        <ele>26</ele>
        <time>2022-06-03T08:51:05.999Z</time>
      </trkpt>
      <trkpt lat="48.04802" lon="-4.52398">
        <ele>26</ele>
        <time>2022-06-03T08:51:10.974Z</time>
      </trkpt>
      <trkpt lat="48.04796" lon="-4.52395">
        <ele>26</ele>
        <time>2022-06-03T08:51:15.971Z</time>
      </trkpt>
      <trkpt lat="48.0479" lon="-4.52393">
        <ele>24</ele>
        <time>2022-06-03T08:51:20.991Z</time>
      </trkpt>
      <trkpt lat="48.04783" lon="-4.52391">
        <ele>24</ele>
        <time>2022-06-03T08:51:25.983Z</time>
      </trkpt>
      <trkpt lat="48.04778" lon="-4.52388">
        <ele>24</ele>
        <time>2022-06-03T08:51:30.977Z</time>
      </trkpt>
      <trkpt lat="48.04774" lon="-4.52383">
        <ele>24</ele>
        <time>2022-06-03T08:51:35.971Z</time>
      </trkpt>
      <trkpt lat="48.0477" lon="-4.52381">
        <ele>24</ele>
        <time>2022-06-03T08:51:39.989Z</time>
      </trkpt>
      <trkpt lat="48.04764" lon="-4.52377">
        <ele>24</ele>
        <time>2022-06-03T08:51:44.944Z</time>
      </trkpt>
      <trkpt lat="48.04759" lon="-4.52376">
        <ele>24</ele>
        <time>2022-06-03T08:51:48.984Z</time>
      </trkpt>
      <trkpt lat="48.04753" lon="-4.52374">
        <ele>28</ele>
        <time>2022-06-03T08:51:53.975Z</time>
      </trkpt>
      <trkpt lat="48.04747" lon="-4.52371">
        <ele>28</ele>
        <time>2022-06-03T08:51:58.994Z</time>
      </trkpt>
      <trkpt lat="48.04741" lon="-4.52367">
        <ele>28</ele>
        <time>2022-06-03T08:52:03.990Z</time>
      </trkpt>
      <trkpt lat="48.04735" lon="-4.52365">
        <ele>27</ele>
        <time>2022-06-03T08:52:08.998Z</time>
      </trkpt>
      <trkpt lat="48.04729" lon="-4.52362">
        <ele>27</ele>
        <time>2022-06-03T08:52:13.982Z</time>
      </trkpt>
      <trkpt lat="48.04724" lon="-4.52359">
        <ele>27</ele>
        <time>2022-06-03T08:52:17.977Z</time>
      </trkpt>
      <trkpt lat="48.04719" lon="-4.52358">
        <ele>27</ele>
        <time>2022-06-03T08:52:21.997Z</time>
      </trkpt>
      <trkpt lat="48.04713" lon="-4.52356">
        <ele>27</ele>
        <time>2022-06-03T08:52:26.974Z</time>
      </trkpt>
      <trkpt lat="48.04708" lon="-4.52354">
        <ele>27</ele>
        <time>2022-06-03T08:52:31.971Z</time>
      </trkpt>
      <trkpt lat="48.04703" lon="-4.52352">
        <ele>25</ele>
        <time>2022-06-03T08:52:36.949Z</time>
      </trkpt>
      <trkpt lat="48.04699" lon="-4.5235">
        <ele>25</ele>
        <time>2022-06-03T08:52:40.976Z</time>
      </trkpt>
      <trkpt lat="48.04693" lon="-4.52347">
        <ele>31</ele>
        <time>2022-06-03T08:52:45.967Z</time>
      </trkpt>
      <trkpt lat="48.04688" lon="-4.52346">
        <ele>31</ele>
        <time>2022-06-03T08:52:50.946Z</time>
      </trkpt>
      <trkpt lat="48.04683" lon="-4.52343">
        <ele>31</ele>
        <time>2022-06-03T08:52:54.986Z</time>
      </trkpt>
      <trkpt lat="48.0468" lon="-4.52341">
        <ele>29</ele>
        <time>2022-06-03T08:52:58.987Z</time>
      </trkpt>
      <trkpt lat="48.04675" lon="-4.5234">
        <ele>29</ele>
        <time>2022-06-03T08:53:03.984Z</time>
      </trkpt>
      <trkpt lat="48.0467" lon="-4.52338">
        <ele>29</ele>
        <time>2022-06-03T08:53:08.978Z</time>
      </trkpt>
      <trkpt lat="48.04665" lon="-4.52336">
        <ele>29</ele>
        <time>2022-06-03T08:53:13.944Z</time>
      </trkpt>
      <trkpt lat="48.0466" lon="-4.52333">
        <ele>29</ele>
        <time>2022-06-03T08:53:17.986Z</time>
      </trkpt>
      <trkpt lat="48.04656" lon="-4.52332">
        <ele>29</ele>
        <time>2022-06-03T08:53:22.976Z</time>
      </trkpt>
      <trkpt lat="48.04651" lon="-4.52327">
        <ele>25</ele>
        <time>2022-06-03T08:53:27.959Z</time>
      </trkpt>
      <trkpt lat="48.04647" lon="-4.52326">
        <ele>25</ele>
        <time>2022-06-03T08:53:31.960Z</time>
      </trkpt>
      <trkpt lat="48.04642" lon="-4.52323">
        <ele>25</ele>
        <time>2022-06-03T08:53:35.962Z</time>
      </trkpt>
      <trkpt lat="48.04636" lon="-4.52318">
        <ele>30</ele>
        <time>2022-06-03T08:53:40.970Z</time>
      </trkpt>
      <trkpt lat="48.0463" lon="-4.52313">
        <ele>30</ele>
        <time>2022-06-03T08:53:45.960Z</time>
      </trkpt>
      <trkpt lat="48.04625" lon="-4.52309">
        <ele>26</ele>
        <time>2022-06-03T08:53:50.978Z</time>
      </trkpt>
      <trkpt lat="48.0462" lon="-4.52305">
        <ele>26</ele>
        <time>2022-06-03T08:53:55.951Z</time>
      </trkpt>
      <trkpt lat="48.04615" lon="-4.52301">
        <ele>26</ele>
        <time>2022-06-03T08:53:59.989Z</time>
      </trkpt>
      <trkpt lat="48.04611" lon="-4.52296">
        <ele>26</ele>
        <time>2022-06-03T08:54:03.987Z</time>
      </trkpt>
      <trkpt lat="48.04606" lon="-4.52289">
        <ele>30</ele>
        <time>2022-06-03T08:54:08.963Z</time>
      </trkpt>
      <trkpt lat="48.04602" lon="-4.52285">
        <ele>30</ele>
        <time>2022-06-03T08:54:12.977Z</time>
      </trkpt>
      <trkpt lat="48.04599" lon="-4.52281">
        <ele>30</ele>
        <time>2022-06-03T08:54:16.996Z</time>
      </trkpt>
      <trkpt lat="48.04595" lon="-4.52276">
        <ele>25</ele>
        <time>2022-06-03T08:54:21.997Z</time>
      </trkpt>
      <trkpt lat="48.04591" lon="-4.52268">
        <ele>25</ele>
        <time>2022-06-03T08:54:26.985Z</time>
      </trkpt>
      <trkpt lat="48.04587" lon="-4.52262">
        <ele>26</ele>
        <time>2022-06-03T08:54:32.002Z</time>
      </trkpt>
      <trkpt lat="48.04583" lon="-4.52255">
        <ele>26</ele>
        <time>2022-06-03T08:54:36.979Z</time>
      </trkpt>
      <trkpt lat="48.04579" lon="-4.52249">
        <ele>26</ele>
        <time>2022-06-03T08:54:41.983Z</time>
      </trkpt>
      <trkpt lat="48.04575" lon="-4.52243">
        <ele>26</ele>
        <time>2022-06-03T08:54:45.977Z</time>
      </trkpt>
      <trkpt lat="48.04573" lon="-4.52236">
        <ele>27</ele>
        <time>2022-06-03T08:54:50.963Z</time>
      </trkpt>
      <trkpt lat="48.04569" lon="-4.5223">
        <ele>22</ele>
        <time>2022-06-03T08:54:54.965Z</time>
      </trkpt>
      <trkpt lat="48.04565" lon="-4.52225">
        <ele>22</ele>
        <time>2022-06-03T08:54:58.979Z</time>
      </trkpt>
      <trkpt lat="48.04562" lon="-4.52218">
        <ele>22</ele>
        <time>2022-06-03T08:55:02.979Z</time>
      </trkpt>
      <trkpt lat="48.04559" lon="-4.52211">
        <ele>22</ele>
        <time>2022-06-03T08:55:07.968Z</time>
      </trkpt>
      <trkpt lat="48.04556" lon="-4.52202">
        <ele>24</ele>
        <time>2022-06-03T08:55:12.992Z</time>
      </trkpt>
      <trkpt lat="48.04552" lon="-4.52196">
        <ele>24</ele>
        <time>2022-06-03T08:55:16.990Z</time>
      </trkpt>
      <trkpt lat="48.04548" lon="-4.52189">
        <ele>24</ele>
        <time>2022-06-03T08:55:21.969Z</time>
      </trkpt>
      <trkpt lat="48.04545" lon="-4.52184">
        <ele>24</ele>
        <time>2022-06-03T08:55:25.971Z</time>
      </trkpt>
      <trkpt lat="48.04542" lon="-4.52179">
        <ele>26</ele>
        <time>2022-06-03T08:55:29.975Z</time>
      </trkpt>
      <trkpt lat="48.04539" lon="-4.52177">
        <ele>21</ele>
        <time>2022-06-03T08:55:34.979Z</time>
      </trkpt>
      <trkpt lat="48.04537" lon="-4.52181">
        <ele>19</ele>
        <time>2022-06-03T08:55:39.962Z</time>
      </trkpt>
      <trkpt lat="48.04535" lon="-4.52187">
        <ele>19</ele>
        <time>2022-06-03T08:55:44.946Z</time>
      </trkpt>
      <trkpt lat="48.04532" lon="-4.52193">
        <ele>19</ele>
        <time>2022-06-03T08:56:54.976Z</time>
      </trkpt>
      <trkpt lat="48.04531" lon="-4.52195">
        <ele>19</ele>
        <time>2022-06-03T08:56:58.997Z</time>
      </trkpt>
      <trkpt lat="48.04531" lon="-4.52199">
        <ele>19</ele>
        <time>2022-06-03T08:57:03.974Z</time>
      </trkpt>
      <trkpt lat="48.04529" lon="-4.52206">
        <ele>19</ele>
        <time>2022-06-03T08:57:08.992Z</time>
      </trkpt>
      <trkpt lat="48.04529" lon="-4.52216">
        <ele>16</ele>
        <time>2022-06-03T08:57:13.995Z</time>
      </trkpt>
      <trkpt lat="48.0453" lon="-4.52221">
        <ele>16</ele>
        <time>2022-06-03T08:57:17.993Z</time>
      </trkpt>
      <trkpt lat="48.0453" lon="-4.52233">
        <ele>16</ele>
        <time>2022-06-03T08:57:22.988Z</time>
      </trkpt>
      <trkpt lat="48.04531" lon="-4.52242">
        <ele>15</ele>
        <time>2022-06-03T08:57:27.972Z</time>
      </trkpt>
      <trkpt lat="48.04531" lon="-4.52251">
        <ele>15</ele>
        <time>2022-06-03T08:57:32.984Z</time>
      </trkpt>
      <trkpt lat="48.0453" lon="-4.52259">
        <ele>15</ele>
        <time>2022-06-03T08:57:37.959Z</time>
      </trkpt>
      <trkpt lat="48.0453" lon="-4.52265">
        <ele>13</ele>
        <time>2022-06-03T08:57:41.977Z</time>
      </trkpt>
      <trkpt lat="48.04527" lon="-4.52272">
        <ele>13</ele>
        <time>2022-06-03T08:57:46.969Z</time>
      </trkpt>
      <trkpt lat="48.04524" lon="-4.52278">
        <ele>13</ele>
        <time>2022-06-03T08:57:51.995Z</time>
      </trkpt>
      <trkpt lat="48.04522" lon="-4.52284">
        <ele>13</ele>
        <time>2022-06-03T08:57:56.977Z</time>
      </trkpt>
      <trkpt lat="48.0452" lon="-4.52292">
        <ele>13</ele>
        <time>2022-06-03T08:58:01.985Z</time>
      </trkpt>
      <trkpt lat="48.04518" lon="-4.523">
        <ele>13</ele>
        <time>2022-06-03T08:58:06.970Z</time>
      </trkpt>
      <trkpt lat="48.04515" lon="-4.52308">
        <ele>13</ele>
        <time>2022-06-03T08:58:11.982Z</time>
      </trkpt>
      <trkpt lat="48.04511" lon="-4.52314">
        <ele>9</ele>
        <time>2022-06-03T08:58:15.992Z</time>
      </trkpt>
      <trkpt lat="48.04507" lon="-4.5232">
        <ele>10</ele>
        <time>2022-06-03T08:58:20.997Z</time>
      </trkpt>
      <trkpt lat="48.04501" lon="-4.52322">
        <ele>10</ele>
        <time>2022-06-03T08:58:25.995Z</time>
      </trkpt>
      <trkpt lat="48.04495" lon="-4.52322">
        <ele>10</ele>
        <time>2022-06-03T08:58:30.988Z</time>
      </trkpt>
      <trkpt lat="48.04489" lon="-4.52324">
        <ele>10</ele>
        <time>2022-06-03T08:58:36.003Z</time>
      </trkpt>
      <trkpt lat="48.04484" lon="-4.5233">
        <ele>8</ele>
        <time>2022-06-03T08:58:40.975Z</time>
      </trkpt>
      <trkpt lat="48.0448" lon="-4.52338">
        <ele>8</ele>
        <time>2022-06-03T08:58:45.974Z</time>
      </trkpt>
      <trkpt lat="48.04477" lon="-4.52345">
        <ele>8</ele>
        <time>2022-06-03T08:58:50.973Z</time>
      </trkpt>
      <trkpt lat="48.04472" lon="-4.52352">
        <ele>8</ele>
        <time>2022-06-03T08:58:55.987Z</time>
      </trkpt>
      <trkpt lat="48.04469" lon="-4.52359">
        <ele>8</ele>
        <time>2022-06-03T08:59:00.969Z</time>
      </trkpt>
      <trkpt lat="48.04465" lon="-4.52366">
        <ele>8</ele>
        <time>2022-06-03T08:59:05.978Z</time>
      </trkpt>
      <trkpt lat="48.04463" lon="-4.52373">
        <ele>8</ele>
        <time>2022-06-03T08:59:11.004Z</time>
      </trkpt>
      <trkpt lat="48.04459" lon="-4.52377">
        <ele>8</ele>
        <time>2022-06-03T08:59:15.985Z</time>
      </trkpt>
      <trkpt lat="48.04456" lon="-4.52382">
        <ele>7</ele>
        <time>2022-06-03T08:59:20.949Z</time>
      </trkpt>
      <trkpt lat="48.04454" lon="-4.52387">
        <ele>7</ele>
        <time>2022-06-03T08:59:24.954Z</time>
      </trkpt>
      <trkpt lat="48.04453" lon="-4.52393">
        <ele>7</ele>
        <time>2022-06-03T08:59:28.988Z</time>
      </trkpt>
      <trkpt lat="48.04451" lon="-4.52398">
        <ele>7</ele>
        <time>2022-06-03T08:59:32.992Z</time>
      </trkpt>
      <trkpt lat="48.04447" lon="-4.52403">
        <ele>7</ele>
        <time>2022-06-03T08:59:37.994Z</time>
      </trkpt>
      <trkpt lat="48.04441" lon="-4.52401">
        <ele>7</ele>
        <time>2022-06-03T08:59:42.980Z</time>
      </trkpt>
      <trkpt lat="48.04438" lon="-4.52399">
        <ele>7</ele>
        <time>2022-06-03T08:59:46.975Z</time>
      </trkpt>
      <trkpt lat="48.04433" lon="-4.52395">
        <ele>7</ele>
        <time>2022-06-03T08:59:51.972Z</time>
      </trkpt>
      <trkpt lat="48.04429" lon="-4.52391">
        <ele>7</ele>
        <time>2022-06-03T08:59:55.984Z</time>
      </trkpt>
      <trkpt lat="48.04425" lon="-4.52387">
        <ele>7</ele>
        <time>2022-06-03T08:59:59.994Z</time>
      </trkpt>
      <trkpt lat="48.04421" lon="-4.52384">
        <ele>7</ele>
        <time>2022-06-03T09:00:04.950Z</time>
      </trkpt>
      <trkpt lat="48.04415" lon="-4.5238">
        <ele>7</ele>
        <time>2022-06-03T09:00:09.960Z</time>
      </trkpt>
      <trkpt lat="48.04411" lon="-4.52376">
        <ele>7</ele>
        <time>2022-06-03T09:00:13.964Z</time>
      </trkpt>
      <trkpt lat="48.04408" lon="-4.52373">
        <ele>7</ele>
        <time>2022-06-03T09:00:17.975Z</time>
      </trkpt>
      <trkpt lat="48.04404" lon="-4.52371">
        <ele>7</ele>
        <time>2022-06-03T09:00:21.997Z</time>
      </trkpt>
      <trkpt lat="48.044" lon="-4.52365">
        <ele>6</ele>
        <time>2022-06-03T09:00:26.988Z</time>
      </trkpt>
      <trkpt lat="48.04396" lon="-4.5236">
        <ele>6</ele>
        <time>2022-06-03T09:00:31.987Z</time>
      </trkpt>
      <trkpt lat="48.0439" lon="-4.52356">
        <ele>6</ele>
        <time>2022-06-03T09:00:36.991Z</time>
      </trkpt>
      <trkpt lat="48.04383" lon="-4.52352">
        <ele>6</ele>
        <time>2022-06-03T09:00:41.983Z</time>
      </trkpt>
      <trkpt lat="48.04377" lon="-4.52346">
        <ele>5</ele>
        <time>2022-06-03T09:00:47.011Z</time>
      </trkpt>
      <trkpt lat="48.04374" lon="-4.52341">
        <ele>4</ele>
        <time>2022-06-03T09:00:51.998Z</time>
      </trkpt>
      <trkpt lat="48.04369" lon="-4.52334">
        <ele>4</ele>
        <time>2022-06-03T09:00:56.969Z</time>
      </trkpt>
      <trkpt lat="48.04365" lon="-4.52329">
        <ele>4</ele>
        <time>2022-06-03T09:01:01.986Z</time>
      </trkpt>
      <trkpt lat="48.04361" lon="-4.52324">
        <ele>4</ele>
        <time>2022-06-03T09:01:05.990Z</time>
      </trkpt>
      <trkpt lat="48.04356" lon="-4.52318">
        <ele>4</ele>
        <time>2022-06-03T09:01:10.997Z</time>
      </trkpt>
      <trkpt lat="48.0435" lon="-4.52313">
        <ele>4</ele>
        <time>2022-06-03T09:01:15.996Z</time>
      </trkpt>
      <trkpt lat="48.04346" lon="-4.52312">
        <ele>3</ele>
        <time>2022-06-03T09:01:20.997Z</time>
      </trkpt>
      <trkpt lat="48.04342" lon="-4.52311">
        <ele>3</ele>
        <time>2022-06-03T09:01:25.985Z</time>
      </trkpt>
      <trkpt lat="48.04339" lon="-4.5231">
        <ele>3</ele>
        <time>2022-06-03T09:01:31.002Z</time>
      </trkpt>
      <trkpt lat="48.04333" lon="-4.52309">
        <ele>3</ele>
        <time>2022-06-03T09:01:35.992Z</time>
      </trkpt>
      <trkpt lat="48.04328" lon="-4.52307">
        <ele>3</ele>
        <time>2022-06-03T09:01:40.981Z</time>
      </trkpt>
      <trkpt lat="48.04323" lon="-4.52306">
        <ele>3</ele>
        <time>2022-06-03T09:01:44.969Z</time>
      </trkpt>
      <trkpt lat="48.04316" lon="-4.52304">
        <ele>4</ele>
        <time>2022-06-03T09:01:49.987Z</time>
      </trkpt>
      <trkpt lat="48.0431" lon="-4.52299">
        <ele>4</ele>
        <time>2022-06-03T09:01:54.959Z</time>
      </trkpt>
      <trkpt lat="48.04303" lon="-4.52293">
        <ele>4</ele>
        <time>2022-06-03T09:01:59.988Z</time>
      </trkpt>
      <trkpt lat="48.04299" lon="-4.52286">
        <ele>3</ele>
        <time>2022-06-03T09:02:04.986Z</time>
      </trkpt>
      <trkpt lat="48.04295" lon="-4.52279">
        <ele>3</ele>
        <time>2022-06-03T09:02:09.983Z</time>
      </trkpt>
      <trkpt lat="48.04293" lon="-4.52271">
        <ele>3</ele>
        <time>2022-06-03T09:02:14.983Z</time>
      </trkpt>
      <trkpt lat="48.04291" lon="-4.52263">
        <ele>2</ele>
        <time>2022-06-03T09:02:19Z</time>
      </trkpt>
      <trkpt lat="48.04287" lon="-4.52263">
        <ele>2</ele>
        <time>2022-06-03T09:03:28.977Z</time>
      </trkpt>
      <trkpt lat="48.04288" lon="-4.52254">
        <ele>2</ele>
        <time>2022-06-03T09:03:33.993Z</time>
      </trkpt>
      <trkpt lat="48.04287" lon="-4.52248">
        <ele>2</ele>
        <time>2022-06-03T09:03:37.986Z</time>
      </trkpt>
      <trkpt lat="48.04287" lon="-4.52241">
        <ele>2</ele>
        <time>2022-06-03T09:03:42.981Z</time>
      </trkpt>
      <trkpt lat="48.04285" lon="-4.52232">
        <ele>1</ele>
        <time>2022-06-03T09:03:47.983Z</time>
      </trkpt>
      <trkpt lat="48.04283" lon="-4.52223">
        <ele>1</ele>
        <time>2022-06-03T09:03:53.001Z</time>
      </trkpt>
      <trkpt lat="48.04282" lon="-4.52214">
        <ele>1</ele>
        <time>2022-06-03T09:03:57.963Z</time>
      </trkpt>
      <trkpt lat="48.0428" lon="-4.52206">
        <ele>2</ele>
        <time>2022-06-03T09:04:01.963Z</time>
      </trkpt>
      <trkpt lat="48.04279" lon="-4.52199">
        <ele>2</ele>
        <time>2022-06-03T09:04:06.012Z</time>
      </trkpt>
      <trkpt lat="48.04279" lon="-4.52191">
        <ele>2</ele>
        <time>2022-06-03T09:04:10.976Z</time>
      </trkpt>
      <trkpt lat="48.04277" lon="-4.52182">
        <ele>2</ele>
        <time>2022-06-03T09:04:15.968Z</time>
      </trkpt>
      <trkpt lat="48.04274" lon="-4.52174">
        <ele>3</ele>
        <time>2022-06-03T09:04:20.983Z</time>
      </trkpt>
      <trkpt lat="48.04272" lon="-4.52169">
        <ele>3</ele>
        <time>2022-06-03T09:04:25.971Z</time>
      </trkpt>
      <trkpt lat="48.04267" lon="-4.52168">
        <ele>3</ele>
        <time>2022-06-03T09:04:30.947Z</time>
      </trkpt>
      <trkpt lat="48.04264" lon="-4.52173">
        <ele>3</ele>
        <time>2022-06-03T09:04:34.957Z</time>
      </trkpt>
      <trkpt lat="48.04263" lon="-4.52182">
        <ele>3</ele>
        <time>2022-06-03T09:04:39.949Z</time>
      </trkpt>
      <trkpt lat="48.04261" lon="-4.52189">
        <ele>3</ele>
        <time>2022-06-03T09:04:43.955Z</time>
      </trkpt>
      <trkpt lat="48.04259" lon="-4.52197">
        <ele>3</ele>
        <time>2022-06-03T09:04:48.946Z</time>
      </trkpt>
      <trkpt lat="48.04257" lon="-4.52203">
        <ele>3</ele>
        <time>2022-06-03T09:04:52.980Z</time>
      </trkpt>
      <trkpt lat="48.04253" lon="-4.52212">
        <ele>2</ele>
        <time>2022-06-03T09:04:57.958Z</time>
      </trkpt>
      <trkpt lat="48.04249" lon="-4.52218">
        <ele>2</ele>
        <time>2022-06-03T09:05:02.955Z</time>
      </trkpt>
      <trkpt lat="48.04246" lon="-4.52224">
        <ele>2</ele>
        <time>2022-06-03T09:05:20.959Z</time>
      </trkpt>
      <trkpt lat="48.04245" lon="-4.52224">
        <ele>2</ele>
        <time>2022-06-03T09:05:24.963Z</time>
      </trkpt>
      <trkpt lat="48.04244" lon="-4.52224">
        <ele>2</ele>
        <time>2022-06-03T09:05:29.956Z</time>
      </trkpt>
      <trkpt lat="48.04241" lon="-4.52219">
        <ele>2</ele>
        <time>2022-06-03T09:05:33.968Z</time>
      </trkpt>
      <trkpt lat="48.04239" lon="-4.52212">
        <ele>2</ele>
        <time>2022-06-03T09:05:38.943Z</time>
      </trkpt>
      <trkpt lat="48.04237" lon="-4.52208">
        <ele>3</ele>
        <time>2022-06-03T09:05:42.960Z</time>
      </trkpt>
      <trkpt lat="48.04233" lon="-4.52205">
        <ele>3</ele>
        <time>2022-06-03T09:05:46.975Z</time>
      </trkpt>
      <trkpt lat="48.04231" lon="-4.522">
        <ele>3</ele>
        <time>2022-06-03T09:05:51.987Z</time>
      </trkpt>
      <trkpt lat="48.04229" lon="-4.52195">
        <ele>3</ele>
        <time>2022-06-03T09:05:55.985Z</time>
      </trkpt>
      <trkpt lat="48.04227" lon="-4.52187">
        <ele>3</ele>
        <time>2022-06-03T09:06:10.978Z</time>
      </trkpt>
      <trkpt lat="48.04227" lon="-4.52185">
        <ele>3</ele>
        <time>2022-06-03T09:06:15.954Z</time>
      </trkpt>
      <trkpt lat="48.04227" lon="-4.52185">
        <ele>3</ele>
        <time>2022-06-03T09:06:19.937Z</time>
      </trkpt>
      <trkpt lat="48.04225" lon="-4.52196">
        <ele>3</ele>
        <time>2022-06-03T09:06:24.944Z</time>
      </trkpt>
      <trkpt lat="48.04224" lon="-4.52201">
        <ele>3</ele>
        <time>2022-06-03T09:06:28.955Z</time>
      </trkpt>
      <trkpt lat="48.04221" lon="-4.52207">
        <ele>3</ele>
        <time>2022-06-03T09:06:33.947Z</time>
      </trkpt>
      <trkpt lat="48.04218" lon="-4.5221">
        <ele>3</ele>
        <time>2022-06-03T09:06:38.946Z</time>
      </trkpt>
      <trkpt lat="48.04218" lon="-4.52211">
        <ele>3</ele>
        <time>2022-06-03T09:06:42.964Z</time>
      </trkpt>
      <trkpt lat="48.04214" lon="-4.5222">
        <ele>3</ele>
        <time>2022-06-03T09:06:47.953Z</time>
      </trkpt>
      <trkpt lat="48.0421" lon="-4.52227">
        <ele>3</ele>
        <time>2022-06-03T09:06:52.951Z</time>
      </trkpt>
      <trkpt lat="48.04207" lon="-4.52232">
        <ele>4</ele>
        <time>2022-06-03T09:06:56.957Z</time>
      </trkpt>
      <trkpt lat="48.04204" lon="-4.52238">
        <ele>3</ele>
        <time>2022-06-03T09:07:01.957Z</time>
      </trkpt>
      <trkpt lat="48.04199" lon="-4.52244">
        <ele>3</ele>
        <time>2022-06-03T09:07:06.940Z</time>
      </trkpt>
      <trkpt lat="48.04196" lon="-4.52248">
        <ele>3</ele>
        <time>2022-06-03T09:07:10.975Z</time>
      </trkpt>
      <trkpt lat="48.04192" lon="-4.52253">
        <ele>3</ele>
        <time>2022-06-03T09:07:14.966Z</time>
      </trkpt>
      <trkpt lat="48.04187" lon="-4.52257">
        <ele>3</ele>
        <time>2022-06-03T09:07:19.956Z</time>
      </trkpt>
      <trkpt lat="48.04183" lon="-4.52263">
        <ele>3</ele>
        <time>2022-06-03T09:07:23.958Z</time>
      </trkpt>
      <trkpt lat="48.04179" lon="-4.52267">
        <ele>3</ele>
        <time>2022-06-03T09:07:27.978Z</time>
      </trkpt>
      <trkpt lat="48.04175" lon="-4.52273">
        <ele>3</ele>
        <time>2022-06-03T09:07:32.981Z</time>
      </trkpt>
      <trkpt lat="48.0417" lon="-4.52278">
        <ele>3</ele>
        <time>2022-06-03T09:07:37.983Z</time>
      </trkpt>
      <trkpt lat="48.04164" lon="-4.52282">
        <ele>3</ele>
        <time>2022-06-03T09:07:42.963Z</time>
      </trkpt>
      <trkpt lat="48.04161" lon="-4.52285">
        <ele>3</ele>
        <time>2022-06-03T09:07:46.976Z</time>
      </trkpt>
      <trkpt lat="48.04156" lon="-4.52288">
        <ele>3</ele>
        <time>2022-06-03T09:07:51.984Z</time>
      </trkpt>
      <trkpt lat="48.04153" lon="-4.52292">
        <ele>4</ele>
        <time>2022-06-03T09:07:55.995Z</time>
      </trkpt>
      <trkpt lat="48.04148" lon="-4.52297">
        <ele>4</ele>
        <time>2022-06-03T09:08:00.976Z</time>
      </trkpt>
      <trkpt lat="48.04144" lon="-4.52301">
        <ele>4</ele>
        <time>2022-06-03T09:08:05.974Z</time>
      </trkpt>
      <trkpt lat="48.04141" lon="-4.52306">
        <ele>4</ele>
        <time>2022-06-03T09:08:09.969Z</time>
      </trkpt>
      <trkpt lat="48.04138" lon="-4.5231">
        <ele>4</ele>
        <time>2022-06-03T09:08:14.965Z</time>
      </trkpt>
      <trkpt lat="48.04134" lon="-4.52311">
        <ele>4</ele>
        <time>2022-06-03T09:08:18.986Z</time>
      </trkpt>
      <trkpt lat="48.04128" lon="-4.52315">
        <ele>4</ele>
        <time>2022-06-03T09:08:23.975Z</time>
      </trkpt>
      <trkpt lat="48.04123" lon="-4.52318">
        <ele>3</ele>
        <time>2022-06-03T09:08:28.988Z</time>
      </trkpt>
      <trkpt lat="48.0412" lon="-4.52322">
        <ele>3</ele>
        <time>2022-06-03T09:08:33.981Z</time>
      </trkpt>
      <trkpt lat="48.0412" lon="-4.52323">
        <ele>3</ele>
        <time>2022-06-03T09:08:37.970Z</time>
      </trkpt>
      <trkpt lat="48.04119" lon="-4.52325">
        <ele>3</ele>
        <time>2022-06-03T09:08:42.970Z</time>
      </trkpt>
      <trkpt lat="48.04114" lon="-4.52328">
        <ele>3</ele>
        <time>2022-06-03T09:08:47.948Z</time>
      </trkpt>
      <trkpt lat="48.04109" lon="-4.52333">
        <ele>3</ele>
        <time>2022-06-03T09:08:51.960Z</time>
      </trkpt>
      <trkpt lat="48.04104" lon="-4.52337">
        <ele>3</ele>
        <time>2022-06-03T09:08:56.966Z</time>
      </trkpt>
      <trkpt lat="48.04097" lon="-4.52341">
        <ele>2</ele>
        <time>2022-06-03T09:09:01.971Z</time>
      </trkpt>
      <trkpt lat="48.04093" lon="-4.52344">
        <ele>2</ele>
        <time>2022-06-03T09:09:05.972Z</time>
      </trkpt>
      <trkpt lat="48.04089" lon="-4.52348">
        <ele>2</ele>
        <time>2022-06-03T09:09:10.967Z</time>
      </trkpt>
      <trkpt lat="48.04085" lon="-4.5235">
        <ele>2</ele>
        <time>2022-06-03T09:09:14.991Z</time>
      </trkpt>
      <trkpt lat="48.04083" lon="-4.52351">
        <ele>2</ele>
        <time>2022-06-03T09:09:23.956Z</time>
      </trkpt>
      <trkpt lat="48.04082" lon="-4.52352">
        <ele>2</ele>
        <time>2022-06-03T09:09:28.948Z</time>
      </trkpt>
      <trkpt lat="48.04081" lon="-4.52354">
        <ele>2</ele>
        <time>2022-06-03T09:09:32.961Z</time>
      </trkpt>
      <trkpt lat="48.04076" lon="-4.52357">
        <ele>2</ele>
        <time>2022-06-03T09:09:36.976Z</time>
      </trkpt>
      <trkpt lat="48.04072" lon="-4.5236">
        <ele>2</ele>
        <time>2022-06-03T09:09:41.965Z</time>
      </trkpt>
      <trkpt lat="48.04064" lon="-4.52367">
        <ele>3</ele>
        <time>2022-06-03T09:10:00.948Z</time>
      </trkpt>
      <trkpt lat="48.04058" lon="-4.52373">
        <ele>3</ele>
        <time>2022-06-03T09:10:05.953Z</time>
      </trkpt>
      <trkpt lat="48.04052" lon="-4.52376">
        <ele>5</ele>
        <time>2022-06-03T09:10:10.945Z</time>
      </trkpt>
      <trkpt lat="48.04049" lon="-4.5238">
        <ele>5</ele>
        <time>2022-06-03T09:10:14.956Z</time>
      </trkpt>
      <trkpt lat="48.04046" lon="-4.52383">
        <ele>5</ele>
        <time>2022-06-03T09:10:19.950Z</time>
      </trkpt>
      <trkpt lat="48.04042" lon="-4.52386">
        <ele>5</ele>
        <time>2022-06-03T09:10:23.946Z</time>
      </trkpt>
      <trkpt lat="48.04036" lon="-4.5239">
        <ele>6</ele>
        <time>2022-06-03T09:10:28.946Z</time>
      </trkpt>
      <trkpt lat="48.0403" lon="-4.52393">
        <ele>6</ele>
        <time>2022-06-03T09:10:33.941Z</time>
      </trkpt>
      <trkpt lat="48.04025" lon="-4.52396">
        <ele>6</ele>
        <time>2022-06-03T09:10:37.950Z</time>
      </trkpt>
      <trkpt lat="48.04021" lon="-4.52398">
        <ele>6</ele>
        <time>2022-06-03T09:10:42.946Z</time>
      </trkpt>
      <trkpt lat="48.04015" lon="-4.52397">
        <ele>6</ele>
        <time>2022-06-03T09:10:47.947Z</time>
      </trkpt>
      <trkpt lat="48.04005" lon="-4.524">
        <ele>4</ele>
        <time>2022-06-03T09:10:52.968Z</time>
      </trkpt>
      <trkpt lat="48.03999" lon="-4.52404">
        <ele>7</ele>
        <time>2022-06-03T09:10:57.958Z</time>
      </trkpt>
      <trkpt lat="48.03994" lon="-4.52403">
        <ele>4</ele>
        <time>2022-06-03T09:11:01.991Z</time>
      </trkpt>
      <trkpt lat="48.03987" lon="-4.52399">
        <ele>4</ele>
        <time>2022-06-03T09:11:06.955Z</time>
      </trkpt>
      <trkpt lat="48.03981" lon="-4.52397">
        <ele>4</ele>
        <time>2022-06-03T09:11:10.974Z</time>
      </trkpt>
      <trkpt lat="48.03975" lon="-4.52394">
        <ele>4</ele>
        <time>2022-06-03T09:11:15.981Z</time>
      </trkpt>
      <trkpt lat="48.03969" lon="-4.52389">
        <ele>4</ele>
        <time>2022-06-03T09:11:20.962Z</time>
      </trkpt>
      <trkpt lat="48.03963" lon="-4.52385">
        <ele>4</ele>
        <time>2022-06-03T09:11:25.973Z</time>
      </trkpt>
      <trkpt lat="48.03958" lon="-4.52382">
        <ele>4</ele>
        <time>2022-06-03T09:11:30.984Z</time>
      </trkpt>
      <trkpt lat="48.03953" lon="-4.52376">
        <ele>8</ele>
        <time>2022-06-03T09:11:35.951Z</time>
      </trkpt>
      <trkpt lat="48.03948" lon="-4.52371">
        <ele>6</ele>
        <time>2022-06-03T09:11:39.973Z</time>
      </trkpt>
      <trkpt lat="48.03944" lon="-4.52367">
        <ele>6</ele>
        <time>2022-06-03T09:11:44.969Z</time>
      </trkpt>
      <trkpt lat="48.03938" lon="-4.52361">
        <ele>6</ele>
        <time>2022-06-03T09:11:49.946Z</time>
      </trkpt>
      <trkpt lat="48.03933" lon="-4.52358">
        <ele>6</ele>
        <time>2022-06-03T09:11:53.941Z</time>
      </trkpt>
      <trkpt lat="48.03929" lon="-4.52353">
        <ele>7</ele>
        <time>2022-06-03T09:11:57.949Z</time>
      </trkpt>
      <trkpt lat="48.03923" lon="-4.52352">
        <ele>7</ele>
        <time>2022-06-03T09:12:02.950Z</time>
      </trkpt>
      <trkpt lat="48.03917" lon="-4.52347">
        <ele>7</ele>
        <time>2022-06-03T09:12:07.948Z</time>
      </trkpt>
      <trkpt lat="48.03911" lon="-4.52344">
        <ele>4</ele>
        <time>2022-06-03T09:12:12.943Z</time>
      </trkpt>
      <trkpt lat="48.03906" lon="-4.52342">
        <ele>4</ele>
        <time>2022-06-03T09:12:16.962Z</time>
      </trkpt>
      <trkpt lat="48.03901" lon="-4.5234">
        <ele>3</ele>
        <time>2022-06-03T09:12:20.980Z</time>
      </trkpt>
      <trkpt lat="48.03895" lon="-4.52337">
        <ele>3</ele>
        <time>2022-06-03T09:12:25.957Z</time>
      </trkpt>
      <trkpt lat="48.03889" lon="-4.52335">
        <ele>3</ele>
        <time>2022-06-03T09:12:30.948Z</time>
      </trkpt>
      <trkpt lat="48.03878" lon="-4.52328">
        <ele>3</ele>
        <time>2022-06-03T09:15:53.947Z</time>
      </trkpt>
      <trkpt lat="48.03878" lon="-4.52328">
        <ele>3</ele>
        <time>2022-06-03T09:15:58.948Z</time>
      </trkpt>
      <trkpt lat="48.03877" lon="-4.52326">
        <ele>3</ele>
        <time>2022-06-03T09:16:02.956Z</time>
      </trkpt>
      <trkpt lat="48.03877" lon="-4.52323">
        <ele>3</ele>
        <time>2022-06-03T09:16:07.949Z</time>
      </trkpt>
      <trkpt lat="48.03877" lon="-4.52317">
        <ele>2</ele>
        <time>2022-06-03T09:16:11.956Z</time>
      </trkpt>
      <trkpt lat="48.03877" lon="-4.52309">
        <ele>2</ele>
        <time>2022-06-03T09:16:16.952Z</time>
      </trkpt>
      <trkpt lat="48.03878" lon="-4.52304">
        <ele>2</ele>
        <time>2022-06-03T09:16:21.947Z</time>
      </trkpt>
      <trkpt lat="48.03879" lon="-4.523">
        <ele>2</ele>
        <time>2022-06-03T09:16:25.964Z</time>
      </trkpt>
      <trkpt lat="48.03876" lon="-4.52291">
        <ele>3</ele>
        <time>2022-06-03T09:16:30.967Z</time>
      </trkpt>
      <trkpt lat="48.03877" lon="-4.5229">
        <ele>3</ele>
        <time>2022-06-03T09:16:58.949Z</time>
      </trkpt>
      <trkpt lat="48.03878" lon="-4.52284">
        <ele>3</ele>
        <time>2022-06-03T09:17:03.954Z</time>
      </trkpt>
      <trkpt lat="48.0388" lon="-4.52277">
        <ele>3</ele>
        <time>2022-06-03T09:17:08.965Z</time>
      </trkpt>
      <trkpt lat="48.03878" lon="-4.52267">
        <ele>3</ele>
        <time>2022-06-03T09:17:13.954Z</time>
      </trkpt>
      <trkpt lat="48.03878" lon="-4.5226">
        <ele>4</ele>
        <time>2022-06-03T09:17:17.950Z</time>
      </trkpt>
      <trkpt lat="48.03875" lon="-4.52258">
        <ele>4</ele>
        <time>2022-06-03T09:17:46.956Z</time>
      </trkpt>
      <trkpt lat="48.03875" lon="-4.52257">
        <ele>4</ele>
        <time>2022-06-03T09:17:51.961Z</time>
      </trkpt>
      <trkpt lat="48.03875" lon="-4.52251">
        <ele>3</ele>
        <time>2022-06-03T09:17:56.950Z</time>
      </trkpt>
      <trkpt lat="48.03874" lon="-4.52241">
        <ele>3</ele>
        <time>2022-06-03T09:18:01.954Z</time>
      </trkpt>
      <trkpt lat="48.03872" lon="-4.52232">
        <ele>4</ele>
        <time>2022-06-03T09:18:06.947Z</time>
      </trkpt>
      <trkpt lat="48.03872" lon="-4.52225">
        <ele>4</ele>
        <time>2022-06-03T09:18:11.955Z</time>
      </trkpt>
      <trkpt lat="48.03872" lon="-4.52224">
        <ele>4</ele>
        <time>2022-06-03T09:18:16.944Z</time>
      </trkpt>
      <trkpt lat="48.03872" lon="-4.52223">
        <ele>4</ele>
        <time>2022-06-03T09:18:21.950Z</time>
      </trkpt>
      <trkpt lat="48.03872" lon="-4.52216">
        <ele>4</ele>
        <time>2022-06-03T09:18:26.953Z</time>
      </trkpt>
      <trkpt lat="48.0387" lon="-4.52208">
        <ele>4</ele>
        <time>2022-06-03T09:18:31.951Z</time>
      </trkpt>
      <trkpt lat="48.03864" lon="-4.52187">
        <ele>4</ele>
        <time>2022-06-03T09:18:49.941Z</time>
      </trkpt>
      <trkpt lat="48.03865" lon="-4.52183">
        <ele>4</ele>
        <time>2022-06-03T09:18:54.947Z</time>
      </trkpt>
      <trkpt lat="48.03861" lon="-4.52173">
        <ele>5</ele>
        <time>2022-06-03T09:18:58.963Z</time>
      </trkpt>
      <trkpt lat="48.03857" lon="-4.52162">
        <ele>5</ele>
        <time>2022-06-03T09:19:03.981Z</time>
      </trkpt>
      <trkpt lat="48.03855" lon="-4.52154">
        <ele>5</ele>
        <time>2022-06-03T09:19:08.951Z</time>
      </trkpt>
      <trkpt lat="48.0385" lon="-4.52151">
        <ele>5</ele>
        <time>2022-06-03T09:19:13.957Z</time>
      </trkpt>
      <trkpt lat="48.03852" lon="-4.52142">
        <ele>5</ele>
        <time>2022-06-03T09:19:18.955Z</time>
      </trkpt>
      <trkpt lat="48.03853" lon="-4.52134">
        <ele>5</ele>
        <time>2022-06-03T09:19:23.939Z</time>
      </trkpt>
      <trkpt lat="48.03851" lon="-4.52125">
        <ele>5</ele>
        <time>2022-06-03T09:19:27.955Z</time>
      </trkpt>
      <trkpt lat="48.0385" lon="-4.52116">
        <ele>7</ele>
        <time>2022-06-03T09:19:32.943Z</time>
      </trkpt>
      <trkpt lat="48.03847" lon="-4.52108">
        <ele>5</ele>
        <time>2022-06-03T09:19:36.957Z</time>
      </trkpt>
      <trkpt lat="48.03847" lon="-4.52097">
        <ele>6</ele>
        <time>2022-06-03T09:19:41.952Z</time>
      </trkpt>
      <trkpt lat="48.03846" lon="-4.52088">
        <ele>6</ele>
        <time>2022-06-03T09:19:45.952Z</time>
      </trkpt>
      <trkpt lat="48.03844" lon="-4.52082">
        <ele>6</ele>
        <time>2022-06-03T09:19:49.954Z</time>
      </trkpt>
      <trkpt lat="48.03844" lon="-4.52068">
        <ele>6</ele>
        <time>2022-06-03T09:19:54.939Z</time>
      </trkpt>
      <trkpt lat="48.03843" lon="-4.5206">
        <ele>6</ele>
        <time>2022-06-03T09:19:58.964Z</time>
      </trkpt>
      <trkpt lat="48.03844" lon="-4.52047">
        <ele>6</ele>
        <time>2022-06-03T09:20:03.954Z</time>
      </trkpt>
      <trkpt lat="48.03845" lon="-4.52037">
        <ele>6</ele>
        <time>2022-06-03T09:20:08.960Z</time>
      </trkpt>
      <trkpt lat="48.03845" lon="-4.5203">
        <ele>6</ele>
        <time>2022-06-03T09:20:12.955Z</time>
      </trkpt>
      <trkpt lat="48.03846" lon="-4.52019">
        <ele>6</ele>
        <time>2022-06-03T09:20:17.961Z</time>
      </trkpt>
      <trkpt lat="48.03845" lon="-4.52009">
        <ele>6</ele>
        <time>2022-06-03T09:20:22.950Z</time>
      </trkpt>
      <trkpt lat="48.03846" lon="-4.52">
        <ele>6</ele>
        <time>2022-06-03T09:20:26.954Z</time>
      </trkpt>
      <trkpt lat="48.03846" lon="-4.51992">
        <ele>6</ele>
        <time>2022-06-03T09:20:31.946Z</time>
      </trkpt>
      <trkpt lat="48.03847" lon="-4.51983">
        <ele>7</ele>
        <time>2022-06-03T09:20:36.950Z</time>
      </trkpt>
      <trkpt lat="48.03849" lon="-4.51975">
        <ele>11</ele>
        <time>2022-06-03T09:20:41.944Z</time>
      </trkpt>
      <trkpt lat="48.0385" lon="-4.51961">
        <ele>11</ele>
        <time>2022-06-03T09:21:03.943Z</time>
      </trkpt>
      <trkpt lat="48.0385" lon="-4.51961">
        <ele>11</ele>
        <time>2022-06-03T09:21:07.948Z</time>
      </trkpt>
      <trkpt lat="48.03851" lon="-4.5196">
        <ele>11</ele>
        <time>2022-06-03T09:21:12.947Z</time>
      </trkpt>
      <trkpt lat="48.03853" lon="-4.51957">
        <ele>11</ele>
        <time>2022-06-03T09:21:16.949Z</time>
      </trkpt>
      <trkpt lat="48.03851" lon="-4.51953">
        <ele>11</ele>
        <time>2022-06-03T09:21:20.949Z</time>
      </trkpt>
      <trkpt lat="48.03847" lon="-4.51948">
        <ele>7</ele>
        <time>2022-06-03T09:45:18.955Z</time>
      </trkpt>
      <trkpt lat="48.03846" lon="-4.51947">
        <ele>7</ele>
        <time>2022-06-03T09:45:22.962Z</time>
      </trkpt>
      <trkpt lat="48.03847" lon="-4.51944">
        <ele>7</ele>
        <time>2022-06-03T09:45:27.953Z</time>
      </trkpt>
      <trkpt lat="48.03847" lon="-4.51938">
        <ele>11</ele>
        <time>2022-06-03T09:45:31.973Z</time>
      </trkpt>
      <trkpt lat="48.03848" lon="-4.51931">
        <ele>11</ele>
        <time>2022-06-03T09:45:36.967Z</time>
      </trkpt>
      <trkpt lat="48.0385" lon="-4.51924">
        <ele>11</ele>
        <time>2022-06-03T09:45:41.948Z</time>
      </trkpt>
      <trkpt lat="48.0385" lon="-4.51917">
        <ele>11</ele>
        <time>2022-06-03T09:45:45.977Z</time>
      </trkpt>
      <trkpt lat="48.03851" lon="-4.51909">
        <ele>11</ele>
        <time>2022-06-03T09:45:50.970Z</time>
      </trkpt>
      <trkpt lat="48.03851" lon="-4.51902">
        <ele>11</ele>
        <time>2022-06-03T09:45:54.977Z</time>
      </trkpt>
      <trkpt lat="48.03852" lon="-4.51893">
        <ele>11</ele>
        <time>2022-06-03T09:45:59.957Z</time>
      </trkpt>
      <trkpt lat="48.03853" lon="-4.51885">
        <ele>11</ele>
        <time>2022-06-03T09:46:05.009Z</time>
      </trkpt>
      <trkpt lat="48.03854" lon="-4.51877">
        <ele>11</ele>
        <time>2022-06-03T09:46:09.965Z</time>
      </trkpt>
      <trkpt lat="48.03855" lon="-4.51871">
        <ele>13</ele>
        <time>2022-06-03T09:46:13.979Z</time>
      </trkpt>
      <trkpt lat="48.03856" lon="-4.51863">
        <ele>13</ele>
        <time>2022-06-03T09:46:18.958Z</time>
      </trkpt>
      <trkpt lat="48.03858" lon="-4.51855">
        <ele>13</ele>
        <time>2022-06-03T09:46:23.959Z</time>
      </trkpt>
      <trkpt lat="48.0386" lon="-4.51849">
        <ele>13</ele>
        <time>2022-06-03T09:46:27.960Z</time>
      </trkpt>
      <trkpt lat="48.03861" lon="-4.5184">
        <ele>14</ele>
        <time>2022-06-03T09:46:32.968Z</time>
      </trkpt>
      <trkpt lat="48.03863" lon="-4.51835">
        <ele>14</ele>
        <time>2022-06-03T09:46:36.962Z</time>
      </trkpt>
      <trkpt lat="48.03864" lon="-4.51826">
        <ele>14</ele>
        <time>2022-06-03T09:46:41.946Z</time>
      </trkpt>
      <trkpt lat="48.03866" lon="-4.5182">
        <ele>14</ele>
        <time>2022-06-03T09:46:45.948Z</time>
      </trkpt>
      <trkpt lat="48.03867" lon="-4.51811">
        <ele>15</ele>
        <time>2022-06-03T09:46:50.956Z</time>
      </trkpt>
      <trkpt lat="48.03868" lon="-4.51802">
        <ele>15</ele>
        <time>2022-06-03T09:46:55.959Z</time>
      </trkpt>
      <trkpt lat="48.0387" lon="-4.51794">
        <ele>15</ele>
        <time>2022-06-03T09:47:00.960Z</time>
      </trkpt>
      <trkpt lat="48.03871" lon="-4.51785">
        <ele>13</ele>
        <time>2022-06-03T09:47:05.974Z</time>
      </trkpt>
      <trkpt lat="48.03873" lon="-4.51777">
        <ele>13</ele>
        <time>2022-06-03T09:47:10.948Z</time>
      </trkpt>
      <trkpt lat="48.03874" lon="-4.51769">
        <ele>13</ele>
        <time>2022-06-03T09:47:14.968Z</time>
      </trkpt>
      <trkpt lat="48.03874" lon="-4.51762">
        <ele>11</ele>
        <time>2022-06-03T09:47:19.952Z</time>
      </trkpt>
      <trkpt lat="48.03875" lon="-4.51751">
        <ele>14</ele>
        <time>2022-06-03T09:47:24.952Z</time>
      </trkpt>
      <trkpt lat="48.03875" lon="-4.51744">
        <ele>14</ele>
        <time>2022-06-03T09:47:28.962Z</time>
      </trkpt>
      <trkpt lat="48.03875" lon="-4.51736">
        <ele>11</ele>
        <time>2022-06-03T09:47:32.968Z</time>
      </trkpt>
      <trkpt lat="48.03874" lon="-4.51729">
        <ele>11</ele>
        <time>2022-06-03T09:47:36.992Z</time>
      </trkpt>
      <trkpt lat="48.03874" lon="-4.51721">
        <ele>11</ele>
        <time>2022-06-03T09:47:41.973Z</time>
      </trkpt>
      <trkpt lat="48.03873" lon="-4.51711">
        <ele>11</ele>
        <time>2022-06-03T09:47:46.983Z</time>
      </trkpt>
      <trkpt lat="48.03873" lon="-4.51702">
        <ele>11</ele>
        <time>2022-06-03T09:47:51.990Z</time>
      </trkpt>
      <trkpt lat="48.03874" lon="-4.51693">
        <ele>11</ele>
        <time>2022-06-03T09:47:56.974Z</time>
      </trkpt>
      <trkpt lat="48.03874" lon="-4.51684">
        <ele>11</ele>
        <time>2022-06-03T09:48:01.978Z</time>
      </trkpt>
      <trkpt lat="48.03873" lon="-4.51676">
        <ele>11</ele>
        <time>2022-06-03T09:48:06.969Z</time>
      </trkpt>
      <trkpt lat="48.03872" lon="-4.51667">
        <ele>11</ele>
        <time>2022-06-03T09:48:11.966Z</time>
      </trkpt>
      <trkpt lat="48.03872" lon="-4.5166">
        <ele>11</ele>
        <time>2022-06-03T09:48:15.982Z</time>
      </trkpt>
      <trkpt lat="48.03872" lon="-4.51649">
        <ele>12</ele>
        <time>2022-06-03T09:48:20.945Z</time>
      </trkpt>
      <trkpt lat="48.03873" lon="-4.51643">
        <ele>12</ele>
        <time>2022-06-03T09:48:24.960Z</time>
      </trkpt>
      <trkpt lat="48.03873" lon="-4.51635">
        <ele>12</ele>
        <time>2022-06-03T09:48:28.978Z</time>
      </trkpt>
      <trkpt lat="48.03873" lon="-4.51626">
        <ele>12</ele>
        <time>2022-06-03T09:48:33.984Z</time>
      </trkpt>
      <trkpt lat="48.03875" lon="-4.51618">
        <ele>12</ele>
        <time>2022-06-03T09:48:38.957Z</time>
      </trkpt>
      <trkpt lat="48.03876" lon="-4.51611">
        <ele>16</ele>
        <time>2022-06-03T09:48:42.967Z</time>
      </trkpt>
      <trkpt lat="48.03876" lon="-4.51604">
        <ele>16</ele>
        <time>2022-06-03T09:48:46.967Z</time>
      </trkpt>
      <trkpt lat="48.03876" lon="-4.51596">
        <ele>16</ele>
        <time>2022-06-03T09:48:51.977Z</time>
      </trkpt>
      <trkpt lat="48.03878" lon="-4.51585">
        <ele>16</ele>
        <time>2022-06-03T09:48:56.971Z</time>
      </trkpt>
      <trkpt lat="48.03878" lon="-4.51575">
        <ele>16</ele>
        <time>2022-06-03T09:49:01.974Z</time>
      </trkpt>
      <trkpt lat="48.03879" lon="-4.51567">
        <ele>17</ele>
        <time>2022-06-03T09:49:05.988Z</time>
      </trkpt>
      <trkpt lat="48.03879" lon="-4.51559">
        <ele>17</ele>
        <time>2022-06-03T09:49:10.979Z</time>
      </trkpt>
      <trkpt lat="48.03879" lon="-4.51549">
        <ele>17</ele>
        <time>2022-06-03T09:49:15.979Z</time>
      </trkpt>
      <trkpt lat="48.0388" lon="-4.51541">
        <ele>17</ele>
        <time>2022-06-03T09:49:20.961Z</time>
      </trkpt>
      <trkpt lat="48.03881" lon="-4.51532">
        <ele>17</ele>
        <time>2022-06-03T09:49:25.991Z</time>
      </trkpt>
      <trkpt lat="48.03881" lon="-4.51524">
        <ele>17</ele>
        <time>2022-06-03T09:49:30.938Z</time>
      </trkpt>
      <trkpt lat="48.03881" lon="-4.51517">
        <ele>17</ele>
        <time>2022-06-03T09:49:34.974Z</time>
      </trkpt>
      <trkpt lat="48.03882" lon="-4.51509">
        <ele>16</ele>
        <time>2022-06-03T09:49:39.983Z</time>
      </trkpt>
      <trkpt lat="48.03882" lon="-4.51502">
        <ele>16</ele>
        <time>2022-06-03T09:49:43.978Z</time>
      </trkpt>
      <trkpt lat="48.03882" lon="-4.51492">
        <ele>16</ele>
        <time>2022-06-03T09:49:48.963Z</time>
      </trkpt>
      <trkpt lat="48.03881" lon="-4.51483">
        <ele>14</ele>
        <time>2022-06-03T09:49:53.992Z</time>
      </trkpt>
      <trkpt lat="48.03882" lon="-4.51476">
        <ele>14</ele>
        <time>2022-06-03T09:49:58.981Z</time>
      </trkpt>
      <trkpt lat="48.03882" lon="-4.51468">
        <ele>14</ele>
        <time>2022-06-03T09:50:02.969Z</time>
      </trkpt>
      <trkpt lat="48.03882" lon="-4.51459">
        <ele>14</ele>
        <time>2022-06-03T09:50:07.991Z</time>
      </trkpt>
      <trkpt lat="48.03882" lon="-4.51451">
        <ele>14</ele>
        <time>2022-06-03T09:50:12.983Z</time>
      </trkpt>
      <trkpt lat="48.03883" lon="-4.51442">
        <ele>14</ele>
        <time>2022-06-03T09:50:18.001Z</time>
      </trkpt>
      <trkpt lat="48.03884" lon="-4.51433">
        <ele>14</ele>
        <time>2022-06-03T09:50:22.979Z</time>
      </trkpt>
      <trkpt lat="48.03883" lon="-4.51425">
        <ele>14</ele>
        <time>2022-06-03T09:50:26.974Z</time>
      </trkpt>
      <trkpt lat="48.03883" lon="-4.51416">
        <ele>14</ele>
        <time>2022-06-03T09:50:31.981Z</time>
      </trkpt>
      <trkpt lat="48.03883" lon="-4.51408">
        <ele>14</ele>
        <time>2022-06-03T09:50:36.969Z</time>
      </trkpt>
      <trkpt lat="48.03883" lon="-4.51399">
        <ele>14</ele>
        <time>2022-06-03T09:50:42.001Z</time>
      </trkpt>
      <trkpt lat="48.03883" lon="-4.5139">
        <ele>14</ele>
        <time>2022-06-03T09:50:46.987Z</time>
      </trkpt>
      <trkpt lat="48.03883" lon="-4.5138">
        <ele>14</ele>
        <time>2022-06-03T09:50:51.983Z</time>
      </trkpt>
      <trkpt lat="48.03883" lon="-4.51372">
        <ele>13</ele>
        <time>2022-06-03T09:50:56.952Z</time>
      </trkpt>
      <trkpt lat="48.03883" lon="-4.51365">
        <ele>13</ele>
        <time>2022-06-03T09:51:00.961Z</time>
      </trkpt>
      <trkpt lat="48.03884" lon="-4.51359">
        <ele>13</ele>
        <time>2022-06-03T09:51:04.979Z</time>
      </trkpt>
      <trkpt lat="48.03885" lon="-4.51349">
        <ele>13</ele>
        <time>2022-06-03T09:51:09.963Z</time>
      </trkpt>
      <trkpt lat="48.03885" lon="-4.5134">
        <ele>12</ele>
        <time>2022-06-03T09:51:13.985Z</time>
      </trkpt>
      <trkpt lat="48.03884" lon="-4.51333">
        <ele>12</ele>
        <time>2022-06-03T09:51:17.993Z</time>
      </trkpt>
      <trkpt lat="48.03885" lon="-4.51325">
        <ele>12</ele>
        <time>2022-06-03T09:51:22.961Z</time>
      </trkpt>
      <trkpt lat="48.03885" lon="-4.51318">
        <ele>10</ele>
        <time>2022-06-03T09:51:26.983Z</time>
      </trkpt>
      <trkpt lat="48.03886" lon="-4.51309">
        <ele>10</ele>
        <time>2022-06-03T09:51:31.986Z</time>
      </trkpt>
      <trkpt lat="48.03886" lon="-4.513">
        <ele>10</ele>
        <time>2022-06-03T09:51:36.963Z</time>
      </trkpt>
      <trkpt lat="48.03887" lon="-4.51293">
        <ele>10</ele>
        <time>2022-06-03T09:51:40.963Z</time>
      </trkpt>
      <trkpt lat="48.03889" lon="-4.51284">
        <ele>9</ele>
        <time>2022-06-03T09:51:45.973Z</time>
      </trkpt>
      <trkpt lat="48.0389" lon="-4.51276">
        <ele>9</ele>
        <time>2022-06-03T09:51:50.981Z</time>
      </trkpt>
      <trkpt lat="48.0389" lon="-4.51265">
        <ele>9</ele>
        <time>2022-06-03T09:51:55.002Z</time>
      </trkpt>
      <trkpt lat="48.03892" lon="-4.51256">
        <ele>7</ele>
        <time>2022-06-03T09:51:59.986Z</time>
      </trkpt>
      <trkpt lat="48.03894" lon="-4.51249">
        <ele>7</ele>
        <time>2022-06-03T09:52:04.952Z</time>
      </trkpt>
      <trkpt lat="48.03896" lon="-4.51242">
        <ele>7</ele>
        <time>2022-06-03T09:52:08.964Z</time>
      </trkpt>
      <trkpt lat="48.03897" lon="-4.51237">
        <ele>7</ele>
        <time>2022-06-03T09:52:12.965Z</time>
      </trkpt>
      <trkpt lat="48.03899" lon="-4.51235">
        <ele>5</ele>
        <time>2022-06-03T09:52:16.972Z</time>
      </trkpt>
      <trkpt lat="48.03902" lon="-4.51226">
        <ele>5</ele>
        <time>2022-06-03T09:52:21.970Z</time>
      </trkpt>
      <trkpt lat="48.03903" lon="-4.51217">
        <ele>9</ele>
        <time>2022-06-03T09:52:26.988Z</time>
      </trkpt>
      <trkpt lat="48.03906" lon="-4.5121">
        <ele>9</ele>
        <time>2022-06-03T09:52:31.977Z</time>
      </trkpt>
      <trkpt lat="48.03906" lon="-4.51204">
        <ele>8</ele>
        <time>2022-06-03T09:52:36.956Z</time>
      </trkpt>
      <trkpt lat="48.03908" lon="-4.51199">
        <ele>8</ele>
        <time>2022-06-03T09:52:40.983Z</time>
      </trkpt>
      <trkpt lat="48.0391" lon="-4.51195">
        <ele>8</ele>
        <time>2022-06-03T09:52:44.996Z</time>
      </trkpt>
      <trkpt lat="48.03913" lon="-4.51188">
        <ele>8</ele>
        <time>2022-06-03T09:52:49.973Z</time>
      </trkpt>
      <trkpt lat="48.03916" lon="-4.51181">
        <ele>8</ele>
        <time>2022-06-03T09:52:54.963Z</time>
      </trkpt>
      <trkpt lat="48.03919" lon="-4.51174">
        <ele>7</ele>
        <time>2022-06-03T09:52:58.969Z</time>
      </trkpt>
      <trkpt lat="48.03923" lon="-4.51168">
        <ele>7</ele>
        <time>2022-06-03T09:53:03.979Z</time>
      </trkpt>
      <trkpt lat="48.03925" lon="-4.51161">
        <ele>7</ele>
        <time>2022-06-03T09:53:07.996Z</time>
      </trkpt>
      <trkpt lat="48.03927" lon="-4.51155">
        <ele>7</ele>
        <time>2022-06-03T09:53:12.979Z</time>
      </trkpt>
      <trkpt lat="48.03929" lon="-4.5115">
        <ele>7</ele>
        <time>2022-06-03T09:53:17.979Z</time>
      </trkpt>
      <trkpt lat="48.0393" lon="-4.51142">
        <ele>7</ele>
        <time>2022-06-03T09:53:22.984Z</time>
      </trkpt>
      <trkpt lat="48.03932" lon="-4.51134">
        <ele>8</ele>
        <time>2022-06-03T09:53:28.002Z</time>
      </trkpt>
      <trkpt lat="48.03935" lon="-4.51127">
        <ele>8</ele>
        <time>2022-06-03T09:53:32.962Z</time>
      </trkpt>
      <trkpt lat="48.03938" lon="-4.51122">
        <ele>5</ele>
        <time>2022-06-03T09:53:36.986Z</time>
      </trkpt>
      <trkpt lat="48.03939" lon="-4.51117">
        <ele>5</ele>
        <time>2022-06-03T09:53:40.988Z</time>
      </trkpt>
      <trkpt lat="48.0394" lon="-4.511">
        <ele>5</ele>
        <time>2022-06-03T09:54:08.960Z</time>
      </trkpt>
      <trkpt lat="48.0394" lon="-4.511">
        <ele>5</ele>
        <time>2022-06-03T09:54:13.979Z</time>
      </trkpt>
      <trkpt lat="48.0394" lon="-4.511">
        <ele>5</ele>
        <time>2022-06-03T09:54:18.969Z</time>
      </trkpt>
      <trkpt lat="48.03941" lon="-4.51098">
        <ele>5</ele>
        <time>2022-06-03T09:54:22.984Z</time>
      </trkpt>
      <trkpt lat="48.03943" lon="-4.51093">
        <ele>4</ele>
        <time>2022-06-03T09:54:26.972Z</time>
      </trkpt>
      <trkpt lat="48.03946" lon="-4.51085">
        <ele>4</ele>
        <time>2022-06-03T09:54:31.976Z</time>
      </trkpt>
      <trkpt lat="48.03947" lon="-4.51075">
        <ele>4</ele>
        <time>2022-06-03T09:54:36.983Z</time>
      </trkpt>
      <trkpt lat="48.0395" lon="-4.51066">
        <ele>4</ele>
        <time>2022-06-03T09:54:41.975Z</time>
      </trkpt>
      <trkpt lat="48.03952" lon="-4.5106">
        <ele>4</ele>
        <time>2022-06-03T09:54:45.982Z</time>
      </trkpt>
      <trkpt lat="48.03954" lon="-4.51053">
        <ele>4</ele>
        <time>2022-06-03T09:54:49.986Z</time>
      </trkpt>
      <trkpt lat="48.03956" lon="-4.51046">
        <ele>4</ele>
        <time>2022-06-03T09:54:54.972Z</time>
      </trkpt>
      <trkpt lat="48.03959" lon="-4.5104">
        <ele>2</ele>
        <time>2022-06-03T09:54:58.979Z</time>
      </trkpt>
      <trkpt lat="48.03961" lon="-4.51034">
        <ele>2</ele>
        <time>2022-06-03T09:55:03.976Z</time>
      </trkpt>
      <trkpt lat="48.03962" lon="-4.51031">
        <ele>2</ele>
        <time>2022-06-03T09:55:38.987Z</time>
      </trkpt>
      <trkpt lat="48.03963" lon="-4.51027">
        <ele>2</ele>
        <time>2022-06-03T09:55:43.977Z</time>
      </trkpt>
      <trkpt lat="48.03964" lon="-4.51024">
        <ele>2</ele>
        <time>2022-06-03T09:55:48.974Z</time>
      </trkpt>
      <trkpt lat="48.03965" lon="-4.5102">
        <ele>2</ele>
        <time>2022-06-03T09:55:53.963Z</time>
      </trkpt>
      <trkpt lat="48.03965" lon="-4.51016">
        <ele>2</ele>
        <time>2022-06-03T09:55:58.953Z</time>
      </trkpt>
      <trkpt lat="48.0397" lon="-4.51002">
        <ele>2</ele>
        <time>2022-06-03T09:56:45.964Z</time>
      </trkpt>
      <trkpt lat="48.03971" lon="-4.50999">
        <ele>2</ele>
        <time>2022-06-03T09:56:50.957Z</time>
      </trkpt>
      <trkpt lat="48.03971" lon="-4.50999">
        <ele>2</ele>
        <time>2022-06-03T09:56:55.965Z</time>
      </trkpt>
      <trkpt lat="48.03971" lon="-4.50998">
        <ele>2</ele>
        <time>2022-06-03T09:57:00.956Z</time>
      </trkpt>
      <trkpt lat="48.03971" lon="-4.50998">
        <ele>2</ele>
        <time>2022-06-03T09:57:04.968Z</time>
      </trkpt>
      <trkpt lat="48.03971" lon="-4.50998">
        <ele>2</ele>
        <time>2022-06-03T09:57:09.957Z</time>
      </trkpt>
      <trkpt lat="48.0397" lon="-4.50997">
        <ele>2</ele>
        <time>2022-06-03T09:57:14.980Z</time>
      </trkpt>
      <trkpt lat="48.03973" lon="-4.50993">
        <ele>2</ele>
        <time>2022-06-03T09:57:19.983Z</time>
      </trkpt>
      <trkpt lat="48.03971" lon="-4.50987">
        <ele>2</ele>
        <time>2022-06-03T09:57:24.961Z</time>
      </trkpt>
      <trkpt lat="48.03966" lon="-4.50986">
        <ele>2</ele>
        <time>2022-06-03T09:57:29.996Z</time>
      </trkpt>
      <trkpt lat="48.03961" lon="-4.50988">
        <ele>2</ele>
        <time>2022-06-03T09:57:34.996Z</time>
      </trkpt>
      <trkpt lat="48.03957" lon="-4.50987">
        <ele>6</ele>
        <time>2022-06-03T09:57:39.981Z</time>
      </trkpt>
      <trkpt lat="48.03954" lon="-4.50987">
        <ele>6</ele>
        <time>2022-06-03T09:57:43.972Z</time>
      </trkpt>
      <trkpt lat="48.0395" lon="-4.50986">
        <ele>9</ele>
        <time>2022-06-03T09:57:48.957Z</time>
      </trkpt>
      <trkpt lat="48.03946" lon="-4.50984">
        <ele>9</ele>
        <time>2022-06-03T09:57:53.970Z</time>
      </trkpt>
      <trkpt lat="48.03943" lon="-4.50985">
        <ele>9</ele>
        <time>2022-06-03T09:57:58.976Z</time>
      </trkpt>
      <trkpt lat="48.0394" lon="-4.50983">
        <ele>9</ele>
        <time>2022-06-03T09:58:02.976Z</time>
      </trkpt>
      <trkpt lat="48.03936" lon="-4.50979">
        <ele>9</ele>
        <time>2022-06-03T09:58:07.945Z</time>
      </trkpt>
      <trkpt lat="48.03934" lon="-4.50977">
        <ele>9</ele>
        <time>2022-06-03T09:58:11.977Z</time>
      </trkpt>
      <trkpt lat="48.03931" lon="-4.50974">
        <ele>9</ele>
        <time>2022-06-03T09:58:15.978Z</time>
      </trkpt>
      <trkpt lat="48.03929" lon="-4.50972">
        <ele>6</ele>
        <time>2022-06-03T09:58:19.937Z</time>
      </trkpt>
      <trkpt lat="48.03928" lon="-4.50965">
        <ele>6</ele>
        <time>2022-06-03T09:58:24.936Z</time>
      </trkpt>
      <trkpt lat="48.03922" lon="-4.50964">
        <ele>6</ele>
        <time>2022-06-03T09:58:29.940Z</time>
      </trkpt>
      <trkpt lat="48.03919" lon="-4.50957">
        <ele>8</ele>
        <time>2022-06-03T09:58:34.949Z</time>
      </trkpt>
      <trkpt lat="48.03915" lon="-4.50948">
        <ele>8</ele>
        <time>2022-06-03T09:58:39.956Z</time>
      </trkpt>
      <trkpt lat="48.0391" lon="-4.50943">
        <ele>8</ele>
        <time>2022-06-03T09:58:44.948Z</time>
      </trkpt>
      <trkpt lat="48.03908" lon="-4.50939">
        <ele>8</ele>
        <time>2022-06-03T09:58:49.948Z</time>
      </trkpt>
      <trkpt lat="48.03905" lon="-4.50931">
        <ele>8</ele>
        <time>2022-06-03T09:58:54.949Z</time>
      </trkpt>
      <trkpt lat="48.03903" lon="-4.50927">
        <ele>4</ele>
        <time>2022-06-03T09:58:59.958Z</time>
      </trkpt>
      <trkpt lat="48.03899" lon="-4.5092">
        <ele>4</ele>
        <time>2022-06-03T09:59:04.941Z</time>
      </trkpt>
      <trkpt lat="48.03896" lon="-4.50917">
        <ele>4</ele>
        <time>2022-06-03T09:59:08.954Z</time>
      </trkpt>
      <trkpt lat="48.03894" lon="-4.50909">
        <ele>4</ele>
        <time>2022-06-03T09:59:13.947Z</time>
      </trkpt>
      <trkpt lat="48.03894" lon="-4.50905">
        <ele>4</ele>
        <time>2022-06-03T09:59:17.955Z</time>
      </trkpt>
      <trkpt lat="48.03891" lon="-4.50898">
        <ele>5</ele>
        <time>2022-06-03T09:59:22.952Z</time>
      </trkpt>
      <trkpt lat="48.0389" lon="-4.50893">
        <ele>5</ele>
        <time>2022-06-03T09:59:27.961Z</time>
      </trkpt>
      <trkpt lat="48.03888" lon="-4.50889">
        <ele>5</ele>
        <time>2022-06-03T09:59:32.951Z</time>
      </trkpt>
      <trkpt lat="48.03882" lon="-4.50886">
        <ele>5</ele>
        <time>2022-06-03T09:59:37.947Z</time>
      </trkpt>
      <trkpt lat="48.03878" lon="-4.50877">
        <ele>5</ele>
        <time>2022-06-03T09:59:41.957Z</time>
      </trkpt>
      <trkpt lat="48.03874" lon="-4.50868">
        <ele>2</ele>
        <time>2022-06-03T09:59:46.971Z</time>
      </trkpt>
      <trkpt lat="48.0387" lon="-4.50858">
        <ele>2</ele>
        <time>2022-06-03T09:59:51.963Z</time>
      </trkpt>
      <trkpt lat="48.03868" lon="-4.50849">
        <ele>2</ele>
        <time>2022-06-03T09:59:56.975Z</time>
      </trkpt>
      <trkpt lat="48.03865" lon="-4.5084">
        <ele>5</ele>
        <time>2022-06-03T10:00:01.974Z</time>
      </trkpt>
      <trkpt lat="48.03865" lon="-4.50834">
        <ele>5</ele>
        <time>2022-06-03T10:00:05.978Z</time>
      </trkpt>
      <trkpt lat="48.03863" lon="-4.50825">
        <ele>5</ele>
        <time>2022-06-03T10:00:10.950Z</time>
      </trkpt>
      <trkpt lat="48.03862" lon="-4.50818">
        <ele>8</ele>
        <time>2022-06-03T10:00:14.958Z</time>
      </trkpt>
      <trkpt lat="48.03859" lon="-4.50809">
        <ele>8</ele>
        <time>2022-06-03T10:00:19.966Z</time>
      </trkpt>
      <trkpt lat="48.03858" lon="-4.50803">
        <ele>8</ele>
        <time>2022-06-03T10:00:24.949Z</time>
      </trkpt>
      <trkpt lat="48.03856" lon="-4.50795">
        <ele>8</ele>
        <time>2022-06-03T10:00:29.953Z</time>
      </trkpt>
      <trkpt lat="48.03855" lon="-4.50789">
        <ele>11</ele>
        <time>2022-06-03T10:00:33.962Z</time>
      </trkpt>
      <trkpt lat="48.03854" lon="-4.50782">
        <ele>11</ele>
        <time>2022-06-03T10:00:37.986Z</time>
      </trkpt>
      <trkpt lat="48.03852" lon="-4.50777">
        <ele>11</ele>
        <time>2022-06-03T10:00:41.967Z</time>
      </trkpt>
      <trkpt lat="48.0385" lon="-4.50769">
        <ele>11</ele>
        <time>2022-06-03T10:00:46.978Z</time>
      </trkpt>
      <trkpt lat="48.03849" lon="-4.50763">
        <ele>11</ele>
        <time>2022-06-03T10:00:50.991Z</time>
      </trkpt>
      <trkpt lat="48.03848" lon="-4.50755">
        <ele>11</ele>
        <time>2022-06-03T10:00:55.973Z</time>
      </trkpt>
      <trkpt lat="48.03847" lon="-4.50746">
        <ele>11</ele>
        <time>2022-06-03T10:01:00.989Z</time>
      </trkpt>
      <trkpt lat="48.03847" lon="-4.50739">
        <ele>5</ele>
        <time>2022-06-03T10:01:04.995Z</time>
      </trkpt>
      <trkpt lat="48.03846" lon="-4.50734">
        <ele>7</ele>
        <time>2022-06-03T10:01:08.982Z</time>
      </trkpt>
      <trkpt lat="48.03847" lon="-4.50729">
        <ele>7</ele>
        <time>2022-06-03T10:01:13.976Z</time>
      </trkpt>
      <trkpt lat="48.03843" lon="-4.50723">
        <ele>7</ele>
        <time>2022-06-03T10:01:18.944Z</time>
      </trkpt>
      <trkpt lat="48.03838" lon="-4.50719">
        <ele>7</ele>
        <time>2022-06-03T10:01:23.940Z</time>
      </trkpt>
      <trkpt lat="48.03836" lon="-4.50711">
        <ele>7</ele>
        <time>2022-06-03T10:01:27.961Z</time>
      </trkpt>
      <trkpt lat="48.03831" lon="-4.50705">
        <ele>8</ele>
        <time>2022-06-03T10:01:32.944Z</time>
      </trkpt>
      <trkpt lat="48.03828" lon="-4.50699">
        <ele>8</ele>
        <time>2022-06-03T10:01:36.939Z</time>
      </trkpt>
      <trkpt lat="48.03824" lon="-4.50693">
        <ele>8</ele>
        <time>2022-06-03T10:01:41.948Z</time>
      </trkpt>
      <trkpt lat="48.0382" lon="-4.50688">
        <ele>8</ele>
        <time>2022-06-03T10:01:45.954Z</time>
      </trkpt>
      <trkpt lat="48.03817" lon="-4.50681">
        <ele>3</ele>
        <time>2022-06-03T10:01:50.944Z</time>
      </trkpt>
      <trkpt lat="48.03813" lon="-4.50672">
        <ele>3</ele>
        <time>2022-06-03T10:01:55.961Z</time>
      </trkpt>
      <trkpt lat="48.03812" lon="-4.50664">
        <ele>3</ele>
        <time>2022-06-03T10:01:59.962Z</time>
      </trkpt>
      <trkpt lat="48.03809" lon="-4.50657">
        <ele>3</ele>
        <time>2022-06-03T10:02:03.982Z</time>
      </trkpt>
      <trkpt lat="48.03808" lon="-4.50649">
        <ele>3</ele>
        <time>2022-06-03T10:02:08.974Z</time>
      </trkpt>
      <trkpt lat="48.03808" lon="-4.50643">
        <ele>3</ele>
        <time>2022-06-03T10:02:12.982Z</time>
      </trkpt>
      <trkpt lat="48.03806" lon="-4.50634">
        <ele>3</ele>
        <time>2022-06-03T10:02:17.991Z</time>
      </trkpt>
      <trkpt lat="48.03805" lon="-4.50627">
        <ele>3</ele>
        <time>2022-06-03T10:02:21.981Z</time>
      </trkpt>
      <trkpt lat="48.03801" lon="-4.50619">
        <ele>3</ele>
        <time>2022-06-03T10:02:26.958Z</time>
      </trkpt>
      <trkpt lat="48.038" lon="-4.50613">
        <ele>3</ele>
        <time>2022-06-03T10:02:30.974Z</time>
      </trkpt>
      <trkpt lat="48.03799" lon="-4.50607">
        <ele>3</ele>
        <time>2022-06-03T10:02:34.976Z</time>
      </trkpt>
      <trkpt lat="48.03797" lon="-4.50599">
        <ele>3</ele>
        <time>2022-06-03T10:02:39.986Z</time>
      </trkpt>
      <trkpt lat="48.03795" lon="-4.50594">
        <ele>4</ele>
        <time>2022-06-03T10:02:44.980Z</time>
      </trkpt>
      <trkpt lat="48.03794" lon="-4.50586">
        <ele>4</ele>
        <time>2022-06-03T10:02:49.989Z</time>
      </trkpt>
      <trkpt lat="48.03792" lon="-4.50577">
        <ele>4</ele>
        <time>2022-06-03T10:02:54.975Z</time>
      </trkpt>
      <trkpt lat="48.03791" lon="-4.50568">
        <ele>4</ele>
        <time>2022-06-03T10:02:59.974Z</time>
      </trkpt>
      <trkpt lat="48.0379" lon="-4.50562">
        <ele>4</ele>
        <time>2022-06-03T10:03:03.989Z</time>
      </trkpt>
      <trkpt lat="48.03789" lon="-4.50556">
        <ele>4</ele>
        <time>2022-06-03T10:03:07.977Z</time>
      </trkpt>
      <trkpt lat="48.03788" lon="-4.50548">
        <ele>4</ele>
        <time>2022-06-03T10:03:11.991Z</time>
      </trkpt>
      <trkpt lat="48.03788" lon="-4.50539">
        <ele>4</ele>
        <time>2022-06-03T10:03:16.996Z</time>
      </trkpt>
      <trkpt lat="48.03788" lon="-4.50531">
        <ele>4</ele>
        <time>2022-06-03T10:03:21.985Z</time>
      </trkpt>
      <trkpt lat="48.03788" lon="-4.50523">
        <ele>4</ele>
        <time>2022-06-03T10:03:26.995Z</time>
      </trkpt>
      <trkpt lat="48.03787" lon="-4.50513">
        <ele>3</ele>
        <time>2022-06-03T10:03:31.976Z</time>
      </trkpt>
      <trkpt lat="48.03788" lon="-4.50505">
        <ele>3</ele>
        <time>2022-06-03T10:03:36.976Z</time>
      </trkpt>
      <trkpt lat="48.03788" lon="-4.50498">
        <ele>3</ele>
        <time>2022-06-03T10:03:40.983Z</time>
      </trkpt>
      <trkpt lat="48.03789" lon="-4.5049">
        <ele>3</ele>
        <time>2022-06-03T10:03:45.982Z</time>
      </trkpt>
      <trkpt lat="48.0379" lon="-4.50483">
        <ele>2</ele>
        <time>2022-06-03T10:03:49.980Z</time>
      </trkpt>
      <trkpt lat="48.0379" lon="-4.50475">
        <ele>2</ele>
        <time>2022-06-03T10:03:54.985Z</time>
      </trkpt>
      <trkpt lat="48.03791" lon="-4.50467">
        <ele>2</ele>
        <time>2022-06-03T10:03:59.971Z</time>
      </trkpt>
      <trkpt lat="48.03792" lon="-4.50458">
        <ele>2</ele>
        <time>2022-06-03T10:04:04.961Z</time>
      </trkpt>
      <trkpt lat="48.03793" lon="-4.50449">
        <ele>3</ele>
        <time>2022-06-03T10:04:09.970Z</time>
      </trkpt>
      <trkpt lat="48.03794" lon="-4.50441">
        <ele>3</ele>
        <time>2022-06-03T10:04:14.948Z</time>
      </trkpt>
      <trkpt lat="48.03795" lon="-4.50434">
        <ele>3</ele>
        <time>2022-06-03T10:04:18.966Z</time>
      </trkpt>
      <trkpt lat="48.03795" lon="-4.50426">
        <ele>3</ele>
        <time>2022-06-03T10:04:23.970Z</time>
      </trkpt>
      <trkpt lat="48.03796" lon="-4.50419">
        <ele>3</ele>
        <time>2022-06-03T10:04:28.978Z</time>
      </trkpt>
      <trkpt lat="48.03796" lon="-4.50411">
        <ele>3</ele>
        <time>2022-06-03T10:04:33.970Z</time>
      </trkpt>
      <trkpt lat="48.03795" lon="-4.50403">
        <ele>3</ele>
        <time>2022-06-03T10:04:38.956Z</time>
      </trkpt>
      <trkpt lat="48.03796" lon="-4.50395">
        <ele>3</ele>
        <time>2022-06-03T10:04:43.954Z</time>
      </trkpt>
      <trkpt lat="48.03796" lon="-4.50389">
        <ele>3</ele>
        <time>2022-06-03T10:04:47.964Z</time>
      </trkpt>
      <trkpt lat="48.03797" lon="-4.50378">
        <ele>3</ele>
        <time>2022-06-03T10:04:52.991Z</time>
      </trkpt>
      <trkpt lat="48.03799" lon="-4.5037">
        <ele>4</ele>
        <time>2022-06-03T10:04:57.955Z</time>
      </trkpt>
      <trkpt lat="48.038" lon="-4.50362">
        <ele>4</ele>
        <time>2022-06-03T10:05:02.969Z</time>
      </trkpt>
      <trkpt lat="48.03802" lon="-4.50359">
        <ele>4</ele>
        <time>2022-06-03T10:05:06.968Z</time>
      </trkpt>
      <trkpt lat="48.03803" lon="-4.50353">
        <ele>4</ele>
        <time>2022-06-03T10:05:11.961Z</time>
      </trkpt>
      <trkpt lat="48.03804" lon="-4.50347">
        <ele>4</ele>
        <time>2022-06-03T10:05:15.986Z</time>
      </trkpt>
      <trkpt lat="48.03806" lon="-4.50343">
        <ele>6</ele>
        <time>2022-06-03T10:05:20.997Z</time>
      </trkpt>
      <trkpt lat="48.03808" lon="-4.50333">
        <ele>6</ele>
        <time>2022-06-03T10:05:25.963Z</time>
      </trkpt>
      <trkpt lat="48.0381" lon="-4.50324">
        <ele>6</ele>
        <time>2022-06-03T10:05:30.988Z</time>
      </trkpt>
      <trkpt lat="48.03811" lon="-4.50316">
        <ele>7</ele>
        <time>2022-06-03T10:05:35.991Z</time>
      </trkpt>
      <trkpt lat="48.03814" lon="-4.50308">
        <ele>7</ele>
        <time>2022-06-03T10:05:40.980Z</time>
      </trkpt>
      <trkpt lat="48.03817" lon="-4.50299">
        <ele>7</ele>
        <time>2022-06-03T10:05:46.006Z</time>
      </trkpt>
      <trkpt lat="48.03819" lon="-4.50292">
        <ele>7</ele>
        <time>2022-06-03T10:05:50.976Z</time>
      </trkpt>
      <trkpt lat="48.03822" lon="-4.50284">
        <ele>8</ele>
        <time>2022-06-03T10:05:56.018Z</time>
      </trkpt>
      <trkpt lat="48.03824" lon="-4.50277">
        <ele>8</ele>
        <time>2022-06-03T10:06:00.965Z</time>
      </trkpt>
      <trkpt lat="48.03826" lon="-4.5027">
        <ele>8</ele>
        <time>2022-06-03T10:06:04.967Z</time>
      </trkpt>
      <trkpt lat="48.03828" lon="-4.50263">
        <ele>7</ele>
        <time>2022-06-03T10:06:09.981Z</time>
      </trkpt>
      <trkpt lat="48.0383" lon="-4.50256">
        <ele>7</ele>
        <time>2022-06-03T10:06:14.966Z</time>
      </trkpt>
      <trkpt lat="48.03832" lon="-4.50249">
        <ele>7</ele>
        <time>2022-06-03T10:06:18.980Z</time>
      </trkpt>
      <trkpt lat="48.03835" lon="-4.50242">
        <ele>7</ele>
        <time>2022-06-03T10:06:23.983Z</time>
      </trkpt>
      <trkpt lat="48.03838" lon="-4.50234">
        <ele>6</ele>
        <time>2022-06-03T10:06:28.975Z</time>
      </trkpt>
      <trkpt lat="48.03841" lon="-4.50227">
        <ele>6</ele>
        <time>2022-06-03T10:06:32.973Z</time>
      </trkpt>
      <trkpt lat="48.03843" lon="-4.5022">
        <ele>6</ele>
        <time>2022-06-03T10:06:37.987Z</time>
      </trkpt>
      <trkpt lat="48.03845" lon="-4.50212">
        <ele>6</ele>
        <time>2022-06-03T10:06:42.989Z</time>
      </trkpt>
      <trkpt lat="48.03849" lon="-4.50205">
        <ele>9</ele>
        <time>2022-06-03T10:06:47.986Z</time>
      </trkpt>
      <trkpt lat="48.03853" lon="-4.50197">
        <ele>9</ele>
        <time>2022-06-03T10:06:52.948Z</time>
      </trkpt>
      <trkpt lat="48.03856" lon="-4.50189">
        <ele>9</ele>
        <time>2022-06-03T10:06:57.956Z</time>
      </trkpt>
      <trkpt lat="48.03859" lon="-4.50181">
        <ele>9</ele>
        <time>2022-06-03T10:07:02.951Z</time>
      </trkpt>
      <trkpt lat="48.03861" lon="-4.50175">
        <ele>7</ele>
        <time>2022-06-03T10:07:07.964Z</time>
      </trkpt>
      <trkpt lat="48.03864" lon="-4.50169">
        <ele>7</ele>
        <time>2022-06-03T10:07:11.998Z</time>
      </trkpt>
      <trkpt lat="48.03868" lon="-4.50163">
        <ele>7</ele>
        <time>2022-06-03T10:07:16.975Z</time>
      </trkpt>
      <trkpt lat="48.03872" lon="-4.50158">
        <ele>7</ele>
        <time>2022-06-03T10:07:20.990Z</time>
      </trkpt>
      <trkpt lat="48.03876" lon="-4.50153">
        <ele>10</ele>
        <time>2022-06-03T10:07:25.978Z</time>
      </trkpt>
      <trkpt lat="48.0388" lon="-4.50148">
        <ele>8</ele>
        <time>2022-06-03T10:07:29.974Z</time>
      </trkpt>
      <trkpt lat="48.03882" lon="-4.50142">
        <ele>8</ele>
        <time>2022-06-03T10:07:34.975Z</time>
      </trkpt>
      <trkpt lat="48.03883" lon="-4.50134">
        <ele>8</ele>
        <time>2022-06-03T10:07:39.007Z</time>
      </trkpt>
      <trkpt lat="48.03882" lon="-4.50127">
        <ele>8</ele>
        <time>2022-06-03T10:07:43.991Z</time>
      </trkpt>
      <trkpt lat="48.03884" lon="-4.50118">
        <ele>6</ele>
        <time>2022-06-03T10:07:48.983Z</time>
      </trkpt>
      <trkpt lat="48.03885" lon="-4.50111">
        <ele>6</ele>
        <time>2022-06-03T10:07:52.981Z</time>
      </trkpt>
      <trkpt lat="48.03886" lon="-4.50102">
        <ele>6</ele>
        <time>2022-06-03T10:07:57.963Z</time>
      </trkpt>
      <trkpt lat="48.03888" lon="-4.50093">
        <ele>6</ele>
        <time>2022-06-03T10:08:02.952Z</time>
      </trkpt>
      <trkpt lat="48.0389" lon="-4.50086">
        <ele>6</ele>
        <time>2022-06-03T10:08:06.960Z</time>
      </trkpt>
      <trkpt lat="48.03892" lon="-4.5008">
        <ele>6</ele>
        <time>2022-06-03T10:08:10.969Z</time>
      </trkpt>
      <trkpt lat="48.03895" lon="-4.50074">
        <ele>6</ele>
        <time>2022-06-03T10:08:15.957Z</time>
      </trkpt>
      <trkpt lat="48.03897" lon="-4.50068">
        <ele>7</ele>
        <time>2022-06-03T10:08:19.974Z</time>
      </trkpt>
      <trkpt lat="48.03899" lon="-4.5006">
        <ele>7</ele>
        <time>2022-06-03T10:08:24.961Z</time>
      </trkpt>
      <trkpt lat="48.03901" lon="-4.50052">
        <ele>7</ele>
        <time>2022-06-03T10:08:29.961Z</time>
      </trkpt>
      <trkpt lat="48.03903" lon="-4.50045">
        <ele>9</ele>
        <time>2022-06-03T10:08:34.941Z</time>
      </trkpt>
      <trkpt lat="48.03908" lon="-4.50042">
        <ele>9</ele>
        <time>2022-06-03T10:08:38.937Z</time>
      </trkpt>
      <trkpt lat="48.0391" lon="-4.50036">
        <ele>10</ele>
        <time>2022-06-03T10:08:42.939Z</time>
      </trkpt>
      <trkpt lat="48.03913" lon="-4.50026">
        <ele>10</ele>
        <time>2022-06-03T10:08:47.938Z</time>
      </trkpt>
      <trkpt lat="48.03914" lon="-4.50016">
        <ele>10</ele>
        <time>2022-06-03T10:08:51.946Z</time>
      </trkpt>
      <trkpt lat="48.03914" lon="-4.50004">
        <ele>9</ele>
        <time>2022-06-03T10:08:55.954Z</time>
      </trkpt>
      <trkpt lat="48.03917" lon="-4.49997">
        <ele>9</ele>
        <time>2022-06-03T10:09:00.949Z</time>
      </trkpt>
      <trkpt lat="48.03919" lon="-4.49993">
        <ele>9</ele>
        <time>2022-06-03T10:09:04.950Z</time>
      </trkpt>
      <trkpt lat="48.03923" lon="-4.49986">
        <ele>8</ele>
        <time>2022-06-03T10:09:09.938Z</time>
      </trkpt>
      <trkpt lat="48.03923" lon="-4.49982">
        <ele>8</ele>
        <time>2022-06-03T10:09:13.962Z</time>
      </trkpt>
      <trkpt lat="48.03927" lon="-4.49975">
        <ele>8</ele>
        <time>2022-06-03T10:09:18.954Z</time>
      </trkpt>
      <trkpt lat="48.0393" lon="-4.49967">
        <ele>8</ele>
        <time>2022-06-03T10:09:23.948Z</time>
      </trkpt>
      <trkpt lat="48.03933" lon="-4.49962">
        <ele>10</ele>
        <time>2022-06-03T10:09:28.951Z</time>
      </trkpt>
      <trkpt lat="48.03935" lon="-4.49957">
        <ele>8</ele>
        <time>2022-06-03T10:09:33.947Z</time>
      </trkpt>
      <trkpt lat="48.03938" lon="-4.49951">
        <ele>8</ele>
        <time>2022-06-03T10:09:37.953Z</time>
      </trkpt>
      <trkpt lat="48.0394" lon="-4.49942">
        <ele>8</ele>
        <time>2022-06-03T10:09:42.944Z</time>
      </trkpt>
      <trkpt lat="48.03942" lon="-4.49933">
        <ele>8</ele>
        <time>2022-06-03T10:09:46.957Z</time>
      </trkpt>
      <trkpt lat="48.03943" lon="-4.49927">
        <ele>4</ele>
        <time>2022-06-03T10:09:50.950Z</time>
      </trkpt>
      <trkpt lat="48.03946" lon="-4.49918">
        <ele>4</ele>
        <time>2022-06-03T10:09:55.952Z</time>
      </trkpt>
      <trkpt lat="48.03948" lon="-4.49908">
        <ele>4</ele>
        <time>2022-06-03T10:10:00.949Z</time>
      </trkpt>
      <trkpt lat="48.03949" lon="-4.499">
        <ele>3</ele>
        <time>2022-06-03T10:10:04.947Z</time>
      </trkpt>
      <trkpt lat="48.03951" lon="-4.49891">
        <ele>3</ele>
        <time>2022-06-03T10:10:09.945Z</time>
      </trkpt>
      <trkpt lat="48.03952" lon="-4.49883">
        <ele>3</ele>
        <time>2022-06-03T10:10:14.945Z</time>
      </trkpt>
      <trkpt lat="48.03954" lon="-4.49876">
        <ele>3</ele>
        <time>2022-06-03T10:10:19.942Z</time>
      </trkpt>
      <trkpt lat="48.03955" lon="-4.49871">
        <ele>2</ele>
        <time>2022-06-03T10:10:23.943Z</time>
      </trkpt>
      <trkpt lat="48.03956" lon="-4.49864">
        <ele>2</ele>
        <time>2022-06-03T10:10:27.945Z</time>
      </trkpt>
      <trkpt lat="48.03958" lon="-4.49854">
        <ele>2</ele>
        <time>2022-06-03T10:10:32.950Z</time>
      </trkpt>
      <trkpt lat="48.03958" lon="-4.49846">
        <ele>3</ele>
        <time>2022-06-03T10:10:37.949Z</time>
      </trkpt>
      <trkpt lat="48.03959" lon="-4.49837">
        <ele>3</ele>
        <time>2022-06-03T10:10:42.946Z</time>
      </trkpt>
      <trkpt lat="48.03962" lon="-4.4983">
        <ele>3</ele>
        <time>2022-06-03T10:10:46.949Z</time>
      </trkpt>
      <trkpt lat="48.03963" lon="-4.49824">
        <ele>3</ele>
        <time>2022-06-03T10:10:51.945Z</time>
      </trkpt>
      <trkpt lat="48.03967" lon="-4.49818">
        <ele>4</ele>
        <time>2022-06-03T10:10:55.951Z</time>
      </trkpt>
      <trkpt lat="48.0397" lon="-4.49809">
        <ele>4</ele>
        <time>2022-06-03T10:11:00.953Z</time>
      </trkpt>
      <trkpt lat="48.03974" lon="-4.49802">
        <ele>4</ele>
        <time>2022-06-03T10:11:05.959Z</time>
      </trkpt>
      <trkpt lat="48.03975" lon="-4.49794">
        <ele>4</ele>
        <time>2022-06-03T10:11:10.944Z</time>
      </trkpt>
      <trkpt lat="48.03976" lon="-4.49785">
        <ele>5</ele>
        <time>2022-06-03T10:11:15.957Z</time>
      </trkpt>
      <trkpt lat="48.03978" lon="-4.49777">
        <ele>5</ele>
        <time>2022-06-03T10:11:20.948Z</time>
      </trkpt>
      <trkpt lat="48.03981" lon="-4.49769">
        <ele>5</ele>
        <time>2022-06-03T10:11:25.945Z</time>
      </trkpt>
      <trkpt lat="48.03982" lon="-4.49762">
        <ele>4</ele>
        <time>2022-06-03T10:11:29.949Z</time>
      </trkpt>
      <trkpt lat="48.03984" lon="-4.49754">
        <ele>4</ele>
        <time>2022-06-03T10:11:34.955Z</time>
      </trkpt>
      <trkpt lat="48.03987" lon="-4.49748">
        <ele>8</ele>
        <time>2022-06-03T10:11:39.949Z</time>
      </trkpt>
      <trkpt lat="48.03989" lon="-4.49741">
        <ele>8</ele>
        <time>2022-06-03T10:11:44.952Z</time>
      </trkpt>
      <trkpt lat="48.03992" lon="-4.49735">
        <ele>8</ele>
        <time>2022-06-03T10:11:49.947Z</time>
      </trkpt>
      <trkpt lat="48.03994" lon="-4.49729">
        <ele>8</ele>
        <time>2022-06-03T10:11:53.952Z</time>
      </trkpt>
      <trkpt lat="48.03995" lon="-4.49723">
        <ele>8</ele>
        <time>2022-06-03T10:11:57.966Z</time>
      </trkpt>
      <trkpt lat="48.03997" lon="-4.49714">
        <ele>8</ele>
        <time>2022-06-03T10:12:02.946Z</time>
      </trkpt>
      <trkpt lat="48.03998" lon="-4.49707">
        <ele>6</ele>
        <time>2022-06-03T10:12:06.960Z</time>
      </trkpt>
      <trkpt lat="48.03998" lon="-4.49702">
        <ele>6</ele>
        <time>2022-06-03T10:12:11.949Z</time>
      </trkpt>
      <trkpt lat="48.04" lon="-4.49693">
        <ele>6</ele>
        <time>2022-06-03T10:12:16.948Z</time>
      </trkpt>
      <trkpt lat="48.04001" lon="-4.49686">
        <ele>6</ele>
        <time>2022-06-03T10:12:20.955Z</time>
      </trkpt>
      <trkpt lat="48.04003" lon="-4.49679">
        <ele>5</ele>
        <time>2022-06-03T10:12:24.959Z</time>
      </trkpt>
      <trkpt lat="48.04004" lon="-4.49671">
        <ele>5</ele>
        <time>2022-06-03T10:12:29.956Z</time>
      </trkpt>
      <trkpt lat="48.04005" lon="-4.49664">
        <ele>5</ele>
        <time>2022-06-03T10:12:33.955Z</time>
      </trkpt>
      <trkpt lat="48.04006" lon="-4.49655">
        <ele>5</ele>
        <time>2022-06-03T10:12:38.955Z</time>
      </trkpt>
      <trkpt lat="48.04008" lon="-4.49646">
        <ele>7</ele>
        <time>2022-06-03T10:12:43.967Z</time>
      </trkpt>
      <trkpt lat="48.04009" lon="-4.49638">
        <ele>7</ele>
        <time>2022-06-03T10:12:48.949Z</time>
      </trkpt>
      <trkpt lat="48.04011" lon="-4.49629">
        <ele>7</ele>
        <time>2022-06-03T10:12:53.949Z</time>
      </trkpt>
      <trkpt lat="48.0401" lon="-4.49619">
        <ele>8</ele>
        <time>2022-06-03T10:12:58.946Z</time>
      </trkpt>
      <trkpt lat="48.04011" lon="-4.49613">
        <ele>8</ele>
        <time>2022-06-03T10:13:02.961Z</time>
      </trkpt>
      <trkpt lat="48.04012" lon="-4.49602">
        <ele>8</ele>
        <time>2022-06-03T10:13:07.985Z</time>
      </trkpt>
      <trkpt lat="48.04012" lon="-4.49592">
        <ele>6</ele>
        <time>2022-06-03T10:13:12.991Z</time>
      </trkpt>
      <trkpt lat="48.04012" lon="-4.49586">
        <ele>6</ele>
        <time>2022-06-03T10:13:16.984Z</time>
      </trkpt>
      <trkpt lat="48.04014" lon="-4.49577">
        <ele>6</ele>
        <time>2022-06-03T10:13:21.996Z</time>
      </trkpt>
      <trkpt lat="48.04014" lon="-4.49565">
        <ele>5</ele>
        <time>2022-06-03T10:13:26.953Z</time>
      </trkpt>
      <trkpt lat="48.04016" lon="-4.49557">
        <ele>5</ele>
        <time>2022-06-03T10:13:30.996Z</time>
      </trkpt>
      <trkpt lat="48.04018" lon="-4.49548">
        <ele>5</ele>
        <time>2022-06-03T10:13:35.990Z</time>
      </trkpt>
      <trkpt lat="48.0402" lon="-4.49539">
        <ele>6</ele>
        <time>2022-06-03T10:13:40.983Z</time>
      </trkpt>
      <trkpt lat="48.0402" lon="-4.4953">
        <ele>6</ele>
        <time>2022-06-03T10:13:45.983Z</time>
      </trkpt>
      <trkpt lat="48.04021" lon="-4.49521">
        <ele>6</ele>
        <time>2022-06-03T10:13:50.990Z</time>
      </trkpt>
      <trkpt lat="48.04022" lon="-4.49512">
        <ele>6</ele>
        <time>2022-06-03T10:13:55.982Z</time>
      </trkpt>
      <trkpt lat="48.04023" lon="-4.49503">
        <ele>6</ele>
        <time>2022-06-03T10:14:00.981Z</time>
      </trkpt>
      <trkpt lat="48.04023" lon="-4.49493">
        <ele>6</ele>
        <time>2022-06-03T10:14:05.988Z</time>
      </trkpt>
      <trkpt lat="48.04023" lon="-4.49484">
        <ele>6</ele>
        <time>2022-06-03T10:14:10.982Z</time>
      </trkpt>
      <trkpt lat="48.04023" lon="-4.49475">
        <ele>6</ele>
        <time>2022-06-03T10:14:14.987Z</time>
      </trkpt>
      <trkpt lat="48.04023" lon="-4.49467">
        <ele>6</ele>
        <time>2022-06-03T10:14:19.984Z</time>
      </trkpt>
      <trkpt lat="48.04024" lon="-4.49458">
        <ele>7</ele>
        <time>2022-06-03T10:14:24.980Z</time>
      </trkpt>
      <trkpt lat="48.04022" lon="-4.49454">
        <ele>7</ele>
        <time>2022-06-03T10:14:29.984Z</time>
      </trkpt>
      <trkpt lat="48.04021" lon="-4.49449">
        <ele>7</ele>
        <time>2022-06-03T10:14:34.976Z</time>
      </trkpt>
      <trkpt lat="48.04021" lon="-4.49445">
        <ele>7</ele>
        <time>2022-06-03T10:14:39.981Z</time>
      </trkpt>
      <trkpt lat="48.04026" lon="-4.49441">
        <ele>7</ele>
        <time>2022-06-03T10:18:21.990Z</time>
      </trkpt>
      <trkpt lat="48.04027" lon="-4.49439">
        <ele>7</ele>
        <time>2022-06-03T10:18:26.981Z</time>
      </trkpt>
      <trkpt lat="48.04028" lon="-4.49436">
        <ele>7</ele>
        <time>2022-06-03T10:18:30.985Z</time>
      </trkpt>
      <trkpt lat="48.04027" lon="-4.49431">
        <ele>7</ele>
        <time>2022-06-03T10:18:34.973Z</time>
      </trkpt>
      <trkpt lat="48.04027" lon="-4.49426">
        <ele>7</ele>
        <time>2022-06-03T10:18:38.967Z</time>
      </trkpt>
      <trkpt lat="48.04026" lon="-4.4942">
        <ele>7</ele>
        <time>2022-06-03T10:18:43.940Z</time>
      </trkpt>
      <trkpt lat="48.04025" lon="-4.49414">
        <ele>7</ele>
        <time>2022-06-03T10:18:47.958Z</time>
      </trkpt>
      <trkpt lat="48.04026" lon="-4.4941">
        <ele>7</ele>
        <time>2022-06-03T10:18:51.992Z</time>
      </trkpt>
      <trkpt lat="48.04025" lon="-4.49404">
        <ele>7</ele>
        <time>2022-06-03T10:18:56.941Z</time>
      </trkpt>
      <trkpt lat="48.04025" lon="-4.49396">
        <ele>7</ele>
        <time>2022-06-03T10:19:01.954Z</time>
      </trkpt>
      <trkpt lat="48.04023" lon="-4.49386">
        <ele>7</ele>
        <time>2022-06-03T10:19:06.943Z</time>
      </trkpt>
      <trkpt lat="48.04023" lon="-4.49378">
        <ele>7</ele>
        <time>2022-06-03T10:19:10.967Z</time>
      </trkpt>
      <trkpt lat="48.04022" lon="-4.49371">
        <ele>8</ele>
        <time>2022-06-03T10:19:15.941Z</time>
      </trkpt>
      <trkpt lat="48.04023" lon="-4.49363">
        <ele>8</ele>
        <time>2022-06-03T10:19:20.951Z</time>
      </trkpt>
      <trkpt lat="48.04022" lon="-4.49355">
        <ele>8</ele>
        <time>2022-06-03T10:19:24.949Z</time>
      </trkpt>
      <trkpt lat="48.04022" lon="-4.49349">
        <ele>8</ele>
        <time>2022-06-03T10:19:28.958Z</time>
      </trkpt>
      <trkpt lat="48.0402" lon="-4.49341">
        <ele>10</ele>
        <time>2022-06-03T10:19:33.949Z</time>
      </trkpt>
      <trkpt lat="48.04019" lon="-4.49332">
        <ele>10</ele>
        <time>2022-06-03T10:19:38.957Z</time>
      </trkpt>
      <trkpt lat="48.04018" lon="-4.49325">
        <ele>10</ele>
        <time>2022-06-03T10:19:43.951Z</time>
      </trkpt>
      <trkpt lat="48.04017" lon="-4.49318">
        <ele>11</ele>
        <time>2022-06-03T10:19:48.946Z</time>
      </trkpt>
      <trkpt lat="48.04018" lon="-4.49312">
        <ele>11</ele>
        <time>2022-06-03T10:19:53.950Z</time>
      </trkpt>
      <trkpt lat="48.04017" lon="-4.49305">
        <ele>11</ele>
        <time>2022-06-03T10:19:57.960Z</time>
      </trkpt>
      <trkpt lat="48.04016" lon="-4.49298">
        <ele>11</ele>
        <time>2022-06-03T10:20:02.947Z</time>
      </trkpt>
      <trkpt lat="48.04015" lon="-4.49291">
        <ele>12</ele>
        <time>2022-06-03T10:20:07.946Z</time>
      </trkpt>
      <trkpt lat="48.04014" lon="-4.49284">
        <ele>12</ele>
        <time>2022-06-03T10:20:11.954Z</time>
      </trkpt>
      <trkpt lat="48.04013" lon="-4.49275">
        <ele>9</ele>
        <time>2022-06-03T10:20:16.952Z</time>
      </trkpt>
      <trkpt lat="48.04012" lon="-4.49268">
        <ele>9</ele>
        <time>2022-06-03T10:20:20.953Z</time>
      </trkpt>
      <trkpt lat="48.04012" lon="-4.49261">
        <ele>9</ele>
        <time>2022-06-03T10:20:24.976Z</time>
      </trkpt>
      <trkpt lat="48.04012" lon="-4.49255">
        <ele>9</ele>
        <time>2022-06-03T10:20:29.962Z</time>
      </trkpt>
      <trkpt lat="48.04011" lon="-4.49249">
        <ele>9</ele>
        <time>2022-06-03T10:20:34.957Z</time>
      </trkpt>
      <trkpt lat="48.0401" lon="-4.4924">
        <ele>9</ele>
        <time>2022-06-03T10:20:39.948Z</time>
      </trkpt>
      <trkpt lat="48.04008" lon="-4.49228">
        <ele>9</ele>
        <time>2022-06-03T10:20:44.948Z</time>
      </trkpt>
      <trkpt lat="48.04008" lon="-4.49222">
        <ele>9</ele>
        <time>2022-06-03T10:20:48.948Z</time>
      </trkpt>
      <trkpt lat="48.04008" lon="-4.49215">
        <ele>9</ele>
        <time>2022-06-03T10:20:52.982Z</time>
      </trkpt>
      <trkpt lat="48.04006" lon="-4.49206">
        <ele>10</ele>
        <time>2022-06-03T10:20:57.947Z</time>
      </trkpt>
      <trkpt lat="48.04004" lon="-4.49195">
        <ele>10</ele>
        <time>2022-06-03T10:21:02.949Z</time>
      </trkpt>
      <trkpt lat="48.04006" lon="-4.49185">
        <ele>10</ele>
        <time>2022-06-03T10:21:07.945Z</time>
      </trkpt>
      <trkpt lat="48.04004" lon="-4.49177">
        <ele>11</ele>
        <time>2022-06-03T10:21:12.943Z</time>
      </trkpt>
      <trkpt lat="48.04002" lon="-4.49172">
        <ele>11</ele>
        <time>2022-06-03T10:21:16.942Z</time>
      </trkpt>
      <trkpt lat="48.04002" lon="-4.49165">
        <ele>11</ele>
        <time>2022-06-03T10:21:20.946Z</time>
      </trkpt>
      <trkpt lat="48.04003" lon="-4.49158">
        <ele>11</ele>
        <time>2022-06-03T10:21:25.947Z</time>
      </trkpt>
      <trkpt lat="48.04002" lon="-4.4915">
        <ele>12</ele>
        <time>2022-06-03T10:21:29.959Z</time>
      </trkpt>
      <trkpt lat="48.04003" lon="-4.49141">
        <ele>12</ele>
        <time>2022-06-03T10:21:34.961Z</time>
      </trkpt>
      <trkpt lat="48.04005" lon="-4.49132">
        <ele>12</ele>
        <time>2022-06-03T10:21:39.945Z</time>
      </trkpt>
      <trkpt lat="48.04005" lon="-4.49122">
        <ele>11</ele>
        <time>2022-06-03T10:21:44.946Z</time>
      </trkpt>
      <trkpt lat="48.04004" lon="-4.49113">
        <ele>11</ele>
        <time>2022-06-03T10:21:48.949Z</time>
      </trkpt>
      <trkpt lat="48.04005" lon="-4.49106">
        <ele>11</ele>
        <time>2022-06-03T10:21:52.962Z</time>
      </trkpt>
      <trkpt lat="48.04006" lon="-4.49098">
        <ele>11</ele>
        <time>2022-06-03T10:21:57.941Z</time>
      </trkpt>
      <trkpt lat="48.04004" lon="-4.49089">
        <ele>11</ele>
        <time>2022-06-03T10:22:02.962Z</time>
      </trkpt>
      <trkpt lat="48.04003" lon="-4.49081">
        <ele>11</ele>
        <time>2022-06-03T10:22:07.940Z</time>
      </trkpt>
      <trkpt lat="48.04004" lon="-4.49074">
        <ele>11</ele>
        <time>2022-06-03T10:22:12.942Z</time>
      </trkpt>
      <trkpt lat="48.04004" lon="-4.49067">
        <ele>13</ele>
        <time>2022-06-03T10:22:17.957Z</time>
      </trkpt>
      <trkpt lat="48.04004" lon="-4.4906">
        <ele>13</ele>
        <time>2022-06-03T10:22:22.939Z</time>
      </trkpt>
      <trkpt lat="48.04005" lon="-4.4906">
        <ele>13</ele>
        <time>2022-06-03T10:22:27.949Z</time>
      </trkpt>
      <trkpt lat="48.04004" lon="-4.4906">
        <ele>13</ele>
        <time>2022-06-03T10:22:32.940Z</time>
      </trkpt>
      <trkpt lat="48.04003" lon="-4.49053">
        <ele>13</ele>
        <time>2022-06-03T10:22:37.940Z</time>
      </trkpt>
      <trkpt lat="48.04002" lon="-4.49045">
        <ele>13</ele>
        <time>2022-06-03T10:22:42.943Z</time>
      </trkpt>
      <trkpt lat="48.04002" lon="-4.49036">
        <ele>14</ele>
        <time>2022-06-03T10:22:46.954Z</time>
      </trkpt>
      <trkpt lat="48.04002" lon="-4.49027">
        <ele>14</ele>
        <time>2022-06-03T10:22:51.946Z</time>
      </trkpt>
      <trkpt lat="48.04003" lon="-4.49017">
        <ele>14</ele>
        <time>2022-06-03T10:22:56.942Z</time>
      </trkpt>
      <trkpt lat="48.04003" lon="-4.4901">
        <ele>15</ele>
        <time>2022-06-03T10:23:01.961Z</time>
      </trkpt>
      <trkpt lat="48.04002" lon="-4.49002">
        <ele>15</ele>
        <time>2022-06-03T10:23:06.960Z</time>
      </trkpt>
      <trkpt lat="48.04001" lon="-4.48994">
        <ele>15</ele>
        <time>2022-06-03T10:23:11.956Z</time>
      </trkpt>
      <trkpt lat="48.04002" lon="-4.48992">
        <ele>15</ele>
        <time>2022-06-03T10:23:16.939Z</time>
      </trkpt>
      <trkpt lat="48.04005" lon="-4.48989">
        <ele>15</ele>
        <time>2022-06-03T10:23:21.957Z</time>
      </trkpt>
      <trkpt lat="48.04012" lon="-4.48996">
        <ele>15</ele>
        <time>2022-06-03T10:23:36.944Z</time>
      </trkpt>
      <trkpt lat="48.04011" lon="-4.48997">
        <ele>15</ele>
        <time>2022-06-03T10:23:41.944Z</time>
      </trkpt>
      <trkpt lat="48.04011" lon="-4.48998">
        <ele>15</ele>
        <time>2022-06-03T10:23:46.943Z</time>
      </trkpt>
      <trkpt lat="48.04014" lon="-4.48994">
        <ele>15</ele>
        <time>2022-06-03T10:23:51.942Z</time>
      </trkpt>
      <trkpt lat="48.04018" lon="-4.48997">
        <ele>20</ele>
        <time>2022-06-03T10:23:56.943Z</time>
      </trkpt>
      <trkpt lat="48.0402" lon="-4.49001">
        <ele>20</ele>
        <time>2022-06-03T10:24:00.939Z</time>
      </trkpt>
      <trkpt lat="48.04024" lon="-4.49006">
        <ele>20</ele>
        <time>2022-06-03T10:24:04.946Z</time>
      </trkpt>
      <trkpt lat="48.04028" lon="-4.4901">
        <ele>20</ele>
        <time>2022-06-03T10:24:09.947Z</time>
      </trkpt>
      <trkpt lat="48.04028" lon="-4.4901">
        <ele>20</ele>
        <time>2022-06-03T10:24:14.941Z</time>
      </trkpt>
      <trkpt lat="48.04027" lon="-4.49012">
        <ele>20</ele>
        <time>2022-06-03T10:24:18.949Z</time>
      </trkpt>
      <trkpt lat="48.04031" lon="-4.49013">
        <ele>20</ele>
        <time>2022-06-03T10:24:22.964Z</time>
      </trkpt>
      <trkpt lat="48.04032" lon="-4.49013">
        <ele>20</ele>
        <time>2022-06-03T10:24:27.955Z</time>
      </trkpt>
      <trkpt lat="48.04035" lon="-4.49018">
        <ele>18</ele>
        <time>2022-06-03T10:24:32.956Z</time>
      </trkpt>
      <trkpt lat="48.0404" lon="-4.49024">
        <ele>18</ele>
        <time>2022-06-03T10:24:37.964Z</time>
      </trkpt>
      <trkpt lat="48.04047" lon="-4.49027">
        <ele>22</ele>
        <time>2022-06-03T10:24:42.942Z</time>
      </trkpt>
      <trkpt lat="48.04053" lon="-4.4903">
        <ele>22</ele>
        <time>2022-06-03T10:24:47.944Z</time>
      </trkpt>
      <trkpt lat="48.04059" lon="-4.49031">
        <ele>22</ele>
        <time>2022-06-03T10:24:52.946Z</time>
      </trkpt>
      <trkpt lat="48.04063" lon="-4.49031">
        <ele>22</ele>
        <time>2022-06-03T10:24:57.947Z</time>
      </trkpt>
      <trkpt lat="48.04065" lon="-4.49031">
        <ele>22</ele>
        <time>2022-06-03T10:25:01.942Z</time>
      </trkpt>
      <trkpt lat="48.04071" lon="-4.49031">
        <ele>27</ele>
        <time>2022-06-03T10:25:06.946Z</time>
      </trkpt>
      <trkpt lat="48.04076" lon="-4.49034">
        <ele>27</ele>
        <time>2022-06-03T10:25:11.952Z</time>
      </trkpt>
      <trkpt lat="48.0408" lon="-4.49034">
        <ele>27</ele>
        <time>2022-06-03T10:25:16.937Z</time>
      </trkpt>
      <trkpt lat="48.04081" lon="-4.49026">
        <ele>27</ele>
        <time>2022-06-03T10:26:20.933Z</time>
      </trkpt>
      <trkpt lat="48.04082" lon="-4.49022">
        <ele>27</ele>
        <time>2022-06-03T10:26:24.948Z</time>
      </trkpt>
      <trkpt lat="48.04083" lon="-4.49017">
        <ele>27</ele>
        <time>2022-06-03T10:26:28.940Z</time>
      </trkpt>
      <trkpt lat="48.04085" lon="-4.49009">
        <ele>28</ele>
        <time>2022-06-03T10:26:33.954Z</time>
      </trkpt>
      <trkpt lat="48.04087" lon="-4.49">
        <ele>28</ele>
        <time>2022-06-03T10:26:38.940Z</time>
      </trkpt>
      <trkpt lat="48.04087" lon="-4.48993">
        <ele>28</ele>
        <time>2022-06-03T10:26:42.942Z</time>
      </trkpt>
      <trkpt lat="48.0409" lon="-4.48989">
        <ele>28</ele>
        <time>2022-06-03T10:26:47.955Z</time>
      </trkpt>
      <trkpt lat="48.04091" lon="-4.48984">
        <ele>29</ele>
        <time>2022-06-03T10:26:52.953Z</time>
      </trkpt>
      <trkpt lat="48.04092" lon="-4.48979">
        <ele>29</ele>
        <time>2022-06-03T10:26:56.958Z</time>
      </trkpt>
      <trkpt lat="48.04092" lon="-4.48976">
        <ele>29</ele>
        <time>2022-06-03T10:27:06.948Z</time>
      </trkpt>
      <trkpt lat="48.04092" lon="-4.48976">
        <ele>29</ele>
        <time>2022-06-03T10:27:11.958Z</time>
      </trkpt>
      <trkpt lat="48.04094" lon="-4.48974">
        <ele>29</ele>
        <time>2022-06-03T10:27:16.945Z</time>
      </trkpt>
      <trkpt lat="48.04096" lon="-4.48967">
        <ele>29</ele>
        <time>2022-06-03T10:27:21.959Z</time>
      </trkpt>
      <trkpt lat="48.041" lon="-4.48963">
        <ele>32</ele>
        <time>2022-06-03T10:27:26.950Z</time>
      </trkpt>
      <trkpt lat="48.041" lon="-4.48961">
        <ele>32</ele>
        <time>2022-06-03T10:27:31.944Z</time>
      </trkpt>
      <trkpt lat="48.04101" lon="-4.48953">
        <ele>33</ele>
        <time>2022-06-03T10:27:36.950Z</time>
      </trkpt>
      <trkpt lat="48.04102" lon="-4.48949">
        <ele>33</ele>
        <time>2022-06-03T10:27:40.941Z</time>
      </trkpt>
      <trkpt lat="48.04106" lon="-4.48951">
        <ele>33</ele>
        <time>2022-06-03T10:27:45.941Z</time>
      </trkpt>
      <trkpt lat="48.04106" lon="-4.48948">
        <ele>33</ele>
        <time>2022-06-03T10:27:50.944Z</time>
      </trkpt>
      <trkpt lat="48.04107" lon="-4.48945">
        <ele>33</ele>
        <time>2022-06-03T10:27:54.949Z</time>
      </trkpt>
      <trkpt lat="48.0411" lon="-4.48944">
        <ele>33</ele>
        <time>2022-06-03T10:27:59.943Z</time>
      </trkpt>
      <trkpt lat="48.04116" lon="-4.48941">
        <ele>33</ele>
        <time>2022-06-03T10:28:04.942Z</time>
      </trkpt>
      <trkpt lat="48.04124" lon="-4.48935">
        <ele>33</ele>
        <time>2022-06-03T10:28:18.955Z</time>
      </trkpt>
      <trkpt lat="48.04125" lon="-4.48932">
        <ele>35</ele>
        <time>2022-06-03T10:28:23.950Z</time>
      </trkpt>
      <trkpt lat="48.04129" lon="-4.48931">
        <ele>35</ele>
        <time>2022-06-03T10:28:28.951Z</time>
      </trkpt>
      <trkpt lat="48.04131" lon="-4.48934">
        <ele>35</ele>
        <time>2022-06-03T10:28:33.954Z</time>
      </trkpt>
      <trkpt lat="48.04133" lon="-4.48935">
        <ele>35</ele>
        <time>2022-06-03T10:28:38.939Z</time>
      </trkpt>
      <trkpt lat="48.04134" lon="-4.48937">
        <ele>35</ele>
        <time>2022-06-03T10:28:42.945Z</time>
      </trkpt>
      <trkpt lat="48.04133" lon="-4.48947">
        <ele>35</ele>
        <time>2022-06-03T10:28:47.957Z</time>
      </trkpt>
      <trkpt lat="48.04132" lon="-4.48953">
        <ele>35</ele>
        <time>2022-06-03T10:28:52.952Z</time>
      </trkpt>
      <trkpt lat="48.04131" lon="-4.48959">
        <ele>33</ele>
        <time>2022-06-03T10:28:57.946Z</time>
      </trkpt>
      <trkpt lat="48.0413" lon="-4.48949">
        <ele>35</ele>
        <time>2022-06-03T10:29:02.947Z</time>
      </trkpt>
      <trkpt lat="48.04128" lon="-4.48939">
        <ele>35</ele>
        <time>2022-06-03T10:29:07.945Z</time>
      </trkpt>
      <trkpt lat="48.04127" lon="-4.48934">
        <ele>35</ele>
        <time>2022-06-03T10:29:12.939Z</time>
      </trkpt>
      <trkpt lat="48.04124" lon="-4.48934">
        <ele>33</ele>
        <time>2022-06-03T10:29:16.952Z</time>
      </trkpt>
      <trkpt lat="48.04119" lon="-4.48933">
        <ele>33</ele>
        <time>2022-06-03T10:29:21.943Z</time>
      </trkpt>
      <trkpt lat="48.04118" lon="-4.48934">
        <ele>33</ele>
        <time>2022-06-03T10:29:25.957Z</time>
      </trkpt>
      <trkpt lat="48.04115" lon="-4.48932">
        <ele>33</ele>
        <time>2022-06-03T10:29:30.958Z</time>
      </trkpt>
      <trkpt lat="48.04112" lon="-4.48927">
        <ele>34</ele>
        <time>2022-06-03T10:29:35.947Z</time>
      </trkpt>
      <trkpt lat="48.04112" lon="-4.48918">
        <ele>34</ele>
        <time>2022-06-03T10:29:40.946Z</time>
      </trkpt>
      <trkpt lat="48.04114" lon="-4.48911">
        <ele>34</ele>
        <time>2022-06-03T10:29:45.947Z</time>
      </trkpt>
      <trkpt lat="48.04114" lon="-4.48901">
        <ele>35</ele>
        <time>2022-06-03T10:29:50.947Z</time>
      </trkpt>
      <trkpt lat="48.04115" lon="-4.48894">
        <ele>35</ele>
        <time>2022-06-03T10:29:55.943Z</time>
      </trkpt>
      <trkpt lat="48.04116" lon="-4.48891">
        <ele>35</ele>
        <time>2022-06-03T10:29:59.949Z</time>
      </trkpt>
      <trkpt lat="48.04114" lon="-4.48892">
        <ele>35</ele>
        <time>2022-06-03T10:30:04.946Z</time>
      </trkpt>
      <trkpt lat="48.0411" lon="-4.48888">
        <ele>35</ele>
        <time>2022-06-03T10:30:09.944Z</time>
      </trkpt>
      <trkpt lat="48.04104" lon="-4.48883">
        <ele>35</ele>
        <time>2022-06-03T10:30:14.942Z</time>
      </trkpt>
      <trkpt lat="48.04098" lon="-4.48883">
        <ele>35</ele>
        <time>2022-06-03T10:30:18.947Z</time>
      </trkpt>
      <trkpt lat="48.04085" lon="-4.48894">
        <ele>33</ele>
        <time>2022-06-03T10:31:08.950Z</time>
      </trkpt>
      <trkpt lat="48.04085" lon="-4.48893">
        <ele>33</ele>
        <time>2022-06-03T10:31:12.944Z</time>
      </trkpt>
      <trkpt lat="48.04084" lon="-4.48894">
        <ele>33</ele>
        <time>2022-06-03T10:31:17.954Z</time>
      </trkpt>
      <trkpt lat="48.04084" lon="-4.48895">
        <ele>33</ele>
        <time>2022-06-03T10:31:22.949Z</time>
      </trkpt>
      <trkpt lat="48.04085" lon="-4.48901">
        <ele>33</ele>
        <time>2022-06-03T10:31:26.948Z</time>
      </trkpt>
      <trkpt lat="48.04087" lon="-4.48909">
        <ele>32</ele>
        <time>2022-06-03T10:31:40.937Z</time>
      </trkpt>
      <trkpt lat="48.04086" lon="-4.48913">
        <ele>32</ele>
        <time>2022-06-03T10:31:44.938Z</time>
      </trkpt>
      <trkpt lat="48.04087" lon="-4.48917">
        <ele>32</ele>
        <time>2022-06-03T10:31:49.943Z</time>
      </trkpt>
      <trkpt lat="48.04088" lon="-4.48917">
        <ele>32</ele>
        <time>2022-06-03T10:31:54.950Z</time>
      </trkpt>
      <trkpt lat="48.04088" lon="-4.4892">
        <ele>32</ele>
        <time>2022-06-03T10:31:59.939Z</time>
      </trkpt>
      <trkpt lat="48.0409" lon="-4.48919">
        <ele>32</ele>
        <time>2022-06-03T10:32:13.934Z</time>
      </trkpt>
      <trkpt lat="48.04091" lon="-4.48918">
        <ele>32</ele>
        <time>2022-06-03T10:32:18.948Z</time>
      </trkpt>
      <trkpt lat="48.04093" lon="-4.48914">
        <ele>32</ele>
        <time>2022-06-03T10:32:23.942Z</time>
      </trkpt>
      <trkpt lat="48.04094" lon="-4.48911">
        <ele>32</ele>
        <time>2022-06-03T10:32:28.943Z</time>
      </trkpt>
      <trkpt lat="48.04093" lon="-4.48909">
        <ele>32</ele>
        <time>2022-06-03T10:32:32.941Z</time>
      </trkpt>
      <trkpt lat="48.04091" lon="-4.48908">
        <ele>32</ele>
        <time>2022-06-03T10:34:35.936Z</time>
      </trkpt>
      <trkpt lat="48.04093" lon="-4.48911">
        <ele>32</ele>
        <time>2022-06-03T10:34:39.942Z</time>
      </trkpt>
      <trkpt lat="48.04094" lon="-4.48912">
        <ele>32</ele>
        <time>2022-06-03T10:34:44.934Z</time>
      </trkpt>
      <trkpt lat="48.04096" lon="-4.48913">
        <ele>32</ele>
        <time>2022-06-03T10:34:49.952Z</time>
      </trkpt>
      <trkpt lat="48.04095" lon="-4.48915">
        <ele>32</ele>
        <time>2022-06-03T10:34:54.928Z</time>
      </trkpt>
      <trkpt lat="48.04091" lon="-4.48925">
        <ele>32</ele>
        <time>2022-06-03T10:36:26.942Z</time>
      </trkpt>
      <trkpt lat="48.04083" lon="-4.48918">
        <ele>32</ele>
        <time>2022-06-03T10:36:31.942Z</time>
      </trkpt>
      <trkpt lat="48.04081" lon="-4.48914">
        <ele>32</ele>
        <time>2022-06-03T10:36:35.960Z</time>
      </trkpt>
      <trkpt lat="48.04079" lon="-4.48912">
        <ele>32</ele>
        <time>2022-06-03T10:36:40.948Z</time>
      </trkpt>
      <trkpt lat="48.04077" lon="-4.48912">
        <ele>32</ele>
        <time>2022-06-03T10:36:44.946Z</time>
      </trkpt>
      <trkpt lat="48.04078" lon="-4.48914">
        <ele>32</ele>
        <time>2022-06-03T10:36:49.945Z</time>
      </trkpt>
      <trkpt lat="48.04076" lon="-4.48917">
        <ele>32</ele>
        <time>2022-06-03T10:36:54.941Z</time>
      </trkpt>
      <trkpt lat="48.04075" lon="-4.48922">
        <ele>32</ele>
        <time>2022-06-03T10:36:59.948Z</time>
      </trkpt>
      <trkpt lat="48.04075" lon="-4.48926">
        <ele>32</ele>
        <time>2022-06-03T10:37:04.953Z</time>
      </trkpt>
      <trkpt lat="48.04073" lon="-4.48927">
        <ele>32</ele>
        <time>2022-06-03T10:37:09.937Z</time>
      </trkpt>
      <trkpt lat="48.04072" lon="-4.48944">
        <ele>31</ele>
        <time>2022-06-03T10:38:10.943Z</time>
      </trkpt>
      <trkpt lat="48.04072" lon="-4.48945">
        <ele>31</ele>
        <time>2022-06-03T10:38:15.954Z</time>
      </trkpt>
      <trkpt lat="48.04074" lon="-4.48945">
        <ele>31</ele>
        <time>2022-06-03T10:38:20.952Z</time>
      </trkpt>
      <trkpt lat="48.04075" lon="-4.48946">
        <ele>31</ele>
        <time>2022-06-03T10:38:24.942Z</time>
      </trkpt>
      <trkpt lat="48.04075" lon="-4.48946">
        <ele>31</ele>
        <time>2022-06-03T10:38:29.933Z</time>
      </trkpt>
      <trkpt lat="48.04074" lon="-4.48934">
        <ele>31</ele>
        <time>2022-06-03T10:39:52.954Z</time>
      </trkpt>
      <trkpt lat="48.04074" lon="-4.48931">
        <ele>31</ele>
        <time>2022-06-03T10:39:57.935Z</time>
      </trkpt>
      <trkpt lat="48.04071" lon="-4.48929">
        <ele>32</ele>
        <time>2022-06-03T10:40:02.943Z</time>
      </trkpt>
      <trkpt lat="48.04069" lon="-4.4893">
        <ele>30</ele>
        <time>2022-06-03T10:40:06.952Z</time>
      </trkpt>
      <trkpt lat="48.04069" lon="-4.48928">
        <ele>30</ele>
        <time>2022-06-03T10:40:11.943Z</time>
      </trkpt>
      <trkpt lat="48.04071" lon="-4.48929">
        <ele>32</ele>
        <time>2022-06-03T10:40:53.948Z</time>
      </trkpt>
      <trkpt lat="48.04072" lon="-4.48929">
        <ele>32</ele>
        <time>2022-06-03T10:40:58.944Z</time>
      </trkpt>
      <trkpt lat="48.04073" lon="-4.48929">
        <ele>32</ele>
        <time>2022-06-03T10:41:03.939Z</time>
      </trkpt>
      <trkpt lat="48.04074" lon="-4.48931">
        <ele>31</ele>
        <time>2022-06-03T10:41:07.949Z</time>
      </trkpt>
      <trkpt lat="48.04075" lon="-4.48933">
        <ele>31</ele>
        <time>2022-06-03T10:41:11.955Z</time>
      </trkpt>
      <trkpt lat="48.04075" lon="-4.48931">
        <ele>31</ele>
        <time>2022-06-03T10:44:22.978Z</time>
      </trkpt>
      <trkpt lat="48.04072" lon="-4.4893">
        <ele>32</ele>
        <time>2022-06-03T10:44:26.974Z</time>
      </trkpt>
      <trkpt lat="48.04069" lon="-4.48932">
        <ele>31</ele>
        <time>2022-06-03T10:44:31.951Z</time>
      </trkpt>
      <trkpt lat="48.04069" lon="-4.48929">
        <ele>30</ele>
        <time>2022-06-03T10:44:36.946Z</time>
      </trkpt>
      <trkpt lat="48.04068" lon="-4.48925">
        <ele>30</ele>
        <time>2022-06-03T10:44:40.952Z</time>
      </trkpt>
      <trkpt lat="48.04081" lon="-4.48925">
        <ele>32</ele>
        <time>2022-06-03T10:46:47.970Z</time>
      </trkpt>
      <trkpt lat="48.04081" lon="-4.48922">
        <ele>32</ele>
        <time>2022-06-03T10:46:51.983Z</time>
      </trkpt>
      <trkpt lat="48.04077" lon="-4.48913">
        <ele>32</ele>
        <time>2022-06-03T10:46:56.956Z</time>
      </trkpt>
      <trkpt lat="48.04076" lon="-4.48907">
        <ele>32</ele>
        <time>2022-06-03T10:47:00.961Z</time>
      </trkpt>
      <trkpt lat="48.04077" lon="-4.48902">
        <ele>33</ele>
        <time>2022-06-03T10:47:04.985Z</time>
      </trkpt>
      <trkpt lat="48.04078" lon="-4.48895">
        <ele>33</ele>
        <time>2022-06-03T10:47:09.971Z</time>
      </trkpt>
      <trkpt lat="48.04078" lon="-4.4889">
        <ele>33</ele>
        <time>2022-06-03T10:47:14.976Z</time>
      </trkpt>
      <trkpt lat="48.0408" lon="-4.48887">
        <ele>33</ele>
        <time>2022-06-03T10:47:19.956Z</time>
      </trkpt>
      <trkpt lat="48.04083" lon="-4.48884">
        <ele>33</ele>
        <time>2022-06-03T10:47:23.983Z</time>
      </trkpt>
      <trkpt lat="48.04085" lon="-4.48881">
        <ele>33</ele>
        <time>2022-06-03T10:47:28.986Z</time>
      </trkpt>
      <trkpt lat="48.04084" lon="-4.48879">
        <ele>33</ele>
        <time>2022-06-03T10:47:33.940Z</time>
      </trkpt>
      <trkpt lat="48.04084" lon="-4.48878">
        <ele>33</ele>
        <time>2022-06-03T10:47:37.947Z</time>
      </trkpt>
      <trkpt lat="48.04089" lon="-4.48878">
        <ele>33</ele>
        <time>2022-06-03T10:47:42.943Z</time>
      </trkpt>
      <trkpt lat="48.04092" lon="-4.48876">
        <ele>33</ele>
        <time>2022-06-03T10:47:47.936Z</time>
      </trkpt>
      <trkpt lat="48.04094" lon="-4.48871">
        <ele>34</ele>
        <time>2022-06-03T10:47:52.942Z</time>
      </trkpt>
      <trkpt lat="48.04095" lon="-4.48868">
        <ele>34</ele>
        <time>2022-06-03T10:47:56.942Z</time>
      </trkpt>
      <trkpt lat="48.04098" lon="-4.48862">
        <ele>35</ele>
        <time>2022-06-03T10:48:01.936Z</time>
      </trkpt>
      <trkpt lat="48.04102" lon="-4.4886">
        <ele>35</ele>
        <time>2022-06-03T10:48:06.932Z</time>
      </trkpt>
      <trkpt lat="48.04106" lon="-4.48857">
        <ele>35</ele>
        <time>2022-06-03T10:48:11.939Z</time>
      </trkpt>
      <trkpt lat="48.04114" lon="-4.48852">
        <ele>35</ele>
        <time>2022-06-03T10:49:11.944Z</time>
      </trkpt>
      <trkpt lat="48.04115" lon="-4.48857">
        <ele>35</ele>
        <time>2022-06-03T10:49:16.963Z</time>
      </trkpt>
      <trkpt lat="48.04118" lon="-4.48861">
        <ele>35</ele>
        <time>2022-06-03T10:49:20.974Z</time>
      </trkpt>
      <trkpt lat="48.04121" lon="-4.48866">
        <ele>35</ele>
        <time>2022-06-03T10:49:25.971Z</time>
      </trkpt>
      <trkpt lat="48.04124" lon="-4.48867">
        <ele>35</ele>
        <time>2022-06-03T10:49:29.981Z</time>
      </trkpt>
      <trkpt lat="48.04129" lon="-4.48867">
        <ele>36</ele>
        <time>2022-06-03T10:49:33.987Z</time>
      </trkpt>
      <trkpt lat="48.04133" lon="-4.48869">
        <ele>36</ele>
        <time>2022-06-03T10:49:37.973Z</time>
      </trkpt>
      <trkpt lat="48.04139" lon="-4.4887">
        <ele>36</ele>
        <time>2022-06-03T10:49:42.982Z</time>
      </trkpt>
      <trkpt lat="48.04145" lon="-4.4887">
        <ele>36</ele>
        <time>2022-06-03T10:49:47.974Z</time>
      </trkpt>
      <trkpt lat="48.04148" lon="-4.4887">
        <ele>36</ele>
        <time>2022-06-03T10:50:06.967Z</time>
      </trkpt>
      <trkpt lat="48.0415" lon="-4.48871">
        <ele>36</ele>
        <time>2022-06-03T10:50:10.980Z</time>
      </trkpt>
      <trkpt lat="48.04153" lon="-4.48871">
        <ele>37</ele>
        <time>2022-06-03T10:50:15.964Z</time>
      </trkpt>
      <trkpt lat="48.04156" lon="-4.48872">
        <ele>37</ele>
        <time>2022-06-03T10:50:20.973Z</time>
      </trkpt>
      <trkpt lat="48.0416" lon="-4.48872">
        <ele>37</ele>
        <time>2022-06-03T10:50:25.002Z</time>
      </trkpt>
      <trkpt lat="48.04165" lon="-4.48869">
        <ele>37</ele>
        <time>2022-06-03T10:50:29.971Z</time>
      </trkpt>
      <trkpt lat="48.0417" lon="-4.48869">
        <ele>37</ele>
        <time>2022-06-03T10:50:34.948Z</time>
      </trkpt>
      <trkpt lat="48.04173" lon="-4.48866">
        <ele>37</ele>
        <time>2022-06-03T10:50:38.974Z</time>
      </trkpt>
      <trkpt lat="48.04178" lon="-4.48866">
        <ele>37</ele>
        <time>2022-06-03T10:50:43.958Z</time>
      </trkpt>
      <trkpt lat="48.04182" lon="-4.48869">
        <ele>35</ele>
        <time>2022-06-03T10:50:48.958Z</time>
      </trkpt>
      <trkpt lat="48.04187" lon="-4.48868">
        <ele>35</ele>
        <time>2022-06-03T10:50:53.940Z</time>
      </trkpt>
      <trkpt lat="48.04189" lon="-4.48863">
        <ele>35</ele>
        <time>2022-06-03T10:50:58.957Z</time>
      </trkpt>
      <trkpt lat="48.04191" lon="-4.4886">
        <ele>35</ele>
        <time>2022-06-03T10:51:03.949Z</time>
      </trkpt>
      <trkpt lat="48.04201" lon="-4.48852">
        <ele>35</ele>
        <time>2022-06-03T10:51:26.956Z</time>
      </trkpt>
      <trkpt lat="48.04203" lon="-4.48845">
        <ele>35</ele>
        <time>2022-06-03T10:51:31.941Z</time>
      </trkpt>
      <trkpt lat="48.04203" lon="-4.48838">
        <ele>35</ele>
        <time>2022-06-03T10:51:36.947Z</time>
      </trkpt>
      <trkpt lat="48.04205" lon="-4.48831">
        <ele>35</ele>
        <time>2022-06-03T10:51:41.942Z</time>
      </trkpt>
      <trkpt lat="48.04206" lon="-4.48826">
        <ele>35</ele>
        <time>2022-06-03T10:51:45.946Z</time>
      </trkpt>
      <trkpt lat="48.04212" lon="-4.48813">
        <ele>34</ele>
        <time>2022-06-03T10:52:55.940Z</time>
      </trkpt>
      <trkpt lat="48.04212" lon="-4.48813">
        <ele>34</ele>
        <time>2022-06-03T10:52:59.939Z</time>
      </trkpt>
      <trkpt lat="48.04212" lon="-4.48813">
        <ele>34</ele>
        <time>2022-06-03T10:53:03.958Z</time>
      </trkpt>
      <trkpt lat="48.04215" lon="-4.48813">
        <ele>34</ele>
        <time>2022-06-03T10:53:07.953Z</time>
      </trkpt>
      <trkpt lat="48.04216" lon="-4.48811">
        <ele>34</ele>
        <time>2022-06-03T10:53:12.948Z</time>
      </trkpt>
      <trkpt lat="48.04216" lon="-4.4881">
        <ele>34</ele>
        <time>2022-06-03T10:54:08.943Z</time>
      </trkpt>
      <trkpt lat="48.04216" lon="-4.4881">
        <ele>34</ele>
        <time>2022-06-03T10:54:13.938Z</time>
      </trkpt>
      <trkpt lat="48.04216" lon="-4.48814">
        <ele>34</ele>
        <time>2022-06-03T10:54:17.952Z</time>
      </trkpt>
      <trkpt lat="48.04215" lon="-4.48821">
        <ele>33</ele>
        <time>2022-06-03T10:54:22.944Z</time>
      </trkpt>
      <trkpt lat="48.04215" lon="-4.48827">
        <ele>33</ele>
        <time>2022-06-03T10:54:26.942Z</time>
      </trkpt>
      <trkpt lat="48.04215" lon="-4.48832">
        <ele>33</ele>
        <time>2022-06-03T10:54:30.962Z</time>
      </trkpt>
      <trkpt lat="48.04214" lon="-4.4884">
        <ele>33</ele>
        <time>2022-06-03T10:54:35.955Z</time>
      </trkpt>
      <trkpt lat="48.04213" lon="-4.48846">
        <ele>33</ele>
        <time>2022-06-03T10:54:39.959Z</time>
      </trkpt>
      <trkpt lat="48.04213" lon="-4.48853">
        <ele>33</ele>
        <time>2022-06-03T10:54:44.951Z</time>
      </trkpt>
      <trkpt lat="48.04212" lon="-4.48861">
        <ele>33</ele>
        <time>2022-06-03T10:54:49.947Z</time>
      </trkpt>
      <trkpt lat="48.04212" lon="-4.48869">
        <ele>33</ele>
        <time>2022-06-03T10:54:54.948Z</time>
      </trkpt>
      <trkpt lat="48.04212" lon="-4.48876">
        <ele>33</ele>
        <time>2022-06-03T10:54:59.949Z</time>
      </trkpt>
      <trkpt lat="48.04212" lon="-4.48882">
        <ele>33</ele>
        <time>2022-06-03T10:55:03.937Z</time>
      </trkpt>
      <trkpt lat="48.04212" lon="-4.4889">
        <ele>33</ele>
        <time>2022-06-03T10:55:09.013Z</time>
      </trkpt>
      <trkpt lat="48.0421" lon="-4.48898">
        <ele>33</ele>
        <time>2022-06-03T10:55:13.987Z</time>
      </trkpt>
      <trkpt lat="48.0421" lon="-4.48907">
        <ele>32</ele>
        <time>2022-06-03T10:55:18.978Z</time>
      </trkpt>
      <trkpt lat="48.0421" lon="-4.48914">
        <ele>32</ele>
        <time>2022-06-03T10:55:22.975Z</time>
      </trkpt>
      <trkpt lat="48.04208" lon="-4.4892">
        <ele>32</ele>
        <time>2022-06-03T10:55:26.982Z</time>
      </trkpt>
      <trkpt lat="48.04207" lon="-4.48929">
        <ele>33</ele>
        <time>2022-06-03T10:55:31.979Z</time>
      </trkpt>
      <trkpt lat="48.04205" lon="-4.48938">
        <ele>33</ele>
        <time>2022-06-03T10:55:36.974Z</time>
      </trkpt>
      <trkpt lat="48.04201" lon="-4.48942">
        <ele>33</ele>
        <time>2022-06-03T10:55:41.978Z</time>
      </trkpt>
      <trkpt lat="48.04196" lon="-4.48943">
        <ele>33</ele>
        <time>2022-06-03T10:55:46.936Z</time>
      </trkpt>
      <trkpt lat="48.04192" lon="-4.48943">
        <ele>33</ele>
        <time>2022-06-03T10:55:50.950Z</time>
      </trkpt>
      <trkpt lat="48.04188" lon="-4.48942">
        <ele>33</ele>
        <time>2022-06-03T10:55:55.943Z</time>
      </trkpt>
      <trkpt lat="48.04183" lon="-4.48941">
        <ele>33</ele>
        <time>2022-06-03T10:56:00.942Z</time>
      </trkpt>
      <trkpt lat="48.04177" lon="-4.48942">
        <ele>34</ele>
        <time>2022-06-03T10:56:05.948Z</time>
      </trkpt>
      <trkpt lat="48.04173" lon="-4.48943">
        <ele>34</ele>
        <time>2022-06-03T10:56:09.967Z</time>
      </trkpt>
      <trkpt lat="48.04169" lon="-4.48938">
        <ele>34</ele>
        <time>2022-06-03T10:56:14.941Z</time>
      </trkpt>
      <trkpt lat="48.04163" lon="-4.48937">
        <ele>34</ele>
        <time>2022-06-03T10:56:19.937Z</time>
      </trkpt>
      <trkpt lat="48.04159" lon="-4.48936">
        <ele>34</ele>
        <time>2022-06-03T10:56:23.962Z</time>
      </trkpt>
      <trkpt lat="48.04154" lon="-4.48934">
        <ele>34</ele>
        <time>2022-06-03T10:56:28.960Z</time>
      </trkpt>
      <trkpt lat="48.04151" lon="-4.48932">
        <ele>35</ele>
        <time>2022-06-03T10:56:33.945Z</time>
      </trkpt>
      <trkpt lat="48.04151" lon="-4.4893">
        <ele>35</ele>
        <time>2022-06-03T10:56:38.935Z</time>
      </trkpt>
      <trkpt lat="48.04149" lon="-4.48927">
        <ele>35</ele>
        <time>2022-06-03T10:56:42.939Z</time>
      </trkpt>
      <trkpt lat="48.04148" lon="-4.48925">
        <ele>35</ele>
        <time>2022-06-03T10:56:47.931Z</time>
      </trkpt>
      <trkpt lat="48.04144" lon="-4.48921">
        <ele>35</ele>
        <time>2022-06-03T10:56:51.942Z</time>
      </trkpt>
      <trkpt lat="48.04131" lon="-4.48916">
        <ele>35</ele>
        <time>2022-06-03T10:56:56.938Z</time>
      </trkpt>
      <trkpt lat="48.04117" lon="-4.48903">
        <ele>35</ele>
        <time>2022-06-03T10:57:01.929Z</time>
      </trkpt>
      <trkpt lat="48.0412" lon="-4.48906">
        <ele>34</ele>
        <time>2022-06-03T10:57:06.966Z</time>
      </trkpt>
      <trkpt lat="48.04126" lon="-4.48913">
        <ele>35</ele>
        <time>2022-06-03T10:57:11.936Z</time>
      </trkpt>
      <trkpt lat="48.04126" lon="-4.48914">
        <ele>35</ele>
        <time>2022-06-03T10:57:15.974Z</time>
      </trkpt>
      <trkpt lat="48.04128" lon="-4.48914">
        <ele>35</ele>
        <time>2022-06-03T10:57:34.969Z</time>
      </trkpt>
      <trkpt lat="48.04135" lon="-4.48915">
        <ele>35</ele>
        <time>2022-06-03T10:57:39.952Z</time>
      </trkpt>
      <trkpt lat="48.04146" lon="-4.48912">
        <ele>35</ele>
        <time>2022-06-03T10:57:44.966Z</time>
      </trkpt>
      <trkpt lat="48.04148" lon="-4.4891">
        <ele>35</ele>
        <time>2022-06-03T10:57:49.952Z</time>
      </trkpt>
      <trkpt lat="48.04152" lon="-4.48923">
        <ele>35</ele>
        <time>2022-06-03T10:57:53.947Z</time>
      </trkpt>
      <trkpt lat="48.04144" lon="-4.4893">
        <ele>35</ele>
        <time>2022-06-03T10:57:57.975Z</time>
      </trkpt>
      <trkpt lat="48.04139" lon="-4.48938">
        <ele>35</ele>
        <time>2022-06-03T10:58:02.004Z</time>
      </trkpt>
      <trkpt lat="48.04134" lon="-4.48945">
        <ele>35</ele>
        <time>2022-06-03T10:58:07.012Z</time>
      </trkpt>
      <trkpt lat="48.04131" lon="-4.4895">
        <ele>35</ele>
        <time>2022-06-03T10:58:12.001Z</time>
      </trkpt>
      <trkpt lat="48.0413" lon="-4.48943">
        <ele>35</ele>
        <time>2022-06-03T11:49:03.955Z</time>
      </trkpt>
      <trkpt lat="48.0413" lon="-4.48943">
        <ele>35</ele>
        <time>2022-06-03T11:49:07.959Z</time>
      </trkpt>
      <trkpt lat="48.04131" lon="-4.4894">
        <ele>35</ele>
        <time>2022-06-03T11:49:11.960Z</time>
      </trkpt>
      <trkpt lat="48.04131" lon="-4.48937">
        <ele>35</ele>
        <time>2022-06-03T11:49:16.951Z</time>
      </trkpt>
      <trkpt lat="48.04131" lon="-4.48936">
        <ele>35</ele>
        <time>2022-06-03T11:49:20.963Z</time>
      </trkpt>
      <trkpt lat="48.04131" lon="-4.48935">
        <ele>35</ele>
        <time>2022-06-03T11:49:24.939Z</time>
      </trkpt>
      <trkpt lat="48.04127" lon="-4.48934">
        <ele>35</ele>
        <time>2022-06-03T11:49:29.954Z</time>
      </trkpt>
      <trkpt lat="48.04125" lon="-4.48932">
        <ele>35</ele>
        <time>2022-06-03T11:49:34.954Z</time>
      </trkpt>
      <trkpt lat="48.04123" lon="-4.48929">
        <ele>34</ele>
        <time>2022-06-03T11:49:38.949Z</time>
      </trkpt>
      <trkpt lat="48.04124" lon="-4.48927">
        <ele>34</ele>
        <time>2022-06-03T11:49:43.943Z</time>
      </trkpt>
      <trkpt lat="48.04123" lon="-4.48921">
        <ele>34</ele>
        <time>2022-06-03T11:49:52.959Z</time>
      </trkpt>
      <trkpt lat="48.04122" lon="-4.48918">
        <ele>34</ele>
        <time>2022-06-03T11:49:57.960Z</time>
      </trkpt>
      <trkpt lat="48.04121" lon="-4.48916">
        <ele>34</ele>
        <time>2022-06-03T11:50:02.939Z</time>
      </trkpt>
      <trkpt lat="48.04121" lon="-4.48914">
        <ele>34</ele>
        <time>2022-06-03T11:50:06.953Z</time>
      </trkpt>
      <trkpt lat="48.04121" lon="-4.48911">
        <ele>34</ele>
        <time>2022-06-03T11:50:11.967Z</time>
      </trkpt>
      <trkpt lat="48.04118" lon="-4.48904">
        <ele>34</ele>
        <time>2022-06-03T11:51:17.938Z</time>
      </trkpt>
      <trkpt lat="48.04117" lon="-4.48901">
        <ele>35</ele>
        <time>2022-06-03T11:51:21.941Z</time>
      </trkpt>
      <trkpt lat="48.04116" lon="-4.489">
        <ele>35</ele>
        <time>2022-06-03T11:51:25.939Z</time>
      </trkpt>
      <trkpt lat="48.04115" lon="-4.48897">
        <ele>35</ele>
        <time>2022-06-03T11:51:29.939Z</time>
      </trkpt>
      <trkpt lat="48.04114" lon="-4.48895">
        <ele>35</ele>
        <time>2022-06-03T11:51:34.936Z</time>
      </trkpt>
      <trkpt lat="48.04112" lon="-4.48895">
        <ele>35</ele>
        <time>2022-06-03T11:51:39.938Z</time>
      </trkpt>
      <trkpt lat="48.0411" lon="-4.48896">
        <ele>35</ele>
        <time>2022-06-03T11:51:44.934Z</time>
      </trkpt>
      <trkpt lat="48.04109" lon="-4.48896">
        <ele>35</ele>
        <time>2022-06-03T11:51:48.935Z</time>
      </trkpt>
      <trkpt lat="48.04106" lon="-4.48894">
        <ele>35</ele>
        <time>2022-06-03T11:51:53.942Z</time>
      </trkpt>
      <trkpt lat="48.04101" lon="-4.48891">
        <ele>35</ele>
        <time>2022-06-03T11:51:57.961Z</time>
      </trkpt>
      <trkpt lat="48.04097" lon="-4.48885">
        <ele>33</ele>
        <time>2022-06-03T11:52:02.953Z</time>
      </trkpt>
      <trkpt lat="48.04096" lon="-4.48882">
        <ele>33</ele>
        <time>2022-06-03T11:52:06.978Z</time>
      </trkpt>
      <trkpt lat="48.04094" lon="-4.48879">
        <ele>33</ele>
        <time>2022-06-03T11:52:11.952Z</time>
      </trkpt>
      <trkpt lat="48.04096" lon="-4.48875">
        <ele>33</ele>
        <time>2022-06-03T11:52:16.940Z</time>
      </trkpt>
      <trkpt lat="48.041" lon="-4.48872">
        <ele>35</ele>
        <time>2022-06-03T11:52:20.939Z</time>
      </trkpt>
      <trkpt lat="48.04102" lon="-4.48867">
        <ele>35</ele>
        <time>2022-06-03T11:52:25.935Z</time>
      </trkpt>
      <trkpt lat="48.04101" lon="-4.48861">
        <ele>35</ele>
        <time>2022-06-03T11:52:29.961Z</time>
      </trkpt>
      <trkpt lat="48.04105" lon="-4.48856">
        <ele>35</ele>
        <time>2022-06-03T11:52:34.953Z</time>
      </trkpt>
      <trkpt lat="48.04106" lon="-4.4885">
        <ele>35</ele>
        <time>2022-06-03T11:52:39.951Z</time>
      </trkpt>
      <trkpt lat="48.04108" lon="-4.48847">
        <ele>36</ele>
        <time>2022-06-03T11:52:43.962Z</time>
      </trkpt>
      <trkpt lat="48.0411" lon="-4.48842">
        <ele>36</ele>
        <time>2022-06-03T11:52:48.941Z</time>
      </trkpt>
      <trkpt lat="48.04114" lon="-4.48836">
        <ele>36</ele>
        <time>2022-06-03T11:52:53.937Z</time>
      </trkpt>
      <trkpt lat="48.04117" lon="-4.48831">
        <ele>36</ele>
        <time>2022-06-03T11:52:58.963Z</time>
      </trkpt>
      <trkpt lat="48.04117" lon="-4.48825">
        <ele>36</ele>
        <time>2022-06-03T11:53:03.961Z</time>
      </trkpt>
      <trkpt lat="48.04119" lon="-4.48819">
        <ele>36</ele>
        <time>2022-06-03T11:53:08.940Z</time>
      </trkpt>
      <trkpt lat="48.04127" lon="-4.48818">
        <ele>37</ele>
        <time>2022-06-03T11:53:13.942Z</time>
      </trkpt>
      <trkpt lat="48.04122" lon="-4.48808">
        <ele>36</ele>
        <time>2022-06-03T11:53:18.944Z</time>
      </trkpt>
      <trkpt lat="48.04122" lon="-4.48798">
        <ele>36</ele>
        <time>2022-06-03T11:53:23.941Z</time>
      </trkpt>
      <trkpt lat="48.04122" lon="-4.48793">
        <ele>36</ele>
        <time>2022-06-03T11:53:28.951Z</time>
      </trkpt>
      <trkpt lat="48.04123" lon="-4.48787">
        <ele>37</ele>
        <time>2022-06-03T11:53:32.949Z</time>
      </trkpt>
      <trkpt lat="48.04124" lon="-4.48784">
        <ele>37</ele>
        <time>2022-06-03T11:53:37.933Z</time>
      </trkpt>
      <trkpt lat="48.04128" lon="-4.48779">
        <ele>37</ele>
        <time>2022-06-03T11:53:42.942Z</time>
      </trkpt>
      <trkpt lat="48.0413" lon="-4.48775">
        <ele>37</ele>
        <time>2022-06-03T11:53:46.955Z</time>
      </trkpt>
      <trkpt lat="48.0413" lon="-4.48774">
        <ele>37</ele>
        <time>2022-06-03T11:53:50.947Z</time>
      </trkpt>
      <trkpt lat="48.04131" lon="-4.48768">
        <ele>37</ele>
        <time>2022-06-03T11:53:55.945Z</time>
      </trkpt>
      <trkpt lat="48.04132" lon="-4.48762">
        <ele>37</ele>
        <time>2022-06-03T11:54:00.943Z</time>
      </trkpt>
      <trkpt lat="48.04132" lon="-4.48759">
        <ele>37</ele>
        <time>2022-06-03T11:54:04.949Z</time>
      </trkpt>
      <trkpt lat="48.04128" lon="-4.48757">
        <ele>37</ele>
        <time>2022-06-03T11:54:09.942Z</time>
      </trkpt>
      <trkpt lat="48.04125" lon="-4.48754">
        <ele>37</ele>
        <time>2022-06-03T11:54:13.938Z</time>
      </trkpt>
      <trkpt lat="48.04119" lon="-4.48752">
        <ele>37</ele>
        <time>2022-06-03T11:54:18.955Z</time>
      </trkpt>
      <trkpt lat="48.04115" lon="-4.48748">
        <ele>37</ele>
        <time>2022-06-03T11:54:22.950Z</time>
      </trkpt>
      <trkpt lat="48.04111" lon="-4.48746">
        <ele>37</ele>
        <time>2022-06-03T11:54:27.941Z</time>
      </trkpt>
      <trkpt lat="48.04107" lon="-4.48743">
        <ele>37</ele>
        <time>2022-06-03T11:54:32.944Z</time>
      </trkpt>
      <trkpt lat="48.04106" lon="-4.48746">
        <ele>37</ele>
        <time>2022-06-03T11:54:36.976Z</time>
      </trkpt>
      <trkpt lat="48.04106" lon="-4.48749">
        <ele>37</ele>
        <time>2022-06-03T11:54:40.981Z</time>
      </trkpt>
      <trkpt lat="48.04103" lon="-4.48757">
        <ele>37</ele>
        <time>2022-06-03T11:54:45.966Z</time>
      </trkpt>
      <trkpt lat="48.04102" lon="-4.48764">
        <ele>37</ele>
        <time>2022-06-03T11:54:50.945Z</time>
      </trkpt>
      <trkpt lat="48.04103" lon="-4.48769">
        <ele>37</ele>
        <time>2022-06-03T11:54:54.956Z</time>
      </trkpt>
      <trkpt lat="48.04101" lon="-4.48774">
        <ele>37</ele>
        <time>2022-06-03T11:54:58.983Z</time>
      </trkpt>
      <trkpt lat="48.041" lon="-4.4878">
        <ele>37</ele>
        <time>2022-06-03T11:55:03.950Z</time>
      </trkpt>
      <trkpt lat="48.04098" lon="-4.48785">
        <ele>37</ele>
        <time>2022-06-03T11:55:07.986Z</time>
      </trkpt>
      <trkpt lat="48.04096" lon="-4.4879">
        <ele>37</ele>
        <time>2022-06-03T11:55:12.967Z</time>
      </trkpt>
      <trkpt lat="48.04092" lon="-4.48798">
        <ele>36</ele>
        <time>2022-06-03T11:55:17.970Z</time>
      </trkpt>
      <trkpt lat="48.04089" lon="-4.48804">
        <ele>36</ele>
        <time>2022-06-03T11:55:22.983Z</time>
      </trkpt>
      <trkpt lat="48.04088" lon="-4.48808">
        <ele>36</ele>
        <time>2022-06-03T11:55:26.974Z</time>
      </trkpt>
      <trkpt lat="48.04086" lon="-4.48814">
        <ele>36</ele>
        <time>2022-06-03T11:55:31.966Z</time>
      </trkpt>
      <trkpt lat="48.04083" lon="-4.4882">
        <ele>35</ele>
        <time>2022-06-03T11:55:36.957Z</time>
      </trkpt>
      <trkpt lat="48.04081" lon="-4.48825">
        <ele>35</ele>
        <time>2022-06-03T11:55:41.964Z</time>
      </trkpt>
      <trkpt lat="48.04078" lon="-4.48829">
        <ele>35</ele>
        <time>2022-06-03T11:55:46.967Z</time>
      </trkpt>
      <trkpt lat="48.04075" lon="-4.48832">
        <ele>35</ele>
        <time>2022-06-03T11:55:51.988Z</time>
      </trkpt>
      <trkpt lat="48.04071" lon="-4.48835">
        <ele>35</ele>
        <time>2022-06-03T11:55:56.996Z</time>
      </trkpt>
      <trkpt lat="48.0406" lon="-4.48838">
        <ele>33</ele>
        <time>2022-06-03T11:56:21.940Z</time>
      </trkpt>
      <trkpt lat="48.04057" lon="-4.48841">
        <ele>33</ele>
        <time>2022-06-03T11:56:26.948Z</time>
      </trkpt>
      <trkpt lat="48.04053" lon="-4.48843">
        <ele>33</ele>
        <time>2022-06-03T11:56:31.948Z</time>
      </trkpt>
      <trkpt lat="48.0405" lon="-4.48843">
        <ele>33</ele>
        <time>2022-06-03T11:56:35.958Z</time>
      </trkpt>
      <trkpt lat="48.04045" lon="-4.48847">
        <ele>33</ele>
        <time>2022-06-03T11:56:39.952Z</time>
      </trkpt>
      <trkpt lat="48.04039" lon="-4.48855">
        <ele>27</ele>
        <time>2022-06-03T11:56:58.935Z</time>
      </trkpt>
      <trkpt lat="48.04038" lon="-4.48856">
        <ele>27</ele>
        <time>2022-06-03T11:57:02.946Z</time>
      </trkpt>
      <trkpt lat="48.0404" lon="-4.48866">
        <ele>27</ele>
        <time>2022-06-03T11:57:06.950Z</time>
      </trkpt>
      <trkpt lat="48.04039" lon="-4.4887">
        <ele>27</ele>
        <time>2022-06-03T11:57:10.971Z</time>
      </trkpt>
      <trkpt lat="48.04038" lon="-4.48871">
        <ele>27</ele>
        <time>2022-06-03T11:57:15.956Z</time>
      </trkpt>
      <trkpt lat="48.04038" lon="-4.48869">
        <ele>27</ele>
        <time>2022-06-03T11:57:25.957Z</time>
      </trkpt>
      <trkpt lat="48.04041" lon="-4.48875">
        <ele>27</ele>
        <time>2022-06-03T11:57:30.943Z</time>
      </trkpt>
      <trkpt lat="48.04039" lon="-4.48879">
        <ele>26</ele>
        <time>2022-06-03T11:57:34.943Z</time>
      </trkpt>
      <trkpt lat="48.04034" lon="-4.48878">
        <ele>26</ele>
        <time>2022-06-03T11:57:39.939Z</time>
      </trkpt>
      <trkpt lat="48.04031" lon="-4.4888">
        <ele>26</ele>
        <time>2022-06-03T11:57:43.937Z</time>
      </trkpt>
      <trkpt lat="48.04027" lon="-4.48881">
        <ele>26</ele>
        <time>2022-06-03T11:57:48.950Z</time>
      </trkpt>
      <trkpt lat="48.04024" lon="-4.48884">
        <ele>26</ele>
        <time>2022-06-03T11:57:53.938Z</time>
      </trkpt>
      <trkpt lat="48.04021" lon="-4.48884">
        <ele>26</ele>
        <time>2022-06-03T11:57:58.942Z</time>
      </trkpt>
      <trkpt lat="48.04018" lon="-4.4888">
        <ele>26</ele>
        <time>2022-06-03T11:58:02.951Z</time>
      </trkpt>
      <trkpt lat="48.04018" lon="-4.48871">
        <ele>27</ele>
        <time>2022-06-03T11:58:38.946Z</time>
      </trkpt>
      <trkpt lat="48.04018" lon="-4.4887">
        <ele>27</ele>
        <time>2022-06-03T11:58:42.957Z</time>
      </trkpt>
      <trkpt lat="48.04016" lon="-4.48864">
        <ele>27</ele>
        <time>2022-06-03T11:58:47.949Z</time>
      </trkpt>
      <trkpt lat="48.04016" lon="-4.48859">
        <ele>27</ele>
        <time>2022-06-03T11:58:51.971Z</time>
      </trkpt>
      <trkpt lat="48.04014" lon="-4.48852">
        <ele>27</ele>
        <time>2022-06-03T11:58:56.962Z</time>
      </trkpt>
      <trkpt lat="48.04012" lon="-4.48845">
        <ele>20</ele>
        <time>2022-06-03T11:59:01.935Z</time>
      </trkpt>
      <trkpt lat="48.04011" lon="-4.48842">
        <ele>20</ele>
        <time>2022-06-03T11:59:06.946Z</time>
      </trkpt>
      <trkpt lat="48.0401" lon="-4.48836">
        <ele>20</ele>
        <time>2022-06-03T11:59:10.952Z</time>
      </trkpt>
      <trkpt lat="48.04009" lon="-4.48827">
        <ele>20</ele>
        <time>2022-06-03T11:59:15.944Z</time>
      </trkpt>
      <trkpt lat="48.04008" lon="-4.48819">
        <ele>21</ele>
        <time>2022-06-03T11:59:20.954Z</time>
      </trkpt>
      <trkpt lat="48.04006" lon="-4.48812">
        <ele>21</ele>
        <time>2022-06-03T11:59:25.935Z</time>
      </trkpt>
      <trkpt lat="48.04004" lon="-4.48803">
        <ele>21</ele>
        <time>2022-06-03T11:59:30.941Z</time>
      </trkpt>
      <trkpt lat="48.04003" lon="-4.48796">
        <ele>21</ele>
        <time>2022-06-03T11:59:34.946Z</time>
      </trkpt>
      <trkpt lat="48.04002" lon="-4.48784">
        <ele>21</ele>
        <time>2022-06-03T11:59:57.940Z</time>
      </trkpt>
      <trkpt lat="48.04002" lon="-4.48782">
        <ele>21</ele>
        <time>2022-06-03T12:00:02.944Z</time>
      </trkpt>
      <trkpt lat="48.04001" lon="-4.48782">
        <ele>21</ele>
        <time>2022-06-03T12:00:07.956Z</time>
      </trkpt>
      <trkpt lat="48.03997" lon="-4.48782">
        <ele>21</ele>
        <time>2022-06-03T12:00:12.946Z</time>
      </trkpt>
      <trkpt lat="48.03994" lon="-4.48784">
        <ele>21</ele>
        <time>2022-06-03T12:00:16.954Z</time>
      </trkpt>
      <trkpt lat="48.03991" lon="-4.48785">
        <ele>21</ele>
        <time>2022-06-03T12:00:21.940Z</time>
      </trkpt>
      <trkpt lat="48.03989" lon="-4.48784">
        <ele>21</ele>
        <time>2022-06-03T12:00:25.945Z</time>
      </trkpt>
      <trkpt lat="48.03985" lon="-4.48782">
        <ele>14</ele>
        <time>2022-06-03T12:00:30.942Z</time>
      </trkpt>
      <trkpt lat="48.03981" lon="-4.48781">
        <ele>14</ele>
        <time>2022-06-03T12:00:35.938Z</time>
      </trkpt>
      <trkpt lat="48.03976" lon="-4.48783">
        <ele>14</ele>
        <time>2022-06-03T12:00:40.935Z</time>
      </trkpt>
      <trkpt lat="48.03969" lon="-4.48784">
        <ele>14</ele>
        <time>2022-06-03T12:00:45.937Z</time>
      </trkpt>
      <trkpt lat="48.03967" lon="-4.48781">
        <ele>14</ele>
        <time>2022-06-03T12:00:49.939Z</time>
      </trkpt>
      <trkpt lat="48.03963" lon="-4.48778">
        <ele>14</ele>
        <time>2022-06-03T12:00:54.938Z</time>
      </trkpt>
      <trkpt lat="48.03957" lon="-4.48774">
        <ele>9</ele>
        <time>2022-06-03T12:01:52.950Z</time>
      </trkpt>
      <trkpt lat="48.03955" lon="-4.48773">
        <ele>9</ele>
        <time>2022-06-03T12:01:56.955Z</time>
      </trkpt>
      <trkpt lat="48.03952" lon="-4.48771">
        <ele>9</ele>
        <time>2022-06-03T12:02:01.939Z</time>
      </trkpt>
      <trkpt lat="48.03949" lon="-4.48769">
        <ele>9</ele>
        <time>2022-06-03T12:02:06.951Z</time>
      </trkpt>
      <trkpt lat="48.03944" lon="-4.48769">
        <ele>9</ele>
        <time>2022-06-03T12:02:10.945Z</time>
      </trkpt>
      <trkpt lat="48.03939" lon="-4.48771">
        <ele>9</ele>
        <time>2022-06-03T12:02:15.936Z</time>
      </trkpt>
      <trkpt lat="48.03935" lon="-4.48774">
        <ele>9</ele>
        <time>2022-06-03T12:02:19.944Z</time>
      </trkpt>
      <trkpt lat="48.03933" lon="-4.48776">
        <ele>9</ele>
        <time>2022-06-03T12:02:24.946Z</time>
      </trkpt>
      <trkpt lat="48.03932" lon="-4.48776">
        <ele>9</ele>
        <time>2022-06-03T12:02:28.950Z</time>
      </trkpt>
      <trkpt lat="48.0393" lon="-4.48774">
        <ele>5</ele>
        <time>2022-06-03T12:02:33.946Z</time>
      </trkpt>
      <trkpt lat="48.0393" lon="-4.48765">
        <ele>5</ele>
        <time>2022-06-03T12:02:56.938Z</time>
      </trkpt>
      <trkpt lat="48.03932" lon="-4.48763">
        <ele>8</ele>
        <time>2022-06-03T12:03:01.946Z</time>
      </trkpt>
      <trkpt lat="48.03928" lon="-4.48759">
        <ele>4</ele>
        <time>2022-06-03T12:03:06.951Z</time>
      </trkpt>
      <trkpt lat="48.03925" lon="-4.48759">
        <ele>4</ele>
        <time>2022-06-03T12:03:10.944Z</time>
      </trkpt>
      <trkpt lat="48.03922" lon="-4.48757">
        <ele>4</ele>
        <time>2022-06-03T12:03:15.946Z</time>
      </trkpt>
      <trkpt lat="48.03916" lon="-4.48759">
        <ele>4</ele>
        <time>2022-06-03T12:03:20.954Z</time>
      </trkpt>
      <trkpt lat="48.03911" lon="-4.4876">
        <ele>4</ele>
        <time>2022-06-03T12:03:25.943Z</time>
      </trkpt>
      <trkpt lat="48.03907" lon="-4.48761">
        <ele>4</ele>
        <time>2022-06-03T12:03:30.963Z</time>
      </trkpt>
      <trkpt lat="48.03904" lon="-4.48764">
        <ele>4</ele>
        <time>2022-06-03T12:03:34.974Z</time>
      </trkpt>
      <trkpt lat="48.039" lon="-4.48766">
        <ele>3</ele>
        <time>2022-06-03T12:03:39.980Z</time>
      </trkpt>
      <trkpt lat="48.03895" lon="-4.48766">
        <ele>3</ele>
        <time>2022-06-03T12:03:44.981Z</time>
      </trkpt>
      <trkpt lat="48.0389" lon="-4.48765">
        <ele>3</ele>
        <time>2022-06-03T12:03:48.990Z</time>
      </trkpt>
      <trkpt lat="48.03889" lon="-4.48759">
        <ele>2</ele>
        <time>2022-06-03T12:03:53Z</time>
      </trkpt>
      <trkpt lat="48.03887" lon="-4.48749">
        <ele>2</ele>
        <time>2022-06-03T12:03:57.978Z</time>
      </trkpt>
      <trkpt lat="48.03884" lon="-4.48744">
        <ele>2</ele>
        <time>2022-06-03T12:04:02.982Z</time>
      </trkpt>
      <trkpt lat="48.0388" lon="-4.4874">
        <ele>2</ele>
        <time>2022-06-03T12:04:06.991Z</time>
      </trkpt>
      <trkpt lat="48.03876" lon="-4.48735">
        <ele>2</ele>
        <time>2022-06-03T12:04:12.006Z</time>
      </trkpt>
      <trkpt lat="48.03872" lon="-4.4873">
        <ele>1</ele>
        <time>2022-06-03T12:04:16.967Z</time>
      </trkpt>
      <trkpt lat="48.03869" lon="-4.48727">
        <ele>1</ele>
        <time>2022-06-03T12:04:21.002Z</time>
      </trkpt>
      <trkpt lat="48.03864" lon="-4.48722">
        <ele>1</ele>
        <time>2022-06-03T12:04:25.976Z</time>
      </trkpt>
      <trkpt lat="48.03861" lon="-4.48718">
        <ele>1</ele>
        <time>2022-06-03T12:04:30.992Z</time>
      </trkpt>
      <trkpt lat="48.03858" lon="-4.48713">
        <ele>1</ele>
        <time>2022-06-03T12:04:34.996Z</time>
      </trkpt>
      <trkpt lat="48.03855" lon="-4.48707">
        <ele>2</ele>
        <time>2022-06-03T12:04:39.999Z</time>
      </trkpt>
      <trkpt lat="48.03852" lon="-4.48701">
        <ele>2</ele>
        <time>2022-06-03T12:04:44.973Z</time>
      </trkpt>
      <trkpt lat="48.03849" lon="-4.48696">
        <ele>2</ele>
        <time>2022-06-03T12:04:49.026Z</time>
      </trkpt>
      <trkpt lat="48.03847" lon="-4.48691">
        <ele>3</ele>
        <time>2022-06-03T12:04:53.956Z</time>
      </trkpt>
      <trkpt lat="48.03843" lon="-4.48687">
        <ele>3</ele>
        <time>2022-06-03T12:04:58.954Z</time>
      </trkpt>
      <trkpt lat="48.03841" lon="-4.48683">
        <ele>3</ele>
        <time>2022-06-03T12:05:03Z</time>
      </trkpt>
      <trkpt lat="48.03836" lon="-4.48678">
        <ele>4</ele>
        <time>2022-06-03T12:05:07.958Z</time>
      </trkpt>
      <trkpt lat="48.03832" lon="-4.48673">
        <ele>4</ele>
        <time>2022-06-03T12:05:11.961Z</time>
      </trkpt>
      <trkpt lat="48.03828" lon="-4.48667">
        <ele>4</ele>
        <time>2022-06-03T12:05:16.972Z</time>
      </trkpt>
      <trkpt lat="48.03826" lon="-4.48661">
        <ele>4</ele>
        <time>2022-06-03T12:05:21.984Z</time>
      </trkpt>
      <trkpt lat="48.03824" lon="-4.48656">
        <ele>4</ele>
        <time>2022-06-03T12:05:26.967Z</time>
      </trkpt>
      <trkpt lat="48.03823" lon="-4.48651">
        <ele>4</ele>
        <time>2022-06-03T12:05:30.984Z</time>
      </trkpt>
      <trkpt lat="48.0382" lon="-4.48645">
        <ele>4</ele>
        <time>2022-06-03T12:05:35.957Z</time>
      </trkpt>
      <trkpt lat="48.03818" lon="-4.4864">
        <ele>7</ele>
        <time>2022-06-03T12:05:40.999Z</time>
      </trkpt>
      <trkpt lat="48.03815" lon="-4.48638">
        <ele>7</ele>
        <time>2022-06-03T12:05:45.972Z</time>
      </trkpt>
      <trkpt lat="48.03811" lon="-4.48638">
        <ele>7</ele>
        <time>2022-06-03T12:05:50.974Z</time>
      </trkpt>
      <trkpt lat="48.03805" lon="-4.48644">
        <ele>7</ele>
        <time>2022-06-03T12:05:55.955Z</time>
      </trkpt>
      <trkpt lat="48.03799" lon="-4.4865">
        <ele>7</ele>
        <time>2022-06-03T12:06:00.984Z</time>
      </trkpt>
      <trkpt lat="48.03795" lon="-4.48656">
        <ele>6</ele>
        <time>2022-06-03T12:06:05.985Z</time>
      </trkpt>
      <trkpt lat="48.03794" lon="-4.48662">
        <ele>6</ele>
        <time>2022-06-03T12:06:10.962Z</time>
      </trkpt>
      <trkpt lat="48.03792" lon="-4.48668">
        <ele>10</ele>
        <time>2022-06-03T12:06:14.977Z</time>
      </trkpt>
      <trkpt lat="48.03789" lon="-4.48677">
        <ele>10</ele>
        <time>2022-06-03T12:06:19.984Z</time>
      </trkpt>
      <trkpt lat="48.03791" lon="-4.4868">
        <ele>10</ele>
        <time>2022-06-03T12:06:24.942Z</time>
      </trkpt>
      <trkpt lat="48.03787" lon="-4.4868">
        <ele>10</ele>
        <time>2022-06-03T12:06:29.941Z</time>
      </trkpt>
      <trkpt lat="48.03785" lon="-4.48692">
        <ele>10</ele>
        <time>2022-06-03T12:06:34.949Z</time>
      </trkpt>
      <trkpt lat="48.03784" lon="-4.48699">
        <ele>10</ele>
        <time>2022-06-03T12:06:39.932Z</time>
      </trkpt>
      <trkpt lat="48.03785" lon="-4.48706">
        <ele>10</ele>
        <time>2022-06-03T12:06:43.945Z</time>
      </trkpt>
      <trkpt lat="48.03781" lon="-4.48731">
        <ele>10</ele>
        <time>2022-06-03T12:07:24.937Z</time>
      </trkpt>
      <trkpt lat="48.03779" lon="-4.48739">
        <ele>10</ele>
        <time>2022-06-03T12:07:28.938Z</time>
      </trkpt>
      <trkpt lat="48.03779" lon="-4.48746">
        <ele>10</ele>
        <time>2022-06-03T12:07:32.969Z</time>
      </trkpt>
      <trkpt lat="48.03776" lon="-4.48755">
        <ele>10</ele>
        <time>2022-06-03T12:07:37.986Z</time>
      </trkpt>
      <trkpt lat="48.03776" lon="-4.48766">
        <ele>10</ele>
        <time>2022-06-03T12:07:42.987Z</time>
      </trkpt>
      <trkpt lat="48.03775" lon="-4.48776">
        <ele>10</ele>
        <time>2022-06-03T12:07:48Z</time>
      </trkpt>
      <trkpt lat="48.03773" lon="-4.48785">
        <ele>10</ele>
        <time>2022-06-03T12:07:52.969Z</time>
      </trkpt>
      <trkpt lat="48.03774" lon="-4.48795">
        <ele>9</ele>
        <time>2022-06-03T12:07:57.988Z</time>
      </trkpt>
      <trkpt lat="48.03773" lon="-4.48805">
        <ele>9</ele>
        <time>2022-06-03T12:08:02.971Z</time>
      </trkpt>
      <trkpt lat="48.03772" lon="-4.48812">
        <ele>9</ele>
        <time>2022-06-03T12:08:06.975Z</time>
      </trkpt>
      <trkpt lat="48.03772" lon="-4.48821">
        <ele>8</ele>
        <time>2022-06-03T12:08:12.002Z</time>
      </trkpt>
      <trkpt lat="48.03773" lon="-4.4883">
        <ele>8</ele>
        <time>2022-06-03T12:08:16.979Z</time>
      </trkpt>
      <trkpt lat="48.03773" lon="-4.4884">
        <ele>8</ele>
        <time>2022-06-03T12:08:21.957Z</time>
      </trkpt>
      <trkpt lat="48.03773" lon="-4.48849">
        <ele>9</ele>
        <time>2022-06-03T12:08:26.969Z</time>
      </trkpt>
      <trkpt lat="48.03774" lon="-4.48858">
        <ele>9</ele>
        <time>2022-06-03T12:08:30.988Z</time>
      </trkpt>
      <trkpt lat="48.03774" lon="-4.48868">
        <ele>9</ele>
        <time>2022-06-03T12:08:35.983Z</time>
      </trkpt>
      <trkpt lat="48.03775" lon="-4.48877">
        <ele>9</ele>
        <time>2022-06-03T12:08:40.973Z</time>
      </trkpt>
      <trkpt lat="48.03775" lon="-4.48886">
        <ele>9</ele>
        <time>2022-06-03T12:08:45.968Z</time>
      </trkpt>
      <trkpt lat="48.03775" lon="-4.48892">
        <ele>9</ele>
        <time>2022-06-03T12:08:49.967Z</time>
      </trkpt>
      <trkpt lat="48.03774" lon="-4.489">
        <ele>9</ele>
        <time>2022-06-03T12:08:54.984Z</time>
      </trkpt>
      <trkpt lat="48.03774" lon="-4.48906">
        <ele>8</ele>
        <time>2022-06-03T12:08:58.977Z</time>
      </trkpt>
      <trkpt lat="48.03774" lon="-4.48915">
        <ele>8</ele>
        <time>2022-06-03T12:09:03.966Z</time>
      </trkpt>
      <trkpt lat="48.03773" lon="-4.48921">
        <ele>8</ele>
        <time>2022-06-03T12:09:08.949Z</time>
      </trkpt>
      <trkpt lat="48.03772" lon="-4.48928">
        <ele>8</ele>
        <time>2022-06-03T12:09:12.978Z</time>
      </trkpt>
      <trkpt lat="48.03773" lon="-4.48935">
        <ele>9</ele>
        <time>2022-06-03T12:09:17.971Z</time>
      </trkpt>
      <trkpt lat="48.03774" lon="-4.48943">
        <ele>9</ele>
        <time>2022-06-03T12:09:22.969Z</time>
      </trkpt>
      <trkpt lat="48.03776" lon="-4.48949">
        <ele>9</ele>
        <time>2022-06-03T12:09:27.954Z</time>
      </trkpt>
      <trkpt lat="48.03777" lon="-4.48957">
        <ele>9</ele>
        <time>2022-06-03T12:09:31.963Z</time>
      </trkpt>
      <trkpt lat="48.03777" lon="-4.48965">
        <ele>9</ele>
        <time>2022-06-03T12:09:36.943Z</time>
      </trkpt>
      <trkpt lat="48.03774" lon="-4.48965">
        <ele>9</ele>
        <time>2022-06-03T12:09:40.937Z</time>
      </trkpt>
      <trkpt lat="48.03781" lon="-4.48971">
        <ele>9</ele>
        <time>2022-06-03T12:09:45.940Z</time>
      </trkpt>
      <trkpt lat="48.03777" lon="-4.48981">
        <ele>9</ele>
        <time>2022-06-03T12:09:49.942Z</time>
      </trkpt>
      <trkpt lat="48.03777" lon="-4.48989">
        <ele>10</ele>
        <time>2022-06-03T12:09:53.962Z</time>
      </trkpt>
      <trkpt lat="48.0378" lon="-4.48997">
        <ele>10</ele>
        <time>2022-06-03T12:09:58.952Z</time>
      </trkpt>
      <trkpt lat="48.0378" lon="-4.49004">
        <ele>10</ele>
        <time>2022-06-03T12:10:02.964Z</time>
      </trkpt>
      <trkpt lat="48.0378" lon="-4.49014">
        <ele>8</ele>
        <time>2022-06-03T12:10:07.972Z</time>
      </trkpt>
      <trkpt lat="48.0378" lon="-4.49026">
        <ele>8</ele>
        <time>2022-06-03T12:10:12.940Z</time>
      </trkpt>
      <trkpt lat="48.03781" lon="-4.49032">
        <ele>8</ele>
        <time>2022-06-03T12:10:16.951Z</time>
      </trkpt>
      <trkpt lat="48.03784" lon="-4.49038">
        <ele>8</ele>
        <time>2022-06-03T12:10:20.963Z</time>
      </trkpt>
      <trkpt lat="48.03786" lon="-4.49043">
        <ele>7</ele>
        <time>2022-06-03T12:10:25.945Z</time>
      </trkpt>
      <trkpt lat="48.03788" lon="-4.49047">
        <ele>7</ele>
        <time>2022-06-03T12:10:30.957Z</time>
      </trkpt>
      <trkpt lat="48.0379" lon="-4.49051">
        <ele>7</ele>
        <time>2022-06-03T12:10:34.973Z</time>
      </trkpt>
      <trkpt lat="48.03794" lon="-4.49056">
        <ele>1</ele>
        <time>2022-06-03T12:10:38.971Z</time>
      </trkpt>
      <trkpt lat="48.03796" lon="-4.49064">
        <ele>1</ele>
        <time>2022-06-03T12:10:43.949Z</time>
      </trkpt>
      <trkpt lat="48.03797" lon="-4.4907">
        <ele>4</ele>
        <time>2022-06-03T12:10:47.952Z</time>
      </trkpt>
      <trkpt lat="48.03798" lon="-4.49076">
        <ele>4</ele>
        <time>2022-06-03T12:10:51.956Z</time>
      </trkpt>
      <trkpt lat="48.038" lon="-4.49084">
        <ele>4</ele>
        <time>2022-06-03T12:10:56.947Z</time>
      </trkpt>
      <trkpt lat="48.03803" lon="-4.4909">
        <ele>4</ele>
        <time>2022-06-03T12:11:01.955Z</time>
      </trkpt>
      <trkpt lat="48.03805" lon="-4.49096">
        <ele>4</ele>
        <time>2022-06-03T12:11:05.952Z</time>
      </trkpt>
      <trkpt lat="48.03809" lon="-4.49099">
        <ele>8</ele>
        <time>2022-06-03T12:11:09.976Z</time>
      </trkpt>
      <trkpt lat="48.03813" lon="-4.49102">
        <ele>8</ele>
        <time>2022-06-03T12:11:14.987Z</time>
      </trkpt>
      <trkpt lat="48.03818" lon="-4.49102">
        <ele>8</ele>
        <time>2022-06-03T12:11:18.968Z</time>
      </trkpt>
      <trkpt lat="48.03821" lon="-4.49102">
        <ele>6</ele>
        <time>2022-06-03T12:11:23.991Z</time>
      </trkpt>
      <trkpt lat="48.03825" lon="-4.49106">
        <ele>6</ele>
        <time>2022-06-03T12:11:28.967Z</time>
      </trkpt>
      <trkpt lat="48.03827" lon="-4.49108">
        <ele>6</ele>
        <time>2022-06-03T12:11:32.991Z</time>
      </trkpt>
      <trkpt lat="48.03831" lon="-4.49112">
        <ele>6</ele>
        <time>2022-06-03T12:11:37.999Z</time>
      </trkpt>
      <trkpt lat="48.03835" lon="-4.49115">
        <ele>6</ele>
        <time>2022-06-03T12:11:42.975Z</time>
      </trkpt>
      <trkpt lat="48.03839" lon="-4.49118">
        <ele>6</ele>
        <time>2022-06-03T12:11:46.998Z</time>
      </trkpt>
      <trkpt lat="48.03842" lon="-4.49122">
        <ele>6</ele>
        <time>2022-06-03T12:11:51.987Z</time>
      </trkpt>
      <trkpt lat="48.03846" lon="-4.49125">
        <ele>10</ele>
        <time>2022-06-03T12:11:56.975Z</time>
      </trkpt>
      <trkpt lat="48.03849" lon="-4.49129">
        <ele>5</ele>
        <time>2022-06-03T12:12:00.969Z</time>
      </trkpt>
      <trkpt lat="48.03853" lon="-4.49134">
        <ele>5</ele>
        <time>2022-06-03T12:12:04.975Z</time>
      </trkpt>
      <trkpt lat="48.03856" lon="-4.49138">
        <ele>5</ele>
        <time>2022-06-03T12:12:09.977Z</time>
      </trkpt>
      <trkpt lat="48.03859" lon="-4.49143">
        <ele>5</ele>
        <time>2022-06-03T12:12:14.967Z</time>
      </trkpt>
      <trkpt lat="48.03863" lon="-4.49149">
        <ele>5</ele>
        <time>2022-06-03T12:12:18.981Z</time>
      </trkpt>
      <trkpt lat="48.03865" lon="-4.49155">
        <ele>6</ele>
        <time>2022-06-03T12:12:22.980Z</time>
      </trkpt>
      <trkpt lat="48.03869" lon="-4.49163">
        <ele>6</ele>
        <time>2022-06-03T12:12:27.991Z</time>
      </trkpt>
      <trkpt lat="48.03872" lon="-4.49169">
        <ele>6</ele>
        <time>2022-06-03T12:12:32.988Z</time>
      </trkpt>
      <trkpt lat="48.03874" lon="-4.49177">
        <ele>6</ele>
        <time>2022-06-03T12:12:37.998Z</time>
      </trkpt>
      <trkpt lat="48.03875" lon="-4.49184">
        <ele>8</ele>
        <time>2022-06-03T12:12:41.990Z</time>
      </trkpt>
      <trkpt lat="48.03876" lon="-4.49196">
        <ele>4</ele>
        <time>2022-06-03T12:12:46.993Z</time>
      </trkpt>
      <trkpt lat="48.03874" lon="-4.49204">
        <ele>8</ele>
        <time>2022-06-03T12:12:52.008Z</time>
      </trkpt>
      <trkpt lat="48.03871" lon="-4.4921">
        <ele>10</ele>
        <time>2022-06-03T12:12:56.947Z</time>
      </trkpt>
      <trkpt lat="48.03868" lon="-4.49214">
        <ele>10</ele>
        <time>2022-06-03T12:13:00.974Z</time>
      </trkpt>
      <trkpt lat="48.03866" lon="-4.49217">
        <ele>10</ele>
        <time>2022-06-03T12:13:05Z</time>
      </trkpt>
      <trkpt lat="48.03862" lon="-4.49222">
        <ele>10</ele>
        <time>2022-06-03T12:13:09.981Z</time>
      </trkpt>
      <trkpt lat="48.03862" lon="-4.49229">
        <ele>10</ele>
        <time>2022-06-03T12:13:14.968Z</time>
      </trkpt>
      <trkpt lat="48.03864" lon="-4.49233">
        <ele>10</ele>
        <time>2022-06-03T12:13:18.990Z</time>
      </trkpt>
      <trkpt lat="48.03868" lon="-4.49233">
        <ele>10</ele>
        <time>2022-06-03T12:13:22.999Z</time>
      </trkpt>
      <trkpt lat="48.0387" lon="-4.49238">
        <ele>9</ele>
        <time>2022-06-03T12:13:27.986Z</time>
      </trkpt>
      <trkpt lat="48.03869" lon="-4.49247">
        <ele>9</ele>
        <time>2022-06-03T12:13:32.988Z</time>
      </trkpt>
      <trkpt lat="48.0387" lon="-4.49256">
        <ele>9</ele>
        <time>2022-06-03T12:13:37.965Z</time>
      </trkpt>
      <trkpt lat="48.03872" lon="-4.49262">
        <ele>9</ele>
        <time>2022-06-03T12:13:41.985Z</time>
      </trkpt>
      <trkpt lat="48.03871" lon="-4.4927">
        <ele>8</ele>
        <time>2022-06-03T12:13:47.005Z</time>
      </trkpt>
      <trkpt lat="48.03871" lon="-4.49278">
        <ele>8</ele>
        <time>2022-06-03T12:13:51.987Z</time>
      </trkpt>
      <trkpt lat="48.03871" lon="-4.49286">
        <ele>8</ele>
        <time>2022-06-03T12:13:56.992Z</time>
      </trkpt>
      <trkpt lat="48.03872" lon="-4.49295">
        <ele>5</ele>
        <time>2022-06-03T12:14:02.002Z</time>
      </trkpt>
      <trkpt lat="48.03872" lon="-4.49303">
        <ele>5</ele>
        <time>2022-06-03T12:14:06.988Z</time>
      </trkpt>
      <trkpt lat="48.03871" lon="-4.49311">
        <ele>5</ele>
        <time>2022-06-03T12:14:10.984Z</time>
      </trkpt>
      <trkpt lat="48.03871" lon="-4.49319">
        <ele>2</ele>
        <time>2022-06-03T12:14:15.963Z</time>
      </trkpt>
      <trkpt lat="48.0387" lon="-4.49326">
        <ele>2</ele>
        <time>2022-06-03T12:14:19.974Z</time>
      </trkpt>
      <trkpt lat="48.03869" lon="-4.49333">
        <ele>2</ele>
        <time>2022-06-03T12:14:23.982Z</time>
      </trkpt>
      <trkpt lat="48.03869" lon="-4.49341">
        <ele>2</ele>
        <time>2022-06-03T12:14:28.977Z</time>
      </trkpt>
      <trkpt lat="48.03868" lon="-4.49349">
        <ele>3</ele>
        <time>2022-06-03T12:14:33.973Z</time>
      </trkpt>
      <trkpt lat="48.03868" lon="-4.49353">
        <ele>3</ele>
        <time>2022-06-03T12:14:37.984Z</time>
      </trkpt>
      <trkpt lat="48.03869" lon="-4.4936">
        <ele>3</ele>
        <time>2022-06-03T12:14:42.973Z</time>
      </trkpt>
      <trkpt lat="48.03871" lon="-4.49365">
        <ele>3</ele>
        <time>2022-06-03T12:14:47.975Z</time>
      </trkpt>
      <trkpt lat="48.0387" lon="-4.49375">
        <ele>3</ele>
        <time>2022-06-03T12:14:52.989Z</time>
      </trkpt>
      <trkpt lat="48.03867" lon="-4.49382">
        <ele>3</ele>
        <time>2022-06-03T12:14:57.974Z</time>
      </trkpt>
      <trkpt lat="48.03864" lon="-4.49389">
        <ele>3</ele>
        <time>2022-06-03T12:15:02.988Z</time>
      </trkpt>
      <trkpt lat="48.03865" lon="-4.49394">
        <ele>3</ele>
        <time>2022-06-03T12:15:06.997Z</time>
      </trkpt>
      <trkpt lat="48.03865" lon="-4.49404">
        <ele>4</ele>
        <time>2022-06-03T12:15:11.988Z</time>
      </trkpt>
      <trkpt lat="48.03866" lon="-4.49414">
        <ele>4</ele>
        <time>2022-06-03T12:15:16.991Z</time>
      </trkpt>
      <trkpt lat="48.03865" lon="-4.4942">
        <ele>4</ele>
        <time>2022-06-03T12:15:21.004Z</time>
      </trkpt>
      <trkpt lat="48.03866" lon="-4.49424">
        <ele>4</ele>
        <time>2022-06-03T12:15:24.997Z</time>
      </trkpt>
      <trkpt lat="48.03864" lon="-4.49432">
        <ele>4</ele>
        <time>2022-06-03T12:15:29.970Z</time>
      </trkpt>
      <trkpt lat="48.03866" lon="-4.49439">
        <ele>4</ele>
        <time>2022-06-03T12:15:33.986Z</time>
      </trkpt>
      <trkpt lat="48.03867" lon="-4.49447">
        <ele>4</ele>
        <time>2022-06-03T12:15:39.012Z</time>
      </trkpt>
      <trkpt lat="48.03868" lon="-4.49455">
        <ele>4</ele>
        <time>2022-06-03T12:15:43.974Z</time>
      </trkpt>
      <trkpt lat="48.03868" lon="-4.49462">
        <ele>3</ele>
        <time>2022-06-03T12:15:48.998Z</time>
      </trkpt>
      <trkpt lat="48.03867" lon="-4.49469">
        <ele>3</ele>
        <time>2022-06-03T12:15:52.999Z</time>
      </trkpt>
      <trkpt lat="48.03864" lon="-4.49475">
        <ele>3</ele>
        <time>2022-06-03T12:15:57.969Z</time>
      </trkpt>
      <trkpt lat="48.03863" lon="-4.49481">
        <ele>3</ele>
        <time>2022-06-03T12:16:02.987Z</time>
      </trkpt>
      <trkpt lat="48.03863" lon="-4.49488">
        <ele>3</ele>
        <time>2022-06-03T12:16:07.986Z</time>
      </trkpt>
      <trkpt lat="48.03865" lon="-4.49495">
        <ele>3</ele>
        <time>2022-06-03T12:16:12.972Z</time>
      </trkpt>
      <trkpt lat="48.03863" lon="-4.49504">
        <ele>3</ele>
        <time>2022-06-03T12:16:17.016Z</time>
      </trkpt>
      <trkpt lat="48.03863" lon="-4.49511">
        <ele>3</ele>
        <time>2022-06-03T12:16:21.993Z</time>
      </trkpt>
      <trkpt lat="48.03862" lon="-4.49519">
        <ele>4</ele>
        <time>2022-06-03T12:16:26.981Z</time>
      </trkpt>
      <trkpt lat="48.03862" lon="-4.49525">
        <ele>4</ele>
        <time>2022-06-03T12:16:30.985Z</time>
      </trkpt>
      <trkpt lat="48.03859" lon="-4.49529">
        <ele>4</ele>
        <time>2022-06-03T12:16:35.997Z</time>
      </trkpt>
      <trkpt lat="48.03858" lon="-4.49536">
        <ele>4</ele>
        <time>2022-06-03T12:16:39.976Z</time>
      </trkpt>
      <trkpt lat="48.03858" lon="-4.49545">
        <ele>4</ele>
        <time>2022-06-03T12:16:44.983Z</time>
      </trkpt>
      <trkpt lat="48.03858" lon="-4.49551">
        <ele>4</ele>
        <time>2022-06-03T12:16:48.989Z</time>
      </trkpt>
      <trkpt lat="48.03857" lon="-4.49561">
        <ele>4</ele>
        <time>2022-06-03T12:16:53.961Z</time>
      </trkpt>
      <trkpt lat="48.03856" lon="-4.49568">
        <ele>4</ele>
        <time>2022-06-03T12:16:57.971Z</time>
      </trkpt>
      <trkpt lat="48.03854" lon="-4.49575">
        <ele>3</ele>
        <time>2022-06-03T12:17:01.975Z</time>
      </trkpt>
      <trkpt lat="48.03853" lon="-4.49582">
        <ele>3</ele>
        <time>2022-06-03T12:17:07Z</time>
      </trkpt>
      <trkpt lat="48.03851" lon="-4.49588">
        <ele>3</ele>
        <time>2022-06-03T12:17:11.989Z</time>
      </trkpt>
      <trkpt lat="48.03849" lon="-4.49592">
        <ele>3</ele>
        <time>2022-06-03T12:17:16.005Z</time>
      </trkpt>
      <trkpt lat="48.03848" lon="-4.496">
        <ele>3</ele>
        <time>2022-06-03T12:17:21.009Z</time>
      </trkpt>
      <trkpt lat="48.03847" lon="-4.49608">
        <ele>3</ele>
        <time>2022-06-03T12:17:25.982Z</time>
      </trkpt>
      <trkpt lat="48.03845" lon="-4.49616">
        <ele>3</ele>
        <time>2022-06-03T12:17:30.966Z</time>
      </trkpt>
      <trkpt lat="48.03845" lon="-4.49622">
        <ele>3</ele>
        <time>2022-06-03T12:17:34.995Z</time>
      </trkpt>
      <trkpt lat="48.03843" lon="-4.49631">
        <ele>3</ele>
        <time>2022-06-03T12:17:39.982Z</time>
      </trkpt>
      <trkpt lat="48.03842" lon="-4.49639">
        <ele>3</ele>
        <time>2022-06-03T12:17:44.989Z</time>
      </trkpt>
      <trkpt lat="48.03841" lon="-4.49647">
        <ele>3</ele>
        <time>2022-06-03T12:17:50.023Z</time>
      </trkpt>
      <trkpt lat="48.03838" lon="-4.49655">
        <ele>1</ele>
        <time>2022-06-03T12:17:55.019Z</time>
      </trkpt>
      <trkpt lat="48.03835" lon="-4.49662">
        <ele>1</ele>
        <time>2022-06-03T12:17:59.997Z</time>
      </trkpt>
      <trkpt lat="48.03833" lon="-4.49669">
        <ele>1</ele>
        <time>2022-06-03T12:18:04.995Z</time>
      </trkpt>
      <trkpt lat="48.03831" lon="-4.49674">
        <ele>1</ele>
        <time>2022-06-03T12:18:09.003Z</time>
      </trkpt>
      <trkpt lat="48.03828" lon="-4.49681">
        <ele>3.1</ele>
        <time>2022-06-03T12:18:13.986Z</time>
      </trkpt>
      <trkpt lat="48.03826" lon="-4.49685">
        <ele>3.1</ele>
        <time>2022-06-03T12:18:17.980Z</time>
      </trkpt>
      <trkpt lat="48.03822" lon="-4.49692">
        <ele>3</ele>
        <time>2022-06-03T12:18:23.005Z</time>
      </trkpt>
      <trkpt lat="48.03819" lon="-4.49698">
        <ele>3</ele>
        <time>2022-06-03T12:18:27.980Z</time>
      </trkpt>
      <trkpt lat="48.03817" lon="-4.49703">
        <ele>3</ele>
        <time>2022-06-03T12:18:31.989Z</time>
      </trkpt>
      <trkpt lat="48.03815" lon="-4.49709">
        <ele>2</ele>
        <time>2022-06-03T12:18:36.994Z</time>
      </trkpt>
      <trkpt lat="48.03813" lon="-4.49717">
        <ele>2</ele>
        <time>2022-06-03T12:18:42.005Z</time>
      </trkpt>
      <trkpt lat="48.03811" lon="-4.49725">
        <ele>2</ele>
        <time>2022-06-03T12:18:46.994Z</time>
      </trkpt>
      <trkpt lat="48.03809" lon="-4.49732">
        <ele>2</ele>
        <time>2022-06-03T12:18:52.003Z</time>
      </trkpt>
      <trkpt lat="48.03806" lon="-4.49741">
        <ele>1</ele>
        <time>2022-06-03T12:18:56.973Z</time>
      </trkpt>
      <trkpt lat="48.03805" lon="-4.49748">
        <ele>1</ele>
        <time>2022-06-03T12:19:00.977Z</time>
      </trkpt>
      <trkpt lat="48.03803" lon="-4.49754">
        <ele>1</ele>
        <time>2022-06-03T12:19:05.001Z</time>
      </trkpt>
      <trkpt lat="48.03802" lon="-4.49763">
        <ele>1</ele>
        <time>2022-06-03T12:19:10.030Z</time>
      </trkpt>
      <trkpt lat="48.038" lon="-4.49771">
        <ele>1</ele>
        <time>2022-06-03T12:19:14.996Z</time>
      </trkpt>
      <trkpt lat="48.03797" lon="-4.49779">
        <ele>1</ele>
        <time>2022-06-03T12:19:20.007Z</time>
      </trkpt>
      <trkpt lat="48.03796" lon="-4.49785">
        <ele>1</ele>
        <time>2022-06-03T12:19:24.983Z</time>
      </trkpt>
      <trkpt lat="48.03795" lon="-4.49791">
        <ele>1</ele>
        <time>2022-06-03T12:19:29.968Z</time>
      </trkpt>
      <trkpt lat="48.03796" lon="-4.49797">
        <ele>3.3</ele>
        <time>2022-06-03T12:19:33.975Z</time>
      </trkpt>
      <trkpt lat="48.03795" lon="-4.49806">
        <ele>3.4</ele>
        <time>2022-06-03T12:19:38.959Z</time>
      </trkpt>
      <trkpt lat="48.03794" lon="-4.49813">
        <ele>3.3</ele>
        <time>2022-06-03T12:19:42.977Z</time>
      </trkpt>
      <trkpt lat="48.03791" lon="-4.49821">
        <ele>2</ele>
        <time>2022-06-03T12:19:47.970Z</time>
      </trkpt>
      <trkpt lat="48.0379" lon="-4.49827">
        <ele>2</ele>
        <time>2022-06-03T12:19:51.990Z</time>
      </trkpt>
      <trkpt lat="48.03789" lon="-4.49835">
        <ele>2</ele>
        <time>2022-06-03T12:19:56.986Z</time>
      </trkpt>
      <trkpt lat="48.03786" lon="-4.49843">
        <ele>2</ele>
        <time>2022-06-03T12:20:01.999Z</time>
      </trkpt>
      <trkpt lat="48.03784" lon="-4.49849">
        <ele>2</ele>
        <time>2022-06-03T12:20:06.989Z</time>
      </trkpt>
      <trkpt lat="48.03783" lon="-4.49857">
        <ele>2</ele>
        <time>2022-06-03T12:20:10.993Z</time>
      </trkpt>
      <trkpt lat="48.0378" lon="-4.49865">
        <ele>2</ele>
        <time>2022-06-03T12:20:15.983Z</time>
      </trkpt>
      <trkpt lat="48.03778" lon="-4.49873">
        <ele>2</ele>
        <time>2022-06-03T12:20:21.005Z</time>
      </trkpt>
      <trkpt lat="48.03775" lon="-4.49881">
        <ele>3</ele>
        <time>2022-06-03T12:20:25.972Z</time>
      </trkpt>
      <trkpt lat="48.03773" lon="-4.4989">
        <ele>3</ele>
        <time>2022-06-03T12:20:30.988Z</time>
      </trkpt>
      <trkpt lat="48.0377" lon="-4.49897">
        <ele>3</ele>
        <time>2022-06-03T12:20:34.999Z</time>
      </trkpt>
      <trkpt lat="48.03766" lon="-4.49904">
        <ele>2</ele>
        <time>2022-06-03T12:20:39.972Z</time>
      </trkpt>
      <trkpt lat="48.03762" lon="-4.4991">
        <ele>1</ele>
        <time>2022-06-03T12:20:44.983Z</time>
      </trkpt>
      <trkpt lat="48.0376" lon="-4.49915">
        <ele>1</ele>
        <time>2022-06-03T12:20:48.988Z</time>
      </trkpt>
      <trkpt lat="48.03758" lon="-4.49917">
        <ele>1</ele>
        <time>2022-06-03T12:20:52.979Z</time>
      </trkpt>
      <trkpt lat="48.03757" lon="-4.49921">
        <ele>1</ele>
        <time>2022-06-03T12:20:57.970Z</time>
      </trkpt>
      <trkpt lat="48.03753" lon="-4.49927">
        <ele>1</ele>
        <time>2022-06-03T12:21:01.969Z</time>
      </trkpt>
      <trkpt lat="48.03749" lon="-4.49933">
        <ele>1</ele>
        <time>2022-06-03T12:21:05.976Z</time>
      </trkpt>
      <trkpt lat="48.03745" lon="-4.49941">
        <ele>1</ele>
        <time>2022-06-03T12:21:10.981Z</time>
      </trkpt>
      <trkpt lat="48.03743" lon="-4.49947">
        <ele>1</ele>
        <time>2022-06-03T12:21:15.007Z</time>
      </trkpt>
      <trkpt lat="48.0374" lon="-4.49953">
        <ele>1</ele>
        <time>2022-06-03T12:21:19.986Z</time>
      </trkpt>
      <trkpt lat="48.03736" lon="-4.4996">
        <ele>1</ele>
        <time>2022-06-03T12:21:24.990Z</time>
      </trkpt>
      <trkpt lat="48.03731" lon="-4.49968">
        <ele>1</ele>
        <time>2022-06-03T12:21:29.983Z</time>
      </trkpt>
      <trkpt lat="48.03727" lon="-4.49973">
        <ele>1</ele>
        <time>2022-06-03T12:21:35.003Z</time>
      </trkpt>
      <trkpt lat="48.03724" lon="-4.49978">
        <ele>1</ele>
        <time>2022-06-03T12:21:39.005Z</time>
      </trkpt>
      <trkpt lat="48.0372" lon="-4.49985">
        <ele>1</ele>
        <time>2022-06-03T12:21:43.978Z</time>
      </trkpt>
      <trkpt lat="48.03716" lon="-4.49991">
        <ele>1</ele>
        <time>2022-06-03T12:21:47.979Z</time>
      </trkpt>
      <trkpt lat="48.03713" lon="-4.49997">
        <ele>1</ele>
        <time>2022-06-03T12:21:53.003Z</time>
      </trkpt>
      <trkpt lat="48.03708" lon="-4.50004">
        <ele>1</ele>
        <time>2022-06-03T12:21:57.989Z</time>
      </trkpt>
      <trkpt lat="48.03705" lon="-4.5001">
        <ele>3</ele>
        <time>2022-06-03T12:22:02.994Z</time>
      </trkpt>
      <trkpt lat="48.03702" lon="-4.50017">
        <ele>2</ele>
        <time>2022-06-03T12:22:07.989Z</time>
      </trkpt>
      <trkpt lat="48.03699" lon="-4.50025">
        <ele>2</ele>
        <time>2022-06-03T12:22:12.988Z</time>
      </trkpt>
      <trkpt lat="48.03696" lon="-4.50032">
        <ele>2</ele>
        <time>2022-06-03T12:22:17.991Z</time>
      </trkpt>
      <trkpt lat="48.03694" lon="-4.50037">
        <ele>2</ele>
        <time>2022-06-03T12:22:22.020Z</time>
      </trkpt>
      <trkpt lat="48.03691" lon="-4.50045">
        <ele>1</ele>
        <time>2022-06-03T12:22:26.963Z</time>
      </trkpt>
      <trkpt lat="48.03688" lon="-4.50051">
        <ele>1</ele>
        <time>2022-06-03T12:22:31.997Z</time>
      </trkpt>
      <trkpt lat="48.03684" lon="-4.50059">
        <ele>1</ele>
        <time>2022-06-03T12:22:36.983Z</time>
      </trkpt>
      <trkpt lat="48.03681" lon="-4.50067">
        <ele>1</ele>
        <time>2022-06-03T12:22:42.005Z</time>
      </trkpt>
      <trkpt lat="48.03678" lon="-4.50073">
        <ele>3</ele>
        <time>2022-06-03T12:22:46.998Z</time>
      </trkpt>
      <trkpt lat="48.03672" lon="-4.50077">
        <ele>3</ele>
        <time>2022-06-03T12:22:51.991Z</time>
      </trkpt>
      <trkpt lat="48.03667" lon="-4.50079">
        <ele>3</ele>
        <time>2022-06-03T12:22:56.963Z</time>
      </trkpt>
      <trkpt lat="48.03663" lon="-4.50081">
        <ele>3</ele>
        <time>2022-06-03T12:23:01.005Z</time>
      </trkpt>
      <trkpt lat="48.03658" lon="-4.50084">
        <ele>3</ele>
        <time>2022-06-03T12:23:05.990Z</time>
      </trkpt>
      <trkpt lat="48.03653" lon="-4.50088">
        <ele>7</ele>
        <time>2022-06-03T12:23:10.986Z</time>
      </trkpt>
      <trkpt lat="48.03648" lon="-4.50091">
        <ele>7</ele>
        <time>2022-06-03T12:23:15.989Z</time>
      </trkpt>
      <trkpt lat="48.03643" lon="-4.50095">
        <ele>7</ele>
        <time>2022-06-03T12:23:19.991Z</time>
      </trkpt>
      <trkpt lat="48.03638" lon="-4.50098">
        <ele>6</ele>
        <time>2022-06-03T12:23:24.978Z</time>
      </trkpt>
      <trkpt lat="48.03635" lon="-4.50103">
        <ele>6</ele>
        <time>2022-06-03T12:23:29.968Z</time>
      </trkpt>
      <trkpt lat="48.03632" lon="-4.50108">
        <ele>6</ele>
        <time>2022-06-03T12:23:33.976Z</time>
      </trkpt>
      <trkpt lat="48.0363" lon="-4.50113">
        <ele>6</ele>
        <time>2022-06-03T12:23:37.982Z</time>
      </trkpt>
      <trkpt lat="48.03627" lon="-4.50121">
        <ele>6</ele>
        <time>2022-06-03T12:23:42.979Z</time>
      </trkpt>
      <trkpt lat="48.03626" lon="-4.50127">
        <ele>2</ele>
        <time>2022-06-03T12:23:47.952Z</time>
      </trkpt>
      <trkpt lat="48.03624" lon="-4.50135">
        <ele>9</ele>
        <time>2022-06-03T12:23:51.977Z</time>
      </trkpt>
      <trkpt lat="48.03624" lon="-4.50141">
        <ele>9</ele>
        <time>2022-06-03T12:23:55.988Z</time>
      </trkpt>
      <trkpt lat="48.03622" lon="-4.50148">
        <ele>9</ele>
        <time>2022-06-03T12:24:00.974Z</time>
      </trkpt>
      <trkpt lat="48.03621" lon="-4.50156">
        <ele>6</ele>
        <time>2022-06-03T12:24:05.972Z</time>
      </trkpt>
      <trkpt lat="48.0362" lon="-4.50164">
        <ele>6</ele>
        <time>2022-06-03T12:24:10.947Z</time>
      </trkpt>
      <trkpt lat="48.0362" lon="-4.50169">
        <ele>6</ele>
        <time>2022-06-03T12:24:14.978Z</time>
      </trkpt>
      <trkpt lat="48.0362" lon="-4.50178">
        <ele>6</ele>
        <time>2022-06-03T12:24:19.986Z</time>
      </trkpt>
      <trkpt lat="48.03617" lon="-4.50187">
        <ele>4</ele>
        <time>2022-06-03T12:24:24.994Z</time>
      </trkpt>
      <trkpt lat="48.03615" lon="-4.50196">
        <ele>4</ele>
        <time>2022-06-03T12:24:29.969Z</time>
      </trkpt>
      <trkpt lat="48.03612" lon="-4.50201">
        <ele>4</ele>
        <time>2022-06-03T12:24:34.977Z</time>
      </trkpt>
      <trkpt lat="48.03609" lon="-4.50205">
        <ele>4</ele>
        <time>2022-06-03T12:24:39.989Z</time>
      </trkpt>
      <trkpt lat="48.03607" lon="-4.50211">
        <ele>2</ele>
        <time>2022-06-03T12:24:44.973Z</time>
      </trkpt>
      <trkpt lat="48.03607" lon="-4.50219">
        <ele>2</ele>
        <time>2022-06-03T12:24:49.989Z</time>
      </trkpt>
      <trkpt lat="48.03608" lon="-4.50225">
        <ele>2</ele>
        <time>2022-06-03T12:24:54.968Z</time>
      </trkpt>
      <trkpt lat="48.03611" lon="-4.50226">
        <ele>2</ele>
        <time>2022-06-03T12:25:00.001Z</time>
      </trkpt>
      <trkpt lat="48.03616" lon="-4.50226">
        <ele>2</ele>
        <time>2022-06-03T12:25:04.993Z</time>
      </trkpt>
      <trkpt lat="48.0362" lon="-4.50227">
        <ele>2</ele>
        <time>2022-06-03T12:25:09.016Z</time>
      </trkpt>
      <trkpt lat="48.03624" lon="-4.50234">
        <ele>2</ele>
        <time>2022-06-03T12:25:13.978Z</time>
      </trkpt>
      <trkpt lat="48.03625" lon="-4.50242">
        <ele>2</ele>
        <time>2022-06-03T12:25:19.006Z</time>
      </trkpt>
      <trkpt lat="48.03625" lon="-4.50249">
        <ele>2</ele>
        <time>2022-06-03T12:25:23.997Z</time>
      </trkpt>
      <trkpt lat="48.03624" lon="-4.50257">
        <ele>2</ele>
        <time>2022-06-03T12:25:28.976Z</time>
      </trkpt>
      <trkpt lat="48.03622" lon="-4.50263">
        <ele>2</ele>
        <time>2022-06-03T12:25:33.003Z</time>
      </trkpt>
      <trkpt lat="48.03622" lon="-4.50269">
        <ele>1</ele>
        <time>2022-06-03T12:25:37.953Z</time>
      </trkpt>
      <trkpt lat="48.0362" lon="-4.50277">
        <ele>1</ele>
        <time>2022-06-03T12:25:42.967Z</time>
      </trkpt>
      <trkpt lat="48.03619" lon="-4.50283">
        <ele>1</ele>
        <time>2022-06-03T12:25:46.974Z</time>
      </trkpt>
      <trkpt lat="48.03617" lon="-4.50289">
        <ele>1</ele>
        <time>2022-06-03T12:25:50.993Z</time>
      </trkpt>
      <trkpt lat="48.03615" lon="-4.50295">
        <ele>1</ele>
        <time>2022-06-03T12:25:54.991Z</time>
      </trkpt>
      <trkpt lat="48.03614" lon="-4.50303">
        <ele>1</ele>
        <time>2022-06-03T12:25:59.976Z</time>
      </trkpt>
      <trkpt lat="48.03613" lon="-4.50308">
        <ele>1</ele>
        <time>2022-06-03T12:26:03.986Z</time>
      </trkpt>
      <trkpt lat="48.03612" lon="-4.50314">
        <ele>1</ele>
        <time>2022-06-03T12:26:08.004Z</time>
      </trkpt>
      <trkpt lat="48.03612" lon="-4.50318">
        <ele>1</ele>
        <time>2022-06-03T12:26:12.986Z</time>
      </trkpt>
      <trkpt lat="48.03611" lon="-4.50321">
        <ele>1</ele>
        <time>2022-06-03T12:26:17.979Z</time>
      </trkpt>
      <trkpt lat="48.03611" lon="-4.50322">
        <ele>1</ele>
        <time>2022-06-03T12:26:22.996Z</time>
      </trkpt>
      <trkpt lat="48.03609" lon="-4.50329">
        <ele>1</ele>
        <time>2022-06-03T12:26:27.978Z</time>
      </trkpt>
      <trkpt lat="48.03608" lon="-4.50334">
        <ele>1</ele>
        <time>2022-06-03T12:26:31.973Z</time>
      </trkpt>
      <trkpt lat="48.03606" lon="-4.50339">
        <ele>1</ele>
        <time>2022-06-03T12:26:36.994Z</time>
      </trkpt>
      <trkpt lat="48.03606" lon="-4.5034">
        <ele>1</ele>
        <time>2022-06-03T12:26:41.988Z</time>
      </trkpt>
      <trkpt lat="48.03604" lon="-4.50343">
        <ele>1</ele>
        <time>2022-06-03T12:26:46.967Z</time>
      </trkpt>
      <trkpt lat="48.03603" lon="-4.50348">
        <ele>1</ele>
        <time>2022-06-03T12:26:51.017Z</time>
      </trkpt>
      <trkpt lat="48.036" lon="-4.50353">
        <ele>1</ele>
        <time>2022-06-03T12:26:55.993Z</time>
      </trkpt>
      <trkpt lat="48.03598" lon="-4.50359">
        <ele>1</ele>
        <time>2022-06-03T12:27:00.980Z</time>
      </trkpt>
      <trkpt lat="48.03596" lon="-4.50364">
        <ele>4</ele>
        <time>2022-06-03T12:27:04.992Z</time>
      </trkpt>
      <trkpt lat="48.03593" lon="-4.50366">
        <ele>4</ele>
        <time>2022-06-03T12:27:09.010Z</time>
      </trkpt>
      <trkpt lat="48.03591" lon="-4.50371">
        <ele>4</ele>
        <time>2022-06-03T12:27:13.980Z</time>
      </trkpt>
      <trkpt lat="48.03587" lon="-4.50378">
        <ele>4</ele>
        <time>2022-06-03T12:27:18.993Z</time>
      </trkpt>
      <trkpt lat="48.03587" lon="-4.50385">
        <ele>4</ele>
        <time>2022-06-03T12:27:22.990Z</time>
      </trkpt>
      <trkpt lat="48.03585" lon="-4.50391">
        <ele>4</ele>
        <time>2022-06-03T12:27:27.003Z</time>
      </trkpt>
      <trkpt lat="48.03582" lon="-4.50398">
        <ele>4</ele>
        <time>2022-06-03T12:27:31.982Z</time>
      </trkpt>
      <trkpt lat="48.0358" lon="-4.50402">
        <ele>4</ele>
        <time>2022-06-03T12:27:36.014Z</time>
      </trkpt>
      <trkpt lat="48.03578" lon="-4.50407">
        <ele>5</ele>
        <time>2022-06-03T12:27:40.962Z</time>
      </trkpt>
      <trkpt lat="48.03576" lon="-4.50411">
        <ele>5</ele>
        <time>2022-06-03T12:27:44.987Z</time>
      </trkpt>
      <trkpt lat="48.03575" lon="-4.50415">
        <ele>5</ele>
        <time>2022-06-03T12:27:49.996Z</time>
      </trkpt>
      <trkpt lat="48.03573" lon="-4.5042">
        <ele>5</ele>
        <time>2022-06-03T12:27:53.978Z</time>
      </trkpt>
      <trkpt lat="48.0357" lon="-4.50426">
        <ele>5</ele>
        <time>2022-06-03T12:27:58.982Z</time>
      </trkpt>
      <trkpt lat="48.03569" lon="-4.5043">
        <ele>12</ele>
        <time>2022-06-03T12:28:02.977Z</time>
      </trkpt>
      <trkpt lat="48.03568" lon="-4.50437">
        <ele>15</ele>
        <time>2022-06-03T12:28:07.976Z</time>
      </trkpt>
      <trkpt lat="48.03568" lon="-4.50443">
        <ele>15</ele>
        <time>2022-06-03T12:28:11.997Z</time>
      </trkpt>
      <trkpt lat="48.03568" lon="-4.50449">
        <ele>15</ele>
        <time>2022-06-03T12:28:16.964Z</time>
      </trkpt>
      <trkpt lat="48.03568" lon="-4.50454">
        <ele>15</ele>
        <time>2022-06-03T12:28:20.976Z</time>
      </trkpt>
      <trkpt lat="48.03564" lon="-4.50462">
        <ele>17</ele>
        <time>2022-06-03T12:28:25.997Z</time>
      </trkpt>
      <trkpt lat="48.03563" lon="-4.5047">
        <ele>17</ele>
        <time>2022-06-03T12:28:31.001Z</time>
      </trkpt>
      <trkpt lat="48.03561" lon="-4.50476">
        <ele>17</ele>
        <time>2022-06-03T12:28:36.018Z</time>
      </trkpt>
      <trkpt lat="48.0356" lon="-4.50482">
        <ele>17</ele>
        <time>2022-06-03T12:28:40.986Z</time>
      </trkpt>
      <trkpt lat="48.0356" lon="-4.50488">
        <ele>17</ele>
        <time>2022-06-03T12:28:45.974Z</time>
      </trkpt>
      <trkpt lat="48.03559" lon="-4.50493">
        <ele>17</ele>
        <time>2022-06-03T12:28:49.990Z</time>
      </trkpt>
      <trkpt lat="48.0356" lon="-4.50501">
        <ele>17</ele>
        <time>2022-06-03T12:28:54.994Z</time>
      </trkpt>
      <trkpt lat="48.03561" lon="-4.50508">
        <ele>17</ele>
        <time>2022-06-03T12:28:58.982Z</time>
      </trkpt>
      <trkpt lat="48.0356" lon="-4.50516">
        <ele>19</ele>
        <time>2022-06-03T12:29:03.996Z</time>
      </trkpt>
      <trkpt lat="48.03559" lon="-4.5052">
        <ele>19</ele>
        <time>2022-06-03T12:29:08.990Z</time>
      </trkpt>
      <trkpt lat="48.03561" lon="-4.50528">
        <ele>19</ele>
        <time>2022-06-03T12:29:13.982Z</time>
      </trkpt>
      <trkpt lat="48.0356" lon="-4.50532">
        <ele>19</ele>
        <time>2022-06-03T12:29:17.993Z</time>
      </trkpt>
      <trkpt lat="48.03556" lon="-4.5054">
        <ele>19</ele>
        <time>2022-06-03T12:29:22.994Z</time>
      </trkpt>
      <trkpt lat="48.03554" lon="-4.50544">
        <ele>20</ele>
        <time>2022-06-03T12:29:27.972Z</time>
      </trkpt>
      <trkpt lat="48.03553" lon="-4.50545">
        <ele>20</ele>
        <time>2022-06-03T12:29:31.969Z</time>
      </trkpt>
      <trkpt lat="48.03552" lon="-4.50549">
        <ele>20</ele>
        <time>2022-06-03T12:29:35.991Z</time>
      </trkpt>
      <trkpt lat="48.03551" lon="-4.50556">
        <ele>20</ele>
        <time>2022-06-03T12:29:40.983Z</time>
      </trkpt>
      <trkpt lat="48.0355" lon="-4.50563">
        <ele>20</ele>
        <time>2022-06-03T12:29:45.983Z</time>
      </trkpt>
      <trkpt lat="48.03553" lon="-4.50571">
        <ele>20</ele>
        <time>2022-06-03T12:29:50.954Z</time>
      </trkpt>
      <trkpt lat="48.03552" lon="-4.50581">
        <ele>20</ele>
        <time>2022-06-03T12:29:55.947Z</time>
      </trkpt>
      <trkpt lat="48.03552" lon="-4.50586">
        <ele>20</ele>
        <time>2022-06-03T12:29:59.989Z</time>
      </trkpt>
      <trkpt lat="48.03553" lon="-4.50591">
        <ele>20</ele>
        <time>2022-06-03T12:30:04.985Z</time>
      </trkpt>
      <trkpt lat="48.03555" lon="-4.50596">
        <ele>20</ele>
        <time>2022-06-03T12:30:09.995Z</time>
      </trkpt>
      <trkpt lat="48.03558" lon="-4.50602">
        <ele>18</ele>
        <time>2022-06-03T12:30:14.991Z</time>
      </trkpt>
      <trkpt lat="48.03561" lon="-4.5061">
        <ele>18</ele>
        <time>2022-06-03T12:30:19.965Z</time>
      </trkpt>
      <trkpt lat="48.03561" lon="-4.50616">
        <ele>18</ele>
        <time>2022-06-03T12:30:23.971Z</time>
      </trkpt>
      <trkpt lat="48.0356" lon="-4.50624">
        <ele>18</ele>
        <time>2022-06-03T12:30:28.986Z</time>
      </trkpt>
      <trkpt lat="48.03557" lon="-4.50629">
        <ele>17</ele>
        <time>2022-06-03T12:30:34.001Z</time>
      </trkpt>
      <trkpt lat="48.03556" lon="-4.50633">
        <ele>17</ele>
        <time>2022-06-03T12:30:39.001Z</time>
      </trkpt>
      <trkpt lat="48.03555" lon="-4.50637">
        <ele>17</ele>
        <time>2022-06-03T12:30:43.966Z</time>
      </trkpt>
      <trkpt lat="48.03556" lon="-4.50644">
        <ele>17</ele>
        <time>2022-06-03T12:30:48.984Z</time>
      </trkpt>
      <trkpt lat="48.03558" lon="-4.5065">
        <ele>17</ele>
        <time>2022-06-03T12:30:53.984Z</time>
      </trkpt>
      <trkpt lat="48.03559" lon="-4.50655">
        <ele>18</ele>
        <time>2022-06-03T12:30:57.988Z</time>
      </trkpt>
      <trkpt lat="48.03558" lon="-4.50657">
        <ele>18</ele>
        <time>2022-06-03T12:31:02.981Z</time>
      </trkpt>
      <trkpt lat="48.03559" lon="-4.50659">
        <ele>18</ele>
        <time>2022-06-03T12:31:07.005Z</time>
      </trkpt>
      <trkpt lat="48.03561" lon="-4.50661">
        <ele>18</ele>
        <time>2022-06-03T12:31:10.993Z</time>
      </trkpt>
      <trkpt lat="48.03563" lon="-4.50666">
        <ele>18</ele>
        <time>2022-06-03T12:31:15.973Z</time>
      </trkpt>
      <trkpt lat="48.03566" lon="-4.50673">
        <ele>18</ele>
        <time>2022-06-03T12:31:19.994Z</time>
      </trkpt>
      <trkpt lat="48.03566" lon="-4.50681">
        <ele>17</ele>
        <time>2022-06-03T12:31:24.989Z</time>
      </trkpt>
      <trkpt lat="48.03567" lon="-4.50691">
        <ele>17</ele>
        <time>2022-06-03T12:31:29.989Z</time>
      </trkpt>
      <trkpt lat="48.03566" lon="-4.50698">
        <ele>17</ele>
        <time>2022-06-03T12:31:35.007Z</time>
      </trkpt>
      <trkpt lat="48.03564" lon="-4.50704">
        <ele>17</ele>
        <time>2022-06-03T12:31:39.990Z</time>
      </trkpt>
      <trkpt lat="48.03562" lon="-4.50708">
        <ele>17</ele>
        <time>2022-06-03T12:31:44.987Z</time>
      </trkpt>
      <trkpt lat="48.0356" lon="-4.50711">
        <ele>12</ele>
        <time>2022-06-03T12:31:49.998Z</time>
      </trkpt>
      <trkpt lat="48.03559" lon="-4.50715">
        <ele>12</ele>
        <time>2022-06-03T12:31:55.005Z</time>
      </trkpt>
      <trkpt lat="48.03558" lon="-4.5072">
        <ele>12</ele>
        <time>2022-06-03T12:31:59.986Z</time>
      </trkpt>
      <trkpt lat="48.03557" lon="-4.50723">
        <ele>12</ele>
        <time>2022-06-03T12:32:03.997Z</time>
      </trkpt>
      <trkpt lat="48.03557" lon="-4.50726">
        <ele>12</ele>
        <time>2022-06-03T12:32:07.981Z</time>
      </trkpt>
      <trkpt lat="48.0356" lon="-4.5073">
        <ele>12</ele>
        <time>2022-06-03T12:32:12.991Z</time>
      </trkpt>
      <trkpt lat="48.03563" lon="-4.50733">
        <ele>12</ele>
        <time>2022-06-03T12:32:16.989Z</time>
      </trkpt>
      <trkpt lat="48.03564" lon="-4.50737">
        <ele>10</ele>
        <time>2022-06-03T12:32:21.006Z</time>
      </trkpt>
      <trkpt lat="48.03564" lon="-4.50741">
        <ele>10</ele>
        <time>2022-06-03T12:32:25.993Z</time>
      </trkpt>
      <trkpt lat="48.03565" lon="-4.5075">
        <ele>10</ele>
        <time>2022-06-03T12:32:30.979Z</time>
      </trkpt>
      <trkpt lat="48.03564" lon="-4.50756">
        <ele>10</ele>
        <time>2022-06-03T12:32:35.944Z</time>
      </trkpt>
      <trkpt lat="48.03563" lon="-4.5076">
        <ele>10</ele>
        <time>2022-06-03T12:32:39.949Z</time>
      </trkpt>
      <trkpt lat="48.03563" lon="-4.50766">
        <ele>12</ele>
        <time>2022-06-03T12:32:44.971Z</time>
      </trkpt>
      <trkpt lat="48.03562" lon="-4.50773">
        <ele>12</ele>
        <time>2022-06-03T12:32:49.961Z</time>
      </trkpt>
      <trkpt lat="48.03564" lon="-4.50779">
        <ele>12</ele>
        <time>2022-06-03T12:32:54.951Z</time>
      </trkpt>
      <trkpt lat="48.03566" lon="-4.50785">
        <ele>12</ele>
        <time>2022-06-03T12:32:58.988Z</time>
      </trkpt>
      <trkpt lat="48.03568" lon="-4.5079">
        <ele>12</ele>
        <time>2022-06-03T12:33:02.972Z</time>
      </trkpt>
      <trkpt lat="48.03568" lon="-4.50798">
        <ele>12</ele>
        <time>2022-06-03T12:33:07.984Z</time>
      </trkpt>
      <trkpt lat="48.03566" lon="-4.50802">
        <ele>12</ele>
        <time>2022-06-03T12:33:12.980Z</time>
      </trkpt>
      <trkpt lat="48.03564" lon="-4.50809">
        <ele>12</ele>
        <time>2022-06-03T12:33:17.971Z</time>
      </trkpt>
      <trkpt lat="48.03562" lon="-4.50816">
        <ele>12</ele>
        <time>2022-06-03T12:33:22.997Z</time>
      </trkpt>
      <trkpt lat="48.03563" lon="-4.50821">
        <ele>11</ele>
        <time>2022-06-03T12:33:27.965Z</time>
      </trkpt>
      <trkpt lat="48.03564" lon="-4.50828">
        <ele>11</ele>
        <time>2022-06-03T12:33:32.985Z</time>
      </trkpt>
      <trkpt lat="48.03566" lon="-4.50835">
        <ele>11</ele>
        <time>2022-06-03T12:33:37.004Z</time>
      </trkpt>
      <trkpt lat="48.03566" lon="-4.50842">
        <ele>11</ele>
        <time>2022-06-03T12:33:40.997Z</time>
      </trkpt>
      <trkpt lat="48.03566" lon="-4.5085">
        <ele>9</ele>
        <time>2022-06-03T12:33:45.975Z</time>
      </trkpt>
      <trkpt lat="48.03567" lon="-4.50856">
        <ele>9</ele>
        <time>2022-06-03T12:33:49.993Z</time>
      </trkpt>
      <trkpt lat="48.03568" lon="-4.50863">
        <ele>9</ele>
        <time>2022-06-03T12:33:54.981Z</time>
      </trkpt>
      <trkpt lat="48.03569" lon="-4.50874">
        <ele>9</ele>
        <time>2022-06-03T12:34:12.964Z</time>
      </trkpt>
      <trkpt lat="48.03569" lon="-4.50877">
        <ele>8</ele>
        <time>2022-06-03T12:34:17.956Z</time>
      </trkpt>
      <trkpt lat="48.03567" lon="-4.50879">
        <ele>8</ele>
        <time>2022-06-03T12:34:21.977Z</time>
      </trkpt>
      <trkpt lat="48.03569" lon="-4.5088">
        <ele>8</ele>
        <time>2022-06-03T12:34:25.968Z</time>
      </trkpt>
      <trkpt lat="48.0357" lon="-4.50886">
        <ele>2</ele>
        <time>2022-06-03T12:34:30.986Z</time>
      </trkpt>
      <trkpt lat="48.03572" lon="-4.50898">
        <ele>2</ele>
        <time>2022-06-03T12:34:35.979Z</time>
      </trkpt>
      <trkpt lat="48.03574" lon="-4.50904">
        <ele>4</ele>
        <time>2022-06-03T12:34:40.984Z</time>
      </trkpt>
      <trkpt lat="48.03573" lon="-4.50912">
        <ele>4</ele>
        <time>2022-06-03T12:34:45.980Z</time>
      </trkpt>
      <trkpt lat="48.03572" lon="-4.50918">
        <ele>4</ele>
        <time>2022-06-03T12:34:50.967Z</time>
      </trkpt>
      <trkpt lat="48.03572" lon="-4.5092">
        <ele>4</ele>
        <time>2022-06-03T12:34:54.984Z</time>
      </trkpt>
      <trkpt lat="48.03571" lon="-4.50924">
        <ele>4</ele>
        <time>2022-06-03T12:34:59.968Z</time>
      </trkpt>
      <trkpt lat="48.0357" lon="-4.50927">
        <ele>4</ele>
        <time>2022-06-03T12:35:03.990Z</time>
      </trkpt>
      <trkpt lat="48.0357" lon="-4.50933">
        <ele>5</ele>
        <time>2022-06-03T12:35:08.993Z</time>
      </trkpt>
      <trkpt lat="48.03571" lon="-4.50942">
        <ele>5</ele>
        <time>2022-06-03T12:35:13.987Z</time>
      </trkpt>
      <trkpt lat="48.03571" lon="-4.50948">
        <ele>5</ele>
        <time>2022-06-03T12:35:17.980Z</time>
      </trkpt>
      <trkpt lat="48.03572" lon="-4.50952">
        <ele>5</ele>
        <time>2022-06-03T12:35:22.998Z</time>
      </trkpt>
      <trkpt lat="48.03572" lon="-4.50957">
        <ele>5</ele>
        <time>2022-06-03T12:35:27.978Z</time>
      </trkpt>
      <trkpt lat="48.03572" lon="-4.50962">
        <ele>6</ele>
        <time>2022-06-03T12:35:32.991Z</time>
      </trkpt>
      <trkpt lat="48.03574" lon="-4.5097">
        <ele>6</ele>
        <time>2022-06-03T12:35:38.026Z</time>
      </trkpt>
      <trkpt lat="48.03576" lon="-4.50974">
        <ele>6</ele>
        <time>2022-06-03T12:35:42.988Z</time>
      </trkpt>
      <trkpt lat="48.03579" lon="-4.50981">
        <ele>6</ele>
        <time>2022-06-03T12:35:47.982Z</time>
      </trkpt>
      <trkpt lat="48.03582" lon="-4.50986">
        <ele>6</ele>
        <time>2022-06-03T12:35:52.008Z</time>
      </trkpt>
      <trkpt lat="48.03587" lon="-4.50988">
        <ele>9</ele>
        <time>2022-06-03T12:35:55.955Z</time>
      </trkpt>
      <trkpt lat="48.0359" lon="-4.50995">
        <ele>9</ele>
        <time>2022-06-03T12:36:00.983Z</time>
      </trkpt>
      <trkpt lat="48.03591" lon="-4.51002">
        <ele>9</ele>
        <time>2022-06-03T12:36:05.997Z</time>
      </trkpt>
      <trkpt lat="48.03596" lon="-4.51011">
        <ele>9</ele>
        <time>2022-06-03T12:36:24.998Z</time>
      </trkpt>
      <trkpt lat="48.03596" lon="-4.51014">
        <ele>13</ele>
        <time>2022-06-03T12:36:29.980Z</time>
      </trkpt>
      <trkpt lat="48.03597" lon="-4.51016">
        <ele>13</ele>
        <time>2022-06-03T12:36:33.971Z</time>
      </trkpt>
      <trkpt lat="48.03596" lon="-4.51022">
        <ele>13</ele>
        <time>2022-06-03T12:36:37.997Z</time>
      </trkpt>
      <trkpt lat="48.03593" lon="-4.51028">
        <ele>13</ele>
        <time>2022-06-03T12:36:42.954Z</time>
      </trkpt>
      <trkpt lat="48.03592" lon="-4.51033">
        <ele>13</ele>
        <time>2022-06-03T12:36:47.001Z</time>
      </trkpt>
      <trkpt lat="48.03593" lon="-4.51041">
        <ele>13</ele>
        <time>2022-06-03T12:36:51.985Z</time>
      </trkpt>
      <trkpt lat="48.03594" lon="-4.5105">
        <ele>14</ele>
        <time>2022-06-03T12:36:56.982Z</time>
      </trkpt>
      <trkpt lat="48.03595" lon="-4.51059">
        <ele>14</ele>
        <time>2022-06-03T12:37:01.984Z</time>
      </trkpt>
      <trkpt lat="48.03593" lon="-4.51067">
        <ele>14</ele>
        <time>2022-06-03T12:37:05.967Z</time>
      </trkpt>
      <trkpt lat="48.03593" lon="-4.51074">
        <ele>14</ele>
        <time>2022-06-03T12:37:10.004Z</time>
      </trkpt>
      <trkpt lat="48.03591" lon="-4.51082">
        <ele>14</ele>
        <time>2022-06-03T12:37:14.977Z</time>
      </trkpt>
      <trkpt lat="48.03592" lon="-4.5109">
        <ele>14</ele>
        <time>2022-06-03T12:37:19.966Z</time>
      </trkpt>
      <trkpt lat="48.03593" lon="-4.51099">
        <ele>13</ele>
        <time>2022-06-03T12:37:23.986Z</time>
      </trkpt>
      <trkpt lat="48.03594" lon="-4.51107">
        <ele>13</ele>
        <time>2022-06-03T12:37:28.974Z</time>
      </trkpt>
      <trkpt lat="48.03596" lon="-4.51114">
        <ele>13</ele>
        <time>2022-06-03T12:37:32.988Z</time>
      </trkpt>
      <trkpt lat="48.03597" lon="-4.5112">
        <ele>13</ele>
        <time>2022-06-03T12:37:36.995Z</time>
      </trkpt>
      <trkpt lat="48.03599" lon="-4.51127">
        <ele>6</ele>
        <time>2022-06-03T12:37:40.994Z</time>
      </trkpt>
      <trkpt lat="48.036" lon="-4.51135">
        <ele>6</ele>
        <time>2022-06-03T12:37:45.990Z</time>
      </trkpt>
      <trkpt lat="48.03602" lon="-4.5114">
        <ele>6</ele>
        <time>2022-06-03T12:37:50.007Z</time>
      </trkpt>
      <trkpt lat="48.03605" lon="-4.51147">
        <ele>6</ele>
        <time>2022-06-03T12:37:54.997Z</time>
      </trkpt>
      <trkpt lat="48.03608" lon="-4.51152">
        <ele>6</ele>
        <time>2022-06-03T12:37:59.984Z</time>
      </trkpt>
      <trkpt lat="48.03612" lon="-4.51159">
        <ele>6</ele>
        <time>2022-06-03T12:38:04.970Z</time>
      </trkpt>
      <trkpt lat="48.03616" lon="-4.51167">
        <ele>6</ele>
        <time>2022-06-03T12:38:08.982Z</time>
      </trkpt>
      <trkpt lat="48.03619" lon="-4.51172">
        <ele>6</ele>
        <time>2022-06-03T12:38:12.965Z</time>
      </trkpt>
      <trkpt lat="48.03622" lon="-4.51177">
        <ele>6</ele>
        <time>2022-06-03T12:38:16.986Z</time>
      </trkpt>
      <trkpt lat="48.03626" lon="-4.51182">
        <ele>3</ele>
        <time>2022-06-03T12:38:21.995Z</time>
      </trkpt>
      <trkpt lat="48.0363" lon="-4.51185">
        <ele>3</ele>
        <time>2022-06-03T12:38:26.998Z</time>
      </trkpt>
      <trkpt lat="48.03633" lon="-4.51189">
        <ele>3</ele>
        <time>2022-06-03T12:38:31.990Z</time>
      </trkpt>
      <trkpt lat="48.03634" lon="-4.51194">
        <ele>3</ele>
        <time>2022-06-03T12:38:35.990Z</time>
      </trkpt>
      <trkpt lat="48.03635" lon="-4.51202">
        <ele>3</ele>
        <time>2022-06-03T12:38:41.001Z</time>
      </trkpt>
      <trkpt lat="48.03637" lon="-4.51209">
        <ele>3</ele>
        <time>2022-06-03T12:38:45.984Z</time>
      </trkpt>
      <trkpt lat="48.03639" lon="-4.51215">
        <ele>3</ele>
        <time>2022-06-03T12:38:50.974Z</time>
      </trkpt>
      <trkpt lat="48.03643" lon="-4.51222">
        <ele>3</ele>
        <time>2022-06-03T12:38:55.981Z</time>
      </trkpt>
      <trkpt lat="48.03645" lon="-4.51225">
        <ele>3</ele>
        <time>2022-06-03T12:38:59.982Z</time>
      </trkpt>
      <trkpt lat="48.03646" lon="-4.51232">
        <ele>3</ele>
        <time>2022-06-03T12:39:04.959Z</time>
      </trkpt>
      <trkpt lat="48.03647" lon="-4.51236">
        <ele>3</ele>
        <time>2022-06-03T12:39:08.995Z</time>
      </trkpt>
      <trkpt lat="48.03647" lon="-4.51243">
        <ele>4</ele>
        <time>2022-06-03T12:43:29.983Z</time>
      </trkpt>
      <trkpt lat="48.03646" lon="-4.51244">
        <ele>4</ele>
        <time>2022-06-03T12:43:34.970Z</time>
      </trkpt>
      <trkpt lat="48.03647" lon="-4.51248">
        <ele>4</ele>
        <time>2022-06-03T12:43:38.986Z</time>
      </trkpt>
      <trkpt lat="48.03648" lon="-4.51251">
        <ele>4</ele>
        <time>2022-06-03T12:43:42.985Z</time>
      </trkpt>
      <trkpt lat="48.03649" lon="-4.51256">
        <ele>4</ele>
        <time>2022-06-03T12:43:47.991Z</time>
      </trkpt>
      <trkpt lat="48.03649" lon="-4.51257">
        <ele>4</ele>
        <time>2022-06-03T12:46:05.013Z</time>
      </trkpt>
      <trkpt lat="48.03649" lon="-4.51258">
        <ele>4</ele>
        <time>2022-06-03T12:46:09.991Z</time>
      </trkpt>
      <trkpt lat="48.03648" lon="-4.51259">
        <ele>4</ele>
        <time>2022-06-03T12:46:14.987Z</time>
      </trkpt>
      <trkpt lat="48.0365" lon="-4.51267">
        <ele>5</ele>
        <time>2022-06-03T12:46:19.967Z</time>
      </trkpt>
      <trkpt lat="48.03652" lon="-4.51273">
        <ele>5</ele>
        <time>2022-06-03T12:46:23.989Z</time>
      </trkpt>
      <trkpt lat="48.03654" lon="-4.51281">
        <ele>3.7</ele>
        <time>2022-06-03T12:46:28.993Z</time>
      </trkpt>
      <trkpt lat="48.03657" lon="-4.51286">
        <ele>4</ele>
        <time>2022-06-03T12:46:33.979Z</time>
      </trkpt>
      <trkpt lat="48.03659" lon="-4.51292">
        <ele>4.4</ele>
        <time>2022-06-03T12:46:38.007Z</time>
      </trkpt>
      <trkpt lat="48.03662" lon="-4.51298">
        <ele>5.1</ele>
        <time>2022-06-03T12:46:42.997Z</time>
      </trkpt>
      <trkpt lat="48.03664" lon="-4.51303">
        <ele>5.6</ele>
        <time>2022-06-03T12:46:47Z</time>
      </trkpt>
      <trkpt lat="48.03667" lon="-4.51311">
        <ele>5.9</ele>
        <time>2022-06-03T12:46:51.994Z</time>
      </trkpt>
      <trkpt lat="48.03669" lon="-4.51319">
        <ele>5.5</ele>
        <time>2022-06-03T12:46:56.969Z</time>
      </trkpt>
      <trkpt lat="48.03672" lon="-4.51326">
        <ele>5</ele>
        <time>2022-06-03T12:47:00.989Z</time>
      </trkpt>
      <trkpt lat="48.03674" lon="-4.51334">
        <ele>4.7</ele>
        <time>2022-06-03T12:47:05.973Z</time>
      </trkpt>
      <trkpt lat="48.03676" lon="-4.51343">
        <ele>4.3</ele>
        <time>2022-06-03T12:47:11.013Z</time>
      </trkpt>
      <trkpt lat="48.03679" lon="-4.51348">
        <ele>3.8</ele>
        <time>2022-06-03T12:47:16Z</time>
      </trkpt>
      <trkpt lat="48.0368" lon="-4.51356">
        <ele>3.6</ele>
        <time>2022-06-03T12:47:21.002Z</time>
      </trkpt>
      <trkpt lat="48.03678" lon="-4.51366">
        <ele>4</ele>
        <time>2022-06-03T12:47:25.995Z</time>
      </trkpt>
      <trkpt lat="48.03679" lon="-4.51376">
        <ele>3.9</ele>
        <time>2022-06-03T12:47:30.985Z</time>
      </trkpt>
      <trkpt lat="48.03677" lon="-4.51386">
        <ele>4.1</ele>
        <time>2022-06-03T12:47:36.010Z</time>
      </trkpt>
      <trkpt lat="48.03675" lon="-4.51396">
        <ele>4.4</ele>
        <time>2022-06-03T12:47:40.975Z</time>
      </trkpt>
      <trkpt lat="48.03675" lon="-4.51405">
        <ele>4.6</ele>
        <time>2022-06-03T12:47:45.967Z</time>
      </trkpt>
      <trkpt lat="48.03675" lon="-4.51413">
        <ele>4.5</ele>
        <time>2022-06-03T12:47:50.971Z</time>
      </trkpt>
      <trkpt lat="48.03677" lon="-4.51417">
        <ele>4.2</ele>
        <time>2022-06-03T12:47:55.976Z</time>
      </trkpt>
      <trkpt lat="48.03677" lon="-4.51426">
        <ele>4.1</ele>
        <time>2022-06-03T12:48:00.989Z</time>
      </trkpt>
      <trkpt lat="48.03677" lon="-4.51433">
        <ele>4</ele>
        <time>2022-06-03T12:48:04.977Z</time>
      </trkpt>
      <trkpt lat="48.03677" lon="-4.51439">
        <ele>4</ele>
        <time>2022-06-03T12:48:09.015Z</time>
      </trkpt>
      <trkpt lat="48.03677" lon="-4.51447">
        <ele>4</ele>
        <time>2022-06-03T12:48:13.966Z</time>
      </trkpt>
      <trkpt lat="48.03676" lon="-4.51453">
        <ele>4</ele>
        <time>2022-06-03T12:48:17.976Z</time>
      </trkpt>
      <trkpt lat="48.03676" lon="-4.51464">
        <ele>3</ele>
        <time>2022-06-03T12:48:22.972Z</time>
      </trkpt>
      <trkpt lat="48.03676" lon="-4.51471">
        <ele>3</ele>
        <time>2022-06-03T12:48:26.986Z</time>
      </trkpt>
      <trkpt lat="48.03677" lon="-4.51478">
        <ele>3</ele>
        <time>2022-06-03T12:48:30.982Z</time>
      </trkpt>
      <trkpt lat="48.03679" lon="-4.51486">
        <ele>3</ele>
        <time>2022-06-03T12:48:35.009Z</time>
      </trkpt>
      <trkpt lat="48.0368" lon="-4.51496">
        <ele>3</ele>
        <time>2022-06-03T12:48:39.963Z</time>
      </trkpt>
      <trkpt lat="48.0368" lon="-4.51505">
        <ele>3</ele>
        <time>2022-06-03T12:48:44.979Z</time>
      </trkpt>
      <trkpt lat="48.03682" lon="-4.51515">
        <ele>2.5</ele>
        <time>2022-06-03T12:48:49.972Z</time>
      </trkpt>
      <trkpt lat="48.03684" lon="-4.51522">
        <ele>2.4</ele>
        <time>2022-06-03T12:48:53.973Z</time>
      </trkpt>
      <trkpt lat="48.03684" lon="-4.5153">
        <ele>2.4</ele>
        <time>2022-06-03T12:48:59.010Z</time>
      </trkpt>
      <trkpt lat="48.03685" lon="-4.51541">
        <ele>2.4</ele>
        <time>2022-06-03T12:49:03.986Z</time>
      </trkpt>
      <trkpt lat="48.03684" lon="-4.51548">
        <ele>2.5</ele>
        <time>2022-06-03T12:49:07.994Z</time>
      </trkpt>
      <trkpt lat="48.03684" lon="-4.51555">
        <ele>2.6</ele>
        <time>2022-06-03T12:49:12.982Z</time>
      </trkpt>
      <trkpt lat="48.03683" lon="-4.51566">
        <ele>2.7</ele>
        <time>2022-06-03T12:49:17.977Z</time>
      </trkpt>
      <trkpt lat="48.03684" lon="-4.51572">
        <ele>2.8</ele>
        <time>2022-06-03T12:49:21.985Z</time>
      </trkpt>
      <trkpt lat="48.03683" lon="-4.5158">
        <ele>2.9</ele>
        <time>2022-06-03T12:49:26.001Z</time>
      </trkpt>
      <trkpt lat="48.03682" lon="-4.51587">
        <ele>3.3</ele>
        <time>2022-06-03T12:49:30.968Z</time>
      </trkpt>
      <trkpt lat="48.03681" lon="-4.51596">
        <ele>4</ele>
        <time>2022-06-03T12:49:35.985Z</time>
      </trkpt>
      <trkpt lat="48.03679" lon="-4.51602">
        <ele>3</ele>
        <time>2022-06-03T12:49:39.982Z</time>
      </trkpt>
      <trkpt lat="48.03677" lon="-4.51611">
        <ele>3</ele>
        <time>2022-06-03T12:49:44.973Z</time>
      </trkpt>
      <trkpt lat="48.03676" lon="-4.51618">
        <ele>3</ele>
        <time>2022-06-03T12:49:49Z</time>
      </trkpt>
      <trkpt lat="48.03675" lon="-4.51628">
        <ele>4</ele>
        <time>2022-06-03T12:49:53.998Z</time>
      </trkpt>
      <trkpt lat="48.03673" lon="-4.51637">
        <ele>4</ele>
        <time>2022-06-03T12:49:58.975Z</time>
      </trkpt>
      <trkpt lat="48.03669" lon="-4.51645">
        <ele>4</ele>
        <time>2022-06-03T12:50:03.977Z</time>
      </trkpt>
      <trkpt lat="48.03667" lon="-4.51648">
        <ele>4</ele>
        <time>2022-06-03T12:50:07.980Z</time>
      </trkpt>
      <trkpt lat="48.03666" lon="-4.51655">
        <ele>5</ele>
        <time>2022-06-03T12:50:12.985Z</time>
      </trkpt>
      <trkpt lat="48.03662" lon="-4.51661">
        <ele>5</ele>
        <time>2022-06-03T12:50:17.976Z</time>
      </trkpt>
      <trkpt lat="48.0366" lon="-4.51668">
        <ele>5</ele>
        <time>2022-06-03T12:50:22.969Z</time>
      </trkpt>
      <trkpt lat="48.0366" lon="-4.51676">
        <ele>5</ele>
        <time>2022-06-03T12:50:26.982Z</time>
      </trkpt>
      <trkpt lat="48.0366" lon="-4.51684">
        <ele>6</ele>
        <time>2022-06-03T12:50:31.959Z</time>
      </trkpt>
      <trkpt lat="48.03656" lon="-4.51691">
        <ele>6</ele>
        <time>2022-06-03T12:50:36.972Z</time>
      </trkpt>
      <trkpt lat="48.03656" lon="-4.517">
        <ele>6</ele>
        <time>2022-06-03T12:50:41.952Z</time>
      </trkpt>
      <trkpt lat="48.03654" lon="-4.51706">
        <ele>6</ele>
        <time>2022-06-03T12:50:45.976Z</time>
      </trkpt>
      <trkpt lat="48.03651" lon="-4.51713">
        <ele>8</ele>
        <time>2022-06-03T12:50:49.971Z</time>
      </trkpt>
      <trkpt lat="48.03648" lon="-4.51721">
        <ele>8</ele>
        <time>2022-06-03T12:50:54.956Z</time>
      </trkpt>
      <trkpt lat="48.03647" lon="-4.51726">
        <ele>8</ele>
        <time>2022-06-03T12:50:58.958Z</time>
      </trkpt>
      <trkpt lat="48.03645" lon="-4.51733">
        <ele>8</ele>
        <time>2022-06-03T12:51:02.972Z</time>
      </trkpt>
      <trkpt lat="48.03644" lon="-4.51745">
        <ele>7</ele>
        <time>2022-06-03T12:51:07.967Z</time>
      </trkpt>
      <trkpt lat="48.03643" lon="-4.51753">
        <ele>7</ele>
        <time>2022-06-03T12:51:11.958Z</time>
      </trkpt>
      <trkpt lat="48.03641" lon="-4.51762">
        <ele>7</ele>
        <time>2022-06-03T12:51:16.987Z</time>
      </trkpt>
      <trkpt lat="48.03641" lon="-4.51769">
        <ele>6</ele>
        <time>2022-06-03T12:51:21.952Z</time>
      </trkpt>
      <trkpt lat="48.03638" lon="-4.51776">
        <ele>6</ele>
        <time>2022-06-03T12:51:25.965Z</time>
      </trkpt>
      <trkpt lat="48.03637" lon="-4.51783">
        <ele>6</ele>
        <time>2022-06-03T12:51:29.967Z</time>
      </trkpt>
      <trkpt lat="48.03636" lon="-4.51789">
        <ele>6</ele>
        <time>2022-06-03T12:51:33.974Z</time>
      </trkpt>
      <trkpt lat="48.03634" lon="-4.51797">
        <ele>4</ele>
        <time>2022-06-03T12:51:38.967Z</time>
      </trkpt>
      <trkpt lat="48.03633" lon="-4.51803">
        <ele>4</ele>
        <time>2022-06-03T12:51:43.971Z</time>
      </trkpt>
      <trkpt lat="48.03633" lon="-4.5181">
        <ele>4</ele>
        <time>2022-06-03T12:51:48.987Z</time>
      </trkpt>
      <trkpt lat="48.03631" lon="-4.51819">
        <ele>4</ele>
        <time>2022-06-03T12:51:53.983Z</time>
      </trkpt>
      <trkpt lat="48.0363" lon="-4.51826">
        <ele>2</ele>
        <time>2022-06-03T12:51:58.973Z</time>
      </trkpt>
      <trkpt lat="48.03629" lon="-4.51834">
        <ele>2</ele>
        <time>2022-06-03T12:52:03.975Z</time>
      </trkpt>
      <trkpt lat="48.03626" lon="-4.51841">
        <ele>2</ele>
        <time>2022-06-03T12:52:07.979Z</time>
      </trkpt>
      <trkpt lat="48.03624" lon="-4.51845">
        <ele>10</ele>
        <time>2022-06-03T12:52:11.982Z</time>
      </trkpt>
      <trkpt lat="48.03623" lon="-4.51853">
        <ele>9</ele>
        <time>2022-06-03T12:52:16.988Z</time>
      </trkpt>
      <trkpt lat="48.03622" lon="-4.51861">
        <ele>9</ele>
        <time>2022-06-03T12:52:21.964Z</time>
      </trkpt>
      <trkpt lat="48.03622" lon="-4.51867">
        <ele>9</ele>
        <time>2022-06-03T12:52:25.981Z</time>
      </trkpt>
      <trkpt lat="48.0362" lon="-4.51873">
        <ele>9</ele>
        <time>2022-06-03T12:52:30.975Z</time>
      </trkpt>
      <trkpt lat="48.0362" lon="-4.51881">
        <ele>8</ele>
        <time>2022-06-03T12:52:35.973Z</time>
      </trkpt>
      <trkpt lat="48.0362" lon="-4.51892">
        <ele>8</ele>
        <time>2022-06-03T12:52:41.010Z</time>
      </trkpt>
      <trkpt lat="48.03622" lon="-4.51901">
        <ele>8</ele>
        <time>2022-06-03T12:52:45.940Z</time>
      </trkpt>
      <trkpt lat="48.03624" lon="-4.51909">
        <ele>8</ele>
        <time>2022-06-03T12:52:49.974Z</time>
      </trkpt>
      <trkpt lat="48.03624" lon="-4.51917">
        <ele>8</ele>
        <time>2022-06-03T12:52:54.992Z</time>
      </trkpt>
      <trkpt lat="48.03625" lon="-4.51926">
        <ele>8</ele>
        <time>2022-06-03T12:52:59.976Z</time>
      </trkpt>
      <trkpt lat="48.03624" lon="-4.51934">
        <ele>6</ele>
        <time>2022-06-03T12:53:04.983Z</time>
      </trkpt>
      <trkpt lat="48.03624" lon="-4.51939">
        <ele>6</ele>
        <time>2022-06-03T12:53:09.016Z</time>
      </trkpt>
      <trkpt lat="48.03626" lon="-4.51948">
        <ele>1</ele>
        <time>2022-06-03T12:53:13.973Z</time>
      </trkpt>
      <trkpt lat="48.03628" lon="-4.51954">
        <ele>1</ele>
        <time>2022-06-03T12:53:17.979Z</time>
      </trkpt>
      <trkpt lat="48.03628" lon="-4.51961">
        <ele>1</ele>
        <time>2022-06-03T12:53:21.999Z</time>
      </trkpt>
      <trkpt lat="48.03628" lon="-4.51971">
        <ele>1</ele>
        <time>2022-06-03T12:53:26.996Z</time>
      </trkpt>
      <trkpt lat="48.03627" lon="-4.51978">
        <ele>1</ele>
        <time>2022-06-03T12:53:31.997Z</time>
      </trkpt>
      <trkpt lat="48.03625" lon="-4.51983">
        <ele>1</ele>
        <time>2022-06-03T12:53:35.989Z</time>
      </trkpt>
      <trkpt lat="48.03626" lon="-4.51993">
        <ele>3</ele>
        <time>2022-06-03T12:53:40.994Z</time>
      </trkpt>
      <trkpt lat="48.03625" lon="-4.52001">
        <ele>3</ele>
        <time>2022-06-03T12:53:45.958Z</time>
      </trkpt>
      <trkpt lat="48.03626" lon="-4.52007">
        <ele>3</ele>
        <time>2022-06-03T12:53:49.973Z</time>
      </trkpt>
      <trkpt lat="48.03628" lon="-4.52014">
        <ele>3</ele>
        <time>2022-06-03T12:53:53.969Z</time>
      </trkpt>
      <trkpt lat="48.03629" lon="-4.5202">
        <ele>5</ele>
        <time>2022-06-03T12:53:57.987Z</time>
      </trkpt>
      <trkpt lat="48.03631" lon="-4.52031">
        <ele>5</ele>
        <time>2022-06-03T12:54:02.985Z</time>
      </trkpt>
      <trkpt lat="48.03633" lon="-4.52038">
        <ele>5</ele>
        <time>2022-06-03T12:54:07.985Z</time>
      </trkpt>
      <trkpt lat="48.03634" lon="-4.52045">
        <ele>7</ele>
        <time>2022-06-03T12:54:12.985Z</time>
      </trkpt>
      <trkpt lat="48.03635" lon="-4.52049">
        <ele>7</ele>
        <time>2022-06-03T12:54:16.994Z</time>
      </trkpt>
      <trkpt lat="48.03635" lon="-4.52058">
        <ele>7</ele>
        <time>2022-06-03T12:54:21.979Z</time>
      </trkpt>
      <trkpt lat="48.03634" lon="-4.52063">
        <ele>7</ele>
        <time>2022-06-03T12:54:26.979Z</time>
      </trkpt>
      <trkpt lat="48.03634" lon="-4.52069">
        <ele>7</ele>
        <time>2022-06-03T12:54:31.998Z</time>
      </trkpt>
      <trkpt lat="48.03634" lon="-4.52074">
        <ele>7</ele>
        <time>2022-06-03T12:54:36.976Z</time>
      </trkpt>
      <trkpt lat="48.03635" lon="-4.52079">
        <ele>7</ele>
        <time>2022-06-03T12:54:41.005Z</time>
      </trkpt>
      <trkpt lat="48.03637" lon="-4.52085">
        <ele>7</ele>
        <time>2022-06-03T12:54:45.974Z</time>
      </trkpt>
      <trkpt lat="48.03638" lon="-4.5209">
        <ele>7</ele>
        <time>2022-06-03T12:54:50.007Z</time>
      </trkpt>
      <trkpt lat="48.03639" lon="-4.521">
        <ele>6</ele>
        <time>2022-06-03T12:54:54.011Z</time>
      </trkpt>
      <trkpt lat="48.03639" lon="-4.52108">
        <ele>6</ele>
        <time>2022-06-03T12:54:58.982Z</time>
      </trkpt>
      <trkpt lat="48.03639" lon="-4.52116">
        <ele>6</ele>
        <time>2022-06-03T12:55:02.982Z</time>
      </trkpt>
      <trkpt lat="48.03639" lon="-4.52122">
        <ele>6</ele>
        <time>2022-06-03T12:55:07.967Z</time>
      </trkpt>
      <trkpt lat="48.03638" lon="-4.52128">
        <ele>5</ele>
        <time>2022-06-03T12:55:11.978Z</time>
      </trkpt>
      <trkpt lat="48.03637" lon="-4.52137">
        <ele>5</ele>
        <time>2022-06-03T12:55:16.999Z</time>
      </trkpt>
      <trkpt lat="48.03637" lon="-4.52138">
        <ele>5</ele>
        <time>2022-06-03T12:55:21.981Z</time>
      </trkpt>
      <trkpt lat="48.03636" lon="-4.52148">
        <ele>5</ele>
        <time>2022-06-03T12:55:30.981Z</time>
      </trkpt>
      <trkpt lat="48.03635" lon="-4.52148">
        <ele>5</ele>
        <time>2022-06-03T12:55:35.967Z</time>
      </trkpt>
      <trkpt lat="48.03635" lon="-4.52149">
        <ele>5</ele>
        <time>2022-06-03T12:55:40.995Z</time>
      </trkpt>
      <trkpt lat="48.03635" lon="-4.52151">
        <ele>5</ele>
        <time>2022-06-03T12:55:45.980Z</time>
      </trkpt>
      <trkpt lat="48.03632" lon="-4.52156">
        <ele>6</ele>
        <time>2022-06-03T12:55:50.977Z</time>
      </trkpt>
      <trkpt lat="48.03629" lon="-4.52161">
        <ele>6</ele>
        <time>2022-06-03T12:55:54.979Z</time>
      </trkpt>
      <trkpt lat="48.03627" lon="-4.52164">
        <ele>6</ele>
        <time>2022-06-03T12:55:59.963Z</time>
      </trkpt>
      <trkpt lat="48.03626" lon="-4.52165">
        <ele>6</ele>
        <time>2022-06-03T12:56:03.962Z</time>
      </trkpt>
      <trkpt lat="48.03624" lon="-4.52169">
        <ele>12</ele>
        <time>2022-06-03T12:56:08.982Z</time>
      </trkpt>
      <trkpt lat="48.03623" lon="-4.52175">
        <ele>12</ele>
        <time>2022-06-03T12:56:13.972Z</time>
      </trkpt>
      <trkpt lat="48.03625" lon="-4.5218">
        <ele>12</ele>
        <time>2022-06-03T12:56:18.985Z</time>
      </trkpt>
      <trkpt lat="48.03628" lon="-4.52185">
        <ele>9</ele>
        <time>2022-06-03T12:56:23.981Z</time>
      </trkpt>
      <trkpt lat="48.03632" lon="-4.52189">
        <ele>9</ele>
        <time>2022-06-03T12:56:28.982Z</time>
      </trkpt>
      <trkpt lat="48.03635" lon="-4.52194">
        <ele>9</ele>
        <time>2022-06-03T12:56:33Z</time>
      </trkpt>
      <trkpt lat="48.03636" lon="-4.52215">
        <ele>11</ele>
        <time>2022-06-03T12:56:55.969Z</time>
      </trkpt>
      <trkpt lat="48.03635" lon="-4.52218">
        <ele>11</ele>
        <time>2022-06-03T12:56:59.983Z</time>
      </trkpt>
      <trkpt lat="48.03636" lon="-4.52219">
        <ele>11</ele>
        <time>2022-06-03T12:57:04.965Z</time>
      </trkpt>
      <trkpt lat="48.03636" lon="-4.52219">
        <ele>11</ele>
        <time>2022-06-03T12:57:08.970Z</time>
      </trkpt>
      <trkpt lat="48.03635" lon="-4.5222">
        <ele>11</ele>
        <time>2022-06-03T12:57:13.972Z</time>
      </trkpt>
      <trkpt lat="48.03635" lon="-4.52222">
        <ele>11</ele>
        <time>2022-06-03T12:57:56.985Z</time>
      </trkpt>
      <trkpt lat="48.0364" lon="-4.52222">
        <ele>11</ele>
        <time>2022-06-03T12:58:01.950Z</time>
      </trkpt>
      <trkpt lat="48.03643" lon="-4.52221">
        <ele>11</ele>
        <time>2022-06-03T12:58:05.971Z</time>
      </trkpt>
      <trkpt lat="48.03644" lon="-4.52222">
        <ele>11</ele>
        <time>2022-06-03T12:58:09.960Z</time>
      </trkpt>
      <trkpt lat="48.03647" lon="-4.52223">
        <ele>11</ele>
        <time>2022-06-03T12:58:13.967Z</time>
      </trkpt>
      <trkpt lat="48.0365" lon="-4.52227">
        <ele>11</ele>
        <time>2022-06-03T12:58:17.983Z</time>
      </trkpt>
      <trkpt lat="48.03653" lon="-4.52235">
        <ele>6.9</ele>
        <time>2022-06-03T12:58:22.990Z</time>
      </trkpt>
      <trkpt lat="48.03654" lon="-4.52236">
        <ele>7</ele>
        <time>2022-06-03T12:58:26.994Z</time>
      </trkpt>
      <trkpt lat="48.03655" lon="-4.52241">
        <ele>7.4</ele>
        <time>2022-06-03T12:58:31.965Z</time>
      </trkpt>
      <trkpt lat="48.03654" lon="-4.52245">
        <ele>7.6</ele>
        <time>2022-06-03T12:58:36.976Z</time>
      </trkpt>
      <trkpt lat="48.03655" lon="-4.52248">
        <ele>7.8</ele>
        <time>2022-06-03T12:58:40.975Z</time>
      </trkpt>
      <trkpt lat="48.03657" lon="-4.52253">
        <ele>7.5</ele>
        <time>2022-06-03T12:58:45.972Z</time>
      </trkpt>
      <trkpt lat="48.03658" lon="-4.52258">
        <ele>6.8</ele>
        <time>2022-06-03T12:58:50.970Z</time>
      </trkpt>
      <trkpt lat="48.03656" lon="-4.52259">
        <ele>6.9</ele>
        <time>2022-06-03T13:00:02.982Z</time>
      </trkpt>
      <trkpt lat="48.03657" lon="-4.52264">
        <ele>6.1</ele>
        <time>2022-06-03T13:00:06.979Z</time>
      </trkpt>
      <trkpt lat="48.03657" lon="-4.52269">
        <ele>12</ele>
        <time>2022-06-03T13:00:11.976Z</time>
      </trkpt>
      <trkpt lat="48.03659" lon="-4.52272">
        <ele>12</ele>
        <time>2022-06-03T13:00:15.977Z</time>
      </trkpt>
      <trkpt lat="48.03659" lon="-4.52278">
        <ele>12</ele>
        <time>2022-06-03T13:00:20.984Z</time>
      </trkpt>
      <trkpt lat="48.03659" lon="-4.52282">
        <ele>12</ele>
        <time>2022-06-03T13:00:24.983Z</time>
      </trkpt>
      <trkpt lat="48.03658" lon="-4.52286">
        <ele>12</ele>
        <time>2022-06-03T13:00:28.978Z</time>
      </trkpt>
      <trkpt lat="48.03658" lon="-4.52292">
        <ele>12</ele>
        <time>2022-06-03T13:00:33.982Z</time>
      </trkpt>
      <trkpt lat="48.03661" lon="-4.52298">
        <ele>12</ele>
        <time>2022-06-03T13:00:38.977Z</time>
      </trkpt>
      <trkpt lat="48.03662" lon="-4.52305">
        <ele>12</ele>
        <time>2022-06-03T13:00:43.965Z</time>
      </trkpt>
      <trkpt lat="48.03661" lon="-4.52309">
        <ele>12</ele>
        <time>2022-06-03T13:00:47.981Z</time>
      </trkpt>
      <trkpt lat="48.03662" lon="-4.52313">
        <ele>12</ele>
        <time>2022-06-03T13:00:52.949Z</time>
      </trkpt>
      <trkpt lat="48.03663" lon="-4.52317">
        <ele>12</ele>
        <time>2022-06-03T13:00:56.989Z</time>
      </trkpt>
      <trkpt lat="48.03661" lon="-4.52322">
        <ele>9</ele>
        <time>2022-06-03T13:01:01.962Z</time>
      </trkpt>
      <trkpt lat="48.03661" lon="-4.52328">
        <ele>9</ele>
        <time>2022-06-03T13:01:06.982Z</time>
      </trkpt>
      <trkpt lat="48.03661" lon="-4.52335">
        <ele>9</ele>
        <time>2022-06-03T13:01:11.990Z</time>
      </trkpt>
      <trkpt lat="48.03662" lon="-4.52342">
        <ele>9</ele>
        <time>2022-06-03T13:01:16.968Z</time>
      </trkpt>
      <trkpt lat="48.03661" lon="-4.52346">
        <ele>9</ele>
        <time>2022-06-03T13:01:21.933Z</time>
      </trkpt>
      <trkpt lat="48.03655" lon="-4.52345">
        <ele>9</ele>
        <time>2022-06-03T13:01:25.937Z</time>
      </trkpt>
      <trkpt lat="48.03655" lon="-4.52349">
        <ele>6</ele>
        <time>2022-06-03T13:01:30.947Z</time>
      </trkpt>
      <trkpt lat="48.03652" lon="-4.52352">
        <ele>20</ele>
        <time>2022-06-03T13:01:35.941Z</time>
      </trkpt>
      <trkpt lat="48.03653" lon="-4.52357">
        <ele>6</ele>
        <time>2022-06-03T13:01:40.947Z</time>
      </trkpt>
      <trkpt lat="48.03654" lon="-4.52361">
        <ele>6</ele>
        <time>2022-06-03T13:01:44.946Z</time>
      </trkpt>
      <trkpt lat="48.03653" lon="-4.52369">
        <ele>6</ele>
        <time>2022-06-03T13:01:49.952Z</time>
      </trkpt>
      <trkpt lat="48.03655" lon="-4.52378">
        <ele>4</ele>
        <time>2022-06-03T13:01:54.944Z</time>
      </trkpt>
      <trkpt lat="48.03657" lon="-4.52384">
        <ele>4</ele>
        <time>2022-06-03T13:01:58.955Z</time>
      </trkpt>
      <trkpt lat="48.03657" lon="-4.52389">
        <ele>4</ele>
        <time>2022-06-03T13:02:02.963Z</time>
      </trkpt>
      <trkpt lat="48.03657" lon="-4.52394">
        <ele>4</ele>
        <time>2022-06-03T13:02:06.958Z</time>
      </trkpt>
      <trkpt lat="48.03657" lon="-4.52398">
        <ele>4</ele>
        <time>2022-06-03T13:02:11.952Z</time>
      </trkpt>
      <trkpt lat="48.03658" lon="-4.52402">
        <ele>4</ele>
        <time>2022-06-03T13:02:15.966Z</time>
      </trkpt>
      <trkpt lat="48.03658" lon="-4.52408">
        <ele>1</ele>
        <time>2022-06-03T13:02:19.983Z</time>
      </trkpt>
      <trkpt lat="48.03658" lon="-4.52412">
        <ele>1</ele>
        <time>2022-06-03T13:02:24.963Z</time>
      </trkpt>
      <trkpt lat="48.03658" lon="-4.52419">
        <ele>1</ele>
        <time>2022-06-03T13:02:29.940Z</time>
      </trkpt>
      <trkpt lat="48.03655" lon="-4.52422">
        <ele>1</ele>
        <time>2022-06-03T13:02:34.941Z</time>
      </trkpt>
      <trkpt lat="48.03652" lon="-4.52423">
        <ele>13</ele>
        <time>2022-06-03T13:02:38.941Z</time>
      </trkpt>
      <trkpt lat="48.03646" lon="-4.52429">
        <ele>13</ele>
        <time>2022-06-03T13:02:43.953Z</time>
      </trkpt>
      <trkpt lat="48.03646" lon="-4.52434">
        <ele>11</ele>
        <time>2022-06-03T13:02:47.950Z</time>
      </trkpt>
      <trkpt lat="48.03647" lon="-4.52441">
        <ele>11</ele>
        <time>2022-06-03T13:02:52.951Z</time>
      </trkpt>
      <trkpt lat="48.03647" lon="-4.52446">
        <ele>11</ele>
        <time>2022-06-03T13:02:56.950Z</time>
      </trkpt>
      <trkpt lat="48.03647" lon="-4.52451">
        <ele>11</ele>
        <time>2022-06-03T13:03:00.961Z</time>
      </trkpt>
      <trkpt lat="48.03646" lon="-4.5246">
        <ele>9</ele>
        <time>2022-06-03T13:03:05.936Z</time>
      </trkpt>
      <trkpt lat="48.03647" lon="-4.52466">
        <ele>9</ele>
        <time>2022-06-03T13:03:09.945Z</time>
      </trkpt>
      <trkpt lat="48.03645" lon="-4.52469">
        <ele>9</ele>
        <time>2022-06-03T13:03:13.965Z</time>
      </trkpt>
      <trkpt lat="48.03645" lon="-4.52471">
        <ele>9</ele>
        <time>2022-06-03T13:03:18.952Z</time>
      </trkpt>
      <trkpt lat="48.03645" lon="-4.52476">
        <ele>9</ele>
        <time>2022-06-03T13:03:23.940Z</time>
      </trkpt>
      <trkpt lat="48.03645" lon="-4.5248">
        <ele>9</ele>
        <time>2022-06-03T13:03:27.945Z</time>
      </trkpt>
      <trkpt lat="48.03645" lon="-4.52483">
        <ele>9</ele>
        <time>2022-06-03T13:03:31.965Z</time>
      </trkpt>
      <trkpt lat="48.03643" lon="-4.52486">
        <ele>9</ele>
        <time>2022-06-03T13:03:36.944Z</time>
      </trkpt>
      <trkpt lat="48.03642" lon="-4.52499">
        <ele>7</ele>
        <time>2022-06-03T13:03:51.935Z</time>
      </trkpt>
      <trkpt lat="48.03642" lon="-4.52502">
        <ele>7</ele>
        <time>2022-06-03T13:03:55.941Z</time>
      </trkpt>
      <trkpt lat="48.03642" lon="-4.52507">
        <ele>7</ele>
        <time>2022-06-03T13:03:59.939Z</time>
      </trkpt>
      <trkpt lat="48.03642" lon="-4.52512">
        <ele>7</ele>
        <time>2022-06-03T13:04:04.949Z</time>
      </trkpt>
      <trkpt lat="48.03641" lon="-4.52517">
        <ele>7.1</ele>
        <time>2022-06-03T13:04:09.941Z</time>
      </trkpt>
      <trkpt lat="48.03634" lon="-4.52525">
        <ele>8.2</ele>
        <time>2022-06-03T13:04:23.939Z</time>
      </trkpt>
      <trkpt lat="48.03635" lon="-4.52528">
        <ele>7.6</ele>
        <time>2022-06-03T13:04:27.951Z</time>
      </trkpt>
      <trkpt lat="48.03635" lon="-4.52529">
        <ele>7.1</ele>
        <time>2022-06-03T13:04:31.944Z</time>
      </trkpt>
      <trkpt lat="48.03636" lon="-4.5253">
        <ele>7</ele>
        <time>2022-06-03T13:04:35.947Z</time>
      </trkpt>
      <trkpt lat="48.03636" lon="-4.52534">
        <ele>6.7</ele>
        <time>2022-06-03T13:04:40.946Z</time>
      </trkpt>
      <trkpt lat="48.03637" lon="-4.52539">
        <ele>5.7</ele>
        <time>2022-06-03T13:04:45.944Z</time>
      </trkpt>
      <trkpt lat="48.03637" lon="-4.52548">
        <ele>5.2</ele>
        <time>2022-06-03T13:04:50.943Z</time>
      </trkpt>
      <trkpt lat="48.03638" lon="-4.52553">
        <ele>4.6</ele>
        <time>2022-06-03T13:04:54.955Z</time>
      </trkpt>
      <trkpt lat="48.03636" lon="-4.52555">
        <ele>5</ele>
        <time>2022-06-03T13:04:58.954Z</time>
      </trkpt>
      <trkpt lat="48.03635" lon="-4.52558">
        <ele>5.3</ele>
        <time>2022-06-03T13:05:03.956Z</time>
      </trkpt>
      <trkpt lat="48.03635" lon="-4.52562">
        <ele>5.2</ele>
        <time>2022-06-03T13:05:08.945Z</time>
      </trkpt>
      <trkpt lat="48.03635" lon="-4.52566">
        <ele>5</ele>
        <time>2022-06-03T13:05:13.950Z</time>
      </trkpt>
      <trkpt lat="48.03634" lon="-4.52572">
        <ele>5.2</ele>
        <time>2022-06-03T13:05:18.951Z</time>
      </trkpt>
      <trkpt lat="48.03635" lon="-4.52577">
        <ele>4.9</ele>
        <time>2022-06-03T13:05:23.950Z</time>
      </trkpt>
      <trkpt lat="48.03634" lon="-4.5258">
        <ele>4.9</ele>
        <time>2022-06-03T13:05:28.952Z</time>
      </trkpt>
      <trkpt lat="48.03634" lon="-4.52586">
        <ele>4.7</ele>
        <time>2022-06-03T13:05:33.958Z</time>
      </trkpt>
      <trkpt lat="48.03633" lon="-4.5259">
        <ele>4.7</ele>
        <time>2022-06-03T13:05:37.948Z</time>
      </trkpt>
      <trkpt lat="48.03632" lon="-4.52599">
        <ele>4.7</ele>
        <time>2022-06-03T13:05:42.949Z</time>
      </trkpt>
      <trkpt lat="48.0363" lon="-4.52608">
        <ele>4.6</ele>
        <time>2022-06-03T13:05:47.953Z</time>
      </trkpt>
      <trkpt lat="48.03629" lon="-4.52615">
        <ele>5.8</ele>
        <time>2022-06-03T13:05:51.951Z</time>
      </trkpt>
      <trkpt lat="48.03628" lon="-4.52623">
        <ele>7.3</ele>
        <time>2022-06-03T13:05:56.953Z</time>
      </trkpt>
      <trkpt lat="48.03627" lon="-4.5263">
        <ele>8.5</ele>
        <time>2022-06-03T13:06:01.944Z</time>
      </trkpt>
      <trkpt lat="48.03626" lon="-4.52631">
        <ele>8.9</ele>
        <time>2022-06-03T13:06:06.950Z</time>
      </trkpt>
      <trkpt lat="48.03626" lon="-4.52631">
        <ele>8.9</ele>
        <time>2022-06-03T13:06:10.949Z</time>
      </trkpt>
      <trkpt lat="48.03625" lon="-4.52641">
        <ele>11</ele>
        <time>2022-06-03T13:06:15.946Z</time>
      </trkpt>
      <trkpt lat="48.03625" lon="-4.52648">
        <ele>11</ele>
        <time>2022-06-03T13:06:19.942Z</time>
      </trkpt>
      <trkpt lat="48.03624" lon="-4.52652">
        <ele>11</ele>
        <time>2022-06-03T13:06:24.955Z</time>
      </trkpt>
      <trkpt lat="48.03623" lon="-4.52658">
        <ele>10</ele>
        <time>2022-06-03T13:06:29.948Z</time>
      </trkpt>
      <trkpt lat="48.03621" lon="-4.52664">
        <ele>10</ele>
        <time>2022-06-03T13:06:34.948Z</time>
      </trkpt>
      <trkpt lat="48.03619" lon="-4.52671">
        <ele>10</ele>
        <time>2022-06-03T13:06:39.946Z</time>
      </trkpt>
      <trkpt lat="48.03618" lon="-4.52679">
        <ele>10</ele>
        <time>2022-06-03T13:06:44.949Z</time>
      </trkpt>
      <trkpt lat="48.03618" lon="-4.52686">
        <ele>7</ele>
        <time>2022-06-03T13:06:48.949Z</time>
      </trkpt>
      <trkpt lat="48.03618" lon="-4.52692">
        <ele>7</ele>
        <time>2022-06-03T13:06:53.946Z</time>
      </trkpt>
      <trkpt lat="48.03617" lon="-4.52697">
        <ele>7</ele>
        <time>2022-06-03T13:06:58.947Z</time>
      </trkpt>
      <trkpt lat="48.03617" lon="-4.52703">
        <ele>7</ele>
        <time>2022-06-03T13:07:03.959Z</time>
      </trkpt>
      <trkpt lat="48.03615" lon="-4.52708">
        <ele>7</ele>
        <time>2022-06-03T13:07:08.947Z</time>
      </trkpt>
      <trkpt lat="48.03614" lon="-4.52714">
        <ele>5.3</ele>
        <time>2022-06-03T13:07:13.951Z</time>
      </trkpt>
      <trkpt lat="48.03614" lon="-4.52721">
        <ele>5.1</ele>
        <time>2022-06-03T13:07:18.961Z</time>
      </trkpt>
      <trkpt lat="48.03614" lon="-4.52725">
        <ele>4.8</ele>
        <time>2022-06-03T13:07:22.950Z</time>
      </trkpt>
      <trkpt lat="48.03613" lon="-4.52732">
        <ele>4.3</ele>
        <time>2022-06-03T13:07:27.952Z</time>
      </trkpt>
      <trkpt lat="48.03612" lon="-4.52738">
        <ele>3.9</ele>
        <time>2022-06-03T13:07:31.955Z</time>
      </trkpt>
      <trkpt lat="48.03613" lon="-4.52743">
        <ele>3.5</ele>
        <time>2022-06-03T13:07:35.957Z</time>
      </trkpt>
      <trkpt lat="48.03612" lon="-4.52747">
        <ele>3.2</ele>
        <time>2022-06-03T13:07:40.955Z</time>
      </trkpt>
      <trkpt lat="48.03612" lon="-4.52751">
        <ele>3</ele>
        <time>2022-06-03T13:07:45.943Z</time>
      </trkpt>
      <trkpt lat="48.03611" lon="-4.52755">
        <ele>3.1</ele>
        <time>2022-06-03T13:07:49.961Z</time>
      </trkpt>
      <trkpt lat="48.03612" lon="-4.52762">
        <ele>3</ele>
        <time>2022-06-03T13:07:54.939Z</time>
      </trkpt>
      <trkpt lat="48.0361" lon="-4.52762">
        <ele>3.5</ele>
        <time>2022-06-03T13:08:08.942Z</time>
      </trkpt>
      <trkpt lat="48.03612" lon="-4.52762">
        <ele>3</ele>
        <time>2022-06-03T13:08:12.941Z</time>
      </trkpt>
      <trkpt lat="48.03611" lon="-4.52769">
        <ele>3.2</ele>
        <time>2022-06-03T13:08:16.949Z</time>
      </trkpt>
      <trkpt lat="48.0361" lon="-4.52773">
        <ele>3.5</ele>
        <time>2022-06-03T13:08:21.934Z</time>
      </trkpt>
      <trkpt lat="48.03609" lon="-4.52782">
        <ele>3.6</ele>
        <time>2022-06-03T13:08:26.951Z</time>
      </trkpt>
      <trkpt lat="48.03608" lon="-4.52787">
        <ele>4</ele>
        <time>2022-06-03T13:08:31.943Z</time>
      </trkpt>
      <trkpt lat="48.03609" lon="-4.52793">
        <ele>3.3</ele>
        <time>2022-06-03T13:08:36.945Z</time>
      </trkpt>
      <trkpt lat="48.0361" lon="-4.52799">
        <ele>2.9</ele>
        <time>2022-06-03T13:08:40.949Z</time>
      </trkpt>
      <trkpt lat="48.0361" lon="-4.52805">
        <ele>2.6</ele>
        <time>2022-06-03T13:08:45.943Z</time>
      </trkpt>
      <trkpt lat="48.03611" lon="-4.52811">
        <ele>2.1</ele>
        <time>2022-06-03T13:08:50.949Z</time>
      </trkpt>
      <trkpt lat="48.03611" lon="-4.52813">
        <ele>2</ele>
        <time>2022-06-03T13:08:54.960Z</time>
      </trkpt>
      <trkpt lat="48.03612" lon="-4.5282">
        <ele>2</ele>
        <time>2022-06-03T13:08:59.947Z</time>
      </trkpt>
      <trkpt lat="48.03612" lon="-4.52825">
        <ele>2</ele>
        <time>2022-06-03T13:09:04.952Z</time>
      </trkpt>
      <trkpt lat="48.03613" lon="-4.5283">
        <ele>2</ele>
        <time>2022-06-03T13:09:09.959Z</time>
      </trkpt>
      <trkpt lat="48.03612" lon="-4.52837">
        <ele>1.9</ele>
        <time>2022-06-03T13:09:14.959Z</time>
      </trkpt>
      <trkpt lat="48.03611" lon="-4.52841">
        <ele>1.7</ele>
        <time>2022-06-03T13:09:19.942Z</time>
      </trkpt>
      <trkpt lat="48.03612" lon="-4.52845">
        <ele>1.6</ele>
        <time>2022-06-03T13:09:24.949Z</time>
      </trkpt>
      <trkpt lat="48.0361" lon="-4.52851">
        <ele>1.8</ele>
        <time>2022-06-03T13:09:29.947Z</time>
      </trkpt>
      <trkpt lat="48.03608" lon="-4.52856">
        <ele>2.3</ele>
        <time>2022-06-03T13:09:33.948Z</time>
      </trkpt>
      <trkpt lat="48.03606" lon="-4.52859">
        <ele>3.2</ele>
        <time>2022-06-03T13:09:37.945Z</time>
      </trkpt>
      <trkpt lat="48.03604" lon="-4.52865">
        <ele>4.6</ele>
        <time>2022-06-03T13:09:42.940Z</time>
      </trkpt>
      <trkpt lat="48.03603" lon="-4.5287">
        <ele>5.8</ele>
        <time>2022-06-03T13:09:46.948Z</time>
      </trkpt>
      <trkpt lat="48.03602" lon="-4.52874">
        <ele>6.7</ele>
        <time>2022-06-03T13:09:50.949Z</time>
      </trkpt>
      <trkpt lat="48.036" lon="-4.5288">
        <ele>7.7</ele>
        <time>2022-06-03T13:09:55.943Z</time>
      </trkpt>
      <trkpt lat="48.036" lon="-4.52886">
        <ele>8.7</ele>
        <time>2022-06-03T13:09:59.947Z</time>
      </trkpt>
      <trkpt lat="48.03599" lon="-4.52892">
        <ele>8.8</ele>
        <time>2022-06-03T13:10:04.944Z</time>
      </trkpt>
      <trkpt lat="48.03599" lon="-4.52897">
        <ele>8.4</ele>
        <time>2022-06-03T13:10:08.951Z</time>
      </trkpt>
      <trkpt lat="48.03597" lon="-4.52902">
        <ele>5</ele>
        <time>2022-06-03T13:10:13.968Z</time>
      </trkpt>
      <trkpt lat="48.03597" lon="-4.52908">
        <ele>2</ele>
        <time>2022-06-03T13:10:18.950Z</time>
      </trkpt>
      <trkpt lat="48.03595" lon="-4.5292">
        <ele>2</ele>
        <time>2022-06-03T13:10:41.942Z</time>
      </trkpt>
      <trkpt lat="48.03593" lon="-4.5292">
        <ele>2</ele>
        <time>2022-06-03T13:10:46.951Z</time>
      </trkpt>
      <trkpt lat="48.03592" lon="-4.5292">
        <ele>2</ele>
        <time>2022-06-03T13:10:50.996Z</time>
      </trkpt>
      <trkpt lat="48.03591" lon="-4.52922">
        <ele>2</ele>
        <time>2022-06-03T13:10:55.992Z</time>
      </trkpt>
      <trkpt lat="48.03588" lon="-4.52922">
        <ele>2</ele>
        <time>2022-06-03T13:11:00.972Z</time>
      </trkpt>
      <trkpt lat="48.03581" lon="-4.52916">
        <ele>2</ele>
        <time>2022-06-03T13:11:17.983Z</time>
      </trkpt>
      <trkpt lat="48.03579" lon="-4.52915">
        <ele>2</ele>
        <time>2022-06-03T13:11:22.949Z</time>
      </trkpt>
      <trkpt lat="48.03579" lon="-4.52913">
        <ele>2</ele>
        <time>2022-06-03T13:11:26.977Z</time>
      </trkpt>
      <trkpt lat="48.03579" lon="-4.52913">
        <ele>2</ele>
        <time>2022-06-03T13:11:30.972Z</time>
      </trkpt>
      <trkpt lat="48.03576" lon="-4.52912">
        <ele>2</ele>
        <time>2022-06-03T13:11:35.957Z</time>
      </trkpt>
      <trkpt lat="48.03576" lon="-4.52916">
        <ele>2</ele>
        <time>2022-06-03T13:17:14.966Z</time>
      </trkpt>
      <trkpt lat="48.03576" lon="-4.52916">
        <ele>2</ele>
        <time>2022-06-03T13:17:19.946Z</time>
      </trkpt>
      <trkpt lat="48.03576" lon="-4.52916">
        <ele>2</ele>
        <time>2022-06-03T13:17:24.952Z</time>
      </trkpt>
      <trkpt lat="48.03578" lon="-4.52921">
        <ele>2</ele>
        <time>2022-06-03T13:17:27.941Z</time>
      </trkpt>
      <trkpt lat="48.03578" lon="-4.52925">
        <ele>2</ele>
        <time>2022-06-03T13:17:31.951Z</time>
      </trkpt>
      <trkpt lat="48.03579" lon="-4.5293">
        <ele>2</ele>
        <time>2022-06-03T13:17:35.952Z</time>
      </trkpt>
      <trkpt lat="48.03576" lon="-4.52938">
        <ele>1</ele>
        <time>2022-06-03T13:17:40.937Z</time>
      </trkpt>
      <trkpt lat="48.03578" lon="-4.52944">
        <ele>1</ele>
        <time>2022-06-03T13:17:44.949Z</time>
      </trkpt>
      <trkpt lat="48.0358" lon="-4.52949">
        <ele>1</ele>
        <time>2022-06-03T13:17:49.945Z</time>
      </trkpt>
      <trkpt lat="48.03583" lon="-4.52954">
        <ele>1</ele>
        <time>2022-06-03T13:17:53.944Z</time>
      </trkpt>
      <trkpt lat="48.03584" lon="-4.52959">
        <ele>2</ele>
        <time>2022-06-03T13:17:57.951Z</time>
      </trkpt>
      <trkpt lat="48.03582" lon="-4.52966">
        <ele>2</ele>
        <time>2022-06-03T13:18:02.954Z</time>
      </trkpt>
      <trkpt lat="48.03579" lon="-4.52972">
        <ele>2</ele>
        <time>2022-06-03T13:18:07.950Z</time>
      </trkpt>
      <trkpt lat="48.03577" lon="-4.52979">
        <ele>2</ele>
        <time>2022-06-03T13:18:11.997Z</time>
      </trkpt>
      <trkpt lat="48.03575" lon="-4.52989">
        <ele>2</ele>
        <time>2022-06-03T13:18:16.976Z</time>
      </trkpt>
      <trkpt lat="48.03574" lon="-4.52996">
        <ele>2</ele>
        <time>2022-06-03T13:18:21.966Z</time>
      </trkpt>
      <trkpt lat="48.0357" lon="-4.53002">
        <ele>2</ele>
        <time>2022-06-03T13:18:26.953Z</time>
      </trkpt>
      <trkpt lat="48.03567" lon="-4.53008">
        <ele>6</ele>
        <time>2022-06-03T13:18:30.976Z</time>
      </trkpt>
      <trkpt lat="48.03565" lon="-4.53013">
        <ele>6</ele>
        <time>2022-06-03T13:18:34.983Z</time>
      </trkpt>
      <trkpt lat="48.03563" lon="-4.53013">
        <ele>6</ele>
        <time>2022-06-03T13:18:38.979Z</time>
      </trkpt>
      <trkpt lat="48.03557" lon="-4.5302">
        <ele>5</ele>
        <time>2022-06-03T13:18:43.980Z</time>
      </trkpt>
      <trkpt lat="48.03554" lon="-4.53023">
        <ele>5</ele>
        <time>2022-06-03T13:18:47.981Z</time>
      </trkpt>
      <trkpt lat="48.0355" lon="-4.53028">
        <ele>5</ele>
        <time>2022-06-03T13:18:52.960Z</time>
      </trkpt>
      <trkpt lat="48.03547" lon="-4.53032">
        <ele>5</ele>
        <time>2022-06-03T13:18:56.964Z</time>
      </trkpt>
      <trkpt lat="48.03543" lon="-4.53037">
        <ele>5</ele>
        <time>2022-06-03T13:19:00.993Z</time>
      </trkpt>
      <trkpt lat="48.03538" lon="-4.53041">
        <ele>8</ele>
        <time>2022-06-03T13:19:05.976Z</time>
      </trkpt>
      <trkpt lat="48.03533" lon="-4.53046">
        <ele>8</ele>
        <time>2022-06-03T13:19:10.974Z</time>
      </trkpt>
      <trkpt lat="48.0353" lon="-4.53051">
        <ele>8</ele>
        <time>2022-06-03T13:19:14.998Z</time>
      </trkpt>
      <trkpt lat="48.03524" lon="-4.53057">
        <ele>8</ele>
        <time>2022-06-03T13:19:19.989Z</time>
      </trkpt>
      <trkpt lat="48.03521" lon="-4.53063">
        <ele>8</ele>
        <time>2022-06-03T13:19:24.962Z</time>
      </trkpt>
      <trkpt lat="48.03519" lon="-4.53069">
        <ele>8</ele>
        <time>2022-06-03T13:19:28.996Z</time>
      </trkpt>
      <trkpt lat="48.03517" lon="-4.53074">
        <ele>8</ele>
        <time>2022-06-03T13:19:33.946Z</time>
      </trkpt>
      <trkpt lat="48.03516" lon="-4.53076">
        <ele>8</ele>
        <time>2022-06-03T13:19:37.955Z</time>
      </trkpt>
      <trkpt lat="48.03512" lon="-4.53078">
        <ele>10</ele>
        <time>2022-06-03T13:19:41.983Z</time>
      </trkpt>
      <trkpt lat="48.03507" lon="-4.5308">
        <ele>10</ele>
        <time>2022-06-03T13:19:46.985Z</time>
      </trkpt>
      <trkpt lat="48.03502" lon="-4.53086">
        <ele>10</ele>
        <time>2022-06-03T13:19:51.981Z</time>
      </trkpt>
      <trkpt lat="48.03498" lon="-4.5309">
        <ele>10</ele>
        <time>2022-06-03T13:19:55.987Z</time>
      </trkpt>
      <trkpt lat="48.03493" lon="-4.53094">
        <ele>10</ele>
        <time>2022-06-03T13:20:00.997Z</time>
      </trkpt>
      <trkpt lat="48.03487" lon="-4.53099">
        <ele>9</ele>
        <time>2022-06-03T13:20:05.992Z</time>
      </trkpt>
      <trkpt lat="48.03483" lon="-4.53103">
        <ele>10</ele>
        <time>2022-06-03T13:20:09.981Z</time>
      </trkpt>
      <trkpt lat="48.03479" lon="-4.53107">
        <ele>10</ele>
        <time>2022-06-03T13:20:14.993Z</time>
      </trkpt>
      <trkpt lat="48.03474" lon="-4.53114">
        <ele>10</ele>
        <time>2022-06-03T13:20:19.998Z</time>
      </trkpt>
      <trkpt lat="48.0347" lon="-4.53119">
        <ele>10</ele>
        <time>2022-06-03T13:20:24.982Z</time>
      </trkpt>
      <trkpt lat="48.03466" lon="-4.53125">
        <ele>10</ele>
        <time>2022-06-03T13:20:29.995Z</time>
      </trkpt>
      <trkpt lat="48.03462" lon="-4.53128">
        <ele>7</ele>
        <time>2022-06-03T13:20:34.981Z</time>
      </trkpt>
      <trkpt lat="48.03457" lon="-4.53132">
        <ele>10</ele>
        <time>2022-06-03T13:20:38.992Z</time>
      </trkpt>
      <trkpt lat="48.03453" lon="-4.53136">
        <ele>10</ele>
        <time>2022-06-03T13:20:43.989Z</time>
      </trkpt>
      <trkpt lat="48.03448" lon="-4.5314">
        <ele>10</ele>
        <time>2022-06-03T13:20:48.974Z</time>
      </trkpt>
      <trkpt lat="48.03443" lon="-4.53144">
        <ele>10</ele>
        <time>2022-06-03T13:20:52.977Z</time>
      </trkpt>
      <trkpt lat="48.03438" lon="-4.53149">
        <ele>10</ele>
        <time>2022-06-03T13:20:57.955Z</time>
      </trkpt>
      <trkpt lat="48.03433" lon="-4.53152">
        <ele>10</ele>
        <time>2022-06-03T13:21:01.983Z</time>
      </trkpt>
      <trkpt lat="48.03429" lon="-4.53158">
        <ele>10</ele>
        <time>2022-06-03T13:21:06.988Z</time>
      </trkpt>
      <trkpt lat="48.03424" lon="-4.53166">
        <ele>10</ele>
        <time>2022-06-03T13:21:11.991Z</time>
      </trkpt>
      <trkpt lat="48.0342" lon="-4.53171">
        <ele>10</ele>
        <time>2022-06-03T13:21:16.978Z</time>
      </trkpt>
      <trkpt lat="48.03416" lon="-4.53175">
        <ele>10</ele>
        <time>2022-06-03T13:21:20.986Z</time>
      </trkpt>
      <trkpt lat="48.03411" lon="-4.5318">
        <ele>10</ele>
        <time>2022-06-03T13:21:25.984Z</time>
      </trkpt>
      <trkpt lat="48.03406" lon="-4.53189">
        <ele>6</ele>
        <time>2022-06-03T13:21:30.985Z</time>
      </trkpt>
      <trkpt lat="48.03401" lon="-4.53194">
        <ele>10</ele>
        <time>2022-06-03T13:21:35.979Z</time>
      </trkpt>
      <trkpt lat="48.03397" lon="-4.53196">
        <ele>10</ele>
        <time>2022-06-03T13:21:40.959Z</time>
      </trkpt>
      <trkpt lat="48.03391" lon="-4.53197">
        <ele>10</ele>
        <time>2022-06-03T13:21:45.960Z</time>
      </trkpt>
      <trkpt lat="48.03386" lon="-4.53203">
        <ele>10</ele>
        <time>2022-06-03T13:21:50.960Z</time>
      </trkpt>
      <trkpt lat="48.03383" lon="-4.53206">
        <ele>10</ele>
        <time>2022-06-03T13:21:54.972Z</time>
      </trkpt>
      <trkpt lat="48.03378" lon="-4.53211">
        <ele>6</ele>
        <time>2022-06-03T13:21:59.956Z</time>
      </trkpt>
      <trkpt lat="48.03372" lon="-4.53216">
        <ele>10</ele>
        <time>2022-06-03T13:22:04.968Z</time>
      </trkpt>
      <trkpt lat="48.03368" lon="-4.53217">
        <ele>10</ele>
        <time>2022-06-03T13:22:09.959Z</time>
      </trkpt>
      <trkpt lat="48.03364" lon="-4.53215">
        <ele>10</ele>
        <time>2022-06-03T13:23:41.982Z</time>
      </trkpt>
      <trkpt lat="48.03363" lon="-4.53215">
        <ele>10</ele>
        <time>2022-06-03T13:23:46.998Z</time>
      </trkpt>
      <trkpt lat="48.03361" lon="-4.53217">
        <ele>10</ele>
        <time>2022-06-03T13:23:52.011Z</time>
      </trkpt>
      <trkpt lat="48.03358" lon="-4.53219">
        <ele>10</ele>
        <time>2022-06-03T13:23:56.970Z</time>
      </trkpt>
      <trkpt lat="48.03354" lon="-4.53221">
        <ele>10</ele>
        <time>2022-06-03T13:24:01.996Z</time>
      </trkpt>
      <trkpt lat="48.03349" lon="-4.53226">
        <ele>10</ele>
        <time>2022-06-03T13:24:06.982Z</time>
      </trkpt>
      <trkpt lat="48.03346" lon="-4.5323">
        <ele>14</ele>
        <time>2022-06-03T13:24:11.955Z</time>
      </trkpt>
      <trkpt lat="48.03342" lon="-4.53234">
        <ele>14</ele>
        <time>2022-06-03T13:24:15.964Z</time>
      </trkpt>
      <trkpt lat="48.03337" lon="-4.53241">
        <ele>11</ele>
        <time>2022-06-03T13:24:20.979Z</time>
      </trkpt>
      <trkpt lat="48.03334" lon="-4.53244">
        <ele>11</ele>
        <time>2022-06-03T13:24:25.989Z</time>
      </trkpt>
      <trkpt lat="48.0333" lon="-4.5325">
        <ele>11</ele>
        <time>2022-06-03T13:24:30.982Z</time>
      </trkpt>
      <trkpt lat="48.03325" lon="-4.53256">
        <ele>11</ele>
        <time>2022-06-03T13:24:35.993Z</time>
      </trkpt>
      <trkpt lat="48.03321" lon="-4.53261">
        <ele>11</ele>
        <time>2022-06-03T13:24:40.983Z</time>
      </trkpt>
      <trkpt lat="48.03316" lon="-4.53265">
        <ele>13</ele>
        <time>2022-06-03T13:24:45.965Z</time>
      </trkpt>
      <trkpt lat="48.03312" lon="-4.5327">
        <ele>13</ele>
        <time>2022-06-03T13:24:49.973Z</time>
      </trkpt>
      <trkpt lat="48.03308" lon="-4.53276">
        <ele>13</ele>
        <time>2022-06-03T13:24:53.971Z</time>
      </trkpt>
      <trkpt lat="48.03304" lon="-4.5328">
        <ele>13</ele>
        <time>2022-06-03T13:24:58.002Z</time>
      </trkpt>
      <trkpt lat="48.03301" lon="-4.53284">
        <ele>13</ele>
        <time>2022-06-03T13:25:02.993Z</time>
      </trkpt>
      <trkpt lat="48.03295" lon="-4.53288">
        <ele>13</ele>
        <time>2022-06-03T13:25:07.986Z</time>
      </trkpt>
      <trkpt lat="48.03291" lon="-4.53292">
        <ele>13</ele>
        <time>2022-06-03T13:25:12.999Z</time>
      </trkpt>
      <trkpt lat="48.03285" lon="-4.53297">
        <ele>13</ele>
        <time>2022-06-03T13:25:17.978Z</time>
      </trkpt>
      <trkpt lat="48.03281" lon="-4.53298">
        <ele>13</ele>
        <time>2022-06-03T13:25:22.994Z</time>
      </trkpt>
      <trkpt lat="48.03276" lon="-4.533">
        <ele>13</ele>
        <time>2022-06-03T13:25:27.981Z</time>
      </trkpt>
      <trkpt lat="48.03274" lon="-4.53304">
        <ele>13</ele>
        <time>2022-06-03T13:25:31.980Z</time>
      </trkpt>
      <trkpt lat="48.03269" lon="-4.53308">
        <ele>13</ele>
        <time>2022-06-03T13:25:36.986Z</time>
      </trkpt>
      <trkpt lat="48.03265" lon="-4.53311">
        <ele>13</ele>
        <time>2022-06-03T13:25:41.987Z</time>
      </trkpt>
      <trkpt lat="48.03262" lon="-4.53315">
        <ele>13</ele>
        <time>2022-06-03T13:25:46.993Z</time>
      </trkpt>
      <trkpt lat="48.03257" lon="-4.53318">
        <ele>13</ele>
        <time>2022-06-03T13:25:51.984Z</time>
      </trkpt>
      <trkpt lat="48.03254" lon="-4.53322">
        <ele>9</ele>
        <time>2022-06-03T13:25:56.974Z</time>
      </trkpt>
      <trkpt lat="48.03251" lon="-4.53326">
        <ele>9</ele>
        <time>2022-06-03T13:26:01.995Z</time>
      </trkpt>
      <trkpt lat="48.03248" lon="-4.53329">
        <ele>9</ele>
        <time>2022-06-03T13:26:06.991Z</time>
      </trkpt>
      <trkpt lat="48.03244" lon="-4.53331">
        <ele>9</ele>
        <time>2022-06-03T13:26:11.005Z</time>
      </trkpt>
      <trkpt lat="48.03239" lon="-4.53336">
        <ele>9</ele>
        <time>2022-06-03T13:26:15.944Z</time>
      </trkpt>
      <trkpt lat="48.03235" lon="-4.53336">
        <ele>8</ele>
        <time>2022-06-03T13:26:19.995Z</time>
      </trkpt>
      <trkpt lat="48.0323" lon="-4.53338">
        <ele>8</ele>
        <time>2022-06-03T13:26:25Z</time>
      </trkpt>
      <trkpt lat="48.03225" lon="-4.53342">
        <ele>8</ele>
        <time>2022-06-03T13:26:29.977Z</time>
      </trkpt>
      <trkpt lat="48.03219" lon="-4.53345">
        <ele>8</ele>
        <time>2022-06-03T13:26:34.982Z</time>
      </trkpt>
      <trkpt lat="48.03215" lon="-4.53349">
        <ele>6</ele>
        <time>2022-06-03T13:26:39.937Z</time>
      </trkpt>
      <trkpt lat="48.03211" lon="-4.53353">
        <ele>6</ele>
        <time>2022-06-03T13:26:43.967Z</time>
      </trkpt>
      <trkpt lat="48.03206" lon="-4.53356">
        <ele>4</ele>
        <time>2022-06-03T13:26:47.993Z</time>
      </trkpt>
      <trkpt lat="48.032" lon="-4.53359">
        <ele>4</ele>
        <time>2022-06-03T13:26:52.967Z</time>
      </trkpt>
      <trkpt lat="48.03195" lon="-4.5336">
        <ele>4</ele>
        <time>2022-06-03T13:26:56.984Z</time>
      </trkpt>
      <trkpt lat="48.0319" lon="-4.53361">
        <ele>4</ele>
        <time>2022-06-03T13:27:01.982Z</time>
      </trkpt>
      <trkpt lat="48.03185" lon="-4.53359">
        <ele>4</ele>
        <time>2022-06-03T13:27:06.983Z</time>
      </trkpt>
      <trkpt lat="48.0318" lon="-4.53356">
        <ele>1</ele>
        <time>2022-06-03T13:27:11.984Z</time>
      </trkpt>
      <trkpt lat="48.03175" lon="-4.53352">
        <ele>1</ele>
        <time>2022-06-03T13:27:15.999Z</time>
      </trkpt>
      <trkpt lat="48.03171" lon="-4.53346">
        <ele>5</ele>
        <time>2022-06-03T13:27:20.971Z</time>
      </trkpt>
      <trkpt lat="48.03166" lon="-4.53342">
        <ele>5</ele>
        <time>2022-06-03T13:27:24.986Z</time>
      </trkpt>
      <trkpt lat="48.03163" lon="-4.53339">
        <ele>5</ele>
        <time>2022-06-03T13:27:28.978Z</time>
      </trkpt>
      <trkpt lat="48.03159" lon="-4.53334">
        <ele>5</ele>
        <time>2022-06-03T13:27:33.952Z</time>
      </trkpt>
      <trkpt lat="48.03155" lon="-4.53329">
        <ele>5</ele>
        <time>2022-06-03T13:27:38.003Z</time>
      </trkpt>
      <trkpt lat="48.03151" lon="-4.53326">
        <ele>5</ele>
        <time>2022-06-03T13:27:42.985Z</time>
      </trkpt>
      <trkpt lat="48.03149" lon="-4.53327">
        <ele>5</ele>
        <time>2022-06-03T13:27:47.995Z</time>
      </trkpt>
      <trkpt lat="48.03143" lon="-4.53329">
        <ele>5</ele>
        <time>2022-06-03T13:27:52.992Z</time>
      </trkpt>
      <trkpt lat="48.03137" lon="-4.53327">
        <ele>5</ele>
        <time>2022-06-03T13:27:57.986Z</time>
      </trkpt>
      <trkpt lat="48.03134" lon="-4.53323">
        <ele>5</ele>
        <time>2022-06-03T13:28:01.978Z</time>
      </trkpt>
      <trkpt lat="48.03132" lon="-4.53321">
        <ele>5</ele>
        <time>2022-06-03T13:28:07.002Z</time>
      </trkpt>
      <trkpt lat="48.03132" lon="-4.53321">
        <ele>5</ele>
        <time>2022-06-03T13:28:11.007Z</time>
      </trkpt>
      <trkpt lat="48.0313" lon="-4.5332">
        <ele>5</ele>
        <time>2022-06-03T13:28:15.998Z</time>
      </trkpt>
      <trkpt lat="48.03127" lon="-4.53315">
        <ele>6</ele>
        <time>2022-06-03T13:28:20.955Z</time>
      </trkpt>
      <trkpt lat="48.03124" lon="-4.53311">
        <ele>6</ele>
        <time>2022-06-03T13:28:24.971Z</time>
      </trkpt>
      <trkpt lat="48.03119" lon="-4.53306">
        <ele>6</ele>
        <time>2022-06-03T13:28:29.972Z</time>
      </trkpt>
      <trkpt lat="48.03115" lon="-4.53301">
        <ele>6</ele>
        <time>2022-06-03T13:28:34.963Z</time>
      </trkpt>
      <trkpt lat="48.03112" lon="-4.53297">
        <ele>6</ele>
        <time>2022-06-03T13:28:38.966Z</time>
      </trkpt>
      <trkpt lat="48.03107" lon="-4.53294">
        <ele>6</ele>
        <time>2022-06-03T13:28:42.989Z</time>
      </trkpt>
      <trkpt lat="48.03101" lon="-4.5329">
        <ele>7</ele>
        <time>2022-06-03T13:28:47.963Z</time>
      </trkpt>
      <trkpt lat="48.03098" lon="-4.53286">
        <ele>7</ele>
        <time>2022-06-03T13:28:51.982Z</time>
      </trkpt>
      <trkpt lat="48.03097" lon="-4.53282">
        <ele>7</ele>
        <time>2022-06-03T13:28:56.962Z</time>
      </trkpt>
      <trkpt lat="48.03096" lon="-4.5328">
        <ele>7</ele>
        <time>2022-06-03T13:29:00.979Z</time>
      </trkpt>
      <trkpt lat="48.03095" lon="-4.53277">
        <ele>7</ele>
        <time>2022-06-03T13:29:05.978Z</time>
      </trkpt>
      <trkpt lat="48.03088" lon="-4.53269">
        <ele>7</ele>
        <time>2022-06-03T13:30:04.994Z</time>
      </trkpt>
      <trkpt lat="48.03085" lon="-4.53267">
        <ele>7</ele>
        <time>2022-06-03T13:30:09.972Z</time>
      </trkpt>
      <trkpt lat="48.03082" lon="-4.53263">
        <ele>9</ele>
        <time>2022-06-03T13:30:15.003Z</time>
      </trkpt>
      <trkpt lat="48.03078" lon="-4.5326">
        <ele>9</ele>
        <time>2022-06-03T13:30:19.980Z</time>
      </trkpt>
      <trkpt lat="48.03075" lon="-4.53257">
        <ele>9</ele>
        <time>2022-06-03T13:30:23.966Z</time>
      </trkpt>
      <trkpt lat="48.03072" lon="-4.53255">
        <ele>9</ele>
        <time>2022-06-03T13:30:27.995Z</time>
      </trkpt>
      <trkpt lat="48.03066" lon="-4.53252">
        <ele>6</ele>
        <time>2022-06-03T13:30:32.995Z</time>
      </trkpt>
      <trkpt lat="48.03061" lon="-4.53248">
        <ele>6</ele>
        <time>2022-06-03T13:30:36.993Z</time>
      </trkpt>
      <trkpt lat="48.03057" lon="-4.53245">
        <ele>6</ele>
        <time>2022-06-03T13:30:40.990Z</time>
      </trkpt>
      <trkpt lat="48.0305" lon="-4.53241">
        <ele>6</ele>
        <time>2022-06-03T13:30:45.976Z</time>
      </trkpt>
      <trkpt lat="48.03044" lon="-4.53236">
        <ele>6</ele>
        <time>2022-06-03T13:30:50.978Z</time>
      </trkpt>
      <trkpt lat="48.03039" lon="-4.53233">
        <ele>5</ele>
        <time>2022-06-03T13:30:54.996Z</time>
      </trkpt>
      <trkpt lat="48.03033" lon="-4.53229">
        <ele>5</ele>
        <time>2022-06-03T13:30:59.989Z</time>
      </trkpt>
      <trkpt lat="48.03029" lon="-4.53225">
        <ele>5</ele>
        <time>2022-06-03T13:31:04.004Z</time>
      </trkpt>
      <trkpt lat="48.03023" lon="-4.5322">
        <ele>5</ele>
        <time>2022-06-03T13:31:08.987Z</time>
      </trkpt>
      <trkpt lat="48.03017" lon="-4.53215">
        <ele>5</ele>
        <time>2022-06-03T13:31:13.993Z</time>
      </trkpt>
      <trkpt lat="48.03013" lon="-4.53212">
        <ele>8</ele>
        <time>2022-06-03T13:31:18.981Z</time>
      </trkpt>
      <trkpt lat="48.03009" lon="-4.53207">
        <ele>6</ele>
        <time>2022-06-03T13:31:23.980Z</time>
      </trkpt>
      <trkpt lat="48.03006" lon="-4.53204">
        <ele>6</ele>
        <time>2022-06-03T13:31:27.999Z</time>
      </trkpt>
      <trkpt lat="48.03004" lon="-4.53201">
        <ele>6</ele>
        <time>2022-06-03T13:31:33.005Z</time>
      </trkpt>
      <trkpt lat="48.02999" lon="-4.53195">
        <ele>6</ele>
        <time>2022-06-03T13:31:37.995Z</time>
      </trkpt>
      <trkpt lat="48.02995" lon="-4.5319">
        <ele>6</ele>
        <time>2022-06-03T13:31:42.976Z</time>
      </trkpt>
      <trkpt lat="48.02991" lon="-4.53186">
        <ele>6</ele>
        <time>2022-06-03T13:31:47.006Z</time>
      </trkpt>
      <trkpt lat="48.02985" lon="-4.5318">
        <ele>5</ele>
        <time>2022-06-03T13:31:51.965Z</time>
      </trkpt>
      <trkpt lat="48.0298" lon="-4.53176">
        <ele>5</ele>
        <time>2022-06-03T13:31:56.977Z</time>
      </trkpt>
      <trkpt lat="48.02976" lon="-4.53173">
        <ele>5</ele>
        <time>2022-06-03T13:32:01.008Z</time>
      </trkpt>
      <trkpt lat="48.02971" lon="-4.53169">
        <ele>5</ele>
        <time>2022-06-03T13:32:05.984Z</time>
      </trkpt>
      <trkpt lat="48.02966" lon="-4.53163">
        <ele>5</ele>
        <time>2022-06-03T13:32:10.980Z</time>
      </trkpt>
      <trkpt lat="48.02961" lon="-4.53158">
        <ele>5</ele>
        <time>2022-06-03T13:32:15.992Z</time>
      </trkpt>
      <trkpt lat="48.02956" lon="-4.53154">
        <ele>7</ele>
        <time>2022-06-03T13:32:20.959Z</time>
      </trkpt>
      <trkpt lat="48.0295" lon="-4.53151">
        <ele>9</ele>
        <time>2022-06-03T13:32:25.983Z</time>
      </trkpt>
      <trkpt lat="48.02945" lon="-4.53146">
        <ele>9</ele>
        <time>2022-06-03T13:32:30.999Z</time>
      </trkpt>
      <trkpt lat="48.0294" lon="-4.53142">
        <ele>9</ele>
        <time>2022-06-03T13:32:35.989Z</time>
      </trkpt>
      <trkpt lat="48.02938" lon="-4.53141">
        <ele>9</ele>
        <time>2022-06-03T13:32:40.972Z</time>
      </trkpt>
      <trkpt lat="48.02936" lon="-4.53142">
        <ele>9</ele>
        <time>2022-06-03T13:32:45.974Z</time>
      </trkpt>
      <trkpt lat="48.02932" lon="-4.53144">
        <ele>9</ele>
        <time>2022-06-03T13:32:49.982Z</time>
      </trkpt>
      <trkpt lat="48.02926" lon="-4.5314">
        <ele>9</ele>
        <time>2022-06-03T13:32:54.940Z</time>
      </trkpt>
      <trkpt lat="48.02921" lon="-4.53141">
        <ele>9</ele>
        <time>2022-06-03T13:32:58.952Z</time>
      </trkpt>
      <trkpt lat="48.02921" lon="-4.53136">
        <ele>9</ele>
        <time>2022-06-03T13:33:03.940Z</time>
      </trkpt>
      <trkpt lat="48.02917" lon="-4.53132">
        <ele>9</ele>
        <time>2022-06-03T13:33:07.956Z</time>
      </trkpt>
      <trkpt lat="48.02911" lon="-4.53126">
        <ele>9</ele>
        <time>2022-06-03T13:33:12.946Z</time>
      </trkpt>
      <trkpt lat="48.02911" lon="-4.53124">
        <ele>12</ele>
        <time>2022-06-03T13:33:16.949Z</time>
      </trkpt>
      <trkpt lat="48.02911" lon="-4.53121">
        <ele>12</ele>
        <time>2022-06-03T13:33:21.956Z</time>
      </trkpt>
      <trkpt lat="48.02907" lon="-4.53116">
        <ele>12</ele>
        <time>2022-06-03T13:33:26.950Z</time>
      </trkpt>
      <trkpt lat="48.029" lon="-4.53112">
        <ele>11</ele>
        <time>2022-06-03T13:33:31.969Z</time>
      </trkpt>
      <trkpt lat="48.02895" lon="-4.53108">
        <ele>11</ele>
        <time>2022-06-03T13:33:36.948Z</time>
      </trkpt>
      <trkpt lat="48.0289" lon="-4.53104">
        <ele>11</ele>
        <time>2022-06-03T13:33:41.946Z</time>
      </trkpt>
      <trkpt lat="48.02887" lon="-4.53101">
        <ele>11</ele>
        <time>2022-06-03T13:33:46.943Z</time>
      </trkpt>
      <trkpt lat="48.02883" lon="-4.53101">
        <ele>11</ele>
        <time>2022-06-03T13:33:51.951Z</time>
      </trkpt>
      <trkpt lat="48.02878" lon="-4.531">
        <ele>11</ele>
        <time>2022-06-03T13:33:56.947Z</time>
      </trkpt>
      <trkpt lat="48.0287" lon="-4.53099">
        <ele>12</ele>
        <time>2022-06-03T13:34:01.958Z</time>
      </trkpt>
      <trkpt lat="48.02864" lon="-4.53097">
        <ele>14</ele>
        <time>2022-06-03T13:34:06.954Z</time>
      </trkpt>
      <trkpt lat="48.02861" lon="-4.53096">
        <ele>14</ele>
        <time>2022-06-03T13:34:11.940Z</time>
      </trkpt>
      <trkpt lat="48.0286" lon="-4.53096">
        <ele>14</ele>
        <time>2022-06-03T13:34:16.956Z</time>
      </trkpt>
      <trkpt lat="48.02856" lon="-4.53093">
        <ele>14</ele>
        <time>2022-06-03T13:34:21.940Z</time>
      </trkpt>
      <trkpt lat="48.02851" lon="-4.53092">
        <ele>14</ele>
        <time>2022-06-03T13:34:26.951Z</time>
      </trkpt>
      <trkpt lat="48.02848" lon="-4.53087">
        <ele>14</ele>
        <time>2022-06-03T13:34:31.949Z</time>
      </trkpt>
      <trkpt lat="48.02845" lon="-4.53084">
        <ele>14</ele>
        <time>2022-06-03T13:34:36.953Z</time>
      </trkpt>
      <trkpt lat="48.02844" lon="-4.5308">
        <ele>14</ele>
        <time>2022-06-03T13:34:40.955Z</time>
      </trkpt>
      <trkpt lat="48.0284" lon="-4.53077">
        <ele>14</ele>
        <time>2022-06-03T13:34:45.957Z</time>
      </trkpt>
      <trkpt lat="48.02833" lon="-4.53076">
        <ele>14</ele>
        <time>2022-06-03T13:34:50.958Z</time>
      </trkpt>
      <trkpt lat="48.02822" lon="-4.53073">
        <ele>14</ele>
        <time>2022-06-03T13:37:05.953Z</time>
      </trkpt>
      <trkpt lat="48.02822" lon="-4.53073">
        <ele>14</ele>
        <time>2022-06-03T13:37:09.957Z</time>
      </trkpt>
      <trkpt lat="48.02821" lon="-4.53074">
        <ele>14</ele>
        <time>2022-06-03T13:37:14.949Z</time>
      </trkpt>
      <trkpt lat="48.02821" lon="-4.53075">
        <ele>14</ele>
        <time>2022-06-03T13:37:19.937Z</time>
      </trkpt>
      <trkpt lat="48.02821" lon="-4.53075">
        <ele>14</ele>
        <time>2022-06-03T13:37:23.946Z</time>
      </trkpt>
      <trkpt lat="48.0282" lon="-4.53072">
        <ele>14</ele>
        <time>2022-06-03T13:39:58.996Z</time>
      </trkpt>
      <trkpt lat="48.02817" lon="-4.53071">
        <ele>11</ele>
        <time>2022-06-03T13:40:03.974Z</time>
      </trkpt>
      <trkpt lat="48.02814" lon="-4.5307">
        <ele>11</ele>
        <time>2022-06-03T13:40:08.957Z</time>
      </trkpt>
      <trkpt lat="48.02812" lon="-4.53071">
        <ele>11</ele>
        <time>2022-06-03T13:40:12.994Z</time>
      </trkpt>
      <trkpt lat="48.0281" lon="-4.53072">
        <ele>11</ele>
        <time>2022-06-03T13:40:17.998Z</time>
      </trkpt>
      <trkpt lat="48.02806" lon="-4.53073">
        <ele>11</ele>
        <time>2022-06-03T13:40:21.998Z</time>
      </trkpt>
      <trkpt lat="48.02801" lon="-4.53072">
        <ele>11</ele>
        <time>2022-06-03T13:40:26.979Z</time>
      </trkpt>
      <trkpt lat="48.02798" lon="-4.53074">
        <ele>11</ele>
        <time>2022-06-03T13:40:31.005Z</time>
      </trkpt>
      <trkpt lat="48.02793" lon="-4.53075">
        <ele>11</ele>
        <time>2022-06-03T13:40:35.986Z</time>
      </trkpt>
      <trkpt lat="48.02788" lon="-4.53078">
        <ele>13</ele>
        <time>2022-06-03T13:40:40.974Z</time>
      </trkpt>
      <trkpt lat="48.02784" lon="-4.53079">
        <ele>13</ele>
        <time>2022-06-03T13:40:44.984Z</time>
      </trkpt>
      <trkpt lat="48.0278" lon="-4.53081">
        <ele>13</ele>
        <time>2022-06-03T13:40:49.979Z</time>
      </trkpt>
      <trkpt lat="48.02777" lon="-4.53082">
        <ele>13</ele>
        <time>2022-06-03T13:40:54.977Z</time>
      </trkpt>
      <trkpt lat="48.02775" lon="-4.53082">
        <ele>13</ele>
        <time>2022-06-03T13:40:58.989Z</time>
      </trkpt>
      <trkpt lat="48.02772" lon="-4.53084">
        <ele>13</ele>
        <time>2022-06-03T13:41:03.943Z</time>
      </trkpt>
      <trkpt lat="48.02768" lon="-4.53093">
        <ele>13</ele>
        <time>2022-06-03T13:41:08.936Z</time>
      </trkpt>
      <trkpt lat="48.02765" lon="-4.53097">
        <ele>13</ele>
        <time>2022-06-03T13:41:12.945Z</time>
      </trkpt>
      <trkpt lat="48.0276" lon="-4.53108">
        <ele>16</ele>
        <time>2022-06-03T13:41:29.988Z</time>
      </trkpt>
      <trkpt lat="48.0276" lon="-4.53108">
        <ele>16</ele>
        <time>2022-06-03T13:41:34.967Z</time>
      </trkpt>
      <trkpt lat="48.0276" lon="-4.53108">
        <ele>16</ele>
        <time>2022-06-03T13:41:38.982Z</time>
      </trkpt>
      <trkpt lat="48.02758" lon="-4.53111">
        <ele>16</ele>
        <time>2022-06-03T13:41:43.987Z</time>
      </trkpt>
      <trkpt lat="48.02753" lon="-4.53116">
        <ele>16</ele>
        <time>2022-06-03T13:41:48.987Z</time>
      </trkpt>
      <trkpt lat="48.02751" lon="-4.53119">
        <ele>16</ele>
        <time>2022-06-03T13:41:53.966Z</time>
      </trkpt>
      <trkpt lat="48.02748" lon="-4.53121">
        <ele>16</ele>
        <time>2022-06-03T13:41:57.982Z</time>
      </trkpt>
      <trkpt lat="48.02745" lon="-4.53125">
        <ele>14</ele>
        <time>2022-06-03T13:42:02.975Z</time>
      </trkpt>
      <trkpt lat="48.02743" lon="-4.53129">
        <ele>14</ele>
        <time>2022-06-03T13:42:07.960Z</time>
      </trkpt>
      <trkpt lat="48.02739" lon="-4.53132">
        <ele>14</ele>
        <time>2022-06-03T13:42:12.978Z</time>
      </trkpt>
      <trkpt lat="48.02738" lon="-4.53135">
        <ele>14</ele>
        <time>2022-06-03T13:42:16.983Z</time>
      </trkpt>
      <trkpt lat="48.02737" lon="-4.53137">
        <ele>14</ele>
        <time>2022-06-03T13:42:21.005Z</time>
      </trkpt>
      <trkpt lat="48.02732" lon="-4.53139">
        <ele>22</ele>
        <time>2022-06-03T13:42:25.989Z</time>
      </trkpt>
      <trkpt lat="48.02729" lon="-4.53139">
        <ele>22</ele>
        <time>2022-06-03T13:42:30.996Z</time>
      </trkpt>
      <trkpt lat="48.02726" lon="-4.5314">
        <ele>22</ele>
        <time>2022-06-03T13:42:35.964Z</time>
      </trkpt>
      <trkpt lat="48.02723" lon="-4.53141">
        <ele>22</ele>
        <time>2022-06-03T13:42:39.980Z</time>
      </trkpt>
      <trkpt lat="48.0272" lon="-4.53143">
        <ele>22</ele>
        <time>2022-06-03T13:42:43.987Z</time>
      </trkpt>
      <trkpt lat="48.02716" lon="-4.53146">
        <ele>22</ele>
        <time>2022-06-03T13:42:48.991Z</time>
      </trkpt>
      <trkpt lat="48.02711" lon="-4.53152">
        <ele>22</ele>
        <time>2022-06-03T13:42:53.990Z</time>
      </trkpt>
      <trkpt lat="48.02707" lon="-4.53159">
        <ele>24</ele>
        <time>2022-06-03T13:42:58.995Z</time>
      </trkpt>
      <trkpt lat="48.02703" lon="-4.53165">
        <ele>24</ele>
        <time>2022-06-03T13:43:03.978Z</time>
      </trkpt>
      <trkpt lat="48.027" lon="-4.53174">
        <ele>24</ele>
        <time>2022-06-03T13:43:08.999Z</time>
      </trkpt>
      <trkpt lat="48.02695" lon="-4.53183">
        <ele>19</ele>
        <time>2022-06-03T13:43:13.993Z</time>
      </trkpt>
      <trkpt lat="48.02691" lon="-4.5319">
        <ele>19</ele>
        <time>2022-06-03T13:43:18.972Z</time>
      </trkpt>
      <trkpt lat="48.02687" lon="-4.53196">
        <ele>19</ele>
        <time>2022-06-03T13:43:23.981Z</time>
      </trkpt>
      <trkpt lat="48.02684" lon="-4.53201">
        <ele>19</ele>
        <time>2022-06-03T13:43:29Z</time>
      </trkpt>
      <trkpt lat="48.02682" lon="-4.53206">
        <ele>19</ele>
        <time>2022-06-03T13:43:33.012Z</time>
      </trkpt>
      <trkpt lat="48.0268" lon="-4.53214">
        <ele>18</ele>
        <time>2022-06-03T13:43:37.985Z</time>
      </trkpt>
      <trkpt lat="48.02676" lon="-4.5322">
        <ele>18</ele>
        <time>2022-06-03T13:43:43.005Z</time>
      </trkpt>
      <trkpt lat="48.02671" lon="-4.53224">
        <ele>18</ele>
        <time>2022-06-03T13:43:47.990Z</time>
      </trkpt>
      <trkpt lat="48.02662" lon="-4.5323">
        <ele>18</ele>
        <time>2022-06-03T13:44:05.946Z</time>
      </trkpt>
      <trkpt lat="48.02663" lon="-4.53234">
        <ele>18</ele>
        <time>2022-06-03T13:44:10.943Z</time>
      </trkpt>
      <trkpt lat="48.02664" lon="-4.53235">
        <ele>18</ele>
        <time>2022-06-03T13:44:14.958Z</time>
      </trkpt>
      <trkpt lat="48.02661" lon="-4.53236">
        <ele>18</ele>
        <time>2022-06-03T13:44:19.946Z</time>
      </trkpt>
      <trkpt lat="48.0266" lon="-4.53234">
        <ele>18</ele>
        <time>2022-06-03T13:44:23.949Z</time>
      </trkpt>
      <trkpt lat="48.02658" lon="-4.53243">
        <ele>14</ele>
        <time>2022-06-03T13:45:11.946Z</time>
      </trkpt>
      <trkpt lat="48.02659" lon="-4.53246">
        <ele>14</ele>
        <time>2022-06-03T13:45:15.949Z</time>
      </trkpt>
      <trkpt lat="48.02661" lon="-4.53246">
        <ele>14</ele>
        <time>2022-06-03T13:45:19.946Z</time>
      </trkpt>
      <trkpt lat="48.02661" lon="-4.53247">
        <ele>14</ele>
        <time>2022-06-03T13:45:24.942Z</time>
      </trkpt>
      <trkpt lat="48.0266" lon="-4.53249">
        <ele>14</ele>
        <time>2022-06-03T13:45:28.993Z</time>
      </trkpt>
      <trkpt lat="48.02663" lon="-4.53254">
        <ele>14</ele>
        <time>2022-06-03T13:45:55.981Z</time>
      </trkpt>
      <trkpt lat="48.02663" lon="-4.53256">
        <ele>14</ele>
        <time>2022-06-03T13:46:00.989Z</time>
      </trkpt>
      <trkpt lat="48.02663" lon="-4.53259">
        <ele>14</ele>
        <time>2022-06-03T13:46:05.972Z</time>
      </trkpt>
      <trkpt lat="48.02663" lon="-4.53261">
        <ele>14</ele>
        <time>2022-06-03T13:46:09.981Z</time>
      </trkpt>
      <trkpt lat="48.02663" lon="-4.53262">
        <ele>14</ele>
        <time>2022-06-03T13:46:14.010Z</time>
      </trkpt>
      <trkpt lat="48.02663" lon="-4.53264">
        <ele>9</ele>
        <time>2022-06-03T13:46:18.997Z</time>
      </trkpt>
      <trkpt lat="48.02663" lon="-4.53267">
        <ele>9</ele>
        <time>2022-06-03T13:46:23.978Z</time>
      </trkpt>
      <trkpt lat="48.02659" lon="-4.5327">
        <ele>9</ele>
        <time>2022-06-03T13:46:28.979Z</time>
      </trkpt>
      <trkpt lat="48.02657" lon="-4.53272">
        <ele>9</ele>
        <time>2022-06-03T13:46:32.984Z</time>
      </trkpt>
      <trkpt lat="48.02654" lon="-4.53272">
        <ele>9</ele>
        <time>2022-06-03T13:46:37.993Z</time>
      </trkpt>
      <trkpt lat="48.02652" lon="-4.53273">
        <ele>6</ele>
        <time>2022-06-03T13:46:42.993Z</time>
      </trkpt>
      <trkpt lat="48.0265" lon="-4.53276">
        <ele>6</ele>
        <time>2022-06-03T13:46:47.001Z</time>
      </trkpt>
      <trkpt lat="48.02649" lon="-4.5328">
        <ele>6</ele>
        <time>2022-06-03T13:46:51.987Z</time>
      </trkpt>
      <trkpt lat="48.02646" lon="-4.5328">
        <ele>6</ele>
        <time>2022-06-03T13:46:55.962Z</time>
      </trkpt>
      <trkpt lat="48.02642" lon="-4.53279">
        <ele>6</ele>
        <time>2022-06-03T13:47:00.962Z</time>
      </trkpt>
      <trkpt lat="48.02639" lon="-4.53277">
        <ele>6</ele>
        <time>2022-06-03T13:47:04.989Z</time>
      </trkpt>
      <trkpt lat="48.02635" lon="-4.53274">
        <ele>6</ele>
        <time>2022-06-03T13:47:09.978Z</time>
      </trkpt>
      <trkpt lat="48.02631" lon="-4.53271">
        <ele>6</ele>
        <time>2022-06-03T13:47:15.009Z</time>
      </trkpt>
      <trkpt lat="48.02628" lon="-4.53269">
        <ele>6</ele>
        <time>2022-06-03T13:47:19.961Z</time>
      </trkpt>
      <trkpt lat="48.02625" lon="-4.53264">
        <ele>6</ele>
        <time>2022-06-03T13:47:24.986Z</time>
      </trkpt>
      <trkpt lat="48.02623" lon="-4.5326">
        <ele>8</ele>
        <time>2022-06-03T13:47:28.988Z</time>
      </trkpt>
      <trkpt lat="48.0262" lon="-4.53256">
        <ele>8</ele>
        <time>2022-06-03T13:47:32.973Z</time>
      </trkpt>
      <trkpt lat="48.02615" lon="-4.53253">
        <ele>8</ele>
        <time>2022-06-03T13:47:37.977Z</time>
      </trkpt>
      <trkpt lat="48.02614" lon="-4.53253">
        <ele>8</ele>
        <time>2022-06-03T13:47:41.986Z</time>
      </trkpt>
      <trkpt lat="48.0261" lon="-4.53251">
        <ele>8</ele>
        <time>2022-06-03T13:47:46.983Z</time>
      </trkpt>
      <trkpt lat="48.02607" lon="-4.53251">
        <ele>8</ele>
        <time>2022-06-03T13:47:51.977Z</time>
      </trkpt>
      <trkpt lat="48.02607" lon="-4.53249">
        <ele>8</ele>
        <time>2022-06-03T13:47:55.978Z</time>
      </trkpt>
      <trkpt lat="48.02605" lon="-4.53246">
        <ele>8</ele>
        <time>2022-06-03T13:47:59.982Z</time>
      </trkpt>
      <trkpt lat="48.02605" lon="-4.53245">
        <ele>8</ele>
        <time>2022-06-03T13:48:04.979Z</time>
      </trkpt>
      <trkpt lat="48.02606" lon="-4.5324">
        <ele>8</ele>
        <time>2022-06-03T13:48:09.971Z</time>
      </trkpt>
      <trkpt lat="48.02606" lon="-4.53237">
        <ele>8</ele>
        <time>2022-06-03T13:48:13.979Z</time>
      </trkpt>
      <trkpt lat="48.02607" lon="-4.53234">
        <ele>14</ele>
        <time>2022-06-03T13:48:17.984Z</time>
      </trkpt>
      <trkpt lat="48.02606" lon="-4.53229">
        <ele>14</ele>
        <time>2022-06-03T13:48:22.945Z</time>
      </trkpt>
      <trkpt lat="48.02598" lon="-4.53222">
        <ele>14</ele>
        <time>2022-06-03T13:48:36.934Z</time>
      </trkpt>
      <trkpt lat="48.026" lon="-4.53215">
        <ele>14</ele>
        <time>2022-06-03T13:48:41.939Z</time>
      </trkpt>
      <trkpt lat="48.02601" lon="-4.53212">
        <ele>14</ele>
        <time>2022-06-03T13:48:46.952Z</time>
      </trkpt>
      <trkpt lat="48.02604" lon="-4.53208">
        <ele>18</ele>
        <time>2022-06-03T13:48:51.937Z</time>
      </trkpt>
      <trkpt lat="48.02606" lon="-4.53206">
        <ele>18</ele>
        <time>2022-06-03T13:48:55.953Z</time>
      </trkpt>
      <trkpt lat="48.02607" lon="-4.53202">
        <ele>18</ele>
        <time>2022-06-03T13:48:59.950Z</time>
      </trkpt>
      <trkpt lat="48.02611" lon="-4.53195">
        <ele>18</ele>
        <time>2022-06-03T13:49:04.940Z</time>
      </trkpt>
      <trkpt lat="48.02612" lon="-4.53189">
        <ele>18</ele>
        <time>2022-06-03T13:49:08.940Z</time>
      </trkpt>
      <trkpt lat="48.02611" lon="-4.53185">
        <ele>18</ele>
        <time>2022-06-03T13:49:12.964Z</time>
      </trkpt>
      <trkpt lat="48.02608" lon="-4.53179">
        <ele>20</ele>
        <time>2022-06-03T13:49:17.942Z</time>
      </trkpt>
      <trkpt lat="48.02606" lon="-4.53176">
        <ele>20</ele>
        <time>2022-06-03T13:49:21.952Z</time>
      </trkpt>
      <trkpt lat="48.02605" lon="-4.53172">
        <ele>20</ele>
        <time>2022-06-03T13:49:26.959Z</time>
      </trkpt>
      <trkpt lat="48.02601" lon="-4.53168">
        <ele>20</ele>
        <time>2022-06-03T13:49:31.953Z</time>
      </trkpt>
      <trkpt lat="48.02598" lon="-4.53165">
        <ele>20</ele>
        <time>2022-06-03T13:49:35.943Z</time>
      </trkpt>
      <trkpt lat="48.02596" lon="-4.53163">
        <ele>17</ele>
        <time>2022-06-03T13:49:40.950Z</time>
      </trkpt>
      <trkpt lat="48.02595" lon="-4.5316">
        <ele>17</ele>
        <time>2022-06-03T13:49:44.967Z</time>
      </trkpt>
      <trkpt lat="48.02596" lon="-4.53159">
        <ele>17</ele>
        <time>2022-06-03T13:49:49.967Z</time>
      </trkpt>
      <trkpt lat="48.02592" lon="-4.53151">
        <ele>20</ele>
        <time>2022-06-03T13:49:54.972Z</time>
      </trkpt>
      <trkpt lat="48.02591" lon="-4.53142">
        <ele>20</ele>
        <time>2022-06-03T13:49:58.981Z</time>
      </trkpt>
      <trkpt lat="48.02583" lon="-4.5313">
        <ele>20</ele>
        <time>2022-06-03T13:50:02.989Z</time>
      </trkpt>
      <trkpt lat="48.0258" lon="-4.53123">
        <ele>23</ele>
        <time>2022-06-03T13:50:07.960Z</time>
      </trkpt>
      <trkpt lat="48.02577" lon="-4.53117">
        <ele>23</ele>
        <time>2022-06-03T13:50:12.964Z</time>
      </trkpt>
      <trkpt lat="48.02575" lon="-4.5311">
        <ele>23</ele>
        <time>2022-06-03T13:50:21.989Z</time>
      </trkpt>
      <trkpt lat="48.02575" lon="-4.53107">
        <ele>23</ele>
        <time>2022-06-03T13:50:26.970Z</time>
      </trkpt>
      <trkpt lat="48.02574" lon="-4.53104">
        <ele>23</ele>
        <time>2022-06-03T13:50:31.942Z</time>
      </trkpt>
      <trkpt lat="48.02574" lon="-4.53101">
        <ele>23</ele>
        <time>2022-06-03T13:50:35.976Z</time>
      </trkpt>
      <trkpt lat="48.02573" lon="-4.53095">
        <ele>25</ele>
        <time>2022-06-03T13:50:40.961Z</time>
      </trkpt>
      <trkpt lat="48.02572" lon="-4.53092">
        <ele>25</ele>
        <time>2022-06-03T13:50:44.966Z</time>
      </trkpt>
      <trkpt lat="48.02572" lon="-4.5309">
        <ele>25</ele>
        <time>2022-06-03T13:50:50.004Z</time>
      </trkpt>
      <trkpt lat="48.02569" lon="-4.53087">
        <ele>24</ele>
        <time>2022-06-03T13:50:54.985Z</time>
      </trkpt>
      <trkpt lat="48.02567" lon="-4.5308">
        <ele>24</ele>
        <time>2022-06-03T13:50:59.944Z</time>
      </trkpt>
      <trkpt lat="48.02562" lon="-4.53074">
        <ele>24</ele>
        <time>2022-06-03T13:51:17.963Z</time>
      </trkpt>
      <trkpt lat="48.02561" lon="-4.53074">
        <ele>24</ele>
        <time>2022-06-03T13:51:22.962Z</time>
      </trkpt>
      <trkpt lat="48.02561" lon="-4.53074">
        <ele>24</ele>
        <time>2022-06-03T13:51:26.973Z</time>
      </trkpt>
      <trkpt lat="48.02558" lon="-4.53072">
        <ele>24</ele>
        <time>2022-06-03T13:51:31.975Z</time>
      </trkpt>
      <trkpt lat="48.02555" lon="-4.5307">
        <ele>24</ele>
        <time>2022-06-03T13:51:35.983Z</time>
      </trkpt>
      <trkpt lat="48.02549" lon="-4.53069">
        <ele>26</ele>
        <time>2022-06-03T13:51:40.990Z</time>
      </trkpt>
      <trkpt lat="48.02545" lon="-4.5307">
        <ele>24</ele>
        <time>2022-06-03T13:51:44.987Z</time>
      </trkpt>
      <trkpt lat="48.02541" lon="-4.53074">
        <ele>28</ele>
        <time>2022-06-03T13:51:49.965Z</time>
      </trkpt>
      <trkpt lat="48.02536" lon="-4.53078">
        <ele>28</ele>
        <time>2022-06-03T13:51:54.967Z</time>
      </trkpt>
      <trkpt lat="48.02531" lon="-4.53081">
        <ele>28</ele>
        <time>2022-06-03T13:52:04.967Z</time>
      </trkpt>
      <trkpt lat="48.02529" lon="-4.53081">
        <ele>28</ele>
        <time>2022-06-03T13:52:09.962Z</time>
      </trkpt>
      <trkpt lat="48.02528" lon="-4.5308">
        <ele>28</ele>
        <time>2022-06-03T13:52:13.987Z</time>
      </trkpt>
      <trkpt lat="48.02527" lon="-4.53079">
        <ele>28</ele>
        <time>2022-06-03T13:52:18.984Z</time>
      </trkpt>
      <trkpt lat="48.02525" lon="-4.53079">
        <ele>28</ele>
        <time>2022-06-03T13:52:23.977Z</time>
      </trkpt>
      <trkpt lat="48.02522" lon="-4.53078">
        <ele>28</ele>
        <time>2022-06-03T13:52:28.976Z</time>
      </trkpt>
      <trkpt lat="48.0252" lon="-4.53076">
        <ele>28</ele>
        <time>2022-06-03T13:52:32.985Z</time>
      </trkpt>
      <trkpt lat="48.02517" lon="-4.53076">
        <ele>28</ele>
        <time>2022-06-03T13:52:37.969Z</time>
      </trkpt>
      <trkpt lat="48.02514" lon="-4.53072">
        <ele>28</ele>
        <time>2022-06-03T13:52:41.980Z</time>
      </trkpt>
      <trkpt lat="48.02513" lon="-4.5307">
        <ele>35</ele>
        <time>2022-06-03T13:52:46.960Z</time>
      </trkpt>
      <trkpt lat="48.02511" lon="-4.53069">
        <ele>36</ele>
        <time>2022-06-03T13:52:55.965Z</time>
      </trkpt>
      <trkpt lat="48.02509" lon="-4.53068">
        <ele>36</ele>
        <time>2022-06-03T13:53:00.962Z</time>
      </trkpt>
      <trkpt lat="48.02508" lon="-4.53066">
        <ele>36</ele>
        <time>2022-06-03T13:53:04.978Z</time>
      </trkpt>
      <trkpt lat="48.02505" lon="-4.53063">
        <ele>36</ele>
        <time>2022-06-03T13:53:09.952Z</time>
      </trkpt>
      <trkpt lat="48.02503" lon="-4.53062">
        <ele>36</ele>
        <time>2022-06-03T13:53:13.998Z</time>
      </trkpt>
      <trkpt lat="48.02499" lon="-4.53061">
        <ele>36</ele>
        <time>2022-06-03T13:53:18.983Z</time>
      </trkpt>
      <trkpt lat="48.02495" lon="-4.53061">
        <ele>36</ele>
        <time>2022-06-03T13:53:23.975Z</time>
      </trkpt>
      <trkpt lat="48.02491" lon="-4.5306">
        <ele>36</ele>
        <time>2022-06-03T13:53:27.973Z</time>
      </trkpt>
      <trkpt lat="48.02488" lon="-4.53059">
        <ele>36</ele>
        <time>2022-06-03T13:53:32.012Z</time>
      </trkpt>
      <trkpt lat="48.02485" lon="-4.53053">
        <ele>40</ele>
        <time>2022-06-03T13:53:36.952Z</time>
      </trkpt>
      <trkpt lat="48.02483" lon="-4.53047">
        <ele>40</ele>
        <time>2022-06-03T13:53:40.961Z</time>
      </trkpt>
      <trkpt lat="48.02482" lon="-4.53042">
        <ele>40</ele>
        <time>2022-06-03T13:53:45.945Z</time>
      </trkpt>
      <trkpt lat="48.02483" lon="-4.53039">
        <ele>40</ele>
        <time>2022-06-03T13:53:49.960Z</time>
      </trkpt>
      <trkpt lat="48.02482" lon="-4.53032">
        <ele>40</ele>
        <time>2022-06-03T13:53:54.955Z</time>
      </trkpt>
      <trkpt lat="48.0248" lon="-4.53026">
        <ele>40</ele>
        <time>2022-06-03T13:53:58.986Z</time>
      </trkpt>
      <trkpt lat="48.02478" lon="-4.53022">
        <ele>40</ele>
        <time>2022-06-03T13:54:03.980Z</time>
      </trkpt>
      <trkpt lat="48.02476" lon="-4.53016">
        <ele>40</ele>
        <time>2022-06-03T13:54:08.945Z</time>
      </trkpt>
      <trkpt lat="48.02474" lon="-4.53013">
        <ele>40</ele>
        <time>2022-06-03T13:54:12.970Z</time>
      </trkpt>
      <trkpt lat="48.02471" lon="-4.53007">
        <ele>40</ele>
        <time>2022-06-03T13:54:17.958Z</time>
      </trkpt>
      <trkpt lat="48.02467" lon="-4.53003">
        <ele>40</ele>
        <time>2022-06-03T13:54:21.967Z</time>
      </trkpt>
      <trkpt lat="48.02464" lon="-4.52999">
        <ele>40</ele>
        <time>2022-06-03T13:54:26.964Z</time>
      </trkpt>
      <trkpt lat="48.02462" lon="-4.52992">
        <ele>40</ele>
        <time>2022-06-03T13:54:31.966Z</time>
      </trkpt>
      <trkpt lat="48.02457" lon="-4.52983">
        <ele>41</ele>
        <time>2022-06-03T13:54:36.971Z</time>
      </trkpt>
      <trkpt lat="48.02453" lon="-4.52974">
        <ele>41</ele>
        <time>2022-06-03T13:54:41.943Z</time>
      </trkpt>
      <trkpt lat="48.02447" lon="-4.52968">
        <ele>41</ele>
        <time>2022-06-03T13:54:46.949Z</time>
      </trkpt>
      <trkpt lat="48.02444" lon="-4.52963">
        <ele>41</ele>
        <time>2022-06-03T13:54:50.953Z</time>
      </trkpt>
      <trkpt lat="48.02441" lon="-4.52957">
        <ele>41</ele>
        <time>2022-06-03T13:54:54.974Z</time>
      </trkpt>
      <trkpt lat="48.02438" lon="-4.52952">
        <ele>41</ele>
        <time>2022-06-03T13:54:59.965Z</time>
      </trkpt>
      <trkpt lat="48.02436" lon="-4.52946">
        <ele>41</ele>
        <time>2022-06-03T13:55:04.956Z</time>
      </trkpt>
      <trkpt lat="48.02433" lon="-4.52941">
        <ele>41</ele>
        <time>2022-06-03T13:55:08.965Z</time>
      </trkpt>
      <trkpt lat="48.0243" lon="-4.52935">
        <ele>41</ele>
        <time>2022-06-03T13:55:13.957Z</time>
      </trkpt>
      <trkpt lat="48.02427" lon="-4.52931">
        <ele>41</ele>
        <time>2022-06-03T13:55:17.966Z</time>
      </trkpt>
      <trkpt lat="48.02425" lon="-4.52927">
        <ele>41</ele>
        <time>2022-06-03T13:55:22.004Z</time>
      </trkpt>
      <trkpt lat="48.02423" lon="-4.52915">
        <ele>41</ele>
        <time>2022-06-03T13:55:41.975Z</time>
      </trkpt>
      <trkpt lat="48.02423" lon="-4.52915">
        <ele>41</ele>
        <time>2022-06-03T13:55:47.012Z</time>
      </trkpt>
      <trkpt lat="48.02424" lon="-4.52911">
        <ele>41</ele>
        <time>2022-06-03T13:55:51.978Z</time>
      </trkpt>
      <trkpt lat="48.02427" lon="-4.52908">
        <ele>41</ele>
        <time>2022-06-03T13:55:56.981Z</time>
      </trkpt>
      <trkpt lat="48.0243" lon="-4.52905">
        <ele>41</ele>
        <time>2022-06-03T13:56:01.973Z</time>
      </trkpt>
      <trkpt lat="48.02432" lon="-4.52901">
        <ele>42</ele>
        <time>2022-06-03T13:56:05.968Z</time>
      </trkpt>
      <trkpt lat="48.02437" lon="-4.52894">
        <ele>42</ele>
        <time>2022-06-03T13:56:10.990Z</time>
      </trkpt>
      <trkpt lat="48.0244" lon="-4.52889">
        <ele>42</ele>
        <time>2022-06-03T13:56:14.988Z</time>
      </trkpt>
      <trkpt lat="48.02444" lon="-4.52884">
        <ele>42</ele>
        <time>2022-06-03T13:56:19.961Z</time>
      </trkpt>
      <trkpt lat="48.02447" lon="-4.5288">
        <ele>42</ele>
        <time>2022-06-03T13:56:23.984Z</time>
      </trkpt>
      <trkpt lat="48.02451" lon="-4.52875">
        <ele>42</ele>
        <time>2022-06-03T13:56:28.995Z</time>
      </trkpt>
      <trkpt lat="48.02456" lon="-4.52872">
        <ele>43</ele>
        <time>2022-06-03T13:56:33.984Z</time>
      </trkpt>
      <trkpt lat="48.0246" lon="-4.52869">
        <ele>42</ele>
        <time>2022-06-03T13:56:37.996Z</time>
      </trkpt>
      <trkpt lat="48.02464" lon="-4.52865">
        <ele>42</ele>
        <time>2022-06-03T13:56:42.989Z</time>
      </trkpt>
      <trkpt lat="48.02467" lon="-4.5286">
        <ele>42</ele>
        <time>2022-06-03T13:56:47.990Z</time>
      </trkpt>
      <trkpt lat="48.0247" lon="-4.52857">
        <ele>42</ele>
        <time>2022-06-03T13:56:51.994Z</time>
      </trkpt>
      <trkpt lat="48.02471" lon="-4.52856">
        <ele>42</ele>
        <time>2022-06-03T13:56:56.958Z</time>
      </trkpt>
    </trkseg>
  </trk>
</gpx>